<?xml version="1.0" encoding="UTF-8"?>
<gpx version="1.1" creator="https://www.youtrack.es" xsi:schemaLocation="http://www.topografix.com/GPX/1/1 http://www.topografix.com/GPX/1/1/gpx.xsd http://www.garmin.com/xmlschemas/GpxExtensions/v3 http://www.garmin.com/xmlschemas/GpxExtensionsv3.xsd http://www.garmin.com/xmlschemas/TrackPointExtension/v1 http://www.garmin.com/xmlschemas/TrackPointExtensionv1.xsd" xmlns:gpxtpx="http://www.garmin.com/xmlschemas/TrackPointExtension/v1" xmlns:gpxx="http://www.garmin.com/xmlschemas/GpxExtensions/v3" xmlns:xsi="http://www.w3.org/2001/XMLSchema-instance">
  <metadata>
    <link href="https://www.youtrack.es">
      <text>YouTrack.es</text>
    </link>
    <time>2026-05-09T01:05:45Z</time>
  </metadata>
  <trk>
    <src>https://www.youtrack.es</src>
    <link href="https://www.youtrack.es/ruta/17951-vuelta-a--el-picacho-por-puerto-galiz--">
      <text>YouTrack.es</text>
    </link>
    <trkseg>
      <trkpt lat="36.6781290" lon="-6.1375080">
        <ele>59.6</ele>
        <time>2020-12-08T07:56:04Z</time>
      </trkpt>
      <trkpt lat="36.6781580" lon="-6.1377360">
        <ele>59.0</ele>
        <time>2020-12-08T07:56:08Z</time>
      </trkpt>
      <trkpt lat="36.6781790" lon="-6.1378520">
        <ele>58.6</ele>
        <time>2020-12-08T07:56:10Z</time>
      </trkpt>
      <trkpt lat="36.6782750" lon="-6.1382500">
        <ele>57.6</ele>
        <time>2020-12-08T07:56:16Z</time>
      </trkpt>
      <trkpt lat="36.6782940" lon="-6.1383260">
        <ele>57.2</ele>
        <time>2020-12-08T07:56:17Z</time>
      </trkpt>
      <trkpt lat="36.6783910" lon="-6.1388200">
        <ele>55.8</ele>
        <time>2020-12-08T07:56:23Z</time>
      </trkpt>
      <trkpt lat="36.6783940" lon="-6.1390870">
        <ele>54.8</ele>
        <time>2020-12-08T07:56:26Z</time>
      </trkpt>
      <trkpt lat="36.6783890" lon="-6.1392670">
        <ele>53.8</ele>
        <time>2020-12-08T07:56:28Z</time>
      </trkpt>
      <trkpt lat="36.6783840" lon="-6.1393550">
        <ele>53.4</ele>
        <time>2020-12-08T07:56:29Z</time>
      </trkpt>
      <trkpt lat="36.6783820" lon="-6.1396170">
        <ele>52.6</ele>
        <time>2020-12-08T07:56:32Z</time>
      </trkpt>
      <trkpt lat="36.6783810" lon="-6.1400690">
        <ele>52.0</ele>
        <time>2020-12-08T07:56:37Z</time>
      </trkpt>
      <trkpt lat="36.6783840" lon="-6.1403540">
        <ele>51.6</ele>
        <time>2020-12-08T07:56:40Z</time>
      </trkpt>
      <trkpt lat="36.6783710" lon="-6.1407740">
        <ele>50.4</ele>
        <time>2020-12-08T07:56:44Z</time>
      </trkpt>
      <trkpt lat="36.6783800" lon="-6.1410030">
        <ele>49.2</ele>
        <time>2020-12-08T07:56:46Z</time>
      </trkpt>
      <trkpt lat="36.6784190" lon="-6.1413620">
        <ele>47.6</ele>
        <time>2020-12-08T07:56:49Z</time>
      </trkpt>
      <trkpt lat="36.6784730" lon="-6.1417380">
        <ele>46.4</ele>
        <time>2020-12-08T07:56:52Z</time>
      </trkpt>
      <trkpt lat="36.6785060" lon="-6.1419920">
        <ele>45.0</ele>
        <time>2020-12-08T07:56:54Z</time>
      </trkpt>
      <trkpt lat="36.6785200" lon="-6.1421190">
        <ele>44.0</ele>
        <time>2020-12-08T07:56:55Z</time>
      </trkpt>
      <trkpt lat="36.6785360" lon="-6.1422450">
        <ele>43.0</ele>
        <time>2020-12-08T07:56:56Z</time>
      </trkpt>
      <trkpt lat="36.6785550" lon="-6.1423670">
        <ele>42.2</ele>
        <time>2020-12-08T07:56:57Z</time>
      </trkpt>
      <trkpt lat="36.6785880" lon="-6.1425980">
        <ele>41.0</ele>
        <time>2020-12-08T07:56:59Z</time>
      </trkpt>
      <trkpt lat="36.6786010" lon="-6.1426970">
        <ele>40.4</ele>
        <time>2020-12-08T07:57:00Z</time>
      </trkpt>
      <trkpt lat="36.6786100" lon="-6.1427810">
        <ele>39.8</ele>
        <time>2020-12-08T07:57:01Z</time>
      </trkpt>
      <trkpt lat="36.6786270" lon="-6.1429010">
        <ele>38.4</ele>
        <time>2020-12-08T07:57:03Z</time>
      </trkpt>
      <trkpt lat="36.6786820" lon="-6.1430250">
        <ele>37.6</ele>
        <time>2020-12-08T07:57:07Z</time>
      </trkpt>
      <trkpt lat="36.6787070" lon="-6.1431540">
        <ele>37.4</ele>
        <time>2020-12-08T07:57:10Z</time>
      </trkpt>
      <trkpt lat="36.6786880" lon="-6.1431980">
        <ele>37.4</ele>
        <time>2020-12-08T07:57:11Z</time>
      </trkpt>
      <trkpt lat="36.6786600" lon="-6.1432460">
        <ele>37.2</ele>
        <time>2020-12-08T07:57:12Z</time>
      </trkpt>
      <trkpt lat="36.6785610" lon="-6.1434290">
        <ele>37.0</ele>
        <time>2020-12-08T07:57:15Z</time>
      </trkpt>
      <trkpt lat="36.6783960" lon="-6.1438040">
        <ele>36.8</ele>
        <time>2020-12-08T07:57:20Z</time>
      </trkpt>
      <trkpt lat="36.6783780" lon="-6.1438800">
        <ele>36.6</ele>
        <time>2020-12-08T07:57:21Z</time>
      </trkpt>
      <trkpt lat="36.6783590" lon="-6.1439460">
        <ele>36.2</ele>
        <time>2020-12-08T07:57:22Z</time>
      </trkpt>
      <trkpt lat="36.6783290" lon="-6.1440000">
        <ele>35.6</ele>
        <time>2020-12-08T07:57:23Z</time>
      </trkpt>
      <trkpt lat="36.6782890" lon="-6.1440470">
        <ele>35.2</ele>
        <time>2020-12-08T07:57:24Z</time>
      </trkpt>
      <trkpt lat="36.6782130" lon="-6.1441500">
        <ele>34.4</ele>
        <time>2020-12-08T07:57:26Z</time>
      </trkpt>
      <trkpt lat="36.6781260" lon="-6.1443360">
        <ele>33.2</ele>
        <time>2020-12-08T07:57:29Z</time>
      </trkpt>
      <trkpt lat="36.6781370" lon="-6.1445480">
        <ele>32.8</ele>
        <time>2020-12-08T07:57:32Z</time>
      </trkpt>
      <trkpt lat="36.6780360" lon="-6.1447040">
        <ele>32.2</ele>
        <time>2020-12-08T07:57:35Z</time>
      </trkpt>
      <trkpt lat="36.6779830" lon="-6.1447130">
        <ele>31.8</ele>
        <time>2020-12-08T07:57:36Z</time>
      </trkpt>
      <trkpt lat="36.6778840" lon="-6.1446590">
        <ele>31.4</ele>
        <time>2020-12-08T07:57:38Z</time>
      </trkpt>
      <trkpt lat="36.6777840" lon="-6.1444780">
        <ele>31.4</ele>
        <time>2020-12-08T07:57:41Z</time>
      </trkpt>
      <trkpt lat="36.6777460" lon="-6.1444140">
        <ele>31.2</ele>
        <time>2020-12-08T07:57:42Z</time>
      </trkpt>
      <trkpt lat="36.6776450" lon="-6.1443100">
        <ele>31.2</ele>
        <time>2020-12-08T07:57:44Z</time>
      </trkpt>
      <trkpt lat="36.6775320" lon="-6.1442300">
        <ele>31.2</ele>
        <time>2020-12-08T07:57:46Z</time>
      </trkpt>
      <trkpt lat="36.6773160" lon="-6.1440330">
        <ele>31.0</ele>
        <time>2020-12-08T07:57:50Z</time>
      </trkpt>
      <trkpt lat="36.6771610" lon="-6.1438570">
        <ele>30.8</ele>
        <time>2020-12-08T07:57:53Z</time>
      </trkpt>
      <trkpt lat="36.6769800" lon="-6.1436990">
        <ele>30.4</ele>
        <time>2020-12-08T07:57:56Z</time>
      </trkpt>
      <trkpt lat="36.6769130" lon="-6.1436600">
        <ele>30.4</ele>
        <time>2020-12-08T07:57:57Z</time>
      </trkpt>
      <trkpt lat="36.6767690" lon="-6.1436230">
        <ele>30.0</ele>
        <time>2020-12-08T07:57:59Z</time>
      </trkpt>
      <trkpt lat="36.6766910" lon="-6.1436150">
        <ele>29.8</ele>
        <time>2020-12-08T07:58:00Z</time>
      </trkpt>
      <trkpt lat="36.6763150" lon="-6.1435470">
        <ele>29.2</ele>
        <time>2020-12-08T07:58:05Z</time>
      </trkpt>
      <trkpt lat="36.6761590" lon="-6.1435550">
        <ele>28.6</ele>
        <time>2020-12-08T07:58:07Z</time>
      </trkpt>
      <trkpt lat="36.6760120" lon="-6.1435880">
        <ele>28.2</ele>
        <time>2020-12-08T07:58:09Z</time>
      </trkpt>
      <trkpt lat="36.6758690" lon="-6.1436270">
        <ele>27.6</ele>
        <time>2020-12-08T07:58:11Z</time>
      </trkpt>
      <trkpt lat="36.6754980" lon="-6.1437060">
        <ele>26.6</ele>
        <time>2020-12-08T07:58:16Z</time>
      </trkpt>
      <trkpt lat="36.6753450" lon="-6.1437440">
        <ele>26.4</ele>
        <time>2020-12-08T07:58:18Z</time>
      </trkpt>
      <trkpt lat="36.6748150" lon="-6.1438580">
        <ele>25.4</ele>
        <time>2020-12-08T07:58:25Z</time>
      </trkpt>
      <trkpt lat="36.6746640" lon="-6.1438900">
        <ele>25.0</ele>
        <time>2020-12-08T07:58:27Z</time>
      </trkpt>
      <trkpt lat="36.6743560" lon="-6.1439620">
        <ele>24.4</ele>
        <time>2020-12-08T07:58:31Z</time>
      </trkpt>
      <trkpt lat="36.6741960" lon="-6.1439970">
        <ele>24.0</ele>
        <time>2020-12-08T07:58:33Z</time>
      </trkpt>
      <trkpt lat="36.6739640" lon="-6.1440470">
        <ele>23.2</ele>
        <time>2020-12-08T07:58:36Z</time>
      </trkpt>
      <trkpt lat="36.6738120" lon="-6.1440740">
        <ele>23.0</ele>
        <time>2020-12-08T07:58:38Z</time>
      </trkpt>
      <trkpt lat="36.6733680" lon="-6.1441720">
        <ele>22.2</ele>
        <time>2020-12-08T07:58:44Z</time>
      </trkpt>
      <trkpt lat="36.6732200" lon="-6.1442010">
        <ele>21.6</ele>
        <time>2020-12-08T07:58:46Z</time>
      </trkpt>
      <trkpt lat="36.6729310" lon="-6.1442620">
        <ele>21.0</ele>
        <time>2020-12-08T07:58:50Z</time>
      </trkpt>
      <trkpt lat="36.6725640" lon="-6.1442940">
        <ele>20.2</ele>
        <time>2020-12-08T07:58:55Z</time>
      </trkpt>
      <trkpt lat="36.6724180" lon="-6.1442660">
        <ele>20.0</ele>
        <time>2020-12-08T07:58:57Z</time>
      </trkpt>
      <trkpt lat="36.6721990" lon="-6.1442150">
        <ele>19.8</ele>
        <time>2020-12-08T07:59:00Z</time>
      </trkpt>
      <trkpt lat="36.6719770" lon="-6.1442080">
        <ele>19.6</ele>
        <time>2020-12-08T07:59:03Z</time>
      </trkpt>
      <trkpt lat="36.6719080" lon="-6.1442260">
        <ele>19.6</ele>
        <time>2020-12-08T07:59:04Z</time>
      </trkpt>
      <trkpt lat="36.6717350" lon="-6.1443580">
        <ele>19.4</ele>
        <time>2020-12-08T07:59:07Z</time>
      </trkpt>
      <trkpt lat="36.6716400" lon="-6.1444770">
        <ele>18.4</ele>
        <time>2020-12-08T07:59:09Z</time>
      </trkpt>
      <trkpt lat="36.6714410" lon="-6.1447080">
        <ele>18.0</ele>
        <time>2020-12-08T07:59:13Z</time>
      </trkpt>
      <trkpt lat="36.6711430" lon="-6.1450510">
        <ele>17.4</ele>
        <time>2020-12-08T07:59:19Z</time>
      </trkpt>
      <trkpt lat="36.6709500" lon="-6.1452720">
        <ele>17.2</ele>
        <time>2020-12-08T07:59:23Z</time>
      </trkpt>
      <trkpt lat="36.6705850" lon="-6.1456820">
        <ele>17.0</ele>
        <time>2020-12-08T07:59:31Z</time>
      </trkpt>
      <trkpt lat="36.6704900" lon="-6.1459130">
        <ele>17.0</ele>
        <time>2020-12-08T07:59:35Z</time>
      </trkpt>
      <trkpt lat="36.6704570" lon="-6.1460240">
        <ele>17.0</ele>
        <time>2020-12-08T07:59:37Z</time>
      </trkpt>
      <trkpt lat="36.6704040" lon="-6.1461100">
        <ele>17.0</ele>
        <time>2020-12-08T07:59:39Z</time>
      </trkpt>
      <trkpt lat="36.6702860" lon="-6.1461740">
        <ele>17.2</ele>
        <time>2020-12-08T07:59:42Z</time>
      </trkpt>
      <trkpt lat="36.6702410" lon="-6.1461870">
        <ele>17.2</ele>
        <time>2020-12-08T07:59:43Z</time>
      </trkpt>
      <trkpt lat="36.6701530" lon="-6.1462310">
        <ele>17.2</ele>
        <time>2020-12-08T07:59:45Z</time>
      </trkpt>
      <trkpt lat="36.6700350" lon="-6.1463400">
        <ele>17.2</ele>
        <time>2020-12-08T07:59:48Z</time>
      </trkpt>
      <trkpt lat="36.6696740" lon="-6.1467520">
        <ele>17.2</ele>
        <time>2020-12-08T07:59:58Z</time>
      </trkpt>
      <trkpt lat="36.6692850" lon="-6.1471960">
        <ele>18.2</ele>
        <time>2020-12-08T08:00:09Z</time>
      </trkpt>
      <trkpt lat="36.6691850" lon="-6.1473200">
        <ele>18.4</ele>
        <time>2020-12-08T08:00:12Z</time>
      </trkpt>
      <trkpt lat="36.6690830" lon="-6.1475150">
        <ele>18.6</ele>
        <time>2020-12-08T08:00:16Z</time>
      </trkpt>
      <trkpt lat="36.6689450" lon="-6.1476160">
        <ele>18.8</ele>
        <time>2020-12-08T08:00:20Z</time>
      </trkpt>
      <trkpt lat="36.6688690" lon="-6.1475790">
        <ele>19.0</ele>
        <time>2020-12-08T08:00:24Z</time>
      </trkpt>
      <trkpt lat="36.6688600" lon="-6.1475360">
        <ele>19.4</ele>
        <time>2020-12-08T08:00:27Z</time>
      </trkpt>
      <trkpt lat="36.6688610" lon="-6.1474890">
        <ele>19.6</ele>
        <time>2020-12-08T08:00:29Z</time>
      </trkpt>
      <trkpt lat="36.6688620" lon="-6.1474600">
        <ele>19.6</ele>
        <time>2020-12-08T08:00:30Z</time>
      </trkpt>
      <trkpt lat="36.6688410" lon="-6.1473210">
        <ele>20.2</ele>
        <time>2020-12-08T08:00:34Z</time>
      </trkpt>
      <trkpt lat="36.6687350" lon="-6.1471320">
        <ele>20.6</ele>
        <time>2020-12-08T08:00:39Z</time>
      </trkpt>
      <trkpt lat="36.6684960" lon="-6.1468120">
        <ele>20.4</ele>
        <time>2020-12-08T08:00:46Z</time>
      </trkpt>
      <trkpt lat="36.6681630" lon="-6.1463650">
        <ele>19.2</ele>
        <time>2020-12-08T08:00:55Z</time>
      </trkpt>
      <trkpt lat="36.6677860" lon="-6.1458370">
        <ele>19.0</ele>
        <time>2020-12-08T08:01:05Z</time>
      </trkpt>
      <trkpt lat="36.6677520" lon="-6.1457820">
        <ele>19.0</ele>
        <time>2020-12-08T08:01:06Z</time>
      </trkpt>
      <trkpt lat="36.6674990" lon="-6.1453030">
        <ele>19.2</ele>
        <time>2020-12-08T08:01:14Z</time>
      </trkpt>
      <trkpt lat="36.6673300" lon="-6.1448580">
        <ele>18.8</ele>
        <time>2020-12-08T08:01:21Z</time>
      </trkpt>
      <trkpt lat="36.6672470" lon="-6.1445830">
        <ele>18.6</ele>
        <time>2020-12-08T08:01:25Z</time>
      </trkpt>
      <trkpt lat="36.6672110" lon="-6.1444410">
        <ele>18.4</ele>
        <time>2020-12-08T08:01:27Z</time>
      </trkpt>
      <trkpt lat="36.6671420" lon="-6.1441580">
        <ele>18.2</ele>
        <time>2020-12-08T08:01:31Z</time>
      </trkpt>
      <trkpt lat="36.6670810" lon="-6.1440340">
        <ele>18.2</ele>
        <time>2020-12-08T08:01:33Z</time>
      </trkpt>
      <trkpt lat="36.6670230" lon="-6.1438410">
        <ele>18.2</ele>
        <time>2020-12-08T08:01:36Z</time>
      </trkpt>
      <trkpt lat="36.6670520" lon="-6.1436990">
        <ele>18.2</ele>
        <time>2020-12-08T08:01:38Z</time>
      </trkpt>
      <trkpt lat="36.6670680" lon="-6.1436270">
        <ele>18.2</ele>
        <time>2020-12-08T08:01:39Z</time>
      </trkpt>
      <trkpt lat="36.6670700" lon="-6.1433110">
        <ele>18.2</ele>
        <time>2020-12-08T08:01:43Z</time>
      </trkpt>
      <trkpt lat="36.6670530" lon="-6.1426290">
        <ele>17.8</ele>
        <time>2020-12-08T08:01:51Z</time>
      </trkpt>
      <trkpt lat="36.6670340" lon="-6.1420560">
        <ele>16.8</ele>
        <time>2020-12-08T08:01:58Z</time>
      </trkpt>
      <trkpt lat="36.6670330" lon="-6.1419770">
        <ele>16.8</ele>
        <time>2020-12-08T08:01:59Z</time>
      </trkpt>
      <trkpt lat="36.6670190" lon="-6.1416700">
        <ele>16.8</ele>
        <time>2020-12-08T08:02:03Z</time>
      </trkpt>
      <trkpt lat="36.6670170" lon="-6.1414460">
        <ele>16.8</ele>
        <time>2020-12-08T08:02:06Z</time>
      </trkpt>
      <trkpt lat="36.6670230" lon="-6.1407560">
        <ele>17.4</ele>
        <time>2020-12-08T08:02:15Z</time>
      </trkpt>
      <trkpt lat="36.6670240" lon="-6.1405980">
        <ele>17.4</ele>
        <time>2020-12-08T08:02:17Z</time>
      </trkpt>
      <trkpt lat="36.6670140" lon="-6.1399140">
        <ele>17.2</ele>
        <time>2020-12-08T08:02:25Z</time>
      </trkpt>
      <trkpt lat="36.6670160" lon="-6.1398260">
        <ele>17.2</ele>
        <time>2020-12-08T08:02:26Z</time>
      </trkpt>
      <trkpt lat="36.6670330" lon="-6.1395730">
        <ele>17.2</ele>
        <time>2020-12-08T08:02:29Z</time>
      </trkpt>
      <trkpt lat="36.6670770" lon="-6.1394220">
        <ele>16.8</ele>
        <time>2020-12-08T08:02:31Z</time>
      </trkpt>
      <trkpt lat="36.6672550" lon="-6.1391900">
        <ele>16.6</ele>
        <time>2020-12-08T08:02:35Z</time>
      </trkpt>
      <trkpt lat="36.6675150" lon="-6.1391180">
        <ele>16.4</ele>
        <time>2020-12-08T08:02:39Z</time>
      </trkpt>
      <trkpt lat="36.6679940" lon="-6.1391120">
        <ele>15.6</ele>
        <time>2020-12-08T08:02:46Z</time>
      </trkpt>
      <trkpt lat="36.6684110" lon="-6.1391130">
        <ele>14.6</ele>
        <time>2020-12-08T08:02:53Z</time>
      </trkpt>
      <trkpt lat="36.6684660" lon="-6.1391140">
        <ele>14.4</ele>
        <time>2020-12-08T08:02:54Z</time>
      </trkpt>
      <trkpt lat="36.6685720" lon="-6.1391070">
        <ele>14.4</ele>
        <time>2020-12-08T08:02:56Z</time>
      </trkpt>
      <trkpt lat="36.6686610" lon="-6.1390380">
        <ele>14.4</ele>
        <time>2020-12-08T08:02:58Z</time>
      </trkpt>
      <trkpt lat="36.6687560" lon="-6.1387800">
        <ele>14.4</ele>
        <time>2020-12-08T08:03:02Z</time>
      </trkpt>
      <trkpt lat="36.6687690" lon="-6.1386280">
        <ele>14.8</ele>
        <time>2020-12-08T08:03:04Z</time>
      </trkpt>
      <trkpt lat="36.6687680" lon="-6.1383890">
        <ele>15.0</ele>
        <time>2020-12-08T08:03:07Z</time>
      </trkpt>
      <trkpt lat="36.6687470" lon="-6.1376440">
        <ele>15.2</ele>
        <time>2020-12-08T08:03:16Z</time>
      </trkpt>
      <trkpt lat="36.6687450" lon="-6.1375600">
        <ele>15.2</ele>
        <time>2020-12-08T08:03:17Z</time>
      </trkpt>
      <trkpt lat="36.6687280" lon="-6.1368750">
        <ele>15.0</ele>
        <time>2020-12-08T08:03:25Z</time>
      </trkpt>
      <trkpt lat="36.6687280" lon="-6.1367890">
        <ele>15.0</ele>
        <time>2020-12-08T08:03:26Z</time>
      </trkpt>
      <trkpt lat="36.6687290" lon="-6.1362010">
        <ele>14.4</ele>
        <time>2020-12-08T08:03:33Z</time>
      </trkpt>
      <trkpt lat="36.6687120" lon="-6.1355180">
        <ele>14.2</ele>
        <time>2020-12-08T08:03:41Z</time>
      </trkpt>
      <trkpt lat="36.6687070" lon="-6.1352550">
        <ele>14.2</ele>
        <time>2020-12-08T08:03:44Z</time>
      </trkpt>
      <trkpt lat="36.6686920" lon="-6.1345530">
        <ele>14.0</ele>
        <time>2020-12-08T08:03:52Z</time>
      </trkpt>
      <trkpt lat="36.6686850" lon="-6.1341130">
        <ele>13.8</ele>
        <time>2020-12-08T08:03:57Z</time>
      </trkpt>
      <trkpt lat="36.6686820" lon="-6.1336730">
        <ele>13.6</ele>
        <time>2020-12-08T08:04:02Z</time>
      </trkpt>
      <trkpt lat="36.6686720" lon="-6.1332290">
        <ele>13.6</ele>
        <time>2020-12-08T08:04:07Z</time>
      </trkpt>
      <trkpt lat="36.6686490" lon="-6.1328650">
        <ele>13.4</ele>
        <time>2020-12-08T08:04:11Z</time>
      </trkpt>
      <trkpt lat="36.6685890" lon="-6.1327020">
        <ele>13.4</ele>
        <time>2020-12-08T08:04:13Z</time>
      </trkpt>
      <trkpt lat="36.6684840" lon="-6.1324770">
        <ele>13.4</ele>
        <time>2020-12-08T08:04:16Z</time>
      </trkpt>
      <trkpt lat="36.6684580" lon="-6.1323160">
        <ele>13.2</ele>
        <time>2020-12-08T08:04:18Z</time>
      </trkpt>
      <trkpt lat="36.6685400" lon="-6.1321080">
        <ele>13.2</ele>
        <time>2020-12-08T08:04:21Z</time>
      </trkpt>
      <trkpt lat="36.6687700" lon="-6.1319640">
        <ele>13.0</ele>
        <time>2020-12-08T08:04:25Z</time>
      </trkpt>
      <trkpt lat="36.6688600" lon="-6.1317660">
        <ele>13.0</ele>
        <time>2020-12-08T08:04:28Z</time>
      </trkpt>
      <trkpt lat="36.6690690" lon="-6.1311990">
        <ele>13.4</ele>
        <time>2020-12-08T08:04:36Z</time>
      </trkpt>
      <trkpt lat="36.6692160" lon="-6.1306810">
        <ele>13.8</ele>
        <time>2020-12-08T08:04:43Z</time>
      </trkpt>
      <trkpt lat="36.6692010" lon="-6.1302130">
        <ele>14.2</ele>
        <time>2020-12-08T08:04:49Z</time>
      </trkpt>
      <trkpt lat="36.6691340" lon="-6.1298230">
        <ele>14.6</ele>
        <time>2020-12-08T08:04:54Z</time>
      </trkpt>
      <trkpt lat="36.6690850" lon="-6.1295110">
        <ele>15.4</ele>
        <time>2020-12-08T08:04:58Z</time>
      </trkpt>
      <trkpt lat="36.6690220" lon="-6.1291300">
        <ele>15.6</ele>
        <time>2020-12-08T08:05:03Z</time>
      </trkpt>
      <trkpt lat="36.6690030" lon="-6.1289810">
        <ele>15.8</ele>
        <time>2020-12-08T08:05:05Z</time>
      </trkpt>
      <trkpt lat="36.6689950" lon="-6.1288350">
        <ele>15.8</ele>
        <time>2020-12-08T08:05:07Z</time>
      </trkpt>
      <trkpt lat="36.6689890" lon="-6.1286850">
        <ele>16.0</ele>
        <time>2020-12-08T08:05:09Z</time>
      </trkpt>
      <trkpt lat="36.6690150" lon="-6.1283780">
        <ele>16.2</ele>
        <time>2020-12-08T08:05:13Z</time>
      </trkpt>
      <trkpt lat="36.6690400" lon="-6.1282250">
        <ele>16.6</ele>
        <time>2020-12-08T08:05:15Z</time>
      </trkpt>
      <trkpt lat="36.6691370" lon="-6.1275640">
        <ele>17.0</ele>
        <time>2020-12-08T08:05:24Z</time>
      </trkpt>
      <trkpt lat="36.6692590" lon="-6.1269330">
        <ele>17.6</ele>
        <time>2020-12-08T08:05:33Z</time>
      </trkpt>
      <trkpt lat="36.6692680" lon="-6.1268730">
        <ele>17.8</ele>
        <time>2020-12-08T08:05:34Z</time>
      </trkpt>
      <trkpt lat="36.6693050" lon="-6.1266090">
        <ele>18.8</ele>
        <time>2020-12-08T08:05:39Z</time>
      </trkpt>
      <trkpt lat="36.6693160" lon="-6.1265670">
        <ele>18.8</ele>
        <time>2020-12-08T08:05:40Z</time>
      </trkpt>
      <trkpt lat="36.6693290" lon="-6.1264070">
        <ele>19.6</ele>
        <time>2020-12-08T08:05:45Z</time>
      </trkpt>
      <trkpt lat="36.6693340" lon="-6.1263120">
        <ele>20.0</ele>
        <time>2020-12-08T08:05:48Z</time>
      </trkpt>
      <trkpt lat="36.6693530" lon="-6.1261080">
        <ele>20.8</ele>
        <time>2020-12-08T08:05:53Z</time>
      </trkpt>
      <trkpt lat="36.6693990" lon="-6.1258560">
        <ele>21.0</ele>
        <time>2020-12-08T08:05:58Z</time>
      </trkpt>
      <trkpt lat="36.6694260" lon="-6.1257550">
        <ele>21.2</ele>
        <time>2020-12-08T08:06:00Z</time>
      </trkpt>
      <trkpt lat="36.6694580" lon="-6.1255750">
        <ele>21.2</ele>
        <time>2020-12-08T08:06:04Z</time>
      </trkpt>
      <trkpt lat="36.6695130" lon="-6.1253130">
        <ele>21.6</ele>
        <time>2020-12-08T08:06:10Z</time>
      </trkpt>
      <trkpt lat="36.6695450" lon="-6.1252050">
        <ele>22.0</ele>
        <time>2020-12-08T08:06:13Z</time>
      </trkpt>
      <trkpt lat="36.6696010" lon="-6.1250030">
        <ele>23.4</ele>
        <time>2020-12-08T08:06:19Z</time>
      </trkpt>
      <trkpt lat="36.6696500" lon="-6.1248350">
        <ele>24.4</ele>
        <time>2020-12-08T08:06:24Z</time>
      </trkpt>
      <trkpt lat="36.6696840" lon="-6.1247400">
        <ele>25.0</ele>
        <time>2020-12-08T08:06:27Z</time>
      </trkpt>
      <trkpt lat="36.6697090" lon="-6.1246800">
        <ele>25.6</ele>
        <time>2020-12-08T08:06:29Z</time>
      </trkpt>
      <trkpt lat="36.6697760" lon="-6.1245430">
        <ele>26.8</ele>
        <time>2020-12-08T08:06:34Z</time>
      </trkpt>
      <trkpt lat="36.6698230" lon="-6.1244660">
        <ele>27.6</ele>
        <time>2020-12-08T08:06:37Z</time>
      </trkpt>
      <trkpt lat="36.6698380" lon="-6.1244420">
        <ele>27.8</ele>
        <time>2020-12-08T08:06:38Z</time>
      </trkpt>
      <trkpt lat="36.6699030" lon="-6.1243480">
        <ele>29.0</ele>
        <time>2020-12-08T08:06:42Z</time>
      </trkpt>
      <trkpt lat="36.6699710" lon="-6.1242610">
        <ele>29.8</ele>
        <time>2020-12-08T08:06:46Z</time>
      </trkpt>
      <trkpt lat="36.6699890" lon="-6.1242410">
        <ele>30.2</ele>
        <time>2020-12-08T08:06:47Z</time>
      </trkpt>
      <trkpt lat="36.6701050" lon="-6.1241210">
        <ele>31.2</ele>
        <time>2020-12-08T08:06:53Z</time>
      </trkpt>
      <trkpt lat="36.6701550" lon="-6.1240860">
        <ele>31.6</ele>
        <time>2020-12-08T08:06:55Z</time>
      </trkpt>
      <trkpt lat="36.6702370" lon="-6.1240440">
        <ele>32.2</ele>
        <time>2020-12-08T08:06:58Z</time>
      </trkpt>
      <trkpt lat="36.6703690" lon="-6.1239950">
        <ele>33.6</ele>
        <time>2020-12-08T08:07:03Z</time>
      </trkpt>
      <trkpt lat="36.6703950" lon="-6.1239850">
        <ele>33.6</ele>
        <time>2020-12-08T08:07:04Z</time>
      </trkpt>
      <trkpt lat="36.6706110" lon="-6.1239230">
        <ele>34.6</ele>
        <time>2020-12-08T08:07:12Z</time>
      </trkpt>
      <trkpt lat="36.6706370" lon="-6.1239160">
        <ele>35.0</ele>
        <time>2020-12-08T08:07:13Z</time>
      </trkpt>
      <trkpt lat="36.6707170" lon="-6.1239000">
        <ele>36.0</ele>
        <time>2020-12-08T08:07:16Z</time>
      </trkpt>
      <trkpt lat="36.6708410" lon="-6.1238840">
        <ele>37.2</ele>
        <time>2020-12-08T08:07:21Z</time>
      </trkpt>
      <trkpt lat="36.6708670" lon="-6.1238800">
        <ele>37.2</ele>
        <time>2020-12-08T08:07:22Z</time>
      </trkpt>
      <trkpt lat="36.6709990" lon="-6.1238680">
        <ele>38.0</ele>
        <time>2020-12-08T08:07:27Z</time>
      </trkpt>
      <trkpt lat="36.6711000" lon="-6.1238580">
        <ele>39.2</ele>
        <time>2020-12-08T08:07:31Z</time>
      </trkpt>
      <trkpt lat="36.6711250" lon="-6.1238570">
        <ele>39.6</ele>
        <time>2020-12-08T08:07:32Z</time>
      </trkpt>
      <trkpt lat="36.6712000" lon="-6.1238530">
        <ele>40.4</ele>
        <time>2020-12-08T08:07:35Z</time>
      </trkpt>
      <trkpt lat="36.6712740" lon="-6.1238450">
        <ele>41.4</ele>
        <time>2020-12-08T08:07:38Z</time>
      </trkpt>
      <trkpt lat="36.6713520" lon="-6.1238400">
        <ele>42.2</ele>
        <time>2020-12-08T08:07:41Z</time>
      </trkpt>
      <trkpt lat="36.6713770" lon="-6.1238390">
        <ele>42.6</ele>
        <time>2020-12-08T08:07:42Z</time>
      </trkpt>
      <trkpt lat="36.6714520" lon="-6.1238350">
        <ele>43.6</ele>
        <time>2020-12-08T08:07:45Z</time>
      </trkpt>
      <trkpt lat="36.6715500" lon="-6.1238330">
        <ele>44.8</ele>
        <time>2020-12-08T08:07:49Z</time>
      </trkpt>
      <trkpt lat="36.6716000" lon="-6.1238310">
        <ele>45.2</ele>
        <time>2020-12-08T08:07:51Z</time>
      </trkpt>
      <trkpt lat="36.6716760" lon="-6.1238290">
        <ele>46.2</ele>
        <time>2020-12-08T08:07:54Z</time>
      </trkpt>
      <trkpt lat="36.6718380" lon="-6.1238370">
        <ele>47.4</ele>
        <time>2020-12-08T08:08:00Z</time>
      </trkpt>
      <trkpt lat="36.6718910" lon="-6.1238440">
        <ele>47.8</ele>
        <time>2020-12-08T08:08:02Z</time>
      </trkpt>
      <trkpt lat="36.6720000" lon="-6.1238590">
        <ele>48.4</ele>
        <time>2020-12-08T08:08:06Z</time>
      </trkpt>
      <trkpt lat="36.6721370" lon="-6.1238980">
        <ele>49.4</ele>
        <time>2020-12-08T08:08:11Z</time>
      </trkpt>
      <trkpt lat="36.6722660" lon="-6.1239490">
        <ele>50.6</ele>
        <time>2020-12-08T08:08:16Z</time>
      </trkpt>
      <trkpt lat="36.6723700" lon="-6.1239910">
        <ele>51.2</ele>
        <time>2020-12-08T08:08:20Z</time>
      </trkpt>
      <trkpt lat="36.6724230" lon="-6.1240100">
        <ele>51.6</ele>
        <time>2020-12-08T08:08:22Z</time>
      </trkpt>
      <trkpt lat="36.6725900" lon="-6.1240520">
        <ele>52.8</ele>
        <time>2020-12-08T08:08:28Z</time>
      </trkpt>
      <trkpt lat="36.6726490" lon="-6.1240640">
        <ele>53.0</ele>
        <time>2020-12-08T08:08:30Z</time>
      </trkpt>
      <trkpt lat="36.6727660" lon="-6.1240820">
        <ele>53.8</ele>
        <time>2020-12-08T08:08:34Z</time>
      </trkpt>
      <trkpt lat="36.6728390" lon="-6.1240570">
        <ele>54.2</ele>
        <time>2020-12-08T08:08:37Z</time>
      </trkpt>
      <trkpt lat="36.6729300" lon="-6.1239160">
        <ele>54.8</ele>
        <time>2020-12-08T08:08:43Z</time>
      </trkpt>
      <trkpt lat="36.6729410" lon="-6.1238880">
        <ele>55.0</ele>
        <time>2020-12-08T08:08:44Z</time>
      </trkpt>
      <trkpt lat="36.6729750" lon="-6.1237660">
        <ele>56.2</ele>
        <time>2020-12-08T08:08:48Z</time>
      </trkpt>
      <trkpt lat="36.6729950" lon="-6.1236730">
        <ele>57.0</ele>
        <time>2020-12-08T08:08:51Z</time>
      </trkpt>
      <trkpt lat="36.6730100" lon="-6.1236080">
        <ele>57.4</ele>
        <time>2020-12-08T08:08:53Z</time>
      </trkpt>
      <trkpt lat="36.6730370" lon="-6.1234890">
        <ele>58.2</ele>
        <time>2020-12-08T08:08:57Z</time>
      </trkpt>
      <trkpt lat="36.6730490" lon="-6.1234130">
        <ele>58.6</ele>
        <time>2020-12-08T08:08:59Z</time>
      </trkpt>
      <trkpt lat="36.6730580" lon="-6.1232360">
        <ele>59.2</ele>
        <time>2020-12-08T08:09:03Z</time>
      </trkpt>
      <trkpt lat="36.6730590" lon="-6.1230950">
        <ele>59.6</ele>
        <time>2020-12-08T08:09:06Z</time>
      </trkpt>
      <trkpt lat="36.6730540" lon="-6.1228360">
        <ele>59.6</ele>
        <time>2020-12-08T08:09:12Z</time>
      </trkpt>
      <trkpt lat="36.6730450" lon="-6.1227000">
        <ele>59.6</ele>
        <time>2020-12-08T08:09:15Z</time>
      </trkpt>
      <trkpt lat="36.6730190" lon="-6.1226500">
        <ele>59.6</ele>
        <time>2020-12-08T08:09:16Z</time>
      </trkpt>
      <trkpt lat="36.6728420" lon="-6.1224120">
        <ele>59.6</ele>
        <time>2020-12-08T08:09:21Z</time>
      </trkpt>
      <trkpt lat="36.6727880" lon="-6.1221880">
        <ele>59.2</ele>
        <time>2020-12-08T08:09:24Z</time>
      </trkpt>
      <trkpt lat="36.6728520" lon="-6.1219400">
        <ele>58.6</ele>
        <time>2020-12-08T08:09:27Z</time>
      </trkpt>
      <trkpt lat="36.6729470" lon="-6.1217970">
        <ele>58.2</ele>
        <time>2020-12-08T08:09:29Z</time>
      </trkpt>
      <trkpt lat="36.6729890" lon="-6.1217180">
        <ele>58.0</ele>
        <time>2020-12-08T08:09:30Z</time>
      </trkpt>
      <trkpt lat="36.6730150" lon="-6.1216260">
        <ele>57.8</ele>
        <time>2020-12-08T08:09:31Z</time>
      </trkpt>
      <trkpt lat="36.6730210" lon="-6.1214250">
        <ele>57.4</ele>
        <time>2020-12-08T08:09:33Z</time>
      </trkpt>
      <trkpt lat="36.6730180" lon="-6.1212150">
        <ele>57.2</ele>
        <time>2020-12-08T08:09:35Z</time>
      </trkpt>
      <trkpt lat="36.6730400" lon="-6.1208880">
        <ele>56.4</ele>
        <time>2020-12-08T08:09:38Z</time>
      </trkpt>
      <trkpt lat="36.6730750" lon="-6.1206670">
        <ele>55.2</ele>
        <time>2020-12-08T08:09:40Z</time>
      </trkpt>
      <trkpt lat="36.6732040" lon="-6.1199870">
        <ele>53.6</ele>
        <time>2020-12-08T08:09:46Z</time>
      </trkpt>
      <trkpt lat="36.6732530" lon="-6.1197590">
        <ele>52.6</ele>
        <time>2020-12-08T08:09:48Z</time>
      </trkpt>
      <trkpt lat="36.6733010" lon="-6.1195290">
        <ele>51.8</ele>
        <time>2020-12-08T08:09:50Z</time>
      </trkpt>
      <trkpt lat="36.6733230" lon="-6.1194130">
        <ele>51.4</ele>
        <time>2020-12-08T08:09:51Z</time>
      </trkpt>
      <trkpt lat="36.6733810" lon="-6.1190770">
        <ele>50.4</ele>
        <time>2020-12-08T08:09:54Z</time>
      </trkpt>
      <trkpt lat="36.6733880" lon="-6.1189630">
        <ele>49.8</ele>
        <time>2020-12-08T08:09:55Z</time>
      </trkpt>
      <trkpt lat="36.6733880" lon="-6.1188480">
        <ele>49.4</ele>
        <time>2020-12-08T08:09:56Z</time>
      </trkpt>
      <trkpt lat="36.6733880" lon="-6.1187320">
        <ele>49.0</ele>
        <time>2020-12-08T08:09:57Z</time>
      </trkpt>
      <trkpt lat="36.6733970" lon="-6.1186150">
        <ele>48.6</ele>
        <time>2020-12-08T08:09:58Z</time>
      </trkpt>
      <trkpt lat="36.6734400" lon="-6.1183850">
        <ele>48.0</ele>
        <time>2020-12-08T08:10:00Z</time>
      </trkpt>
      <trkpt lat="36.6734950" lon="-6.1179020">
        <ele>47.2</ele>
        <time>2020-12-08T08:10:04Z</time>
      </trkpt>
      <trkpt lat="36.6735150" lon="-6.1176550">
        <ele>46.8</ele>
        <time>2020-12-08T08:10:06Z</time>
      </trkpt>
      <trkpt lat="36.6735650" lon="-6.1170630">
        <ele>45.6</ele>
        <time>2020-12-08T08:10:11Z</time>
      </trkpt>
      <trkpt lat="36.6735890" lon="-6.1167240">
        <ele>44.2</ele>
        <time>2020-12-08T08:10:14Z</time>
      </trkpt>
      <trkpt lat="36.6736510" lon="-6.1159600">
        <ele>43.4</ele>
        <time>2020-12-08T08:10:21Z</time>
      </trkpt>
      <trkpt lat="36.6736770" lon="-6.1156420">
        <ele>43.2</ele>
        <time>2020-12-08T08:10:24Z</time>
      </trkpt>
      <trkpt lat="36.6736840" lon="-6.1155370">
        <ele>43.2</ele>
        <time>2020-12-08T08:10:25Z</time>
      </trkpt>
      <trkpt lat="36.6737430" lon="-6.1147900">
        <ele>42.6</ele>
        <time>2020-12-08T08:10:32Z</time>
      </trkpt>
      <trkpt lat="36.6737520" lon="-6.1146810">
        <ele>42.4</ele>
        <time>2020-12-08T08:10:33Z</time>
      </trkpt>
      <trkpt lat="36.6737720" lon="-6.1144640">
        <ele>42.0</ele>
        <time>2020-12-08T08:10:35Z</time>
      </trkpt>
      <trkpt lat="36.6738340" lon="-6.1136970">
        <ele>41.2</ele>
        <time>2020-12-08T08:10:42Z</time>
      </trkpt>
      <trkpt lat="36.6738700" lon="-6.1132660">
        <ele>41.0</ele>
        <time>2020-12-08T08:10:46Z</time>
      </trkpt>
      <trkpt lat="36.6739340" lon="-6.1125440">
        <ele>40.4</ele>
        <time>2020-12-08T08:10:53Z</time>
      </trkpt>
      <trkpt lat="36.6739840" lon="-6.1118370">
        <ele>40.0</ele>
        <time>2020-12-08T08:11:00Z</time>
      </trkpt>
      <trkpt lat="36.6739980" lon="-6.1115320">
        <ele>40.0</ele>
        <time>2020-12-08T08:11:03Z</time>
      </trkpt>
      <trkpt lat="36.6740010" lon="-6.1114310">
        <ele>40.0</ele>
        <time>2020-12-08T08:11:04Z</time>
      </trkpt>
      <trkpt lat="36.6739920" lon="-6.1110260">
        <ele>39.8</ele>
        <time>2020-12-08T08:11:08Z</time>
      </trkpt>
      <trkpt lat="36.6739810" lon="-6.1109250">
        <ele>39.8</ele>
        <time>2020-12-08T08:11:09Z</time>
      </trkpt>
      <trkpt lat="36.6740150" lon="-6.1106240">
        <ele>39.8</ele>
        <time>2020-12-08T08:11:12Z</time>
      </trkpt>
      <trkpt lat="36.6740580" lon="-6.1100950">
        <ele>39.6</ele>
        <time>2020-12-08T08:11:17Z</time>
      </trkpt>
      <trkpt lat="36.6740760" lon="-6.1093480">
        <ele>39.2</ele>
        <time>2020-12-08T08:11:24Z</time>
      </trkpt>
      <trkpt lat="36.6741010" lon="-6.1091370">
        <ele>39.0</ele>
        <time>2020-12-08T08:11:26Z</time>
      </trkpt>
      <trkpt lat="36.6742220" lon="-6.1087460">
        <ele>38.4</ele>
        <time>2020-12-08T08:11:30Z</time>
      </trkpt>
      <trkpt lat="36.6743140" lon="-6.1085710">
        <ele>38.4</ele>
        <time>2020-12-08T08:11:32Z</time>
      </trkpt>
      <trkpt lat="36.6744690" lon="-6.1083260">
        <ele>38.2</ele>
        <time>2020-12-08T08:11:35Z</time>
      </trkpt>
      <trkpt lat="36.6746260" lon="-6.1080870">
        <ele>38.0</ele>
        <time>2020-12-08T08:11:38Z</time>
      </trkpt>
      <trkpt lat="36.6749880" lon="-6.1075330">
        <ele>37.2</ele>
        <time>2020-12-08T08:11:45Z</time>
      </trkpt>
      <trkpt lat="36.6752980" lon="-6.1070630">
        <ele>37.0</ele>
        <time>2020-12-08T08:11:51Z</time>
      </trkpt>
      <trkpt lat="36.6755030" lon="-6.1067480">
        <ele>36.8</ele>
        <time>2020-12-08T08:11:55Z</time>
      </trkpt>
      <trkpt lat="36.6758530" lon="-6.1062130">
        <ele>36.0</ele>
        <time>2020-12-08T08:12:02Z</time>
      </trkpt>
      <trkpt lat="36.6759020" lon="-6.1061370">
        <ele>36.0</ele>
        <time>2020-12-08T08:12:03Z</time>
      </trkpt>
      <trkpt lat="36.6760010" lon="-6.1059850">
        <ele>35.8</ele>
        <time>2020-12-08T08:12:05Z</time>
      </trkpt>
      <trkpt lat="36.6761920" lon="-6.1056770">
        <ele>35.8</ele>
        <time>2020-12-08T08:12:09Z</time>
      </trkpt>
      <trkpt lat="36.6762650" lon="-6.1055050">
        <ele>35.8</ele>
        <time>2020-12-08T08:12:11Z</time>
      </trkpt>
      <trkpt lat="36.6763050" lon="-6.1054200">
        <ele>35.8</ele>
        <time>2020-12-08T08:12:12Z</time>
      </trkpt>
      <trkpt lat="36.6764950" lon="-6.1050940">
        <ele>35.6</ele>
        <time>2020-12-08T08:12:16Z</time>
      </trkpt>
      <trkpt lat="36.6767870" lon="-6.1044170">
        <ele>35.2</ele>
        <time>2020-12-08T08:12:23Z</time>
      </trkpt>
      <trkpt lat="36.6769970" lon="-6.1039270">
        <ele>34.6</ele>
        <time>2020-12-08T08:12:28Z</time>
      </trkpt>
      <trkpt lat="36.6771210" lon="-6.1036430">
        <ele>33.6</ele>
        <time>2020-12-08T08:12:31Z</time>
      </trkpt>
      <trkpt lat="36.6772410" lon="-6.1033640">
        <ele>33.0</ele>
        <time>2020-12-08T08:12:34Z</time>
      </trkpt>
      <trkpt lat="36.6772810" lon="-6.1032720">
        <ele>32.6</ele>
        <time>2020-12-08T08:12:35Z</time>
      </trkpt>
      <trkpt lat="36.6775610" lon="-6.1026090">
        <ele>31.8</ele>
        <time>2020-12-08T08:12:42Z</time>
      </trkpt>
      <trkpt lat="36.6776470" lon="-6.1024100">
        <ele>31.6</ele>
        <time>2020-12-08T08:12:44Z</time>
      </trkpt>
      <trkpt lat="36.6779230" lon="-6.1017900">
        <ele>30.8</ele>
        <time>2020-12-08T08:12:50Z</time>
      </trkpt>
      <trkpt lat="36.6779760" lon="-6.1016880">
        <ele>30.4</ele>
        <time>2020-12-08T08:12:51Z</time>
      </trkpt>
      <trkpt lat="36.6780310" lon="-6.1015870">
        <ele>30.0</ele>
        <time>2020-12-08T08:12:52Z</time>
      </trkpt>
      <trkpt lat="36.6782090" lon="-6.1012890">
        <ele>29.2</ele>
        <time>2020-12-08T08:12:55Z</time>
      </trkpt>
      <trkpt lat="36.6784060" lon="-6.1010000">
        <ele>28.2</ele>
        <time>2020-12-08T08:12:58Z</time>
      </trkpt>
      <trkpt lat="36.6784750" lon="-6.1009070">
        <ele>27.6</ele>
        <time>2020-12-08T08:12:59Z</time>
      </trkpt>
      <trkpt lat="36.6786950" lon="-6.1006410">
        <ele>26.8</ele>
        <time>2020-12-08T08:13:02Z</time>
      </trkpt>
      <trkpt lat="36.6789250" lon="-6.1003900">
        <ele>25.4</ele>
        <time>2020-12-08T08:13:05Z</time>
      </trkpt>
      <trkpt lat="36.6790040" lon="-6.1003120">
        <ele>25.2</ele>
        <time>2020-12-08T08:13:06Z</time>
      </trkpt>
      <trkpt lat="36.6791630" lon="-6.1001640">
        <ele>24.2</ele>
        <time>2020-12-08T08:13:08Z</time>
      </trkpt>
      <trkpt lat="36.6793240" lon="-6.1000280">
        <ele>23.2</ele>
        <time>2020-12-08T08:13:10Z</time>
      </trkpt>
      <trkpt lat="36.6795680" lon="-6.0998430">
        <ele>22.4</ele>
        <time>2020-12-08T08:13:13Z</time>
      </trkpt>
      <trkpt lat="36.6796500" lon="-6.0997890">
        <ele>22.0</ele>
        <time>2020-12-08T08:13:14Z</time>
      </trkpt>
      <trkpt lat="36.6801160" lon="-6.0994690">
        <ele>21.2</ele>
        <time>2020-12-08T08:13:20Z</time>
      </trkpt>
      <trkpt lat="36.6801880" lon="-6.0994120">
        <ele>21.0</ele>
        <time>2020-12-08T08:13:21Z</time>
      </trkpt>
      <trkpt lat="36.6803430" lon="-6.0993590">
        <ele>21.0</ele>
        <time>2020-12-08T08:13:23Z</time>
      </trkpt>
      <trkpt lat="36.6804940" lon="-6.0994020">
        <ele>21.0</ele>
        <time>2020-12-08T08:13:25Z</time>
      </trkpt>
      <trkpt lat="36.6805690" lon="-6.0994240">
        <ele>21.0</ele>
        <time>2020-12-08T08:13:26Z</time>
      </trkpt>
      <trkpt lat="36.6808770" lon="-6.0994030">
        <ele>21.0</ele>
        <time>2020-12-08T08:13:30Z</time>
      </trkpt>
      <trkpt lat="36.6814200" lon="-6.0993460">
        <ele>21.2</ele>
        <time>2020-12-08T08:13:37Z</time>
      </trkpt>
      <trkpt lat="36.6815670" lon="-6.0993290">
        <ele>21.4</ele>
        <time>2020-12-08T08:13:39Z</time>
      </trkpt>
      <trkpt lat="36.6820910" lon="-6.0992710">
        <ele>22.0</ele>
        <time>2020-12-08T08:13:47Z</time>
      </trkpt>
      <trkpt lat="36.6823570" lon="-6.0992460">
        <ele>23.0</ele>
        <time>2020-12-08T08:13:52Z</time>
      </trkpt>
      <trkpt lat="36.6824070" lon="-6.0992410">
        <ele>23.2</ele>
        <time>2020-12-08T08:13:53Z</time>
      </trkpt>
      <trkpt lat="36.6825530" lon="-6.0992240">
        <ele>24.2</ele>
        <time>2020-12-08T08:13:56Z</time>
      </trkpt>
      <trkpt lat="36.6827410" lon="-6.0992020">
        <ele>25.6</ele>
        <time>2020-12-08T08:14:00Z</time>
      </trkpt>
      <trkpt lat="36.6828320" lon="-6.0991890">
        <ele>26.6</ele>
        <time>2020-12-08T08:14:02Z</time>
      </trkpt>
      <trkpt lat="36.6829220" lon="-6.0991750">
        <ele>27.2</ele>
        <time>2020-12-08T08:14:04Z</time>
      </trkpt>
      <trkpt lat="36.6830580" lon="-6.0991570">
        <ele>27.8</ele>
        <time>2020-12-08T08:14:07Z</time>
      </trkpt>
      <trkpt lat="36.6833340" lon="-6.0991360">
        <ele>29.0</ele>
        <time>2020-12-08T08:14:13Z</time>
      </trkpt>
      <trkpt lat="36.6835230" lon="-6.0991260">
        <ele>30.2</ele>
        <time>2020-12-08T08:14:17Z</time>
      </trkpt>
      <trkpt lat="36.6836680" lon="-6.0991180">
        <ele>31.6</ele>
        <time>2020-12-08T08:14:20Z</time>
      </trkpt>
      <trkpt lat="36.6838130" lon="-6.0991030">
        <ele>32.6</ele>
        <time>2020-12-08T08:14:23Z</time>
      </trkpt>
      <trkpt lat="36.6839080" lon="-6.0990900">
        <ele>33.8</ele>
        <time>2020-12-08T08:14:25Z</time>
      </trkpt>
      <trkpt lat="36.6842450" lon="-6.0990490">
        <ele>35.0</ele>
        <time>2020-12-08T08:14:32Z</time>
      </trkpt>
      <trkpt lat="36.6843440" lon="-6.0990410">
        <ele>35.2</ele>
        <time>2020-12-08T08:14:34Z</time>
      </trkpt>
      <trkpt lat="36.6847740" lon="-6.0990060">
        <ele>35.6</ele>
        <time>2020-12-08T08:14:42Z</time>
      </trkpt>
      <trkpt lat="36.6848850" lon="-6.0990000">
        <ele>36.0</ele>
        <time>2020-12-08T08:14:44Z</time>
      </trkpt>
      <trkpt lat="36.6853900" lon="-6.0989470">
        <ele>36.4</ele>
        <time>2020-12-08T08:14:53Z</time>
      </trkpt>
      <trkpt lat="36.6858960" lon="-6.0988690">
        <ele>36.6</ele>
        <time>2020-12-08T08:15:02Z</time>
      </trkpt>
      <trkpt lat="36.6860450" lon="-6.0987440">
        <ele>36.4</ele>
        <time>2020-12-08T08:15:05Z</time>
      </trkpt>
      <trkpt lat="36.6860840" lon="-6.0985090">
        <ele>36.4</ele>
        <time>2020-12-08T08:15:08Z</time>
      </trkpt>
      <trkpt lat="36.6860550" lon="-6.0983430">
        <ele>36.4</ele>
        <time>2020-12-08T08:15:10Z</time>
      </trkpt>
      <trkpt lat="36.6860000" lon="-6.0980930">
        <ele>36.2</ele>
        <time>2020-12-08T08:15:13Z</time>
      </trkpt>
      <trkpt lat="36.6858780" lon="-6.0974970">
        <ele>36.0</ele>
        <time>2020-12-08T08:15:20Z</time>
      </trkpt>
      <trkpt lat="36.6858160" lon="-6.0969690">
        <ele>35.4</ele>
        <time>2020-12-08T08:15:26Z</time>
      </trkpt>
      <trkpt lat="36.6857950" lon="-6.0967850">
        <ele>35.0</ele>
        <time>2020-12-08T08:15:28Z</time>
      </trkpt>
      <trkpt lat="36.6857380" lon="-6.0966080">
        <ele>35.0</ele>
        <time>2020-12-08T08:15:30Z</time>
      </trkpt>
      <trkpt lat="36.6856340" lon="-6.0961510">
        <ele>34.8</ele>
        <time>2020-12-08T08:15:35Z</time>
      </trkpt>
      <trkpt lat="36.6855050" lon="-6.0954640">
        <ele>34.6</ele>
        <time>2020-12-08T08:15:42Z</time>
      </trkpt>
      <trkpt lat="36.6854360" lon="-6.0950610">
        <ele>34.0</ele>
        <time>2020-12-08T08:15:46Z</time>
      </trkpt>
      <trkpt lat="36.6854060" lon="-6.0948580">
        <ele>33.8</ele>
        <time>2020-12-08T08:15:48Z</time>
      </trkpt>
      <trkpt lat="36.6853080" lon="-6.0941650">
        <ele>33.0</ele>
        <time>2020-12-08T08:15:55Z</time>
      </trkpt>
      <trkpt lat="36.6852930" lon="-6.0940670">
        <ele>33.0</ele>
        <time>2020-12-08T08:15:56Z</time>
      </trkpt>
      <trkpt lat="36.6852510" lon="-6.0937720">
        <ele>32.8</ele>
        <time>2020-12-08T08:15:59Z</time>
      </trkpt>
      <trkpt lat="36.6851500" lon="-6.0930780">
        <ele>32.6</ele>
        <time>2020-12-08T08:16:06Z</time>
      </trkpt>
      <trkpt lat="36.6851310" lon="-6.0928770">
        <ele>32.6</ele>
        <time>2020-12-08T08:16:08Z</time>
      </trkpt>
      <trkpt lat="36.6850870" lon="-6.0921270">
        <ele>32.4</ele>
        <time>2020-12-08T08:16:15Z</time>
      </trkpt>
      <trkpt lat="36.6850730" lon="-6.0919070">
        <ele>32.4</ele>
        <time>2020-12-08T08:16:17Z</time>
      </trkpt>
      <trkpt lat="36.6850510" lon="-6.0915760">
        <ele>31.8</ele>
        <time>2020-12-08T08:16:20Z</time>
      </trkpt>
      <trkpt lat="36.6850250" lon="-6.0910190">
        <ele>30.6</ele>
        <time>2020-12-08T08:16:25Z</time>
      </trkpt>
      <trkpt lat="36.6850160" lon="-6.0906830">
        <ele>30.2</ele>
        <time>2020-12-08T08:16:28Z</time>
      </trkpt>
      <trkpt lat="36.6850370" lon="-6.0901150">
        <ele>29.6</ele>
        <time>2020-12-08T08:16:33Z</time>
      </trkpt>
      <trkpt lat="36.6850580" lon="-6.0897680">
        <ele>29.4</ele>
        <time>2020-12-08T08:16:36Z</time>
      </trkpt>
      <trkpt lat="36.6850880" lon="-6.0891870">
        <ele>28.4</ele>
        <time>2020-12-08T08:16:41Z</time>
      </trkpt>
      <trkpt lat="36.6851200" lon="-6.0884880">
        <ele>27.2</ele>
        <time>2020-12-08T08:16:47Z</time>
      </trkpt>
      <trkpt lat="36.6851250" lon="-6.0883700">
        <ele>27.2</ele>
        <time>2020-12-08T08:16:48Z</time>
      </trkpt>
      <trkpt lat="36.6851690" lon="-6.0876590">
        <ele>26.2</ele>
        <time>2020-12-08T08:16:54Z</time>
      </trkpt>
      <trkpt lat="36.6852350" lon="-6.0870670">
        <ele>25.6</ele>
        <time>2020-12-08T08:16:59Z</time>
      </trkpt>
      <trkpt lat="36.6853070" lon="-6.0866030">
        <ele>25.0</ele>
        <time>2020-12-08T08:17:03Z</time>
      </trkpt>
      <trkpt lat="36.6854280" lon="-6.0859010">
        <ele>24.0</ele>
        <time>2020-12-08T08:17:09Z</time>
      </trkpt>
      <trkpt lat="36.6855430" lon="-6.0852610">
        <ele>22.8</ele>
        <time>2020-12-08T08:17:14Z</time>
      </trkpt>
      <trkpt lat="36.6855910" lon="-6.0849920">
        <ele>22.2</ele>
        <time>2020-12-08T08:17:16Z</time>
      </trkpt>
      <trkpt lat="36.6856660" lon="-6.0845820">
        <ele>21.6</ele>
        <time>2020-12-08T08:17:19Z</time>
      </trkpt>
      <trkpt lat="36.6857160" lon="-6.0843070">
        <ele>20.2</ele>
        <time>2020-12-08T08:17:21Z</time>
      </trkpt>
      <trkpt lat="36.6857600" lon="-6.0840370">
        <ele>18.2</ele>
        <time>2020-12-08T08:17:23Z</time>
      </trkpt>
      <trkpt lat="36.6857730" lon="-6.0839030">
        <ele>17.4</ele>
        <time>2020-12-08T08:17:24Z</time>
      </trkpt>
      <trkpt lat="36.6857780" lon="-6.0837710">
        <ele>17.0</ele>
        <time>2020-12-08T08:17:25Z</time>
      </trkpt>
      <trkpt lat="36.6857640" lon="-6.0835210">
        <ele>15.8</ele>
        <time>2020-12-08T08:17:27Z</time>
      </trkpt>
      <trkpt lat="36.6857460" lon="-6.0834100">
        <ele>15.4</ele>
        <time>2020-12-08T08:17:28Z</time>
      </trkpt>
      <trkpt lat="36.6857410" lon="-6.0833110">
        <ele>15.2</ele>
        <time>2020-12-08T08:17:29Z</time>
      </trkpt>
      <trkpt lat="36.6857580" lon="-6.0832220">
        <ele>15.0</ele>
        <time>2020-12-08T08:17:30Z</time>
      </trkpt>
      <trkpt lat="36.6858400" lon="-6.0829620">
        <ele>15.0</ele>
        <time>2020-12-08T08:17:33Z</time>
      </trkpt>
      <trkpt lat="36.6858470" lon="-6.0828720">
        <ele>15.0</ele>
        <time>2020-12-08T08:17:34Z</time>
      </trkpt>
      <trkpt lat="36.6858850" lon="-6.0824580">
        <ele>15.6</ele>
        <time>2020-12-08T08:17:39Z</time>
      </trkpt>
      <trkpt lat="36.6859270" lon="-6.0821230">
        <ele>16.8</ele>
        <time>2020-12-08T08:17:44Z</time>
      </trkpt>
      <trkpt lat="36.6859360" lon="-6.0820620">
        <ele>17.4</ele>
        <time>2020-12-08T08:17:45Z</time>
      </trkpt>
      <trkpt lat="36.6859450" lon="-6.0820010">
        <ele>17.8</ele>
        <time>2020-12-08T08:17:46Z</time>
      </trkpt>
      <trkpt lat="36.6859550" lon="-6.0818690">
        <ele>19.4</ele>
        <time>2020-12-08T08:17:48Z</time>
      </trkpt>
      <trkpt lat="36.6859820" lon="-6.0817440">
        <ele>20.2</ele>
        <time>2020-12-08T08:17:50Z</time>
      </trkpt>
      <trkpt lat="36.6859900" lon="-6.0816760">
        <ele>20.6</ele>
        <time>2020-12-08T08:17:51Z</time>
      </trkpt>
      <trkpt lat="36.6860380" lon="-6.0814330">
        <ele>20.8</ele>
        <time>2020-12-08T08:17:54Z</time>
      </trkpt>
      <trkpt lat="36.6860640" lon="-6.0812330">
        <ele>20.8</ele>
        <time>2020-12-08T08:17:56Z</time>
      </trkpt>
      <trkpt lat="36.6860840" lon="-6.0810100">
        <ele>20.8</ele>
        <time>2020-12-08T08:17:58Z</time>
      </trkpt>
      <trkpt lat="36.6861630" lon="-6.0802820">
        <ele>19.2</ele>
        <time>2020-12-08T08:18:04Z</time>
      </trkpt>
      <trkpt lat="36.6861900" lon="-6.0800530">
        <ele>17.8</ele>
        <time>2020-12-08T08:18:06Z</time>
      </trkpt>
      <trkpt lat="36.6862300" lon="-6.0798370">
        <ele>16.2</ele>
        <time>2020-12-08T08:18:08Z</time>
      </trkpt>
      <trkpt lat="36.6862830" lon="-6.0796290">
        <ele>15.2</ele>
        <time>2020-12-08T08:18:10Z</time>
      </trkpt>
      <trkpt lat="36.6864290" lon="-6.0789110">
        <ele>14.6</ele>
        <time>2020-12-08T08:18:17Z</time>
      </trkpt>
      <trkpt lat="36.6865820" lon="-6.0782260">
        <ele>15.0</ele>
        <time>2020-12-08T08:18:24Z</time>
      </trkpt>
      <trkpt lat="36.6866710" lon="-6.0778330">
        <ele>15.2</ele>
        <time>2020-12-08T08:18:28Z</time>
      </trkpt>
      <trkpt lat="36.6868250" lon="-6.0771230">
        <ele>15.4</ele>
        <time>2020-12-08T08:18:35Z</time>
      </trkpt>
      <trkpt lat="36.6868490" lon="-6.0770200">
        <ele>15.4</ele>
        <time>2020-12-08T08:18:36Z</time>
      </trkpt>
      <trkpt lat="36.6869450" lon="-6.0763830">
        <ele>15.4</ele>
        <time>2020-12-08T08:18:42Z</time>
      </trkpt>
      <trkpt lat="36.6869090" lon="-6.0759610">
        <ele>15.4</ele>
        <time>2020-12-08T08:18:46Z</time>
      </trkpt>
      <trkpt lat="36.6867410" lon="-6.0752710">
        <ele>15.6</ele>
        <time>2020-12-08T08:18:53Z</time>
      </trkpt>
      <trkpt lat="36.6865390" lon="-6.0745900">
        <ele>16.0</ele>
        <time>2020-12-08T08:19:00Z</time>
      </trkpt>
      <trkpt lat="36.6863100" lon="-6.0740860">
        <ele>16.0</ele>
        <time>2020-12-08T08:19:06Z</time>
      </trkpt>
      <trkpt lat="36.6862120" lon="-6.0736320">
        <ele>16.0</ele>
        <time>2020-12-08T08:19:11Z</time>
      </trkpt>
      <trkpt lat="36.6862050" lon="-6.0735370">
        <ele>16.0</ele>
        <time>2020-12-08T08:19:12Z</time>
      </trkpt>
      <trkpt lat="36.6862100" lon="-6.0730590">
        <ele>16.0</ele>
        <time>2020-12-08T08:19:17Z</time>
      </trkpt>
      <trkpt lat="36.6862300" lon="-6.0723090">
        <ele>16.2</ele>
        <time>2020-12-08T08:19:25Z</time>
      </trkpt>
      <trkpt lat="36.6862300" lon="-6.0721240">
        <ele>16.2</ele>
        <time>2020-12-08T08:19:27Z</time>
      </trkpt>
      <trkpt lat="36.6862150" lon="-6.0714000">
        <ele>16.4</ele>
        <time>2020-12-08T08:19:35Z</time>
      </trkpt>
      <trkpt lat="36.6862110" lon="-6.0712280">
        <ele>16.6</ele>
        <time>2020-12-08T08:19:37Z</time>
      </trkpt>
      <trkpt lat="36.6862060" lon="-6.0708950">
        <ele>17.2</ele>
        <time>2020-12-08T08:19:41Z</time>
      </trkpt>
      <trkpt lat="36.6862000" lon="-6.0704170">
        <ele>18.2</ele>
        <time>2020-12-08T08:19:47Z</time>
      </trkpt>
      <trkpt lat="36.6861970" lon="-6.0703390">
        <ele>18.4</ele>
        <time>2020-12-08T08:19:48Z</time>
      </trkpt>
      <trkpt lat="36.6861900" lon="-6.0699510">
        <ele>19.2</ele>
        <time>2020-12-08T08:19:53Z</time>
      </trkpt>
      <trkpt lat="36.6861830" lon="-6.0695470">
        <ele>20.4</ele>
        <time>2020-12-08T08:19:58Z</time>
      </trkpt>
      <trkpt lat="36.6861800" lon="-6.0693750">
        <ele>20.8</ele>
        <time>2020-12-08T08:20:00Z</time>
      </trkpt>
      <trkpt lat="36.6861710" lon="-6.0686700">
        <ele>21.2</ele>
        <time>2020-12-08T08:20:08Z</time>
      </trkpt>
      <trkpt lat="36.6861720" lon="-6.0683200">
        <ele>21.2</ele>
        <time>2020-12-08T08:20:12Z</time>
      </trkpt>
      <trkpt lat="36.6861630" lon="-6.0676660">
        <ele>21.4</ele>
        <time>2020-12-08T08:20:20Z</time>
      </trkpt>
      <trkpt lat="36.6861610" lon="-6.0675910">
        <ele>21.6</ele>
        <time>2020-12-08T08:20:21Z</time>
      </trkpt>
      <trkpt lat="36.6861540" lon="-6.0672400">
        <ele>22.6</ele>
        <time>2020-12-08T08:20:26Z</time>
      </trkpt>
      <trkpt lat="36.6861500" lon="-6.0670500">
        <ele>23.2</ele>
        <time>2020-12-08T08:20:29Z</time>
      </trkpt>
      <trkpt lat="36.6861480" lon="-6.0669290">
        <ele>23.6</ele>
        <time>2020-12-08T08:20:31Z</time>
      </trkpt>
      <trkpt lat="36.6861420" lon="-6.0666920">
        <ele>25.0</ele>
        <time>2020-12-08T08:20:35Z</time>
      </trkpt>
      <trkpt lat="36.6861380" lon="-6.0665170">
        <ele>26.2</ele>
        <time>2020-12-08T08:20:38Z</time>
      </trkpt>
      <trkpt lat="36.6861360" lon="-6.0664000">
        <ele>27.0</ele>
        <time>2020-12-08T08:20:40Z</time>
      </trkpt>
      <trkpt lat="36.6861350" lon="-6.0663420">
        <ele>27.4</ele>
        <time>2020-12-08T08:20:41Z</time>
      </trkpt>
      <trkpt lat="36.6861320" lon="-6.0661050">
        <ele>28.6</ele>
        <time>2020-12-08T08:20:45Z</time>
      </trkpt>
      <trkpt lat="36.6861260" lon="-6.0658560">
        <ele>29.6</ele>
        <time>2020-12-08T08:20:49Z</time>
      </trkpt>
      <trkpt lat="36.6861240" lon="-6.0657930">
        <ele>29.8</ele>
        <time>2020-12-08T08:20:50Z</time>
      </trkpt>
      <trkpt lat="36.6861190" lon="-6.0655980">
        <ele>30.8</ele>
        <time>2020-12-08T08:20:53Z</time>
      </trkpt>
      <trkpt lat="36.6861020" lon="-6.0652600">
        <ele>32.0</ele>
        <time>2020-12-08T08:20:58Z</time>
      </trkpt>
      <trkpt lat="36.6860870" lon="-6.0650500">
        <ele>32.6</ele>
        <time>2020-12-08T08:21:01Z</time>
      </trkpt>
      <trkpt lat="36.6860690" lon="-6.0648330">
        <ele>33.0</ele>
        <time>2020-12-08T08:21:04Z</time>
      </trkpt>
      <trkpt lat="36.6860130" lon="-6.0642270">
        <ele>33.6</ele>
        <time>2020-12-08T08:21:12Z</time>
      </trkpt>
      <trkpt lat="36.6859520" lon="-6.0636070">
        <ele>34.0</ele>
        <time>2020-12-08T08:21:20Z</time>
      </trkpt>
      <trkpt lat="36.6859370" lon="-6.0634550">
        <ele>34.2</ele>
        <time>2020-12-08T08:21:22Z</time>
      </trkpt>
      <trkpt lat="36.6858740" lon="-6.0627750">
        <ele>35.0</ele>
        <time>2020-12-08T08:21:31Z</time>
      </trkpt>
      <trkpt lat="36.6858660" lon="-6.0627000">
        <ele>35.2</ele>
        <time>2020-12-08T08:21:32Z</time>
      </trkpt>
      <trkpt lat="36.6858580" lon="-6.0626250">
        <ele>35.4</ele>
        <time>2020-12-08T08:21:33Z</time>
      </trkpt>
      <trkpt lat="36.6858160" lon="-6.0622400">
        <ele>36.2</ele>
        <time>2020-12-08T08:21:38Z</time>
      </trkpt>
      <trkpt lat="36.6857590" lon="-6.0618470">
        <ele>36.6</ele>
        <time>2020-12-08T08:21:43Z</time>
      </trkpt>
      <trkpt lat="36.6856120" lon="-6.0611410">
        <ele>36.8</ele>
        <time>2020-12-08T08:21:52Z</time>
      </trkpt>
      <trkpt lat="36.6855910" lon="-6.0610620">
        <ele>37.0</ele>
        <time>2020-12-08T08:21:53Z</time>
      </trkpt>
      <trkpt lat="36.6854740" lon="-6.0606870">
        <ele>37.2</ele>
        <time>2020-12-08T08:21:58Z</time>
      </trkpt>
      <trkpt lat="36.6853400" lon="-6.0603140">
        <ele>37.6</ele>
        <time>2020-12-08T08:22:03Z</time>
      </trkpt>
      <trkpt lat="36.6850910" lon="-6.0597390">
        <ele>38.2</ele>
        <time>2020-12-08T08:22:11Z</time>
      </trkpt>
      <trkpt lat="36.6850230" lon="-6.0596060">
        <ele>38.2</ele>
        <time>2020-12-08T08:22:13Z</time>
      </trkpt>
      <trkpt lat="36.6848220" lon="-6.0592070">
        <ele>38.8</ele>
        <time>2020-12-08T08:22:19Z</time>
      </trkpt>
      <trkpt lat="36.6847010" lon="-6.0589640">
        <ele>39.6</ele>
        <time>2020-12-08T08:22:23Z</time>
      </trkpt>
      <trkpt lat="36.6845960" lon="-6.0587410">
        <ele>40.6</ele>
        <time>2020-12-08T08:22:27Z</time>
      </trkpt>
      <trkpt lat="36.6845270" lon="-6.0585790">
        <ele>41.8</ele>
        <time>2020-12-08T08:22:30Z</time>
      </trkpt>
      <trkpt lat="36.6844460" lon="-6.0583610">
        <ele>43.0</ele>
        <time>2020-12-08T08:22:34Z</time>
      </trkpt>
      <trkpt lat="36.6843740" lon="-6.0581390">
        <ele>44.0</ele>
        <time>2020-12-08T08:22:38Z</time>
      </trkpt>
      <trkpt lat="36.6843010" lon="-6.0578500">
        <ele>45.2</ele>
        <time>2020-12-08T08:22:43Z</time>
      </trkpt>
      <trkpt lat="36.6842560" lon="-6.0576180">
        <ele>46.0</ele>
        <time>2020-12-08T08:22:47Z</time>
      </trkpt>
      <trkpt lat="36.6842370" lon="-6.0575010">
        <ele>46.4</ele>
        <time>2020-12-08T08:22:49Z</time>
      </trkpt>
      <trkpt lat="36.6842150" lon="-6.0573200">
        <ele>47.2</ele>
        <time>2020-12-08T08:22:52Z</time>
      </trkpt>
      <trkpt lat="36.6841930" lon="-6.0570690">
        <ele>48.4</ele>
        <time>2020-12-08T08:22:56Z</time>
      </trkpt>
      <trkpt lat="36.6841770" lon="-6.0568050">
        <ele>49.2</ele>
        <time>2020-12-08T08:23:00Z</time>
      </trkpt>
      <trkpt lat="36.6841700" lon="-6.0566700">
        <ele>49.6</ele>
        <time>2020-12-08T08:23:02Z</time>
      </trkpt>
      <trkpt lat="36.6841310" lon="-6.0561040">
        <ele>50.6</ele>
        <time>2020-12-08T08:23:10Z</time>
      </trkpt>
      <trkpt lat="36.6841230" lon="-6.0560320">
        <ele>50.6</ele>
        <time>2020-12-08T08:23:11Z</time>
      </trkpt>
      <trkpt lat="36.6840240" lon="-6.0555370">
        <ele>50.6</ele>
        <time>2020-12-08T08:23:18Z</time>
      </trkpt>
      <trkpt lat="36.6838140" lon="-6.0549210">
        <ele>50.4</ele>
        <time>2020-12-08T08:23:27Z</time>
      </trkpt>
      <trkpt lat="36.6835970" lon="-6.0543570">
        <ele>50.6</ele>
        <time>2020-12-08T08:23:35Z</time>
      </trkpt>
      <trkpt lat="36.6833300" lon="-6.0537030">
        <ele>51.0</ele>
        <time>2020-12-08T08:23:44Z</time>
      </trkpt>
      <trkpt lat="36.6830770" lon="-6.0530780">
        <ele>51.4</ele>
        <time>2020-12-08T08:23:53Z</time>
      </trkpt>
      <trkpt lat="36.6830510" lon="-6.0530130">
        <ele>51.6</ele>
        <time>2020-12-08T08:23:54Z</time>
      </trkpt>
      <trkpt lat="36.6830240" lon="-6.0529510">
        <ele>51.8</ele>
        <time>2020-12-08T08:23:55Z</time>
      </trkpt>
      <trkpt lat="36.6828770" lon="-6.0525930">
        <ele>53.2</ele>
        <time>2020-12-08T08:24:01Z</time>
      </trkpt>
      <trkpt lat="36.6827840" lon="-6.0523670">
        <ele>54.0</ele>
        <time>2020-12-08T08:24:05Z</time>
      </trkpt>
      <trkpt lat="36.6827610" lon="-6.0523100">
        <ele>54.4</ele>
        <time>2020-12-08T08:24:06Z</time>
      </trkpt>
      <trkpt lat="36.6826670" lon="-6.0520840">
        <ele>55.4</ele>
        <time>2020-12-08T08:24:10Z</time>
      </trkpt>
      <trkpt lat="36.6825750" lon="-6.0518590">
        <ele>56.6</ele>
        <time>2020-12-08T08:24:14Z</time>
      </trkpt>
      <trkpt lat="36.6824610" lon="-6.0515780">
        <ele>57.8</ele>
        <time>2020-12-08T08:24:19Z</time>
      </trkpt>
      <trkpt lat="36.6823030" lon="-6.0511790">
        <ele>59.0</ele>
        <time>2020-12-08T08:24:26Z</time>
      </trkpt>
      <trkpt lat="36.6822100" lon="-6.0509520">
        <ele>60.2</ele>
        <time>2020-12-08T08:24:30Z</time>
      </trkpt>
      <trkpt lat="36.6820940" lon="-6.0506650">
        <ele>61.0</ele>
        <time>2020-12-08T08:24:35Z</time>
      </trkpt>
      <trkpt lat="36.6820700" lon="-6.0506070">
        <ele>61.2</ele>
        <time>2020-12-08T08:24:36Z</time>
      </trkpt>
      <trkpt lat="36.6819270" lon="-6.0502580">
        <ele>62.2</ele>
        <time>2020-12-08T08:24:42Z</time>
      </trkpt>
      <trkpt lat="36.6818290" lon="-6.0500220">
        <ele>62.8</ele>
        <time>2020-12-08T08:24:46Z</time>
      </trkpt>
      <trkpt lat="36.6817480" lon="-6.0498490">
        <ele>63.6</ele>
        <time>2020-12-08T08:24:49Z</time>
      </trkpt>
      <trkpt lat="36.6815580" lon="-6.0495220">
        <ele>64.6</ele>
        <time>2020-12-08T08:24:55Z</time>
      </trkpt>
      <trkpt lat="36.6813230" lon="-6.0492210">
        <ele>65.6</ele>
        <time>2020-12-08T08:25:01Z</time>
      </trkpt>
      <trkpt lat="36.6811860" lon="-6.0490840">
        <ele>66.0</ele>
        <time>2020-12-08T08:25:04Z</time>
      </trkpt>
      <trkpt lat="36.6809910" lon="-6.0489150">
        <ele>66.8</ele>
        <time>2020-12-08T08:25:08Z</time>
      </trkpt>
      <trkpt lat="36.6807310" lon="-6.0487470">
        <ele>67.0</ele>
        <time>2020-12-08T08:25:13Z</time>
      </trkpt>
      <trkpt lat="36.6802700" lon="-6.0485630">
        <ele>67.8</ele>
        <time>2020-12-08T08:25:21Z</time>
      </trkpt>
      <trkpt lat="36.6797840" lon="-6.0484080">
        <ele>69.0</ele>
        <time>2020-12-08T08:25:30Z</time>
      </trkpt>
      <trkpt lat="36.6795970" lon="-6.0483270">
        <ele>70.0</ele>
        <time>2020-12-08T08:25:34Z</time>
      </trkpt>
      <trkpt lat="36.6794160" lon="-6.0482270">
        <ele>71.2</ele>
        <time>2020-12-08T08:25:38Z</time>
      </trkpt>
      <trkpt lat="36.6792380" lon="-6.0480970">
        <ele>72.2</ele>
        <time>2020-12-08T08:25:42Z</time>
      </trkpt>
      <trkpt lat="36.6790600" lon="-6.0479460">
        <ele>72.6</ele>
        <time>2020-12-08T08:25:46Z</time>
      </trkpt>
      <trkpt lat="36.6787320" lon="-6.0475710">
        <ele>73.0</ele>
        <time>2020-12-08T08:25:54Z</time>
      </trkpt>
      <trkpt lat="36.6786210" lon="-6.0474010">
        <ele>73.6</ele>
        <time>2020-12-08T08:25:57Z</time>
      </trkpt>
      <trkpt lat="36.6784610" lon="-6.0470930">
        <ele>74.0</ele>
        <time>2020-12-08T08:26:02Z</time>
      </trkpt>
      <trkpt lat="36.6783390" lon="-6.0467750">
        <ele>74.6</ele>
        <time>2020-12-08T08:26:07Z</time>
      </trkpt>
      <trkpt lat="36.6782860" lon="-6.0465850">
        <ele>74.8</ele>
        <time>2020-12-08T08:26:10Z</time>
      </trkpt>
      <trkpt lat="36.6782190" lon="-6.0462610">
        <ele>75.8</ele>
        <time>2020-12-08T08:26:15Z</time>
      </trkpt>
      <trkpt lat="36.6781820" lon="-6.0459950">
        <ele>76.8</ele>
        <time>2020-12-08T08:26:19Z</time>
      </trkpt>
      <trkpt lat="36.6781740" lon="-6.0459300">
        <ele>76.8</ele>
        <time>2020-12-08T08:26:20Z</time>
      </trkpt>
      <trkpt lat="36.6781350" lon="-6.0456060">
        <ele>78.0</ele>
        <time>2020-12-08T08:26:25Z</time>
      </trkpt>
      <trkpt lat="36.6781040" lon="-6.0453470">
        <ele>79.0</ele>
        <time>2020-12-08T08:26:29Z</time>
      </trkpt>
      <trkpt lat="36.6780960" lon="-6.0452820">
        <ele>79.2</ele>
        <time>2020-12-08T08:26:30Z</time>
      </trkpt>
      <trkpt lat="36.6780510" lon="-6.0448880">
        <ele>80.2</ele>
        <time>2020-12-08T08:26:36Z</time>
      </trkpt>
      <trkpt lat="36.6780190" lon="-6.0445640">
        <ele>80.8</ele>
        <time>2020-12-08T08:26:41Z</time>
      </trkpt>
      <trkpt lat="36.6779970" lon="-6.0443730">
        <ele>81.4</ele>
        <time>2020-12-08T08:26:44Z</time>
      </trkpt>
      <trkpt lat="36.6779380" lon="-6.0440580">
        <ele>82.6</ele>
        <time>2020-12-08T08:26:49Z</time>
      </trkpt>
      <trkpt lat="36.6779220" lon="-6.0439960">
        <ele>82.8</ele>
        <time>2020-12-08T08:26:50Z</time>
      </trkpt>
      <trkpt lat="36.6778500" lon="-6.0437580">
        <ele>83.6</ele>
        <time>2020-12-08T08:26:54Z</time>
      </trkpt>
      <trkpt lat="36.6777630" lon="-6.0435320">
        <ele>84.4</ele>
        <time>2020-12-08T08:26:58Z</time>
      </trkpt>
      <trkpt lat="36.6777090" lon="-6.0434280">
        <ele>84.8</ele>
        <time>2020-12-08T08:27:00Z</time>
      </trkpt>
      <trkpt lat="36.6775650" lon="-6.0431780">
        <ele>85.8</ele>
        <time>2020-12-08T08:27:05Z</time>
      </trkpt>
      <trkpt lat="36.6774050" lon="-6.0429540">
        <ele>87.0</ele>
        <time>2020-12-08T08:27:10Z</time>
      </trkpt>
      <trkpt lat="36.6773430" lon="-6.0428700">
        <ele>87.4</ele>
        <time>2020-12-08T08:27:12Z</time>
      </trkpt>
      <trkpt lat="36.6772810" lon="-6.0427920">
        <ele>88.2</ele>
        <time>2020-12-08T08:27:14Z</time>
      </trkpt>
      <trkpt lat="36.6771710" lon="-6.0426420">
        <ele>89.6</ele>
        <time>2020-12-08T08:27:18Z</time>
      </trkpt>
      <trkpt lat="36.6770930" lon="-6.0425210">
        <ele>90.6</ele>
        <time>2020-12-08T08:27:21Z</time>
      </trkpt>
      <trkpt lat="36.6770200" lon="-6.0423970">
        <ele>91.6</ele>
        <time>2020-12-08T08:27:24Z</time>
      </trkpt>
      <trkpt lat="36.6769370" lon="-6.0422190">
        <ele>92.8</ele>
        <time>2020-12-08T08:27:28Z</time>
      </trkpt>
      <trkpt lat="36.6769020" lon="-6.0421230">
        <ele>93.4</ele>
        <time>2020-12-08T08:27:30Z</time>
      </trkpt>
      <trkpt lat="36.6768660" lon="-6.0420240">
        <ele>94.0</ele>
        <time>2020-12-08T08:27:32Z</time>
      </trkpt>
      <trkpt lat="36.6768110" lon="-6.0418140">
        <ele>95.2</ele>
        <time>2020-12-08T08:27:36Z</time>
      </trkpt>
      <trkpt lat="36.6767830" lon="-6.0416510">
        <ele>95.8</ele>
        <time>2020-12-08T08:27:39Z</time>
      </trkpt>
      <trkpt lat="36.6767700" lon="-6.0415400">
        <ele>96.4</ele>
        <time>2020-12-08T08:27:41Z</time>
      </trkpt>
      <trkpt lat="36.6767560" lon="-6.0413150">
        <ele>97.4</ele>
        <time>2020-12-08T08:27:45Z</time>
      </trkpt>
      <trkpt lat="36.6767600" lon="-6.0411460">
        <ele>98.2</ele>
        <time>2020-12-08T08:27:48Z</time>
      </trkpt>
      <trkpt lat="36.6767640" lon="-6.0410890">
        <ele>98.4</ele>
        <time>2020-12-08T08:27:49Z</time>
      </trkpt>
      <trkpt lat="36.6767930" lon="-6.0408650">
        <ele>99.6</ele>
        <time>2020-12-08T08:27:53Z</time>
      </trkpt>
      <trkpt lat="36.6768310" lon="-6.0406940">
        <ele>100.4</ele>
        <time>2020-12-08T08:27:56Z</time>
      </trkpt>
      <trkpt lat="36.6768450" lon="-6.0406360">
        <ele>100.6</ele>
        <time>2020-12-08T08:27:57Z</time>
      </trkpt>
      <trkpt lat="36.6769190" lon="-6.0404070">
        <ele>101.6</ele>
        <time>2020-12-08T08:28:01Z</time>
      </trkpt>
      <trkpt lat="36.6769870" lon="-6.0402350">
        <ele>102.4</ele>
        <time>2020-12-08T08:28:04Z</time>
      </trkpt>
      <trkpt lat="36.6770120" lon="-6.0401760">
        <ele>102.8</ele>
        <time>2020-12-08T08:28:05Z</time>
      </trkpt>
      <trkpt lat="36.6771410" lon="-6.0398680">
        <ele>103.8</ele>
        <time>2020-12-08T08:28:10Z</time>
      </trkpt>
      <trkpt lat="36.6772200" lon="-6.0396750">
        <ele>104.4</ele>
        <time>2020-12-08T08:28:13Z</time>
      </trkpt>
      <trkpt lat="36.6773840" lon="-6.0392790">
        <ele>104.8</ele>
        <time>2020-12-08T08:28:19Z</time>
      </trkpt>
      <trkpt lat="36.6774390" lon="-6.0391430">
        <ele>105.0</ele>
        <time>2020-12-08T08:28:21Z</time>
      </trkpt>
      <trkpt lat="36.6776140" lon="-6.0387380">
        <ele>105.8</ele>
        <time>2020-12-08T08:28:27Z</time>
      </trkpt>
      <trkpt lat="36.6777000" lon="-6.0385370">
        <ele>106.6</ele>
        <time>2020-12-08T08:28:30Z</time>
      </trkpt>
      <trkpt lat="36.6777820" lon="-6.0383350">
        <ele>106.8</ele>
        <time>2020-12-08T08:28:33Z</time>
      </trkpt>
      <trkpt lat="36.6780130" lon="-6.0377770">
        <ele>107.6</ele>
        <time>2020-12-08T08:28:41Z</time>
      </trkpt>
      <trkpt lat="36.6781010" lon="-6.0375690">
        <ele>108.0</ele>
        <time>2020-12-08T08:28:44Z</time>
      </trkpt>
      <trkpt lat="36.6782850" lon="-6.0371430">
        <ele>109.6</ele>
        <time>2020-12-08T08:28:50Z</time>
      </trkpt>
      <trkpt lat="36.6785280" lon="-6.0365530">
        <ele>109.8</ele>
        <time>2020-12-08T08:28:57Z</time>
      </trkpt>
      <trkpt lat="36.6788050" lon="-6.0358950">
        <ele>108.6</ele>
        <time>2020-12-08T08:29:04Z</time>
      </trkpt>
      <trkpt lat="36.6788470" lon="-6.0357950">
        <ele>108.4</ele>
        <time>2020-12-08T08:29:05Z</time>
      </trkpt>
      <trkpt lat="36.6791090" lon="-6.0351730">
        <ele>107.6</ele>
        <time>2020-12-08T08:29:11Z</time>
      </trkpt>
      <trkpt lat="36.6791530" lon="-6.0350650">
        <ele>107.6</ele>
        <time>2020-12-08T08:29:12Z</time>
      </trkpt>
      <trkpt lat="36.6792670" lon="-6.0347310">
        <ele>107.4</ele>
        <time>2020-12-08T08:29:15Z</time>
      </trkpt>
      <trkpt lat="36.6793580" lon="-6.0343840">
        <ele>106.6</ele>
        <time>2020-12-08T08:29:18Z</time>
      </trkpt>
      <trkpt lat="36.6793850" lon="-6.0342670">
        <ele>106.2</ele>
        <time>2020-12-08T08:29:19Z</time>
      </trkpt>
      <trkpt lat="36.6794460" lon="-6.0337960">
        <ele>105.4</ele>
        <time>2020-12-08T08:29:23Z</time>
      </trkpt>
      <trkpt lat="36.6794570" lon="-6.0335640">
        <ele>105.2</ele>
        <time>2020-12-08T08:29:25Z</time>
      </trkpt>
      <trkpt lat="36.6794460" lon="-6.0331150">
        <ele>104.8</ele>
        <time>2020-12-08T08:29:29Z</time>
      </trkpt>
      <trkpt lat="36.6793600" lon="-6.0325930">
        <ele>105.0</ele>
        <time>2020-12-08T08:29:34Z</time>
      </trkpt>
      <trkpt lat="36.6792280" lon="-6.0319010">
        <ele>106.0</ele>
        <time>2020-12-08T08:29:41Z</time>
      </trkpt>
      <trkpt lat="36.6791980" lon="-6.0316980">
        <ele>106.2</ele>
        <time>2020-12-08T08:29:43Z</time>
      </trkpt>
      <trkpt lat="36.6791520" lon="-6.0311750">
        <ele>107.4</ele>
        <time>2020-12-08T08:29:48Z</time>
      </trkpt>
      <trkpt lat="36.6791450" lon="-6.0310660">
        <ele>107.4</ele>
        <time>2020-12-08T08:29:49Z</time>
      </trkpt>
      <trkpt lat="36.6791140" lon="-6.0303870">
        <ele>107.4</ele>
        <time>2020-12-08T08:29:55Z</time>
      </trkpt>
      <trkpt lat="36.6791030" lon="-6.0300500">
        <ele>107.0</ele>
        <time>2020-12-08T08:29:58Z</time>
      </trkpt>
      <trkpt lat="36.6790390" lon="-6.0293140">
        <ele>106.8</ele>
        <time>2020-12-08T08:30:05Z</time>
      </trkpt>
      <trkpt lat="36.6789160" lon="-6.0286510">
        <ele>107.6</ele>
        <time>2020-12-08T08:30:12Z</time>
      </trkpt>
      <trkpt lat="36.6787960" lon="-6.0282210">
        <ele>108.8</ele>
        <time>2020-12-08T08:30:17Z</time>
      </trkpt>
      <trkpt lat="36.6787440" lon="-6.0280590">
        <ele>109.2</ele>
        <time>2020-12-08T08:30:19Z</time>
      </trkpt>
      <trkpt lat="36.6785320" lon="-6.0275070">
        <ele>110.0</ele>
        <time>2020-12-08T08:30:26Z</time>
      </trkpt>
      <trkpt lat="36.6784250" lon="-6.0272660">
        <ele>110.6</ele>
        <time>2020-12-08T08:30:29Z</time>
      </trkpt>
      <trkpt lat="36.6783130" lon="-6.0270230">
        <ele>111.2</ele>
        <time>2020-12-08T08:30:32Z</time>
      </trkpt>
      <trkpt lat="36.6781200" lon="-6.0266110">
        <ele>111.2</ele>
        <time>2020-12-08T08:30:37Z</time>
      </trkpt>
      <trkpt lat="36.6778600" lon="-6.0259560">
        <ele>111.4</ele>
        <time>2020-12-08T08:30:45Z</time>
      </trkpt>
      <trkpt lat="36.6776440" lon="-6.0252560">
        <ele>112.0</ele>
        <time>2020-12-08T08:30:53Z</time>
      </trkpt>
      <trkpt lat="36.6775930" lon="-6.0250680">
        <ele>112.0</ele>
        <time>2020-12-08T08:30:55Z</time>
      </trkpt>
      <trkpt lat="36.6773920" lon="-6.0243580">
        <ele>111.8</ele>
        <time>2020-12-08T08:31:02Z</time>
      </trkpt>
      <trkpt lat="36.6772190" lon="-6.0236240">
        <ele>110.8</ele>
        <time>2020-12-08T08:31:09Z</time>
      </trkpt>
      <trkpt lat="36.6771830" lon="-6.0234120">
        <ele>110.4</ele>
        <time>2020-12-08T08:31:11Z</time>
      </trkpt>
      <trkpt lat="36.6771510" lon="-6.0232000">
        <ele>110.0</ele>
        <time>2020-12-08T08:31:13Z</time>
      </trkpt>
      <trkpt lat="36.6771070" lon="-6.0225710">
        <ele>109.8</ele>
        <time>2020-12-08T08:31:19Z</time>
      </trkpt>
      <trkpt lat="36.6771270" lon="-6.0218530">
        <ele>110.0</ele>
        <time>2020-12-08T08:31:26Z</time>
      </trkpt>
      <trkpt lat="36.6771360" lon="-6.0217510">
        <ele>110.0</ele>
        <time>2020-12-08T08:31:27Z</time>
      </trkpt>
      <trkpt lat="36.6772330" lon="-6.0210420">
        <ele>110.4</ele>
        <time>2020-12-08T08:31:34Z</time>
      </trkpt>
      <trkpt lat="36.6772720" lon="-6.0208470">
        <ele>110.4</ele>
        <time>2020-12-08T08:31:36Z</time>
      </trkpt>
      <trkpt lat="36.6774500" lon="-6.0201870">
        <ele>110.6</ele>
        <time>2020-12-08T08:31:43Z</time>
      </trkpt>
      <trkpt lat="36.6774800" lon="-6.0200970">
        <ele>110.8</ele>
        <time>2020-12-08T08:31:44Z</time>
      </trkpt>
      <trkpt lat="36.6776470" lon="-6.0196720">
        <ele>111.0</ele>
        <time>2020-12-08T08:31:49Z</time>
      </trkpt>
      <trkpt lat="36.6777570" lon="-6.0194330">
        <ele>111.4</ele>
        <time>2020-12-08T08:31:52Z</time>
      </trkpt>
      <trkpt lat="36.6779050" lon="-6.0191290">
        <ele>112.2</ele>
        <time>2020-12-08T08:31:56Z</time>
      </trkpt>
      <trkpt lat="36.6780460" lon="-6.0188420">
        <ele>113.4</ele>
        <time>2020-12-08T08:32:00Z</time>
      </trkpt>
      <trkpt lat="36.6781890" lon="-6.0185770">
        <ele>114.4</ele>
        <time>2020-12-08T08:32:04Z</time>
      </trkpt>
      <trkpt lat="36.6783690" lon="-6.0182660">
        <ele>115.6</ele>
        <time>2020-12-08T08:32:09Z</time>
      </trkpt>
      <trkpt lat="36.6784060" lon="-6.0182070">
        <ele>115.8</ele>
        <time>2020-12-08T08:32:10Z</time>
      </trkpt>
      <trkpt lat="36.6785200" lon="-6.0180330">
        <ele>116.8</ele>
        <time>2020-12-08T08:32:13Z</time>
      </trkpt>
      <trkpt lat="36.6787190" lon="-6.0177570">
        <ele>118.0</ele>
        <time>2020-12-08T08:32:18Z</time>
      </trkpt>
      <trkpt lat="36.6788440" lon="-6.0175970">
        <ele>118.8</ele>
        <time>2020-12-08T08:32:21Z</time>
      </trkpt>
      <trkpt lat="36.6788860" lon="-6.0175440">
        <ele>119.0</ele>
        <time>2020-12-08T08:32:22Z</time>
      </trkpt>
      <trkpt lat="36.6790950" lon="-6.0172750">
        <ele>120.2</ele>
        <time>2020-12-08T08:32:27Z</time>
      </trkpt>
      <trkpt lat="36.6792640" lon="-6.0170620">
        <ele>121.2</ele>
        <time>2020-12-08T08:32:31Z</time>
      </trkpt>
      <trkpt lat="36.6793050" lon="-6.0170080">
        <ele>121.4</ele>
        <time>2020-12-08T08:32:32Z</time>
      </trkpt>
      <trkpt lat="36.6795170" lon="-6.0167390">
        <ele>122.4</ele>
        <time>2020-12-08T08:32:37Z</time>
      </trkpt>
      <trkpt lat="36.6796840" lon="-6.0165200">
        <ele>123.4</ele>
        <time>2020-12-08T08:32:41Z</time>
      </trkpt>
      <trkpt lat="36.6797240" lon="-6.0164630">
        <ele>123.6</ele>
        <time>2020-12-08T08:32:42Z</time>
      </trkpt>
      <trkpt lat="36.6799070" lon="-6.0161560">
        <ele>124.8</ele>
        <time>2020-12-08T08:32:47Z</time>
      </trkpt>
      <trkpt lat="36.6799700" lon="-6.0160220">
        <ele>125.0</ele>
        <time>2020-12-08T08:32:49Z</time>
      </trkpt>
      <trkpt lat="36.6800720" lon="-6.0157340">
        <ele>126.0</ele>
        <time>2020-12-08T08:32:53Z</time>
      </trkpt>
      <trkpt lat="36.6801280" lon="-6.0155020">
        <ele>126.6</ele>
        <time>2020-12-08T08:32:56Z</time>
      </trkpt>
      <trkpt lat="36.6801560" lon="-6.0153420">
        <ele>127.0</ele>
        <time>2020-12-08T08:32:58Z</time>
      </trkpt>
      <trkpt lat="36.6801900" lon="-6.0149270">
        <ele>127.6</ele>
        <time>2020-12-08T08:33:03Z</time>
      </trkpt>
      <trkpt lat="36.6802170" lon="-6.0142210">
        <ele>127.8</ele>
        <time>2020-12-08T08:33:11Z</time>
      </trkpt>
      <trkpt lat="36.6802310" lon="-6.0138490">
        <ele>127.8</ele>
        <time>2020-12-08T08:33:15Z</time>
      </trkpt>
      <trkpt lat="36.6802420" lon="-6.0131500">
        <ele>127.6</ele>
        <time>2020-12-08T08:33:22Z</time>
      </trkpt>
      <trkpt lat="36.6802340" lon="-6.0130440">
        <ele>127.4</ele>
        <time>2020-12-08T08:33:23Z</time>
      </trkpt>
      <trkpt lat="36.6801370" lon="-6.0125170">
        <ele>126.8</ele>
        <time>2020-12-08T08:33:28Z</time>
      </trkpt>
      <trkpt lat="36.6799880" lon="-6.0121290">
        <ele>125.8</ele>
        <time>2020-12-08T08:33:32Z</time>
      </trkpt>
      <trkpt lat="36.6799420" lon="-6.0120390">
        <ele>125.6</ele>
        <time>2020-12-08T08:33:33Z</time>
      </trkpt>
      <trkpt lat="36.6798400" lon="-6.0118710">
        <ele>124.8</ele>
        <time>2020-12-08T08:33:35Z</time>
      </trkpt>
      <trkpt lat="36.6796660" lon="-6.0116430">
        <ele>123.8</ele>
        <time>2020-12-08T08:33:38Z</time>
      </trkpt>
      <trkpt lat="36.6796010" lon="-6.0115760">
        <ele>123.6</ele>
        <time>2020-12-08T08:33:39Z</time>
      </trkpt>
      <trkpt lat="36.6792410" lon="-6.0112860">
        <ele>123.2</ele>
        <time>2020-12-08T08:33:44Z</time>
      </trkpt>
      <trkpt lat="36.6788990" lon="-6.0109580">
        <ele>123.0</ele>
        <time>2020-12-08T08:33:49Z</time>
      </trkpt>
      <trkpt lat="36.6784870" lon="-6.0103770">
        <ele>122.8</ele>
        <time>2020-12-08T08:33:56Z</time>
      </trkpt>
      <trkpt lat="36.6781250" lon="-6.0098450">
        <ele>122.4</ele>
        <time>2020-12-08T08:34:02Z</time>
      </trkpt>
      <trkpt lat="36.6778770" lon="-6.0094770">
        <ele>122.0</ele>
        <time>2020-12-08T08:34:06Z</time>
      </trkpt>
      <trkpt lat="36.6776310" lon="-6.0091090">
        <ele>121.4</ele>
        <time>2020-12-08T08:34:10Z</time>
      </trkpt>
      <trkpt lat="36.6774490" lon="-6.0088290">
        <ele>120.8</ele>
        <time>2020-12-08T08:34:13Z</time>
      </trkpt>
      <trkpt lat="36.6771550" lon="-6.0083410">
        <ele>120.4</ele>
        <time>2020-12-08T08:34:18Z</time>
      </trkpt>
      <trkpt lat="36.6768600" lon="-6.0078400">
        <ele>120.0</ele>
        <time>2020-12-08T08:34:23Z</time>
      </trkpt>
      <trkpt lat="36.6765130" lon="-6.0072390">
        <ele>119.2</ele>
        <time>2020-12-08T08:34:29Z</time>
      </trkpt>
      <trkpt lat="36.6763460" lon="-6.0069500">
        <ele>118.8</ele>
        <time>2020-12-08T08:34:32Z</time>
      </trkpt>
      <trkpt lat="36.6759960" lon="-6.0064250">
        <ele>118.6</ele>
        <time>2020-12-08T08:34:38Z</time>
      </trkpt>
      <trkpt lat="36.6759320" lon="-6.0063470">
        <ele>118.6</ele>
        <time>2020-12-08T08:34:39Z</time>
      </trkpt>
      <trkpt lat="36.6755130" lon="-6.0059550">
        <ele>119.0</ele>
        <time>2020-12-08T08:34:45Z</time>
      </trkpt>
      <trkpt lat="36.6750500" lon="-6.0056070">
        <ele>119.0</ele>
        <time>2020-12-08T08:34:51Z</time>
      </trkpt>
      <trkpt lat="36.6749680" lon="-6.0055450">
        <ele>119.0</ele>
        <time>2020-12-08T08:34:52Z</time>
      </trkpt>
      <trkpt lat="36.6744400" lon="-6.0051430">
        <ele>119.0</ele>
        <time>2020-12-08T08:34:58Z</time>
      </trkpt>
      <trkpt lat="36.6743470" lon="-6.0050750">
        <ele>118.6</ele>
        <time>2020-12-08T08:34:59Z</time>
      </trkpt>
      <trkpt lat="36.6740600" lon="-6.0048680">
        <ele>117.6</ele>
        <time>2020-12-08T08:35:02Z</time>
      </trkpt>
      <trkpt lat="36.6738660" lon="-6.0047260">
        <ele>115.6</ele>
        <time>2020-12-08T08:35:04Z</time>
      </trkpt>
      <trkpt lat="36.6735730" lon="-6.0045040">
        <ele>113.6</ele>
        <time>2020-12-08T08:35:07Z</time>
      </trkpt>
      <trkpt lat="36.6734750" lon="-6.0044280">
        <ele>112.6</ele>
        <time>2020-12-08T08:35:08Z</time>
      </trkpt>
      <trkpt lat="36.6733770" lon="-6.0043530">
        <ele>112.0</ele>
        <time>2020-12-08T08:35:09Z</time>
      </trkpt>
      <trkpt lat="36.6730860" lon="-6.0041200">
        <ele>110.8</ele>
        <time>2020-12-08T08:35:12Z</time>
      </trkpt>
      <trkpt lat="36.6727990" lon="-6.0038700">
        <ele>109.6</ele>
        <time>2020-12-08T08:35:15Z</time>
      </trkpt>
      <trkpt lat="36.6726150" lon="-6.0036840">
        <ele>108.4</ele>
        <time>2020-12-08T08:35:17Z</time>
      </trkpt>
      <trkpt lat="36.6723510" lon="-6.0033800">
        <ele>107.2</ele>
        <time>2020-12-08T08:35:20Z</time>
      </trkpt>
      <trkpt lat="36.6720930" lon="-6.0030540">
        <ele>106.2</ele>
        <time>2020-12-08T08:35:23Z</time>
      </trkpt>
      <trkpt lat="36.6720070" lon="-6.0029430">
        <ele>105.8</ele>
        <time>2020-12-08T08:35:24Z</time>
      </trkpt>
      <trkpt lat="36.6718330" lon="-6.0027250">
        <ele>104.6</ele>
        <time>2020-12-08T08:35:26Z</time>
      </trkpt>
      <trkpt lat="36.6716580" lon="-6.0025100">
        <ele>103.4</ele>
        <time>2020-12-08T08:35:28Z</time>
      </trkpt>
      <trkpt lat="36.6714040" lon="-6.0021850">
        <ele>102.4</ele>
        <time>2020-12-08T08:35:31Z</time>
      </trkpt>
      <trkpt lat="36.6712470" lon="-6.0019620">
        <ele>100.6</ele>
        <time>2020-12-08T08:35:33Z</time>
      </trkpt>
      <trkpt lat="36.6710440" lon="-6.0016040">
        <ele>99.2</ele>
        <time>2020-12-08T08:35:36Z</time>
      </trkpt>
      <trkpt lat="36.6709350" lon="-6.0013450">
        <ele>98.4</ele>
        <time>2020-12-08T08:35:38Z</time>
      </trkpt>
      <trkpt lat="36.6708880" lon="-6.0012100">
        <ele>97.8</ele>
        <time>2020-12-08T08:35:39Z</time>
      </trkpt>
      <trkpt lat="36.6706860" lon="-6.0005220">
        <ele>96.8</ele>
        <time>2020-12-08T08:35:44Z</time>
      </trkpt>
      <trkpt lat="36.6706410" lon="-6.0003850">
        <ele>96.6</ele>
        <time>2020-12-08T08:35:45Z</time>
      </trkpt>
      <trkpt lat="36.6704800" lon="-5.9999870">
        <ele>95.0</ele>
        <time>2020-12-08T08:35:48Z</time>
      </trkpt>
      <trkpt lat="36.6704150" lon="-5.9998630">
        <ele>94.4</ele>
        <time>2020-12-08T08:35:49Z</time>
      </trkpt>
      <trkpt lat="36.6703440" lon="-5.9997430">
        <ele>94.0</ele>
        <time>2020-12-08T08:35:50Z</time>
      </trkpt>
      <trkpt lat="36.6701000" lon="-5.9994130">
        <ele>93.4</ele>
        <time>2020-12-08T08:35:53Z</time>
      </trkpt>
      <trkpt lat="36.6700130" lon="-5.9993090">
        <ele>93.0</ele>
        <time>2020-12-08T08:35:54Z</time>
      </trkpt>
      <trkpt lat="36.6696510" lon="-5.9989110">
        <ele>91.6</ele>
        <time>2020-12-08T08:35:58Z</time>
      </trkpt>
      <trkpt lat="36.6695620" lon="-5.9988060">
        <ele>91.4</ele>
        <time>2020-12-08T08:35:59Z</time>
      </trkpt>
      <trkpt lat="36.6693880" lon="-5.9985850">
        <ele>90.6</ele>
        <time>2020-12-08T08:36:01Z</time>
      </trkpt>
      <trkpt lat="36.6693030" lon="-5.9984690">
        <ele>89.2</ele>
        <time>2020-12-08T08:36:02Z</time>
      </trkpt>
      <trkpt lat="36.6691390" lon="-5.9982240">
        <ele>88.0</ele>
        <time>2020-12-08T08:36:04Z</time>
      </trkpt>
      <trkpt lat="36.6690590" lon="-5.9980970">
        <ele>87.0</ele>
        <time>2020-12-08T08:36:05Z</time>
      </trkpt>
      <trkpt lat="36.6689810" lon="-5.9979660">
        <ele>86.6</ele>
        <time>2020-12-08T08:36:06Z</time>
      </trkpt>
      <trkpt lat="36.6687690" lon="-5.9975570">
        <ele>85.2</ele>
        <time>2020-12-08T08:36:09Z</time>
      </trkpt>
      <trkpt lat="36.6687040" lon="-5.9974190">
        <ele>84.4</ele>
        <time>2020-12-08T08:36:10Z</time>
      </trkpt>
      <trkpt lat="36.6686430" lon="-5.9972810">
        <ele>83.8</ele>
        <time>2020-12-08T08:36:11Z</time>
      </trkpt>
      <trkpt lat="36.6684850" lon="-5.9968650">
        <ele>82.0</ele>
        <time>2020-12-08T08:36:14Z</time>
      </trkpt>
      <trkpt lat="36.6684380" lon="-5.9967280">
        <ele>80.8</ele>
        <time>2020-12-08T08:36:15Z</time>
      </trkpt>
      <trkpt lat="36.6683540" lon="-5.9964530">
        <ele>79.0</ele>
        <time>2020-12-08T08:36:17Z</time>
      </trkpt>
      <trkpt lat="36.6682840" lon="-5.9961780">
        <ele>77.4</ele>
        <time>2020-12-08T08:36:19Z</time>
      </trkpt>
      <trkpt lat="36.6682220" lon="-5.9959010">
        <ele>77.0</ele>
        <time>2020-12-08T08:36:21Z</time>
      </trkpt>
      <trkpt lat="36.6681070" lon="-5.9951920">
        <ele>76.6</ele>
        <time>2020-12-08T08:36:26Z</time>
      </trkpt>
      <trkpt lat="36.6680650" lon="-5.9949060">
        <ele>76.6</ele>
        <time>2020-12-08T08:36:28Z</time>
      </trkpt>
      <trkpt lat="36.6679930" lon="-5.9944810">
        <ele>76.2</ele>
        <time>2020-12-08T08:36:31Z</time>
      </trkpt>
      <trkpt lat="36.6678600" lon="-5.9939270">
        <ele>75.4</ele>
        <time>2020-12-08T08:36:35Z</time>
      </trkpt>
      <trkpt lat="36.6677790" lon="-5.9936580">
        <ele>74.8</ele>
        <time>2020-12-08T08:36:37Z</time>
      </trkpt>
      <trkpt lat="36.6675890" lon="-5.9931390">
        <ele>74.0</ele>
        <time>2020-12-08T08:36:41Z</time>
      </trkpt>
      <trkpt lat="36.6674790" lon="-5.9928900">
        <ele>73.4</ele>
        <time>2020-12-08T08:36:43Z</time>
      </trkpt>
      <trkpt lat="36.6672970" lon="-5.9925280">
        <ele>72.0</ele>
        <time>2020-12-08T08:36:46Z</time>
      </trkpt>
      <trkpt lat="36.6671670" lon="-5.9922930">
        <ele>71.6</ele>
        <time>2020-12-08T08:36:48Z</time>
      </trkpt>
      <trkpt lat="36.6670310" lon="-5.9920660">
        <ele>71.0</ele>
        <time>2020-12-08T08:36:50Z</time>
      </trkpt>
      <trkpt lat="36.6666930" lon="-5.9915040">
        <ele>70.0</ele>
        <time>2020-12-08T08:36:55Z</time>
      </trkpt>
      <trkpt lat="36.6666270" lon="-5.9913920">
        <ele>69.8</ele>
        <time>2020-12-08T08:36:56Z</time>
      </trkpt>
      <trkpt lat="36.6664270" lon="-5.9910600">
        <ele>68.6</ele>
        <time>2020-12-08T08:36:59Z</time>
      </trkpt>
      <trkpt lat="36.6662290" lon="-5.9907370">
        <ele>67.4</ele>
        <time>2020-12-08T08:37:02Z</time>
      </trkpt>
      <trkpt lat="36.6658480" lon="-5.9901070">
        <ele>66.0</ele>
        <time>2020-12-08T08:37:08Z</time>
      </trkpt>
      <trkpt lat="36.6657850" lon="-5.9900050">
        <ele>65.8</ele>
        <time>2020-12-08T08:37:09Z</time>
      </trkpt>
      <trkpt lat="36.6654120" lon="-5.9893780">
        <ele>65.4</ele>
        <time>2020-12-08T08:37:15Z</time>
      </trkpt>
      <trkpt lat="36.6652210" lon="-5.9890560">
        <ele>65.2</ele>
        <time>2020-12-08T08:37:18Z</time>
      </trkpt>
      <trkpt lat="36.6651560" lon="-5.9889490">
        <ele>65.0</ele>
        <time>2020-12-08T08:37:19Z</time>
      </trkpt>
      <trkpt lat="36.6648270" lon="-5.9884020">
        <ele>64.0</ele>
        <time>2020-12-08T08:37:24Z</time>
      </trkpt>
      <trkpt lat="36.6647600" lon="-5.9882920">
        <ele>63.8</ele>
        <time>2020-12-08T08:37:25Z</time>
      </trkpt>
      <trkpt lat="36.6646280" lon="-5.9880670">
        <ele>62.4</ele>
        <time>2020-12-08T08:37:27Z</time>
      </trkpt>
      <trkpt lat="36.6645630" lon="-5.9879540">
        <ele>61.8</ele>
        <time>2020-12-08T08:37:28Z</time>
      </trkpt>
      <trkpt lat="36.6644310" lon="-5.9877290">
        <ele>61.0</ele>
        <time>2020-12-08T08:37:30Z</time>
      </trkpt>
      <trkpt lat="36.6642310" lon="-5.9873960">
        <ele>59.6</ele>
        <time>2020-12-08T08:37:33Z</time>
      </trkpt>
      <trkpt lat="36.6639650" lon="-5.9869540">
        <ele>58.4</ele>
        <time>2020-12-08T08:37:37Z</time>
      </trkpt>
      <trkpt lat="36.6637670" lon="-5.9866270">
        <ele>57.6</ele>
        <time>2020-12-08T08:37:40Z</time>
      </trkpt>
      <trkpt lat="36.6635740" lon="-5.9863010">
        <ele>57.2</ele>
        <time>2020-12-08T08:37:43Z</time>
      </trkpt>
      <trkpt lat="36.6633820" lon="-5.9859810">
        <ele>56.0</ele>
        <time>2020-12-08T08:37:46Z</time>
      </trkpt>
      <trkpt lat="36.6631320" lon="-5.9855540">
        <ele>55.2</ele>
        <time>2020-12-08T08:37:50Z</time>
      </trkpt>
      <trkpt lat="36.6630700" lon="-5.9854480">
        <ele>55.0</ele>
        <time>2020-12-08T08:37:51Z</time>
      </trkpt>
      <trkpt lat="36.6627760" lon="-5.9849070">
        <ele>53.6</ele>
        <time>2020-12-08T08:37:56Z</time>
      </trkpt>
      <trkpt lat="36.6626150" lon="-5.9845720">
        <ele>53.0</ele>
        <time>2020-12-08T08:37:59Z</time>
      </trkpt>
      <trkpt lat="36.6625110" lon="-5.9843470">
        <ele>52.6</ele>
        <time>2020-12-08T08:38:01Z</time>
      </trkpt>
      <trkpt lat="36.6622390" lon="-5.9836710">
        <ele>51.8</ele>
        <time>2020-12-08T08:38:07Z</time>
      </trkpt>
      <trkpt lat="36.6621970" lon="-5.9835610">
        <ele>51.8</ele>
        <time>2020-12-08T08:38:08Z</time>
      </trkpt>
      <trkpt lat="36.6619690" lon="-5.9828970">
        <ele>51.8</ele>
        <time>2020-12-08T08:38:14Z</time>
      </trkpt>
      <trkpt lat="36.6618630" lon="-5.9825620">
        <ele>51.6</ele>
        <time>2020-12-08T08:38:17Z</time>
      </trkpt>
      <trkpt lat="36.6616890" lon="-5.9818720">
        <ele>51.6</ele>
        <time>2020-12-08T08:38:23Z</time>
      </trkpt>
      <trkpt lat="36.6616380" lon="-5.9816360">
        <ele>51.4</ele>
        <time>2020-12-08T08:38:25Z</time>
      </trkpt>
      <trkpt lat="36.6614850" lon="-5.9809030">
        <ele>51.4</ele>
        <time>2020-12-08T08:38:31Z</time>
      </trkpt>
      <trkpt lat="36.6614590" lon="-5.9807780">
        <ele>51.4</ele>
        <time>2020-12-08T08:38:32Z</time>
      </trkpt>
      <trkpt lat="36.6612810" lon="-5.9800340">
        <ele>51.0</ele>
        <time>2020-12-08T08:38:38Z</time>
      </trkpt>
      <trkpt lat="36.6612030" lon="-5.9797960">
        <ele>51.0</ele>
        <time>2020-12-08T08:38:40Z</time>
      </trkpt>
      <trkpt lat="36.6609160" lon="-5.9791300">
        <ele>50.6</ele>
        <time>2020-12-08T08:38:46Z</time>
      </trkpt>
      <trkpt lat="36.6608640" lon="-5.9790260">
        <ele>50.6</ele>
        <time>2020-12-08T08:38:47Z</time>
      </trkpt>
      <trkpt lat="36.6606990" lon="-5.9787200">
        <ele>50.4</ele>
        <time>2020-12-08T08:38:50Z</time>
      </trkpt>
      <trkpt lat="36.6603680" lon="-5.9781070">
        <ele>50.2</ele>
        <time>2020-12-08T08:38:56Z</time>
      </trkpt>
      <trkpt lat="36.6600340" lon="-5.9774860">
        <ele>50.0</ele>
        <time>2020-12-08T08:39:02Z</time>
      </trkpt>
      <trkpt lat="36.6596990" lon="-5.9768640">
        <ele>49.6</ele>
        <time>2020-12-08T08:39:08Z</time>
      </trkpt>
      <trkpt lat="36.6594750" lon="-5.9764500">
        <ele>49.4</ele>
        <time>2020-12-08T08:39:12Z</time>
      </trkpt>
      <trkpt lat="36.6591370" lon="-5.9758220">
        <ele>49.0</ele>
        <time>2020-12-08T08:39:18Z</time>
      </trkpt>
      <trkpt lat="36.6590260" lon="-5.9756150">
        <ele>48.8</ele>
        <time>2020-12-08T08:39:20Z</time>
      </trkpt>
      <trkpt lat="36.6587040" lon="-5.9750180">
        <ele>48.6</ele>
        <time>2020-12-08T08:39:26Z</time>
      </trkpt>
      <trkpt lat="36.6585470" lon="-5.9747270">
        <ele>48.6</ele>
        <time>2020-12-08T08:39:29Z</time>
      </trkpt>
      <trkpt lat="36.6582380" lon="-5.9741570">
        <ele>48.8</ele>
        <time>2020-12-08T08:39:35Z</time>
      </trkpt>
      <trkpt lat="36.6579880" lon="-5.9736890">
        <ele>49.0</ele>
        <time>2020-12-08T08:39:40Z</time>
      </trkpt>
      <trkpt lat="36.6576900" lon="-5.9731240">
        <ele>49.6</ele>
        <time>2020-12-08T08:39:46Z</time>
      </trkpt>
      <trkpt lat="36.6575420" lon="-5.9728480">
        <ele>49.6</ele>
        <time>2020-12-08T08:39:49Z</time>
      </trkpt>
      <trkpt lat="36.6572020" lon="-5.9722150">
        <ele>50.0</ele>
        <time>2020-12-08T08:39:56Z</time>
      </trkpt>
      <trkpt lat="36.6571040" lon="-5.9720350">
        <ele>50.0</ele>
        <time>2020-12-08T08:39:58Z</time>
      </trkpt>
      <trkpt lat="36.6568160" lon="-5.9714940">
        <ele>50.4</ele>
        <time>2020-12-08T08:40:04Z</time>
      </trkpt>
      <trkpt lat="36.6566190" lon="-5.9711310">
        <ele>50.8</ele>
        <time>2020-12-08T08:40:08Z</time>
      </trkpt>
      <trkpt lat="36.6562740" lon="-5.9704990">
        <ele>51.2</ele>
        <time>2020-12-08T08:40:15Z</time>
      </trkpt>
      <trkpt lat="36.6561770" lon="-5.9703190">
        <ele>51.6</ele>
        <time>2020-12-08T08:40:17Z</time>
      </trkpt>
      <trkpt lat="36.6561290" lon="-5.9702290">
        <ele>51.6</ele>
        <time>2020-12-08T08:40:18Z</time>
      </trkpt>
      <trkpt lat="36.6557930" lon="-5.9696090">
        <ele>52.4</ele>
        <time>2020-12-08T08:40:25Z</time>
      </trkpt>
      <trkpt lat="36.6556490" lon="-5.9693420">
        <ele>52.6</ele>
        <time>2020-12-08T08:40:28Z</time>
      </trkpt>
      <trkpt lat="36.6556020" lon="-5.9692530">
        <ele>52.6</ele>
        <time>2020-12-08T08:40:29Z</time>
      </trkpt>
      <trkpt lat="36.6552610" lon="-5.9686200">
        <ele>53.2</ele>
        <time>2020-12-08T08:40:36Z</time>
      </trkpt>
      <trkpt lat="36.6550630" lon="-5.9682500">
        <ele>53.2</ele>
        <time>2020-12-08T08:40:40Z</time>
      </trkpt>
      <trkpt lat="36.6547150" lon="-5.9676070">
        <ele>53.2</ele>
        <time>2020-12-08T08:40:47Z</time>
      </trkpt>
      <trkpt lat="36.6544170" lon="-5.9670530">
        <ele>52.8</ele>
        <time>2020-12-08T08:40:53Z</time>
      </trkpt>
      <trkpt lat="36.6540700" lon="-5.9664090">
        <ele>52.6</ele>
        <time>2020-12-08T08:41:00Z</time>
      </trkpt>
      <trkpt lat="36.6538690" lon="-5.9660370">
        <ele>52.4</ele>
        <time>2020-12-08T08:41:04Z</time>
      </trkpt>
      <trkpt lat="36.6535680" lon="-5.9654760">
        <ele>52.4</ele>
        <time>2020-12-08T08:41:10Z</time>
      </trkpt>
      <trkpt lat="36.6532660" lon="-5.9649140">
        <ele>52.8</ele>
        <time>2020-12-08T08:41:16Z</time>
      </trkpt>
      <trkpt lat="36.6531650" lon="-5.9647260">
        <ele>52.8</ele>
        <time>2020-12-08T08:41:18Z</time>
      </trkpt>
      <trkpt lat="36.6528620" lon="-5.9641630">
        <ele>52.8</ele>
        <time>2020-12-08T08:41:24Z</time>
      </trkpt>
      <trkpt lat="36.6526160" lon="-5.9636900">
        <ele>52.6</ele>
        <time>2020-12-08T08:41:29Z</time>
      </trkpt>
      <trkpt lat="36.6523600" lon="-5.9630770">
        <ele>52.6</ele>
        <time>2020-12-08T08:41:35Z</time>
      </trkpt>
      <trkpt lat="36.6522850" lon="-5.9628600">
        <ele>52.4</ele>
        <time>2020-12-08T08:41:37Z</time>
      </trkpt>
      <trkpt lat="36.6520580" lon="-5.9621720">
        <ele>52.0</ele>
        <time>2020-12-08T08:41:43Z</time>
      </trkpt>
      <trkpt lat="36.6519780" lon="-5.9619420">
        <ele>51.6</ele>
        <time>2020-12-08T08:41:45Z</time>
      </trkpt>
      <trkpt lat="36.6519400" lon="-5.9618260">
        <ele>51.0</ele>
        <time>2020-12-08T08:41:46Z</time>
      </trkpt>
      <trkpt lat="36.6517900" lon="-5.9613640">
        <ele>50.0</ele>
        <time>2020-12-08T08:41:50Z</time>
      </trkpt>
      <trkpt lat="36.6515630" lon="-5.9606820">
        <ele>49.0</ele>
        <time>2020-12-08T08:41:56Z</time>
      </trkpt>
      <trkpt lat="36.6514880" lon="-5.9604570">
        <ele>49.2</ele>
        <time>2020-12-08T08:41:58Z</time>
      </trkpt>
      <trkpt lat="36.6512630" lon="-5.9597830">
        <ele>48.8</ele>
        <time>2020-12-08T08:42:04Z</time>
      </trkpt>
      <trkpt lat="36.6510790" lon="-5.9592250">
        <ele>48.8</ele>
        <time>2020-12-08T08:42:09Z</time>
      </trkpt>
      <trkpt lat="36.6509040" lon="-5.9585550">
        <ele>48.4</ele>
        <time>2020-12-08T08:42:15Z</time>
      </trkpt>
      <trkpt lat="36.6508840" lon="-5.9584400">
        <ele>48.4</ele>
        <time>2020-12-08T08:42:16Z</time>
      </trkpt>
      <trkpt lat="36.6508360" lon="-5.9577180">
        <ele>48.2</ele>
        <time>2020-12-08T08:42:22Z</time>
      </trkpt>
      <trkpt lat="36.6508840" lon="-5.9569400">
        <ele>47.8</ele>
        <time>2020-12-08T08:42:28Z</time>
      </trkpt>
      <trkpt lat="36.6508960" lon="-5.9568040">
        <ele>47.8</ele>
        <time>2020-12-08T08:42:29Z</time>
      </trkpt>
      <trkpt lat="36.6509080" lon="-5.9566660">
        <ele>47.6</ele>
        <time>2020-12-08T08:42:30Z</time>
      </trkpt>
      <trkpt lat="36.6509570" lon="-5.9560990">
        <ele>46.4</ele>
        <time>2020-12-08T08:42:34Z</time>
      </trkpt>
      <trkpt lat="36.6509810" lon="-5.9558060">
        <ele>45.0</ele>
        <time>2020-12-08T08:42:36Z</time>
      </trkpt>
      <trkpt lat="36.6509940" lon="-5.9556570">
        <ele>44.6</ele>
        <time>2020-12-08T08:42:37Z</time>
      </trkpt>
      <trkpt lat="36.6510070" lon="-5.9555070">
        <ele>44.0</ele>
        <time>2020-12-08T08:42:38Z</time>
      </trkpt>
      <trkpt lat="36.6510330" lon="-5.9552040">
        <ele>42.8</ele>
        <time>2020-12-08T08:42:40Z</time>
      </trkpt>
      <trkpt lat="36.6510790" lon="-5.9546020">
        <ele>41.2</ele>
        <time>2020-12-08T08:42:44Z</time>
      </trkpt>
      <trkpt lat="36.6510890" lon="-5.9543100">
        <ele>40.2</ele>
        <time>2020-12-08T08:42:46Z</time>
      </trkpt>
      <trkpt lat="36.6510390" lon="-5.9540420">
        <ele>39.0</ele>
        <time>2020-12-08T08:42:48Z</time>
      </trkpt>
      <trkpt lat="36.6509810" lon="-5.9539360">
        <ele>38.2</ele>
        <time>2020-12-08T08:42:49Z</time>
      </trkpt>
      <trkpt lat="36.6509150" lon="-5.9538470">
        <ele>37.6</ele>
        <time>2020-12-08T08:42:50Z</time>
      </trkpt>
      <trkpt lat="36.6508640" lon="-5.9537550">
        <ele>37.4</ele>
        <time>2020-12-08T08:42:51Z</time>
      </trkpt>
      <trkpt lat="36.6508410" lon="-5.9536540">
        <ele>37.2</ele>
        <time>2020-12-08T08:42:52Z</time>
      </trkpt>
      <trkpt lat="36.6508810" lon="-5.9534670">
        <ele>37.0</ele>
        <time>2020-12-08T08:42:54Z</time>
      </trkpt>
      <trkpt lat="36.6509910" lon="-5.9531990">
        <ele>37.0</ele>
        <time>2020-12-08T08:42:57Z</time>
      </trkpt>
      <trkpt lat="36.6509540" lon="-5.9529080">
        <ele>37.2</ele>
        <time>2020-12-08T08:43:00Z</time>
      </trkpt>
      <trkpt lat="36.6507950" lon="-5.9522490">
        <ele>38.8</ele>
        <time>2020-12-08T08:43:07Z</time>
      </trkpt>
      <trkpt lat="36.6507280" lon="-5.9519750">
        <ele>39.2</ele>
        <time>2020-12-08T08:43:10Z</time>
      </trkpt>
      <trkpt lat="36.6506630" lon="-5.9516950">
        <ele>39.8</ele>
        <time>2020-12-08T08:43:13Z</time>
      </trkpt>
      <trkpt lat="36.6505940" lon="-5.9513020">
        <ele>41.0</ele>
        <time>2020-12-08T08:43:17Z</time>
      </trkpt>
      <trkpt lat="36.6505810" lon="-5.9512000">
        <ele>41.2</ele>
        <time>2020-12-08T08:43:18Z</time>
      </trkpt>
      <trkpt lat="36.6505230" lon="-5.9504360">
        <ele>41.4</ele>
        <time>2020-12-08T08:43:25Z</time>
      </trkpt>
      <trkpt lat="36.6505020" lon="-5.9497180">
        <ele>40.6</ele>
        <time>2020-12-08T08:43:31Z</time>
      </trkpt>
      <trkpt lat="36.6504950" lon="-5.9494700">
        <ele>40.0</ele>
        <time>2020-12-08T08:43:33Z</time>
      </trkpt>
      <trkpt lat="36.6504900" lon="-5.9493460">
        <ele>39.6</ele>
        <time>2020-12-08T08:43:34Z</time>
      </trkpt>
      <trkpt lat="36.6504790" lon="-5.9489760">
        <ele>38.4</ele>
        <time>2020-12-08T08:43:37Z</time>
      </trkpt>
      <trkpt lat="36.6504720" lon="-5.9487320">
        <ele>37.2</ele>
        <time>2020-12-08T08:43:39Z</time>
      </trkpt>
      <trkpt lat="36.6504620" lon="-5.9483680">
        <ele>36.2</ele>
        <time>2020-12-08T08:43:42Z</time>
      </trkpt>
      <trkpt lat="36.6504520" lon="-5.9480030">
        <ele>35.8</ele>
        <time>2020-12-08T08:43:45Z</time>
      </trkpt>
      <trkpt lat="36.6504310" lon="-5.9472820">
        <ele>35.4</ele>
        <time>2020-12-08T08:43:51Z</time>
      </trkpt>
      <trkpt lat="36.6504090" lon="-5.9465720">
        <ele>35.2</ele>
        <time>2020-12-08T08:43:57Z</time>
      </trkpt>
      <trkpt lat="36.6503940" lon="-5.9458560">
        <ele>34.8</ele>
        <time>2020-12-08T08:44:03Z</time>
      </trkpt>
      <trkpt lat="36.6503780" lon="-5.9451520">
        <ele>34.6</ele>
        <time>2020-12-08T08:44:09Z</time>
      </trkpt>
      <trkpt lat="36.6503600" lon="-5.9443740">
        <ele>34.4</ele>
        <time>2020-12-08T08:44:16Z</time>
      </trkpt>
      <trkpt lat="36.6503430" lon="-5.9440470">
        <ele>34.4</ele>
        <time>2020-12-08T08:44:19Z</time>
      </trkpt>
      <trkpt lat="36.6502990" lon="-5.9433650">
        <ele>34.2</ele>
        <time>2020-12-08T08:44:25Z</time>
      </trkpt>
      <trkpt lat="36.6502840" lon="-5.9432460">
        <ele>34.2</ele>
        <time>2020-12-08T08:44:26Z</time>
      </trkpt>
      <trkpt lat="36.6502060" lon="-5.9425080">
        <ele>34.2</ele>
        <time>2020-12-08T08:44:32Z</time>
      </trkpt>
      <trkpt lat="36.6501760" lon="-5.9422570">
        <ele>34.0</ele>
        <time>2020-12-08T08:44:34Z</time>
      </trkpt>
      <trkpt lat="36.6500920" lon="-5.9415060">
        <ele>33.0</ele>
        <time>2020-12-08T08:44:40Z</time>
      </trkpt>
      <trkpt lat="36.6500530" lon="-5.9411460">
        <ele>32.8</ele>
        <time>2020-12-08T08:44:43Z</time>
      </trkpt>
      <trkpt lat="36.6499780" lon="-5.9404760">
        <ele>32.6</ele>
        <time>2020-12-08T08:44:49Z</time>
      </trkpt>
      <trkpt lat="36.6499550" lon="-5.9402640">
        <ele>32.6</ele>
        <time>2020-12-08T08:44:51Z</time>
      </trkpt>
      <trkpt lat="36.6498810" lon="-5.9395620">
        <ele>34.0</ele>
        <time>2020-12-08T08:44:58Z</time>
      </trkpt>
      <trkpt lat="36.6498700" lon="-5.9394660">
        <ele>34.0</ele>
        <time>2020-12-08T08:44:59Z</time>
      </trkpt>
      <trkpt lat="36.6498490" lon="-5.9392770">
        <ele>34.6</ele>
        <time>2020-12-08T08:45:01Z</time>
      </trkpt>
      <trkpt lat="36.6497860" lon="-5.9386920">
        <ele>35.8</ele>
        <time>2020-12-08T08:45:07Z</time>
      </trkpt>
      <trkpt lat="36.6497640" lon="-5.9384870">
        <ele>36.0</ele>
        <time>2020-12-08T08:45:09Z</time>
      </trkpt>
      <trkpt lat="36.6496800" lon="-5.9377320">
        <ele>36.0</ele>
        <time>2020-12-08T08:45:16Z</time>
      </trkpt>
      <trkpt lat="36.6496550" lon="-5.9375040">
        <ele>36.0</ele>
        <time>2020-12-08T08:45:18Z</time>
      </trkpt>
      <trkpt lat="36.6495810" lon="-5.9367950">
        <ele>35.4</ele>
        <time>2020-12-08T08:45:24Z</time>
      </trkpt>
      <trkpt lat="36.6495420" lon="-5.9364300">
        <ele>34.8</ele>
        <time>2020-12-08T08:45:27Z</time>
      </trkpt>
      <trkpt lat="36.6494940" lon="-5.9359470">
        <ele>33.6</ele>
        <time>2020-12-08T08:45:31Z</time>
      </trkpt>
      <trkpt lat="36.6494490" lon="-5.9355860">
        <ele>32.8</ele>
        <time>2020-12-08T08:45:34Z</time>
      </trkpt>
      <trkpt lat="36.6494360" lon="-5.9354650">
        <ele>32.4</ele>
        <time>2020-12-08T08:45:35Z</time>
      </trkpt>
      <trkpt lat="36.6493780" lon="-5.9349900">
        <ele>31.2</ele>
        <time>2020-12-08T08:45:39Z</time>
      </trkpt>
      <trkpt lat="36.6493510" lon="-5.9347470">
        <ele>30.2</ele>
        <time>2020-12-08T08:45:41Z</time>
      </trkpt>
      <trkpt lat="36.6493040" lon="-5.9342600">
        <ele>29.2</ele>
        <time>2020-12-08T08:45:45Z</time>
      </trkpt>
      <trkpt lat="36.6492750" lon="-5.9340160">
        <ele>28.8</ele>
        <time>2020-12-08T08:45:47Z</time>
      </trkpt>
      <trkpt lat="36.6492630" lon="-5.9338960">
        <ele>28.4</ele>
        <time>2020-12-08T08:45:48Z</time>
      </trkpt>
      <trkpt lat="36.6492560" lon="-5.9337770">
        <ele>28.2</ele>
        <time>2020-12-08T08:45:49Z</time>
      </trkpt>
      <trkpt lat="36.6492300" lon="-5.9334280">
        <ele>27.6</ele>
        <time>2020-12-08T08:45:52Z</time>
      </trkpt>
      <trkpt lat="36.6492040" lon="-5.9327840">
        <ele>27.4</ele>
        <time>2020-12-08T08:45:58Z</time>
      </trkpt>
      <trkpt lat="36.6492150" lon="-5.9321020">
        <ele>27.4</ele>
        <time>2020-12-08T08:46:05Z</time>
      </trkpt>
      <trkpt lat="36.6492170" lon="-5.9320090">
        <ele>27.2</ele>
        <time>2020-12-08T08:46:06Z</time>
      </trkpt>
      <trkpt lat="36.6492250" lon="-5.9315650">
        <ele>27.0</ele>
        <time>2020-12-08T08:46:11Z</time>
      </trkpt>
      <trkpt lat="36.6492320" lon="-5.9313100">
        <ele>26.8</ele>
        <time>2020-12-08T08:46:14Z</time>
      </trkpt>
      <trkpt lat="36.6492420" lon="-5.9310680">
        <ele>26.8</ele>
        <time>2020-12-08T08:46:18Z</time>
      </trkpt>
      <trkpt lat="36.6492450" lon="-5.9310060">
        <ele>26.8</ele>
        <time>2020-12-08T08:46:22Z</time>
      </trkpt>
      <trkpt lat="36.6492410" lon="-5.9309670">
        <ele>27.2</ele>
        <time>2020-12-08T08:46:42Z</time>
      </trkpt>
      <trkpt lat="36.6492380" lon="-5.9308890">
        <ele>27.2</ele>
        <time>2020-12-08T08:46:44Z</time>
      </trkpt>
      <trkpt lat="36.6492420" lon="-5.9308370">
        <ele>27.2</ele>
        <time>2020-12-08T08:46:45Z</time>
      </trkpt>
      <trkpt lat="36.6492640" lon="-5.9306390">
        <ele>27.0</ele>
        <time>2020-12-08T08:46:48Z</time>
      </trkpt>
      <trkpt lat="36.6492920" lon="-5.9302280">
        <ele>26.8</ele>
        <time>2020-12-08T08:46:53Z</time>
      </trkpt>
      <trkpt lat="36.6492970" lon="-5.9297490">
        <ele>26.4</ele>
        <time>2020-12-08T08:46:58Z</time>
      </trkpt>
      <trkpt lat="36.6493050" lon="-5.9294270">
        <ele>25.8</ele>
        <time>2020-12-08T08:47:01Z</time>
      </trkpt>
      <trkpt lat="36.6493160" lon="-5.9289110">
        <ele>25.4</ele>
        <time>2020-12-08T08:47:06Z</time>
      </trkpt>
      <trkpt lat="36.6493300" lon="-5.9283730">
        <ele>25.2</ele>
        <time>2020-12-08T08:47:11Z</time>
      </trkpt>
      <trkpt lat="36.6493070" lon="-5.9281530">
        <ele>25.2</ele>
        <time>2020-12-08T08:47:13Z</time>
      </trkpt>
      <trkpt lat="36.6491520" lon="-5.9276020">
        <ele>25.0</ele>
        <time>2020-12-08T08:47:18Z</time>
      </trkpt>
      <trkpt lat="36.6490980" lon="-5.9275030">
        <ele>25.0</ele>
        <time>2020-12-08T08:47:19Z</time>
      </trkpt>
      <trkpt lat="36.6489100" lon="-5.9272380">
        <ele>24.6</ele>
        <time>2020-12-08T08:47:22Z</time>
      </trkpt>
      <trkpt lat="36.6485680" lon="-5.9267360">
        <ele>24.0</ele>
        <time>2020-12-08T08:47:28Z</time>
      </trkpt>
      <trkpt lat="36.6485250" lon="-5.9266490">
        <ele>24.0</ele>
        <time>2020-12-08T08:47:29Z</time>
      </trkpt>
      <trkpt lat="36.6483900" lon="-5.9262990">
        <ele>24.0</ele>
        <time>2020-12-08T08:47:33Z</time>
      </trkpt>
      <trkpt lat="36.6483200" lon="-5.9259450">
        <ele>25.0</ele>
        <time>2020-12-08T08:47:37Z</time>
      </trkpt>
      <trkpt lat="36.6482970" lon="-5.9257670">
        <ele>25.4</ele>
        <time>2020-12-08T08:47:39Z</time>
      </trkpt>
      <trkpt lat="36.6482800" lon="-5.9255850">
        <ele>26.4</ele>
        <time>2020-12-08T08:47:41Z</time>
      </trkpt>
      <trkpt lat="36.6482640" lon="-5.9253990">
        <ele>27.6</ele>
        <time>2020-12-08T08:47:43Z</time>
      </trkpt>
      <trkpt lat="36.6482240" lon="-5.9249210">
        <ele>28.0</ele>
        <time>2020-12-08T08:47:48Z</time>
      </trkpt>
      <trkpt lat="36.6481690" lon="-5.9242190">
        <ele>28.2</ele>
        <time>2020-12-08T08:47:55Z</time>
      </trkpt>
      <trkpt lat="36.6481500" lon="-5.9239090">
        <ele>28.0</ele>
        <time>2020-12-08T08:47:58Z</time>
      </trkpt>
      <trkpt lat="36.6480940" lon="-5.9231720">
        <ele>28.0</ele>
        <time>2020-12-08T08:48:05Z</time>
      </trkpt>
      <trkpt lat="36.6480490" lon="-5.9226380">
        <ele>27.8</ele>
        <time>2020-12-08T08:48:10Z</time>
      </trkpt>
      <trkpt lat="36.6479900" lon="-5.9218950">
        <ele>27.8</ele>
        <time>2020-12-08T08:48:17Z</time>
      </trkpt>
      <trkpt lat="36.6479680" lon="-5.9215750">
        <ele>27.6</ele>
        <time>2020-12-08T08:48:20Z</time>
      </trkpt>
      <trkpt lat="36.6479130" lon="-5.9208360">
        <ele>27.4</ele>
        <time>2020-12-08T08:48:27Z</time>
      </trkpt>
      <trkpt lat="36.6478780" lon="-5.9204230">
        <ele>27.4</ele>
        <time>2020-12-08T08:48:31Z</time>
      </trkpt>
      <trkpt lat="36.6478010" lon="-5.9197070">
        <ele>27.6</ele>
        <time>2020-12-08T08:48:38Z</time>
      </trkpt>
      <trkpt lat="36.6477520" lon="-5.9194050">
        <ele>27.6</ele>
        <time>2020-12-08T08:48:41Z</time>
      </trkpt>
      <trkpt lat="36.6475950" lon="-5.9188350">
        <ele>28.0</ele>
        <time>2020-12-08T08:48:47Z</time>
      </trkpt>
      <trkpt lat="36.6473440" lon="-5.9182290">
        <ele>28.4</ele>
        <time>2020-12-08T08:48:54Z</time>
      </trkpt>
      <trkpt lat="36.6473070" lon="-5.9181440">
        <ele>28.6</ele>
        <time>2020-12-08T08:48:55Z</time>
      </trkpt>
      <trkpt lat="36.6472340" lon="-5.9179740">
        <ele>28.6</ele>
        <time>2020-12-08T08:48:57Z</time>
      </trkpt>
      <trkpt lat="36.6470540" lon="-5.9175540">
        <ele>29.8</ele>
        <time>2020-12-08T08:49:02Z</time>
      </trkpt>
      <trkpt lat="36.6468030" lon="-5.9169770">
        <ele>30.6</ele>
        <time>2020-12-08T08:49:09Z</time>
      </trkpt>
      <trkpt lat="36.6467670" lon="-5.9168960">
        <ele>30.8</ele>
        <time>2020-12-08T08:49:10Z</time>
      </trkpt>
      <trkpt lat="36.6464770" lon="-5.9162530">
        <ele>31.4</ele>
        <time>2020-12-08T08:49:18Z</time>
      </trkpt>
      <trkpt lat="36.6464440" lon="-5.9161740">
        <ele>31.6</ele>
        <time>2020-12-08T08:49:19Z</time>
      </trkpt>
      <trkpt lat="36.6462110" lon="-5.9155780">
        <ele>32.8</ele>
        <time>2020-12-08T08:49:27Z</time>
      </trkpt>
      <trkpt lat="36.6461450" lon="-5.9152800">
        <ele>33.8</ele>
        <time>2020-12-08T08:49:31Z</time>
      </trkpt>
      <trkpt lat="36.6461030" lon="-5.9149880">
        <ele>34.6</ele>
        <time>2020-12-08T08:49:35Z</time>
      </trkpt>
      <trkpt lat="36.6460960" lon="-5.9149160">
        <ele>35.0</ele>
        <time>2020-12-08T08:49:36Z</time>
      </trkpt>
      <trkpt lat="36.6460870" lon="-5.9146350">
        <ele>36.0</ele>
        <time>2020-12-08T08:49:40Z</time>
      </trkpt>
      <trkpt lat="36.6460930" lon="-5.9144380">
        <ele>36.4</ele>
        <time>2020-12-08T08:49:43Z</time>
      </trkpt>
      <trkpt lat="36.6461120" lon="-5.9142490">
        <ele>37.2</ele>
        <time>2020-12-08T08:49:46Z</time>
      </trkpt>
      <trkpt lat="36.6461480" lon="-5.9140090">
        <ele>38.2</ele>
        <time>2020-12-08T08:49:50Z</time>
      </trkpt>
      <trkpt lat="36.6461580" lon="-5.9139510">
        <ele>38.6</ele>
        <time>2020-12-08T08:49:51Z</time>
      </trkpt>
      <trkpt lat="36.6461980" lon="-5.9137820">
        <ele>39.2</ele>
        <time>2020-12-08T08:49:54Z</time>
      </trkpt>
      <trkpt lat="36.6462500" lon="-5.9136130">
        <ele>40.4</ele>
        <time>2020-12-08T08:49:57Z</time>
      </trkpt>
      <trkpt lat="36.6462870" lon="-5.9134980">
        <ele>40.8</ele>
        <time>2020-12-08T08:49:59Z</time>
      </trkpt>
      <trkpt lat="36.6463460" lon="-5.9133290">
        <ele>41.6</ele>
        <time>2020-12-08T08:50:02Z</time>
      </trkpt>
      <trkpt lat="36.6464590" lon="-5.9130560">
        <ele>42.6</ele>
        <time>2020-12-08T08:50:07Z</time>
      </trkpt>
      <trkpt lat="36.6464840" lon="-5.9130030">
        <ele>42.8</ele>
        <time>2020-12-08T08:50:08Z</time>
      </trkpt>
      <trkpt lat="36.6465610" lon="-5.9128440">
        <ele>43.8</ele>
        <time>2020-12-08T08:50:11Z</time>
      </trkpt>
      <trkpt lat="36.6466620" lon="-5.9126230">
        <ele>45.0</ele>
        <time>2020-12-08T08:50:15Z</time>
      </trkpt>
      <trkpt lat="36.6467550" lon="-5.9123860">
        <ele>45.8</ele>
        <time>2020-12-08T08:50:19Z</time>
      </trkpt>
      <trkpt lat="36.6467760" lon="-5.9123230">
        <ele>46.0</ele>
        <time>2020-12-08T08:50:20Z</time>
      </trkpt>
      <trkpt lat="36.6468520" lon="-5.9120690">
        <ele>47.0</ele>
        <time>2020-12-08T08:50:24Z</time>
      </trkpt>
      <trkpt lat="36.6469080" lon="-5.9117920">
        <ele>47.6</ele>
        <time>2020-12-08T08:50:28Z</time>
      </trkpt>
      <trkpt lat="36.6469450" lon="-5.9115000">
        <ele>48.0</ele>
        <time>2020-12-08T08:50:32Z</time>
      </trkpt>
      <trkpt lat="36.6469580" lon="-5.9111300">
        <ele>48.4</ele>
        <time>2020-12-08T08:50:37Z</time>
      </trkpt>
      <trkpt lat="36.6469200" lon="-5.9103850">
        <ele>49.2</ele>
        <time>2020-12-08T08:50:47Z</time>
      </trkpt>
      <trkpt lat="36.6468900" lon="-5.9096890">
        <ele>50.2</ele>
        <time>2020-12-08T08:50:56Z</time>
      </trkpt>
      <trkpt lat="36.6468940" lon="-5.9096090">
        <ele>50.2</ele>
        <time>2020-12-08T08:50:57Z</time>
      </trkpt>
      <trkpt lat="36.6468980" lon="-5.9095290">
        <ele>50.2</ele>
        <time>2020-12-08T08:50:58Z</time>
      </trkpt>
      <trkpt lat="36.6469090" lon="-5.9088020">
        <ele>51.2</ele>
        <time>2020-12-08T08:51:07Z</time>
      </trkpt>
      <trkpt lat="36.6469030" lon="-5.9087210">
        <ele>51.4</ele>
        <time>2020-12-08T08:51:08Z</time>
      </trkpt>
      <trkpt lat="36.6468600" lon="-5.9080070">
        <ele>52.0</ele>
        <time>2020-12-08T08:51:17Z</time>
      </trkpt>
      <trkpt lat="36.6468490" lon="-5.9078540">
        <ele>52.4</ele>
        <time>2020-12-08T08:51:19Z</time>
      </trkpt>
      <trkpt lat="36.6468440" lon="-5.9077770">
        <ele>52.6</ele>
        <time>2020-12-08T08:51:20Z</time>
      </trkpt>
      <trkpt lat="36.6468040" lon="-5.9070950">
        <ele>53.6</ele>
        <time>2020-12-08T08:51:29Z</time>
      </trkpt>
      <trkpt lat="36.6467980" lon="-5.9070180">
        <ele>53.8</ele>
        <time>2020-12-08T08:51:30Z</time>
      </trkpt>
      <trkpt lat="36.6467770" lon="-5.9067110">
        <ele>54.8</ele>
        <time>2020-12-08T08:51:34Z</time>
      </trkpt>
      <trkpt lat="36.6467450" lon="-5.9061670">
        <ele>55.8</ele>
        <time>2020-12-08T08:51:41Z</time>
      </trkpt>
      <trkpt lat="36.6467400" lon="-5.9060870">
        <ele>55.8</ele>
        <time>2020-12-08T08:51:42Z</time>
      </trkpt>
      <trkpt lat="36.6466980" lon="-5.9054490">
        <ele>57.0</ele>
        <time>2020-12-08T08:51:50Z</time>
      </trkpt>
      <trkpt lat="36.6466390" lon="-5.9047050">
        <ele>57.8</ele>
        <time>2020-12-08T08:51:59Z</time>
      </trkpt>
      <trkpt lat="36.6466310" lon="-5.9046210">
        <ele>58.0</ele>
        <time>2020-12-08T08:52:00Z</time>
      </trkpt>
      <trkpt lat="36.6466050" lon="-5.9043690">
        <ele>58.8</ele>
        <time>2020-12-08T08:52:03Z</time>
      </trkpt>
      <trkpt lat="36.6465740" lon="-5.9041120">
        <ele>59.0</ele>
        <time>2020-12-08T08:52:06Z</time>
      </trkpt>
      <trkpt lat="36.6464840" lon="-5.9035080">
        <ele>60.0</ele>
        <time>2020-12-08T08:52:13Z</time>
      </trkpt>
      <trkpt lat="36.6463430" lon="-5.9027820">
        <ele>60.0</ele>
        <time>2020-12-08T08:52:21Z</time>
      </trkpt>
      <trkpt lat="36.6463020" lon="-5.9025930">
        <ele>60.0</ele>
        <time>2020-12-08T08:52:23Z</time>
      </trkpt>
      <trkpt lat="36.6461290" lon="-5.9019240">
        <ele>59.6</ele>
        <time>2020-12-08T08:52:30Z</time>
      </trkpt>
      <trkpt lat="36.6460200" lon="-5.9015510">
        <ele>59.4</ele>
        <time>2020-12-08T08:52:34Z</time>
      </trkpt>
      <trkpt lat="36.6457860" lon="-5.9008430">
        <ele>59.4</ele>
        <time>2020-12-08T08:52:42Z</time>
      </trkpt>
      <trkpt lat="36.6457240" lon="-5.9006700">
        <ele>59.6</ele>
        <time>2020-12-08T08:52:44Z</time>
      </trkpt>
      <trkpt lat="36.6456320" lon="-5.9004100">
        <ele>60.2</ele>
        <time>2020-12-08T08:52:47Z</time>
      </trkpt>
      <trkpt lat="36.6454450" lon="-5.8998980">
        <ele>61.2</ele>
        <time>2020-12-08T08:52:53Z</time>
      </trkpt>
      <trkpt lat="36.6454140" lon="-5.8998140">
        <ele>61.4</ele>
        <time>2020-12-08T08:52:54Z</time>
      </trkpt>
      <trkpt lat="36.6451700" lon="-5.8991350">
        <ele>62.4</ele>
        <time>2020-12-08T08:53:02Z</time>
      </trkpt>
      <trkpt lat="36.6451390" lon="-5.8990500">
        <ele>62.6</ele>
        <time>2020-12-08T08:53:03Z</time>
      </trkpt>
      <trkpt lat="36.6450490" lon="-5.8987940">
        <ele>63.0</ele>
        <time>2020-12-08T08:53:06Z</time>
      </trkpt>
      <trkpt lat="36.6449270" lon="-5.8984470">
        <ele>63.8</ele>
        <time>2020-12-08T08:53:10Z</time>
      </trkpt>
      <trkpt lat="36.6447510" lon="-5.8979460">
        <ele>64.8</ele>
        <time>2020-12-08T08:53:16Z</time>
      </trkpt>
      <trkpt lat="36.6445020" lon="-5.8972800">
        <ele>65.6</ele>
        <time>2020-12-08T08:53:24Z</time>
      </trkpt>
      <trkpt lat="36.6444690" lon="-5.8971950">
        <ele>65.6</ele>
        <time>2020-12-08T08:53:25Z</time>
      </trkpt>
      <trkpt lat="36.6444020" lon="-5.8970260">
        <ele>65.8</ele>
        <time>2020-12-08T08:53:27Z</time>
      </trkpt>
      <trkpt lat="36.6441260" lon="-5.8963470">
        <ele>66.6</ele>
        <time>2020-12-08T08:53:35Z</time>
      </trkpt>
      <trkpt lat="36.6440520" lon="-5.8961780">
        <ele>66.8</ele>
        <time>2020-12-08T08:53:37Z</time>
      </trkpt>
      <trkpt lat="36.6438740" lon="-5.8957550">
        <ele>67.0</ele>
        <time>2020-12-08T08:53:42Z</time>
      </trkpt>
      <trkpt lat="36.6437240" lon="-5.8954170">
        <ele>67.0</ele>
        <time>2020-12-08T08:53:46Z</time>
      </trkpt>
      <trkpt lat="36.6434360" lon="-5.8947420">
        <ele>67.0</ele>
        <time>2020-12-08T08:53:54Z</time>
      </trkpt>
      <trkpt lat="36.6432880" lon="-5.8944000">
        <ele>67.4</ele>
        <time>2020-12-08T08:53:58Z</time>
      </trkpt>
      <trkpt lat="36.6430300" lon="-5.8937990">
        <ele>67.4</ele>
        <time>2020-12-08T08:54:05Z</time>
      </trkpt>
      <trkpt lat="36.6429540" lon="-5.8936250">
        <ele>67.6</ele>
        <time>2020-12-08T08:54:07Z</time>
      </trkpt>
      <trkpt lat="36.6427010" lon="-5.8930120">
        <ele>67.8</ele>
        <time>2020-12-08T08:54:14Z</time>
      </trkpt>
      <trkpt lat="36.6426650" lon="-5.8929240">
        <ele>68.0</ele>
        <time>2020-12-08T08:54:15Z</time>
      </trkpt>
      <trkpt lat="36.6425610" lon="-5.8926620">
        <ele>68.0</ele>
        <time>2020-12-08T08:54:18Z</time>
      </trkpt>
      <trkpt lat="36.6423140" lon="-5.8920470">
        <ele>68.4</ele>
        <time>2020-12-08T08:54:25Z</time>
      </trkpt>
      <trkpt lat="36.6422420" lon="-5.8918680">
        <ele>68.4</ele>
        <time>2020-12-08T08:54:27Z</time>
      </trkpt>
      <trkpt lat="36.6419900" lon="-5.8912410">
        <ele>68.8</ele>
        <time>2020-12-08T08:54:34Z</time>
      </trkpt>
      <trkpt lat="36.6418840" lon="-5.8909750">
        <ele>69.0</ele>
        <time>2020-12-08T08:54:37Z</time>
      </trkpt>
      <trkpt lat="36.6418480" lon="-5.8908860">
        <ele>69.0</ele>
        <time>2020-12-08T08:54:38Z</time>
      </trkpt>
      <trkpt lat="36.6415990" lon="-5.8902610">
        <ele>69.0</ele>
        <time>2020-12-08T08:54:45Z</time>
      </trkpt>
      <trkpt lat="36.6414550" lon="-5.8898980">
        <ele>69.2</ele>
        <time>2020-12-08T08:54:49Z</time>
      </trkpt>
      <trkpt lat="36.6412050" lon="-5.8892680">
        <ele>69.4</ele>
        <time>2020-12-08T08:54:56Z</time>
      </trkpt>
      <trkpt lat="36.6410630" lon="-5.8889060">
        <ele>69.4</ele>
        <time>2020-12-08T08:55:00Z</time>
      </trkpt>
      <trkpt lat="36.6408070" lon="-5.8882620">
        <ele>70.0</ele>
        <time>2020-12-08T08:55:07Z</time>
      </trkpt>
      <trkpt lat="36.6406990" lon="-5.8879920">
        <ele>70.0</ele>
        <time>2020-12-08T08:55:10Z</time>
      </trkpt>
      <trkpt lat="36.6404660" lon="-5.8874140">
        <ele>70.2</ele>
        <time>2020-12-08T08:55:17Z</time>
      </trkpt>
      <trkpt lat="36.6402240" lon="-5.8868050">
        <ele>70.4</ele>
        <time>2020-12-08T08:55:24Z</time>
      </trkpt>
      <trkpt lat="36.6399620" lon="-5.8861450">
        <ele>70.6</ele>
        <time>2020-12-08T08:55:31Z</time>
      </trkpt>
      <trkpt lat="36.6398470" lon="-5.8858540">
        <ele>70.8</ele>
        <time>2020-12-08T08:55:34Z</time>
      </trkpt>
      <trkpt lat="36.6396930" lon="-5.8854650">
        <ele>70.8</ele>
        <time>2020-12-08T08:55:38Z</time>
      </trkpt>
      <trkpt lat="36.6394650" lon="-5.8848880">
        <ele>71.0</ele>
        <time>2020-12-08T08:55:44Z</time>
      </trkpt>
      <trkpt lat="36.6391970" lon="-5.8842210">
        <ele>71.6</ele>
        <time>2020-12-08T08:55:51Z</time>
      </trkpt>
      <trkpt lat="36.6391210" lon="-5.8840270">
        <ele>71.8</ele>
        <time>2020-12-08T08:55:53Z</time>
      </trkpt>
      <trkpt lat="36.6390820" lon="-5.8839300">
        <ele>72.0</ele>
        <time>2020-12-08T08:55:54Z</time>
      </trkpt>
      <trkpt lat="36.6388370" lon="-5.8833250">
        <ele>72.0</ele>
        <time>2020-12-08T08:56:01Z</time>
      </trkpt>
      <trkpt lat="36.6385890" lon="-5.8827020">
        <ele>72.6</ele>
        <time>2020-12-08T08:56:09Z</time>
      </trkpt>
      <trkpt lat="36.6384080" lon="-5.8822490">
        <ele>73.0</ele>
        <time>2020-12-08T08:56:15Z</time>
      </trkpt>
      <trkpt lat="36.6383480" lon="-5.8820980">
        <ele>73.2</ele>
        <time>2020-12-08T08:56:17Z</time>
      </trkpt>
      <trkpt lat="36.6381060" lon="-5.8814880">
        <ele>73.4</ele>
        <time>2020-12-08T08:56:25Z</time>
      </trkpt>
      <trkpt lat="36.6380760" lon="-5.8814110">
        <ele>73.4</ele>
        <time>2020-12-08T08:56:26Z</time>
      </trkpt>
      <trkpt lat="36.6378320" lon="-5.8807980">
        <ele>73.8</ele>
        <time>2020-12-08T08:56:34Z</time>
      </trkpt>
      <trkpt lat="36.6377670" lon="-5.8806420">
        <ele>74.0</ele>
        <time>2020-12-08T08:56:36Z</time>
      </trkpt>
      <trkpt lat="36.6376740" lon="-5.8804190">
        <ele>74.0</ele>
        <time>2020-12-08T08:56:39Z</time>
      </trkpt>
      <trkpt lat="36.6375850" lon="-5.8801830">
        <ele>74.0</ele>
        <time>2020-12-08T08:56:42Z</time>
      </trkpt>
      <trkpt lat="36.6373590" lon="-5.8796040">
        <ele>74.0</ele>
        <time>2020-12-08T08:56:48Z</time>
      </trkpt>
      <trkpt lat="36.6371180" lon="-5.8789950">
        <ele>73.6</ele>
        <time>2020-12-08T08:56:54Z</time>
      </trkpt>
      <trkpt lat="36.6369100" lon="-5.8784760">
        <ele>73.2</ele>
        <time>2020-12-08T08:56:59Z</time>
      </trkpt>
      <trkpt lat="36.6367430" lon="-5.8780550">
        <ele>73.0</ele>
        <time>2020-12-08T08:57:03Z</time>
      </trkpt>
      <trkpt lat="36.6365350" lon="-5.8775340">
        <ele>72.6</ele>
        <time>2020-12-08T08:57:08Z</time>
      </trkpt>
      <trkpt lat="36.6362850" lon="-5.8769040">
        <ele>72.2</ele>
        <time>2020-12-08T08:57:14Z</time>
      </trkpt>
      <trkpt lat="36.6360700" lon="-5.8763730">
        <ele>72.0</ele>
        <time>2020-12-08T08:57:19Z</time>
      </trkpt>
      <trkpt lat="36.6360280" lon="-5.8762660">
        <ele>72.0</ele>
        <time>2020-12-08T08:57:20Z</time>
      </trkpt>
      <trkpt lat="36.6357760" lon="-5.8756290">
        <ele>71.6</ele>
        <time>2020-12-08T08:57:26Z</time>
      </trkpt>
      <trkpt lat="36.6356500" lon="-5.8753100">
        <ele>71.2</ele>
        <time>2020-12-08T08:57:29Z</time>
      </trkpt>
      <trkpt lat="36.6354790" lon="-5.8748870">
        <ele>71.0</ele>
        <time>2020-12-08T08:57:33Z</time>
      </trkpt>
      <trkpt lat="36.6352280" lon="-5.8742630">
        <ele>70.8</ele>
        <time>2020-12-08T08:57:39Z</time>
      </trkpt>
      <trkpt lat="36.6349860" lon="-5.8736480">
        <ele>70.8</ele>
        <time>2020-12-08T08:57:45Z</time>
      </trkpt>
      <trkpt lat="36.6348630" lon="-5.8733410">
        <ele>70.8</ele>
        <time>2020-12-08T08:57:48Z</time>
      </trkpt>
      <trkpt lat="36.6346210" lon="-5.8727350">
        <ele>71.6</ele>
        <time>2020-12-08T08:57:54Z</time>
      </trkpt>
      <trkpt lat="36.6345010" lon="-5.8724340">
        <ele>71.6</ele>
        <time>2020-12-08T08:57:57Z</time>
      </trkpt>
      <trkpt lat="36.6342340" lon="-5.8717690">
        <ele>71.6</ele>
        <time>2020-12-08T08:58:04Z</time>
      </trkpt>
      <trkpt lat="36.6341600" lon="-5.8715830">
        <ele>71.6</ele>
        <time>2020-12-08T08:58:06Z</time>
      </trkpt>
      <trkpt lat="36.6339020" lon="-5.8709380">
        <ele>71.6</ele>
        <time>2020-12-08T08:58:13Z</time>
      </trkpt>
      <trkpt lat="36.6337910" lon="-5.8706580">
        <ele>71.8</ele>
        <time>2020-12-08T08:58:16Z</time>
      </trkpt>
      <trkpt lat="36.6337540" lon="-5.8705660">
        <ele>72.0</ele>
        <time>2020-12-08T08:58:17Z</time>
      </trkpt>
      <trkpt lat="36.6334910" lon="-5.8699130">
        <ele>72.8</ele>
        <time>2020-12-08T08:58:24Z</time>
      </trkpt>
      <trkpt lat="36.6333790" lon="-5.8696300">
        <ele>73.4</ele>
        <time>2020-12-08T08:58:27Z</time>
      </trkpt>
      <trkpt lat="36.6332260" lon="-5.8692510">
        <ele>73.8</ele>
        <time>2020-12-08T08:58:31Z</time>
      </trkpt>
      <trkpt lat="36.6329640" lon="-5.8685880">
        <ele>74.8</ele>
        <time>2020-12-08T08:58:38Z</time>
      </trkpt>
      <trkpt lat="36.6328510" lon="-5.8683040">
        <ele>74.8</ele>
        <time>2020-12-08T08:58:41Z</time>
      </trkpt>
      <trkpt lat="36.6325860" lon="-5.8676410">
        <ele>75.2</ele>
        <time>2020-12-08T08:58:48Z</time>
      </trkpt>
      <trkpt lat="36.6324760" lon="-5.8673620">
        <ele>75.4</ele>
        <time>2020-12-08T08:58:51Z</time>
      </trkpt>
      <trkpt lat="36.6322930" lon="-5.8668980">
        <ele>76.0</ele>
        <time>2020-12-08T08:58:56Z</time>
      </trkpt>
      <trkpt lat="36.6320290" lon="-5.8662450">
        <ele>76.6</ele>
        <time>2020-12-08T08:59:03Z</time>
      </trkpt>
      <trkpt lat="36.6319900" lon="-5.8661490">
        <ele>76.6</ele>
        <time>2020-12-08T08:59:04Z</time>
      </trkpt>
      <trkpt lat="36.6317110" lon="-5.8654570">
        <ele>76.8</ele>
        <time>2020-12-08T08:59:11Z</time>
      </trkpt>
      <trkpt lat="36.6315560" lon="-5.8650460">
        <ele>76.8</ele>
        <time>2020-12-08T08:59:15Z</time>
      </trkpt>
      <trkpt lat="36.6313210" lon="-5.8644330">
        <ele>76.6</ele>
        <time>2020-12-08T08:59:21Z</time>
      </trkpt>
      <trkpt lat="36.6310400" lon="-5.8637360">
        <ele>76.2</ele>
        <time>2020-12-08T08:59:28Z</time>
      </trkpt>
      <trkpt lat="36.6307550" lon="-5.8630780">
        <ele>76.2</ele>
        <time>2020-12-08T08:59:35Z</time>
      </trkpt>
      <trkpt lat="36.6307030" lon="-5.8629970">
        <ele>76.2</ele>
        <time>2020-12-08T08:59:36Z</time>
      </trkpt>
      <trkpt lat="36.6304280" lon="-5.8625910">
        <ele>76.4</ele>
        <time>2020-12-08T08:59:41Z</time>
      </trkpt>
      <trkpt lat="36.6301060" lon="-5.8619350">
        <ele>76.4</ele>
        <time>2020-12-08T08:59:48Z</time>
      </trkpt>
      <trkpt lat="36.6300650" lon="-5.8618370">
        <ele>76.6</ele>
        <time>2020-12-08T08:59:49Z</time>
      </trkpt>
      <trkpt lat="36.6297810" lon="-5.8611440">
        <ele>76.6</ele>
        <time>2020-12-08T08:59:56Z</time>
      </trkpt>
      <trkpt lat="36.6296610" lon="-5.8608250">
        <ele>77.0</ele>
        <time>2020-12-08T08:59:59Z</time>
      </trkpt>
      <trkpt lat="36.6296210" lon="-5.8607140">
        <ele>77.2</ele>
        <time>2020-12-08T09:00:00Z</time>
      </trkpt>
      <trkpt lat="36.6293650" lon="-5.8600630">
        <ele>77.2</ele>
        <time>2020-12-08T09:00:06Z</time>
      </trkpt>
      <trkpt lat="36.6291120" lon="-5.8594270">
        <ele>77.0</ele>
        <time>2020-12-08T09:00:12Z</time>
      </trkpt>
      <trkpt lat="36.6289020" lon="-5.8589140">
        <ele>76.6</ele>
        <time>2020-12-08T09:00:17Z</time>
      </trkpt>
      <trkpt lat="36.6286950" lon="-5.8584010">
        <ele>76.0</ele>
        <time>2020-12-08T09:00:22Z</time>
      </trkpt>
      <trkpt lat="36.6284590" lon="-5.8577940">
        <ele>75.6</ele>
        <time>2020-12-08T09:00:28Z</time>
      </trkpt>
      <trkpt lat="36.6281890" lon="-5.8571170">
        <ele>75.8</ele>
        <time>2020-12-08T09:00:35Z</time>
      </trkpt>
      <trkpt lat="36.6281530" lon="-5.8570220">
        <ele>75.8</ele>
        <time>2020-12-08T09:00:36Z</time>
      </trkpt>
      <trkpt lat="36.6279030" lon="-5.8564020">
        <ele>76.0</ele>
        <time>2020-12-08T09:00:43Z</time>
      </trkpt>
      <trkpt lat="36.6278720" lon="-5.8563250">
        <ele>76.2</ele>
        <time>2020-12-08T09:00:44Z</time>
      </trkpt>
      <trkpt lat="36.6276820" lon="-5.8558510">
        <ele>77.4</ele>
        <time>2020-12-08T09:00:51Z</time>
      </trkpt>
      <trkpt lat="36.6276320" lon="-5.8557240">
        <ele>78.6</ele>
        <time>2020-12-08T09:00:53Z</time>
      </trkpt>
      <trkpt lat="36.6275800" lon="-5.8555970">
        <ele>79.4</ele>
        <time>2020-12-08T09:00:55Z</time>
      </trkpt>
      <trkpt lat="36.6275230" lon="-5.8554720">
        <ele>80.6</ele>
        <time>2020-12-08T09:00:57Z</time>
      </trkpt>
      <trkpt lat="36.6274390" lon="-5.8552730">
        <ele>81.6</ele>
        <time>2020-12-08T09:01:00Z</time>
      </trkpt>
      <trkpt lat="36.6273510" lon="-5.8550510">
        <ele>82.8</ele>
        <time>2020-12-08T09:01:03Z</time>
      </trkpt>
      <trkpt lat="36.6272460" lon="-5.8548040">
        <ele>83.8</ele>
        <time>2020-12-08T09:01:06Z</time>
      </trkpt>
      <trkpt lat="36.6270110" lon="-5.8542270">
        <ele>84.0</ele>
        <time>2020-12-08T09:01:12Z</time>
      </trkpt>
      <trkpt lat="36.6267650" lon="-5.8536430">
        <ele>82.0</ele>
        <time>2020-12-08T09:01:18Z</time>
      </trkpt>
      <trkpt lat="36.6266430" lon="-5.8533660">
        <ele>80.4</ele>
        <time>2020-12-08T09:01:21Z</time>
      </trkpt>
      <trkpt lat="36.6263730" lon="-5.8527220">
        <ele>79.6</ele>
        <time>2020-12-08T09:01:28Z</time>
      </trkpt>
      <trkpt lat="36.6262590" lon="-5.8524380">
        <ele>79.6</ele>
        <time>2020-12-08T09:01:31Z</time>
      </trkpt>
      <trkpt lat="36.6259790" lon="-5.8517720">
        <ele>79.6</ele>
        <time>2020-12-08T09:01:38Z</time>
      </trkpt>
      <trkpt lat="36.6258950" lon="-5.8515790">
        <ele>79.4</ele>
        <time>2020-12-08T09:01:40Z</time>
      </trkpt>
      <trkpt lat="36.6256530" lon="-5.8509910">
        <ele>79.0</ele>
        <time>2020-12-08T09:01:46Z</time>
      </trkpt>
      <trkpt lat="36.6255700" lon="-5.8508020">
        <ele>78.8</ele>
        <time>2020-12-08T09:01:48Z</time>
      </trkpt>
      <trkpt lat="36.6253110" lon="-5.8501740">
        <ele>78.6</ele>
        <time>2020-12-08T09:01:55Z</time>
      </trkpt>
      <trkpt lat="36.6252750" lon="-5.8500890">
        <ele>78.6</ele>
        <time>2020-12-08T09:01:56Z</time>
      </trkpt>
      <trkpt lat="36.6250120" lon="-5.8494440">
        <ele>79.2</ele>
        <time>2020-12-08T09:02:04Z</time>
      </trkpt>
      <trkpt lat="36.6249800" lon="-5.8493650">
        <ele>79.4</ele>
        <time>2020-12-08T09:02:05Z</time>
      </trkpt>
      <trkpt lat="36.6248860" lon="-5.8491330">
        <ele>80.0</ele>
        <time>2020-12-08T09:02:08Z</time>
      </trkpt>
      <trkpt lat="36.6247910" lon="-5.8489040">
        <ele>81.0</ele>
        <time>2020-12-08T09:02:11Z</time>
      </trkpt>
      <trkpt lat="36.6246320" lon="-5.8485300">
        <ele>82.0</ele>
        <time>2020-12-08T09:02:16Z</time>
      </trkpt>
      <trkpt lat="36.6246010" lon="-5.8484550">
        <ele>82.2</ele>
        <time>2020-12-08T09:02:17Z</time>
      </trkpt>
      <trkpt lat="36.6244080" lon="-5.8479930">
        <ele>83.2</ele>
        <time>2020-12-08T09:02:23Z</time>
      </trkpt>
      <trkpt lat="36.6243080" lon="-5.8477420">
        <ele>83.4</ele>
        <time>2020-12-08T09:02:26Z</time>
      </trkpt>
      <trkpt lat="36.6240400" lon="-5.8470980">
        <ele>83.8</ele>
        <time>2020-12-08T09:02:33Z</time>
      </trkpt>
      <trkpt lat="36.6239630" lon="-5.8469100">
        <ele>83.8</ele>
        <time>2020-12-08T09:02:35Z</time>
      </trkpt>
      <trkpt lat="36.6237670" lon="-5.8464370">
        <ele>84.0</ele>
        <time>2020-12-08T09:02:40Z</time>
      </trkpt>
      <trkpt lat="36.6235300" lon="-5.8458740">
        <ele>84.0</ele>
        <time>2020-12-08T09:02:46Z</time>
      </trkpt>
      <trkpt lat="36.6232710" lon="-5.8452550">
        <ele>84.2</ele>
        <time>2020-12-08T09:02:53Z</time>
      </trkpt>
      <trkpt lat="36.6232360" lon="-5.8451720">
        <ele>84.2</ele>
        <time>2020-12-08T09:02:54Z</time>
      </trkpt>
      <trkpt lat="36.6229670" lon="-5.8445250">
        <ele>85.2</ele>
        <time>2020-12-08T09:03:02Z</time>
      </trkpt>
      <trkpt lat="36.6229030" lon="-5.8443650">
        <ele>85.6</ele>
        <time>2020-12-08T09:03:04Z</time>
      </trkpt>
      <trkpt lat="36.6227390" lon="-5.8439710">
        <ele>86.2</ele>
        <time>2020-12-08T09:03:09Z</time>
      </trkpt>
      <trkpt lat="36.6226070" lon="-5.8436490">
        <ele>86.4</ele>
        <time>2020-12-08T09:03:13Z</time>
      </trkpt>
      <trkpt lat="36.6224740" lon="-5.8433260">
        <ele>87.2</ele>
        <time>2020-12-08T09:03:17Z</time>
      </trkpt>
      <trkpt lat="36.6222140" lon="-5.8426980">
        <ele>87.8</ele>
        <time>2020-12-08T09:03:25Z</time>
      </trkpt>
      <trkpt lat="36.6220550" lon="-5.8423140">
        <ele>88.4</ele>
        <time>2020-12-08T09:03:30Z</time>
      </trkpt>
      <trkpt lat="36.6218960" lon="-5.8419320">
        <ele>89.0</ele>
        <time>2020-12-08T09:03:35Z</time>
      </trkpt>
      <trkpt lat="36.6216990" lon="-5.8414420">
        <ele>89.4</ele>
        <time>2020-12-08T09:03:41Z</time>
      </trkpt>
      <trkpt lat="36.6215580" lon="-5.8411060">
        <ele>89.4</ele>
        <time>2020-12-08T09:03:45Z</time>
      </trkpt>
      <trkpt lat="36.6213100" lon="-5.8405050">
        <ele>88.8</ele>
        <time>2020-12-08T09:03:52Z</time>
      </trkpt>
      <trkpt lat="36.6212370" lon="-5.8403310">
        <ele>88.8</ele>
        <time>2020-12-08T09:03:54Z</time>
      </trkpt>
      <trkpt lat="36.6209740" lon="-5.8396950">
        <ele>88.6</ele>
        <time>2020-12-08T09:04:01Z</time>
      </trkpt>
      <trkpt lat="36.6208610" lon="-5.8394190">
        <ele>88.4</ele>
        <time>2020-12-08T09:04:04Z</time>
      </trkpt>
      <trkpt lat="36.6208250" lon="-5.8393270">
        <ele>88.2</ele>
        <time>2020-12-08T09:04:05Z</time>
      </trkpt>
      <trkpt lat="36.6205670" lon="-5.8387100">
        <ele>88.0</ele>
        <time>2020-12-08T09:04:12Z</time>
      </trkpt>
      <trkpt lat="36.6202990" lon="-5.8380560">
        <ele>88.0</ele>
        <time>2020-12-08T09:04:20Z</time>
      </trkpt>
      <trkpt lat="36.6202670" lon="-5.8379790">
        <ele>88.2</ele>
        <time>2020-12-08T09:04:21Z</time>
      </trkpt>
      <trkpt lat="36.6200810" lon="-5.8375300">
        <ele>89.2</ele>
        <time>2020-12-08T09:04:27Z</time>
      </trkpt>
      <trkpt lat="36.6199610" lon="-5.8372440">
        <ele>90.2</ele>
        <time>2020-12-08T09:04:31Z</time>
      </trkpt>
      <trkpt lat="36.6199030" lon="-5.8371080">
        <ele>90.4</ele>
        <time>2020-12-08T09:04:33Z</time>
      </trkpt>
      <trkpt lat="36.6197360" lon="-5.8367030">
        <ele>91.8</ele>
        <time>2020-12-08T09:04:39Z</time>
      </trkpt>
      <trkpt lat="36.6196240" lon="-5.8364320">
        <ele>92.8</ele>
        <time>2020-12-08T09:04:43Z</time>
      </trkpt>
      <trkpt lat="36.6194780" lon="-5.8360730">
        <ele>93.6</ele>
        <time>2020-12-08T09:04:48Z</time>
      </trkpt>
      <trkpt lat="36.6193500" lon="-5.8357590">
        <ele>93.8</ele>
        <time>2020-12-08T09:04:52Z</time>
      </trkpt>
      <trkpt lat="36.6192430" lon="-5.8355070">
        <ele>93.8</ele>
        <time>2020-12-08T09:04:55Z</time>
      </trkpt>
      <trkpt lat="36.6189680" lon="-5.8348490">
        <ele>92.6</ele>
        <time>2020-12-08T09:05:03Z</time>
      </trkpt>
      <trkpt lat="36.6189360" lon="-5.8347700">
        <ele>92.4</ele>
        <time>2020-12-08T09:05:04Z</time>
      </trkpt>
      <trkpt lat="36.6189020" lon="-5.8346920">
        <ele>92.4</ele>
        <time>2020-12-08T09:05:05Z</time>
      </trkpt>
      <trkpt lat="36.6186470" lon="-5.8340850">
        <ele>93.0</ele>
        <time>2020-12-08T09:05:13Z</time>
      </trkpt>
      <trkpt lat="36.6185510" lon="-5.8338560">
        <ele>93.2</ele>
        <time>2020-12-08T09:05:16Z</time>
      </trkpt>
      <trkpt lat="36.6184850" lon="-5.8336980">
        <ele>93.6</ele>
        <time>2020-12-08T09:05:18Z</time>
      </trkpt>
      <trkpt lat="36.6182110" lon="-5.8330460">
        <ele>94.2</ele>
        <time>2020-12-08T09:05:26Z</time>
      </trkpt>
      <trkpt lat="36.6181050" lon="-5.8327970">
        <ele>94.2</ele>
        <time>2020-12-08T09:05:29Z</time>
      </trkpt>
      <trkpt lat="36.6178650" lon="-5.8322270">
        <ele>94.6</ele>
        <time>2020-12-08T09:05:36Z</time>
      </trkpt>
      <trkpt lat="36.6177990" lon="-5.8320720">
        <ele>94.8</ele>
        <time>2020-12-08T09:05:38Z</time>
      </trkpt>
      <trkpt lat="36.6175630" lon="-5.8314870">
        <ele>95.8</ele>
        <time>2020-12-08T09:05:46Z</time>
      </trkpt>
      <trkpt lat="36.6175400" lon="-5.8314140">
        <ele>96.0</ele>
        <time>2020-12-08T09:05:47Z</time>
      </trkpt>
      <trkpt lat="36.6174770" lon="-5.8311960">
        <ele>96.8</ele>
        <time>2020-12-08T09:05:50Z</time>
      </trkpt>
      <trkpt lat="36.6173760" lon="-5.8307480">
        <ele>97.8</ele>
        <time>2020-12-08T09:05:56Z</time>
      </trkpt>
      <trkpt lat="36.6173610" lon="-5.8306710">
        <ele>98.0</ele>
        <time>2020-12-08T09:05:57Z</time>
      </trkpt>
      <trkpt lat="36.6173130" lon="-5.8304420">
        <ele>98.8</ele>
        <time>2020-12-08T09:06:00Z</time>
      </trkpt>
      <trkpt lat="36.6171950" lon="-5.8298710">
        <ele>100.0</ele>
        <time>2020-12-08T09:06:07Z</time>
      </trkpt>
      <trkpt lat="36.6170520" lon="-5.8291760">
        <ele>100.4</ele>
        <time>2020-12-08T09:06:15Z</time>
      </trkpt>
      <trkpt lat="36.6169780" lon="-5.8288290">
        <ele>100.2</ele>
        <time>2020-12-08T09:06:19Z</time>
      </trkpt>
      <trkpt lat="36.6168340" lon="-5.8281330">
        <ele>100.2</ele>
        <time>2020-12-08T09:06:27Z</time>
      </trkpt>
      <trkpt lat="36.6167640" lon="-5.8277940">
        <ele>100.2</ele>
        <time>2020-12-08T09:06:31Z</time>
      </trkpt>
      <trkpt lat="36.6166830" lon="-5.8274020">
        <ele>101.2</ele>
        <time>2020-12-08T09:06:36Z</time>
      </trkpt>
      <trkpt lat="36.6166250" lon="-5.8271060">
        <ele>101.6</ele>
        <time>2020-12-08T09:06:40Z</time>
      </trkpt>
      <trkpt lat="36.6165950" lon="-5.8269610">
        <ele>102.2</ele>
        <time>2020-12-08T09:06:42Z</time>
      </trkpt>
      <trkpt lat="36.6165370" lon="-5.8266740">
        <ele>103.4</ele>
        <time>2020-12-08T09:06:46Z</time>
      </trkpt>
      <trkpt lat="36.6164750" lon="-5.8263820">
        <ele>104.4</ele>
        <time>2020-12-08T09:06:50Z</time>
      </trkpt>
      <trkpt lat="36.6164610" lon="-5.8263070">
        <ele>104.6</ele>
        <time>2020-12-08T09:06:51Z</time>
      </trkpt>
      <trkpt lat="36.6163460" lon="-5.8257690">
        <ele>105.6</ele>
        <time>2020-12-08T09:06:58Z</time>
      </trkpt>
      <trkpt lat="36.6163130" lon="-5.8256110">
        <ele>106.0</ele>
        <time>2020-12-08T09:07:00Z</time>
      </trkpt>
      <trkpt lat="36.6162460" lon="-5.8252930">
        <ele>106.6</ele>
        <time>2020-12-08T09:07:04Z</time>
      </trkpt>
      <trkpt lat="36.6161610" lon="-5.8248920">
        <ele>107.8</ele>
        <time>2020-12-08T09:07:09Z</time>
      </trkpt>
      <trkpt lat="36.6161270" lon="-5.8247320">
        <ele>108.0</ele>
        <time>2020-12-08T09:07:11Z</time>
      </trkpt>
      <trkpt lat="36.6160150" lon="-5.8241860">
        <ele>108.8</ele>
        <time>2020-12-08T09:07:18Z</time>
      </trkpt>
      <trkpt lat="36.6159670" lon="-5.8239590">
        <ele>109.0</ele>
        <time>2020-12-08T09:07:21Z</time>
      </trkpt>
      <trkpt lat="36.6158560" lon="-5.8234360">
        <ele>110.0</ele>
        <time>2020-12-08T09:07:28Z</time>
      </trkpt>
      <trkpt lat="36.6157850" lon="-5.8231400">
        <ele>110.8</ele>
        <time>2020-12-08T09:07:32Z</time>
      </trkpt>
      <trkpt lat="36.6157410" lon="-5.8229910">
        <ele>111.2</ele>
        <time>2020-12-08T09:07:34Z</time>
      </trkpt>
      <trkpt lat="36.6156740" lon="-5.8227680">
        <ele>112.4</ele>
        <time>2020-12-08T09:07:37Z</time>
      </trkpt>
      <trkpt lat="36.6155450" lon="-5.8223260">
        <ele>113.4</ele>
        <time>2020-12-08T09:07:43Z</time>
      </trkpt>
      <trkpt lat="36.6155270" lon="-5.8222520">
        <ele>113.6</ele>
        <time>2020-12-08T09:07:44Z</time>
      </trkpt>
      <trkpt lat="36.6154460" lon="-5.8217880">
        <ele>114.8</ele>
        <time>2020-12-08T09:07:50Z</time>
      </trkpt>
      <trkpt lat="36.6154290" lon="-5.8216150">
        <ele>115.2</ele>
        <time>2020-12-08T09:07:52Z</time>
      </trkpt>
      <trkpt lat="36.6153980" lon="-5.8210220">
        <ele>115.6</ele>
        <time>2020-12-08T09:07:58Z</time>
      </trkpt>
      <trkpt lat="36.6153100" lon="-5.8203250">
        <ele>114.0</ele>
        <time>2020-12-08T09:08:05Z</time>
      </trkpt>
      <trkpt lat="36.6151560" lon="-5.8197490">
        <ele>113.8</ele>
        <time>2020-12-08T09:08:12Z</time>
      </trkpt>
      <trkpt lat="36.6149720" lon="-5.8191570">
        <ele>115.8</ele>
        <time>2020-12-08T09:08:20Z</time>
      </trkpt>
      <trkpt lat="36.6149490" lon="-5.8190800">
        <ele>116.0</ele>
        <time>2020-12-08T09:08:21Z</time>
      </trkpt>
      <trkpt lat="36.6148320" lon="-5.8186960">
        <ele>117.2</ele>
        <time>2020-12-08T09:08:26Z</time>
      </trkpt>
      <trkpt lat="36.6147400" lon="-5.8183930">
        <ele>118.4</ele>
        <time>2020-12-08T09:08:30Z</time>
      </trkpt>
      <trkpt lat="36.6146260" lon="-5.8180240">
        <ele>119.6</ele>
        <time>2020-12-08T09:08:35Z</time>
      </trkpt>
      <trkpt lat="36.6144900" lon="-5.8175780">
        <ele>120.6</ele>
        <time>2020-12-08T09:08:41Z</time>
      </trkpt>
      <trkpt lat="36.6144420" lon="-5.8174260">
        <ele>121.0</ele>
        <time>2020-12-08T09:08:43Z</time>
      </trkpt>
      <trkpt lat="36.6143510" lon="-5.8171220">
        <ele>121.8</ele>
        <time>2020-12-08T09:08:47Z</time>
      </trkpt>
      <trkpt lat="36.6141450" lon="-5.8164450">
        <ele>122.6</ele>
        <time>2020-12-08T09:08:56Z</time>
      </trkpt>
      <trkpt lat="36.6141010" lon="-5.8162940">
        <ele>122.8</ele>
        <time>2020-12-08T09:08:58Z</time>
      </trkpt>
      <trkpt lat="36.6140780" lon="-5.8162180">
        <ele>122.8</ele>
        <time>2020-12-08T09:08:59Z</time>
      </trkpt>
      <trkpt lat="36.6138740" lon="-5.8156180">
        <ele>124.0</ele>
        <time>2020-12-08T09:09:07Z</time>
      </trkpt>
      <trkpt lat="36.6138060" lon="-5.8154780">
        <ele>124.2</ele>
        <time>2020-12-08T09:09:09Z</time>
      </trkpt>
      <trkpt lat="36.6135570" lon="-5.8149080">
        <ele>125.2</ele>
        <time>2020-12-08T09:09:17Z</time>
      </trkpt>
      <trkpt lat="36.6135290" lon="-5.8148340">
        <ele>125.2</ele>
        <time>2020-12-08T09:09:18Z</time>
      </trkpt>
      <trkpt lat="36.6133240" lon="-5.8141280">
        <ele>126.0</ele>
        <time>2020-12-08T09:09:27Z</time>
      </trkpt>
      <trkpt lat="36.6133050" lon="-5.8140460">
        <ele>126.2</ele>
        <time>2020-12-08T09:09:28Z</time>
      </trkpt>
      <trkpt lat="36.6131590" lon="-5.8134140">
        <ele>127.2</ele>
        <time>2020-12-08T09:09:36Z</time>
      </trkpt>
      <trkpt lat="36.6131410" lon="-5.8133380">
        <ele>127.4</ele>
        <time>2020-12-08T09:09:37Z</time>
      </trkpt>
      <trkpt lat="36.6130520" lon="-5.8129610">
        <ele>128.2</ele>
        <time>2020-12-08T09:09:42Z</time>
      </trkpt>
      <trkpt lat="36.6129700" lon="-5.8126030">
        <ele>129.0</ele>
        <time>2020-12-08T09:09:47Z</time>
      </trkpt>
      <trkpt lat="36.6129530" lon="-5.8125340">
        <ele>129.2</ele>
        <time>2020-12-08T09:09:48Z</time>
      </trkpt>
      <trkpt lat="36.6128720" lon="-5.8121970">
        <ele>130.4</ele>
        <time>2020-12-08T09:09:53Z</time>
      </trkpt>
      <trkpt lat="36.6128290" lon="-5.8120020">
        <ele>131.4</ele>
        <time>2020-12-08T09:09:56Z</time>
      </trkpt>
      <trkpt lat="36.6128160" lon="-5.8119370">
        <ele>131.8</ele>
        <time>2020-12-08T09:09:57Z</time>
      </trkpt>
      <trkpt lat="36.6127750" lon="-5.8117400">
        <ele>132.4</ele>
        <time>2020-12-08T09:10:00Z</time>
      </trkpt>
      <trkpt lat="36.6126820" lon="-5.8113460">
        <ele>133.8</ele>
        <time>2020-12-08T09:10:06Z</time>
      </trkpt>
      <trkpt lat="36.6126210" lon="-5.8110880">
        <ele>135.0</ele>
        <time>2020-12-08T09:10:10Z</time>
      </trkpt>
      <trkpt lat="36.6125430" lon="-5.8107700">
        <ele>136.2</ele>
        <time>2020-12-08T09:10:15Z</time>
      </trkpt>
      <trkpt lat="36.6125270" lon="-5.8107060">
        <ele>136.4</ele>
        <time>2020-12-08T09:10:16Z</time>
      </trkpt>
      <trkpt lat="36.6124850" lon="-5.8105110">
        <ele>137.4</ele>
        <time>2020-12-08T09:10:19Z</time>
      </trkpt>
      <trkpt lat="36.6124520" lon="-5.8103100">
        <ele>138.4</ele>
        <time>2020-12-08T09:10:22Z</time>
      </trkpt>
      <trkpt lat="36.6124470" lon="-5.8102410">
        <ele>138.6</ele>
        <time>2020-12-08T09:10:23Z</time>
      </trkpt>
      <trkpt lat="36.6124440" lon="-5.8101700">
        <ele>138.6</ele>
        <time>2020-12-08T09:10:24Z</time>
      </trkpt>
      <trkpt lat="36.6124430" lon="-5.8098830">
        <ele>139.8</ele>
        <time>2020-12-08T09:10:28Z</time>
      </trkpt>
      <trkpt lat="36.6124670" lon="-5.8095090">
        <ele>140.8</ele>
        <time>2020-12-08T09:10:33Z</time>
      </trkpt>
      <trkpt lat="36.6124820" lon="-5.8093550">
        <ele>140.8</ele>
        <time>2020-12-08T09:10:35Z</time>
      </trkpt>
      <trkpt lat="36.6125390" lon="-5.8088710">
        <ele>141.0</ele>
        <time>2020-12-08T09:10:41Z</time>
      </trkpt>
      <trkpt lat="36.6126230" lon="-5.8081950">
        <ele>141.2</ele>
        <time>2020-12-08T09:10:49Z</time>
      </trkpt>
      <trkpt lat="36.6126350" lon="-5.8081030">
        <ele>141.2</ele>
        <time>2020-12-08T09:10:50Z</time>
      </trkpt>
      <trkpt lat="36.6126840" lon="-5.8073840">
        <ele>140.4</ele>
        <time>2020-12-08T09:10:57Z</time>
      </trkpt>
      <trkpt lat="36.6126790" lon="-5.8072740">
        <ele>140.0</ele>
        <time>2020-12-08T09:10:58Z</time>
      </trkpt>
      <trkpt lat="36.6126660" lon="-5.8071640">
        <ele>139.6</ele>
        <time>2020-12-08T09:10:59Z</time>
      </trkpt>
      <trkpt lat="36.6126280" lon="-5.8069460">
        <ele>138.4</ele>
        <time>2020-12-08T09:11:01Z</time>
      </trkpt>
      <trkpt lat="36.6125800" lon="-5.8067320">
        <ele>137.4</ele>
        <time>2020-12-08T09:11:03Z</time>
      </trkpt>
      <trkpt lat="36.6125050" lon="-5.8064140">
        <ele>135.8</ele>
        <time>2020-12-08T09:11:06Z</time>
      </trkpt>
      <trkpt lat="36.6123990" lon="-5.8059770">
        <ele>134.8</ele>
        <time>2020-12-08T09:11:10Z</time>
      </trkpt>
      <trkpt lat="36.6123130" lon="-5.8054990">
        <ele>134.2</ele>
        <time>2020-12-08T09:11:14Z</time>
      </trkpt>
      <trkpt lat="36.6123140" lon="-5.8053720">
        <ele>134.0</ele>
        <time>2020-12-08T09:11:15Z</time>
      </trkpt>
      <trkpt lat="36.6123520" lon="-5.8051150">
        <ele>133.6</ele>
        <time>2020-12-08T09:11:17Z</time>
      </trkpt>
      <trkpt lat="36.6124290" lon="-5.8048680">
        <ele>132.8</ele>
        <time>2020-12-08T09:11:19Z</time>
      </trkpt>
      <trkpt lat="36.6124760" lon="-5.8047460">
        <ele>132.4</ele>
        <time>2020-12-08T09:11:20Z</time>
      </trkpt>
      <trkpt lat="36.6125680" lon="-5.8045030">
        <ele>131.2</ele>
        <time>2020-12-08T09:11:22Z</time>
      </trkpt>
      <trkpt lat="36.6126670" lon="-5.8042640">
        <ele>129.2</ele>
        <time>2020-12-08T09:11:24Z</time>
      </trkpt>
      <trkpt lat="36.6127680" lon="-5.8040210">
        <ele>127.6</ele>
        <time>2020-12-08T09:11:26Z</time>
      </trkpt>
      <trkpt lat="36.6129140" lon="-5.8036500">
        <ele>126.4</ele>
        <time>2020-12-08T09:11:29Z</time>
      </trkpt>
      <trkpt lat="36.6130680" lon="-5.8032780">
        <ele>125.2</ele>
        <time>2020-12-08T09:11:32Z</time>
      </trkpt>
      <trkpt lat="36.6131730" lon="-5.8030290">
        <ele>123.8</ele>
        <time>2020-12-08T09:11:34Z</time>
      </trkpt>
      <trkpt lat="36.6132270" lon="-5.8029060">
        <ele>122.8</ele>
        <time>2020-12-08T09:11:35Z</time>
      </trkpt>
      <trkpt lat="36.6133410" lon="-5.8026810">
        <ele>121.6</ele>
        <time>2020-12-08T09:11:37Z</time>
      </trkpt>
      <trkpt lat="36.6134680" lon="-5.8024910">
        <ele>120.6</ele>
        <time>2020-12-08T09:11:39Z</time>
      </trkpt>
      <trkpt lat="36.6135370" lon="-5.8024070">
        <ele>120.6</ele>
        <time>2020-12-08T09:11:40Z</time>
      </trkpt>
      <trkpt lat="36.6138410" lon="-5.8021320">
        <ele>120.0</ele>
        <time>2020-12-08T09:11:44Z</time>
      </trkpt>
      <trkpt lat="36.6142730" lon="-5.8019380">
        <ele>119.8</ele>
        <time>2020-12-08T09:11:49Z</time>
      </trkpt>
      <trkpt lat="36.6148860" lon="-5.8018090">
        <ele>119.4</ele>
        <time>2020-12-08T09:11:56Z</time>
      </trkpt>
      <trkpt lat="36.6149680" lon="-5.8017950">
        <ele>119.4</ele>
        <time>2020-12-08T09:11:57Z</time>
      </trkpt>
      <trkpt lat="36.6155050" lon="-5.8016990">
        <ele>119.4</ele>
        <time>2020-12-08T09:12:04Z</time>
      </trkpt>
      <trkpt lat="36.6155790" lon="-5.8016860">
        <ele>119.4</ele>
        <time>2020-12-08T09:12:05Z</time>
      </trkpt>
      <trkpt lat="36.6159930" lon="-5.8016180">
        <ele>120.6</ele>
        <time>2020-12-08T09:12:11Z</time>
      </trkpt>
      <trkpt lat="36.6160560" lon="-5.8016060">
        <ele>120.8</ele>
        <time>2020-12-08T09:12:12Z</time>
      </trkpt>
      <trkpt lat="36.6163030" lon="-5.8015550">
        <ele>121.6</ele>
        <time>2020-12-08T09:12:16Z</time>
      </trkpt>
      <trkpt lat="36.6166040" lon="-5.8015000">
        <ele>123.2</ele>
        <time>2020-12-08T09:12:21Z</time>
      </trkpt>
      <trkpt lat="36.6167210" lon="-5.8014780">
        <ele>123.8</ele>
        <time>2020-12-08T09:12:23Z</time>
      </trkpt>
      <trkpt lat="36.6168360" lon="-5.8014560">
        <ele>124.2</ele>
        <time>2020-12-08T09:12:25Z</time>
      </trkpt>
      <trkpt lat="36.6172430" lon="-5.8013870">
        <ele>125.4</ele>
        <time>2020-12-08T09:12:32Z</time>
      </trkpt>
      <trkpt lat="36.6173010" lon="-5.8013750">
        <ele>125.4</ele>
        <time>2020-12-08T09:12:33Z</time>
      </trkpt>
      <trkpt lat="36.6176390" lon="-5.8013120">
        <ele>126.4</ele>
        <time>2020-12-08T09:12:39Z</time>
      </trkpt>
      <trkpt lat="36.6177440" lon="-5.8012900">
        <ele>126.6</ele>
        <time>2020-12-08T09:12:41Z</time>
      </trkpt>
      <trkpt lat="36.6180010" lon="-5.8012470">
        <ele>127.6</ele>
        <time>2020-12-08T09:12:46Z</time>
      </trkpt>
      <trkpt lat="36.6181500" lon="-5.8012190">
        <ele>128.6</ele>
        <time>2020-12-08T09:12:49Z</time>
      </trkpt>
      <trkpt lat="36.6182900" lon="-5.8011930">
        <ele>129.8</ele>
        <time>2020-12-08T09:12:52Z</time>
      </trkpt>
      <trkpt lat="36.6184190" lon="-5.8011700">
        <ele>131.0</ele>
        <time>2020-12-08T09:12:55Z</time>
      </trkpt>
      <trkpt lat="36.6185030" lon="-5.8011540">
        <ele>131.4</ele>
        <time>2020-12-08T09:12:57Z</time>
      </trkpt>
      <trkpt lat="36.6185860" lon="-5.8011380">
        <ele>132.4</ele>
        <time>2020-12-08T09:12:59Z</time>
      </trkpt>
      <trkpt lat="36.6187090" lon="-5.8011120">
        <ele>133.4</ele>
        <time>2020-12-08T09:13:02Z</time>
      </trkpt>
      <trkpt lat="36.6188760" lon="-5.8010790">
        <ele>134.2</ele>
        <time>2020-12-08T09:13:06Z</time>
      </trkpt>
      <trkpt lat="36.6190450" lon="-5.8010430">
        <ele>135.4</ele>
        <time>2020-12-08T09:13:10Z</time>
      </trkpt>
      <trkpt lat="36.6192190" lon="-5.8010070">
        <ele>136.8</ele>
        <time>2020-12-08T09:13:14Z</time>
      </trkpt>
      <trkpt lat="36.6193070" lon="-5.8009880">
        <ele>137.0</ele>
        <time>2020-12-08T09:13:16Z</time>
      </trkpt>
      <trkpt lat="36.6194490" lon="-5.8009570">
        <ele>137.8</ele>
        <time>2020-12-08T09:13:19Z</time>
      </trkpt>
      <trkpt lat="36.6197160" lon="-5.8009010">
        <ele>138.8</ele>
        <time>2020-12-08T09:13:24Z</time>
      </trkpt>
      <trkpt lat="36.6202160" lon="-5.8007720">
        <ele>139.4</ele>
        <time>2020-12-08T09:13:33Z</time>
      </trkpt>
      <trkpt lat="36.6202710" lon="-5.8007480">
        <ele>139.4</ele>
        <time>2020-12-08T09:13:34Z</time>
      </trkpt>
      <trkpt lat="36.6204790" lon="-5.8005990">
        <ele>139.6</ele>
        <time>2020-12-08T09:13:38Z</time>
      </trkpt>
      <trkpt lat="36.6206680" lon="-5.8003340">
        <ele>139.6</ele>
        <time>2020-12-08T09:13:42Z</time>
      </trkpt>
      <trkpt lat="36.6207100" lon="-5.8002460">
        <ele>139.6</ele>
        <time>2020-12-08T09:13:43Z</time>
      </trkpt>
      <trkpt lat="36.6208320" lon="-5.7999420">
        <ele>139.6</ele>
        <time>2020-12-08T09:13:46Z</time>
      </trkpt>
      <trkpt lat="36.6210780" lon="-5.7992510">
        <ele>138.0</ele>
        <time>2020-12-08T09:13:52Z</time>
      </trkpt>
      <trkpt lat="36.6211210" lon="-5.7991360">
        <ele>137.4</ele>
        <time>2020-12-08T09:13:53Z</time>
      </trkpt>
      <trkpt lat="36.6211640" lon="-5.7990190">
        <ele>136.6</ele>
        <time>2020-12-08T09:13:54Z</time>
      </trkpt>
      <trkpt lat="36.6212480" lon="-5.7987820">
        <ele>135.4</ele>
        <time>2020-12-08T09:13:56Z</time>
      </trkpt>
      <trkpt lat="36.6212920" lon="-5.7986650">
        <ele>134.4</ele>
        <time>2020-12-08T09:13:57Z</time>
      </trkpt>
      <trkpt lat="36.6213800" lon="-5.7984360">
        <ele>133.2</ele>
        <time>2020-12-08T09:13:59Z</time>
      </trkpt>
      <trkpt lat="36.6214640" lon="-5.7982120">
        <ele>132.8</ele>
        <time>2020-12-08T09:14:01Z</time>
      </trkpt>
      <trkpt lat="36.6216890" lon="-5.7975780">
        <ele>132.6</ele>
        <time>2020-12-08T09:14:07Z</time>
      </trkpt>
      <trkpt lat="36.6217260" lon="-5.7974780">
        <ele>132.6</ele>
        <time>2020-12-08T09:14:08Z</time>
      </trkpt>
      <trkpt lat="36.6219030" lon="-5.7969970">
        <ele>134.2</ele>
        <time>2020-12-08T09:14:13Z</time>
      </trkpt>
      <trkpt lat="36.6220030" lon="-5.7967220">
        <ele>135.6</ele>
        <time>2020-12-08T09:14:16Z</time>
      </trkpt>
      <trkpt lat="36.6221370" lon="-5.7963660">
        <ele>136.6</ele>
        <time>2020-12-08T09:14:20Z</time>
      </trkpt>
      <trkpt lat="36.6222990" lon="-5.7959400">
        <ele>137.4</ele>
        <time>2020-12-08T09:14:25Z</time>
      </trkpt>
      <trkpt lat="36.6223310" lon="-5.7958570">
        <ele>137.6</ele>
        <time>2020-12-08T09:14:26Z</time>
      </trkpt>
      <trkpt lat="36.6225300" lon="-5.7953260">
        <ele>138.6</ele>
        <time>2020-12-08T09:14:32Z</time>
      </trkpt>
      <trkpt lat="36.6227450" lon="-5.7947610">
        <ele>138.8</ele>
        <time>2020-12-08T09:14:37Z</time>
      </trkpt>
      <trkpt lat="36.6230070" lon="-5.7940740">
        <ele>138.0</ele>
        <time>2020-12-08T09:14:42Z</time>
      </trkpt>
      <trkpt lat="36.6230630" lon="-5.7939270">
        <ele>137.6</ele>
        <time>2020-12-08T09:14:43Z</time>
      </trkpt>
      <trkpt lat="36.6231170" lon="-5.7937770">
        <ele>136.2</ele>
        <time>2020-12-08T09:14:44Z</time>
      </trkpt>
      <trkpt lat="36.6231730" lon="-5.7936270">
        <ele>135.0</ele>
        <time>2020-12-08T09:14:45Z</time>
      </trkpt>
      <trkpt lat="36.6232670" lon="-5.7933140">
        <ele>133.6</ele>
        <time>2020-12-08T09:14:47Z</time>
      </trkpt>
      <trkpt lat="36.6232960" lon="-5.7931510">
        <ele>132.6</ele>
        <time>2020-12-08T09:14:48Z</time>
      </trkpt>
      <trkpt lat="36.6233110" lon="-5.7929840">
        <ele>131.8</ele>
        <time>2020-12-08T09:14:49Z</time>
      </trkpt>
      <trkpt lat="36.6233160" lon="-5.7928150">
        <ele>130.6</ele>
        <time>2020-12-08T09:14:50Z</time>
      </trkpt>
      <trkpt lat="36.6233140" lon="-5.7926460">
        <ele>129.2</ele>
        <time>2020-12-08T09:14:51Z</time>
      </trkpt>
      <trkpt lat="36.6233130" lon="-5.7924780">
        <ele>127.2</ele>
        <time>2020-12-08T09:14:52Z</time>
      </trkpt>
      <trkpt lat="36.6233150" lon="-5.7923120">
        <ele>125.8</ele>
        <time>2020-12-08T09:14:53Z</time>
      </trkpt>
      <trkpt lat="36.6233180" lon="-5.7921490">
        <ele>124.4</ele>
        <time>2020-12-08T09:14:54Z</time>
      </trkpt>
      <trkpt lat="36.6233220" lon="-5.7919890">
        <ele>123.4</ele>
        <time>2020-12-08T09:14:55Z</time>
      </trkpt>
      <trkpt lat="36.6233360" lon="-5.7916790">
        <ele>122.0</ele>
        <time>2020-12-08T09:14:57Z</time>
      </trkpt>
      <trkpt lat="36.6234150" lon="-5.7912530">
        <ele>121.2</ele>
        <time>2020-12-08T09:15:00Z</time>
      </trkpt>
      <trkpt lat="36.6234580" lon="-5.7911250">
        <ele>121.2</ele>
        <time>2020-12-08T09:15:01Z</time>
      </trkpt>
      <trkpt lat="36.6236800" lon="-5.7904250">
        <ele>121.2</ele>
        <time>2020-12-08T09:15:07Z</time>
      </trkpt>
      <trkpt lat="36.6237010" lon="-5.7903130">
        <ele>121.2</ele>
        <time>2020-12-08T09:15:08Z</time>
      </trkpt>
      <trkpt lat="36.6237130" lon="-5.7899770">
        <ele>121.6</ele>
        <time>2020-12-08T09:15:11Z</time>
      </trkpt>
      <trkpt lat="36.6236930" lon="-5.7895090">
        <ele>123.0</ele>
        <time>2020-12-08T09:15:15Z</time>
      </trkpt>
      <trkpt lat="36.6236920" lon="-5.7891450">
        <ele>123.4</ele>
        <time>2020-12-08T09:15:18Z</time>
      </trkpt>
      <trkpt lat="36.6237250" lon="-5.7889090">
        <ele>123.4</ele>
        <time>2020-12-08T09:15:20Z</time>
      </trkpt>
      <trkpt lat="36.6237930" lon="-5.7886910">
        <ele>123.4</ele>
        <time>2020-12-08T09:15:22Z</time>
      </trkpt>
      <trkpt lat="36.6238870" lon="-5.7884930">
        <ele>123.4</ele>
        <time>2020-12-08T09:15:24Z</time>
      </trkpt>
      <trkpt lat="36.6240320" lon="-5.7882110">
        <ele>123.6</ele>
        <time>2020-12-08T09:15:27Z</time>
      </trkpt>
      <trkpt lat="36.6242350" lon="-5.7876070">
        <ele>123.6</ele>
        <time>2020-12-08T09:15:33Z</time>
      </trkpt>
      <trkpt lat="36.6243310" lon="-5.7871840">
        <ele>124.2</ele>
        <time>2020-12-08T09:15:37Z</time>
      </trkpt>
      <trkpt lat="36.6244730" lon="-5.7865710">
        <ele>124.8</ele>
        <time>2020-12-08T09:15:43Z</time>
      </trkpt>
      <trkpt lat="36.6245390" lon="-5.7862690">
        <ele>125.4</ele>
        <time>2020-12-08T09:15:46Z</time>
      </trkpt>
      <trkpt lat="36.6245950" lon="-5.7859790">
        <ele>125.8</ele>
        <time>2020-12-08T09:15:49Z</time>
      </trkpt>
      <trkpt lat="36.6247240" lon="-5.7854260">
        <ele>126.4</ele>
        <time>2020-12-08T09:15:55Z</time>
      </trkpt>
      <trkpt lat="36.6247530" lon="-5.7853370">
        <ele>126.8</ele>
        <time>2020-12-08T09:15:56Z</time>
      </trkpt>
      <trkpt lat="36.6248270" lon="-5.7851660">
        <ele>127.6</ele>
        <time>2020-12-08T09:15:58Z</time>
      </trkpt>
      <trkpt lat="36.6249690" lon="-5.7849210">
        <ele>128.2</ele>
        <time>2020-12-08T09:16:01Z</time>
      </trkpt>
      <trkpt lat="36.6253400" lon="-5.7843710">
        <ele>128.4</ele>
        <time>2020-12-08T09:16:08Z</time>
      </trkpt>
      <trkpt lat="36.6254980" lon="-5.7841470">
        <ele>128.6</ele>
        <time>2020-12-08T09:16:11Z</time>
      </trkpt>
      <trkpt lat="36.6256020" lon="-5.7839990">
        <ele>128.6</ele>
        <time>2020-12-08T09:16:13Z</time>
      </trkpt>
      <trkpt lat="36.6259620" lon="-5.7834950">
        <ele>129.4</ele>
        <time>2020-12-08T09:16:20Z</time>
      </trkpt>
      <trkpt lat="36.6260120" lon="-5.7834220">
        <ele>129.6</ele>
        <time>2020-12-08T09:16:21Z</time>
      </trkpt>
      <trkpt lat="36.6261100" lon="-5.7832750">
        <ele>130.0</ele>
        <time>2020-12-08T09:16:23Z</time>
      </trkpt>
      <trkpt lat="36.6264170" lon="-5.7827420">
        <ele>130.6</ele>
        <time>2020-12-08T09:16:30Z</time>
      </trkpt>
      <trkpt lat="36.6264490" lon="-5.7826570">
        <ele>130.8</ele>
        <time>2020-12-08T09:16:31Z</time>
      </trkpt>
      <trkpt lat="36.6264970" lon="-5.7824740">
        <ele>131.0</ele>
        <time>2020-12-08T09:16:33Z</time>
      </trkpt>
      <trkpt lat="36.6265150" lon="-5.7822710">
        <ele>131.4</ele>
        <time>2020-12-08T09:16:35Z</time>
      </trkpt>
      <trkpt lat="36.6265060" lon="-5.7820530">
        <ele>131.4</ele>
        <time>2020-12-08T09:16:37Z</time>
      </trkpt>
      <trkpt lat="36.6264810" lon="-5.7817070">
        <ele>131.6</ele>
        <time>2020-12-08T09:16:40Z</time>
      </trkpt>
      <trkpt lat="36.6264410" lon="-5.7809890">
        <ele>130.8</ele>
        <time>2020-12-08T09:16:46Z</time>
      </trkpt>
      <trkpt lat="36.6264510" lon="-5.7807540">
        <ele>129.8</ele>
        <time>2020-12-08T09:16:48Z</time>
      </trkpt>
      <trkpt lat="36.6264660" lon="-5.7806380">
        <ele>129.4</ele>
        <time>2020-12-08T09:16:49Z</time>
      </trkpt>
      <trkpt lat="36.6265410" lon="-5.7802950">
        <ele>128.8</ele>
        <time>2020-12-08T09:16:52Z</time>
      </trkpt>
      <trkpt lat="36.6266960" lon="-5.7797280">
        <ele>128.2</ele>
        <time>2020-12-08T09:16:57Z</time>
      </trkpt>
      <trkpt lat="36.6268580" lon="-5.7791730">
        <ele>128.0</ele>
        <time>2020-12-08T09:17:02Z</time>
      </trkpt>
      <trkpt lat="36.6270480" lon="-5.7785280">
        <ele>128.0</ele>
        <time>2020-12-08T09:17:08Z</time>
      </trkpt>
      <trkpt lat="36.6271310" lon="-5.7783260">
        <ele>128.0</ele>
        <time>2020-12-08T09:17:10Z</time>
      </trkpt>
      <trkpt lat="36.6273690" lon="-5.7778630">
        <ele>127.8</ele>
        <time>2020-12-08T09:17:15Z</time>
      </trkpt>
      <trkpt lat="36.6273970" lon="-5.7777670">
        <ele>127.8</ele>
        <time>2020-12-08T09:17:16Z</time>
      </trkpt>
      <trkpt lat="36.6274020" lon="-5.7775680">
        <ele>128.2</ele>
        <time>2020-12-08T09:17:18Z</time>
      </trkpt>
      <trkpt lat="36.6273630" lon="-5.7773810">
        <ele>128.2</ele>
        <time>2020-12-08T09:17:20Z</time>
      </trkpt>
      <trkpt lat="36.6273120" lon="-5.7772030">
        <ele>128.4</ele>
        <time>2020-12-08T09:17:22Z</time>
      </trkpt>
      <trkpt lat="36.6271580" lon="-5.7766200">
        <ele>129.4</ele>
        <time>2020-12-08T09:17:29Z</time>
      </trkpt>
      <trkpt lat="36.6271420" lon="-5.7765380">
        <ele>129.8</ele>
        <time>2020-12-08T09:17:30Z</time>
      </trkpt>
      <trkpt lat="36.6271180" lon="-5.7761150">
        <ele>130.8</ele>
        <time>2020-12-08T09:17:35Z</time>
      </trkpt>
      <trkpt lat="36.6272180" lon="-5.7756730">
        <ele>131.6</ele>
        <time>2020-12-08T09:17:40Z</time>
      </trkpt>
      <trkpt lat="36.6273400" lon="-5.7752390">
        <ele>131.8</ele>
        <time>2020-12-08T09:17:45Z</time>
      </trkpt>
      <trkpt lat="36.6274250" lon="-5.7749210">
        <ele>132.0</ele>
        <time>2020-12-08T09:17:49Z</time>
      </trkpt>
      <trkpt lat="36.6275550" lon="-5.7744390">
        <ele>132.8</ele>
        <time>2020-12-08T09:17:56Z</time>
      </trkpt>
      <trkpt lat="36.6275710" lon="-5.7743760">
        <ele>133.2</ele>
        <time>2020-12-08T09:17:57Z</time>
      </trkpt>
      <trkpt lat="36.6276040" lon="-5.7742510">
        <ele>134.0</ele>
        <time>2020-12-08T09:17:59Z</time>
      </trkpt>
      <trkpt lat="36.6276750" lon="-5.7740060">
        <ele>135.2</ele>
        <time>2020-12-08T09:18:03Z</time>
      </trkpt>
      <trkpt lat="36.6277220" lon="-5.7738270">
        <ele>136.4</ele>
        <time>2020-12-08T09:18:06Z</time>
      </trkpt>
      <trkpt lat="36.6277360" lon="-5.7737710">
        <ele>136.8</ele>
        <time>2020-12-08T09:18:07Z</time>
      </trkpt>
      <trkpt lat="36.6277640" lon="-5.7736660">
        <ele>137.4</ele>
        <time>2020-12-08T09:18:09Z</time>
      </trkpt>
      <trkpt lat="36.6278270" lon="-5.7734690">
        <ele>138.6</ele>
        <time>2020-12-08T09:18:13Z</time>
      </trkpt>
      <trkpt lat="36.6278780" lon="-5.7733290">
        <ele>139.8</ele>
        <time>2020-12-08T09:18:16Z</time>
      </trkpt>
      <trkpt lat="36.6279370" lon="-5.7731860">
        <ele>140.8</ele>
        <time>2020-12-08T09:18:19Z</time>
      </trkpt>
      <trkpt lat="36.6280240" lon="-5.7730050">
        <ele>142.2</ele>
        <time>2020-12-08T09:18:23Z</time>
      </trkpt>
      <trkpt lat="36.6280920" lon="-5.7728790">
        <ele>142.8</ele>
        <time>2020-12-08T09:18:26Z</time>
      </trkpt>
      <trkpt lat="36.6281400" lon="-5.7728000">
        <ele>143.2</ele>
        <time>2020-12-08T09:18:28Z</time>
      </trkpt>
      <trkpt lat="36.6282320" lon="-5.7726450">
        <ele>144.4</ele>
        <time>2020-12-08T09:18:32Z</time>
      </trkpt>
      <trkpt lat="36.6282850" lon="-5.7725690">
        <ele>145.4</ele>
        <time>2020-12-08T09:18:34Z</time>
      </trkpt>
      <trkpt lat="36.6283120" lon="-5.7725310">
        <ele>145.8</ele>
        <time>2020-12-08T09:18:35Z</time>
      </trkpt>
      <trkpt lat="36.6283980" lon="-5.7724180">
        <ele>146.6</ele>
        <time>2020-12-08T09:18:38Z</time>
      </trkpt>
      <trkpt lat="36.6285690" lon="-5.7722240">
        <ele>147.6</ele>
        <time>2020-12-08T09:18:43Z</time>
      </trkpt>
      <trkpt lat="36.6289240" lon="-5.7718220">
        <ele>148.4</ele>
        <time>2020-12-08T09:18:52Z</time>
      </trkpt>
      <trkpt lat="36.6292350" lon="-5.7715180">
        <ele>148.8</ele>
        <time>2020-12-08T09:18:59Z</time>
      </trkpt>
      <trkpt lat="36.6292750" lon="-5.7714740">
        <ele>148.8</ele>
        <time>2020-12-08T09:19:00Z</time>
      </trkpt>
      <trkpt lat="36.6295600" lon="-5.7712010">
        <ele>149.0</ele>
        <time>2020-12-08T09:19:06Z</time>
      </trkpt>
      <trkpt lat="36.6298950" lon="-5.7709220">
        <ele>149.0</ele>
        <time>2020-12-08T09:19:11Z</time>
      </trkpt>
      <trkpt lat="36.6303530" lon="-5.7705500">
        <ele>148.6</ele>
        <time>2020-12-08T09:19:17Z</time>
      </trkpt>
      <trkpt lat="36.6305040" lon="-5.7704190">
        <ele>147.6</ele>
        <time>2020-12-08T09:19:19Z</time>
      </trkpt>
      <trkpt lat="36.6306530" lon="-5.7702900">
        <ele>146.0</ele>
        <time>2020-12-08T09:19:21Z</time>
      </trkpt>
      <trkpt lat="36.6310450" lon="-5.7699550">
        <ele>144.8</ele>
        <time>2020-12-08T09:19:26Z</time>
      </trkpt>
      <trkpt lat="36.6311250" lon="-5.7698850">
        <ele>144.6</ele>
        <time>2020-12-08T09:19:27Z</time>
      </trkpt>
      <trkpt lat="36.6315500" lon="-5.7694930">
        <ele>143.8</ele>
        <time>2020-12-08T09:19:33Z</time>
      </trkpt>
      <trkpt lat="36.6319510" lon="-5.7690870">
        <ele>144.4</ele>
        <time>2020-12-08T09:19:40Z</time>
      </trkpt>
      <trkpt lat="36.6321530" lon="-5.7688580">
        <ele>145.8</ele>
        <time>2020-12-08T09:19:44Z</time>
      </trkpt>
      <trkpt lat="36.6322430" lon="-5.7687390">
        <ele>146.4</ele>
        <time>2020-12-08T09:19:46Z</time>
      </trkpt>
      <trkpt lat="36.6322830" lon="-5.7686710">
        <ele>146.8</ele>
        <time>2020-12-08T09:19:47Z</time>
      </trkpt>
      <trkpt lat="36.6323170" lon="-5.7685930">
        <ele>147.0</ele>
        <time>2020-12-08T09:19:48Z</time>
      </trkpt>
      <trkpt lat="36.6324100" lon="-5.7683280">
        <ele>147.4</ele>
        <time>2020-12-08T09:19:51Z</time>
      </trkpt>
      <trkpt lat="36.6326750" lon="-5.7677280">
        <ele>147.4</ele>
        <time>2020-12-08T09:19:58Z</time>
      </trkpt>
      <trkpt lat="36.6329410" lon="-5.7674240">
        <ele>148.0</ele>
        <time>2020-12-08T09:20:03Z</time>
      </trkpt>
      <trkpt lat="36.6332260" lon="-5.7671630">
        <ele>148.0</ele>
        <time>2020-12-08T09:20:08Z</time>
      </trkpt>
      <trkpt lat="36.6334090" lon="-5.7670030">
        <ele>148.2</ele>
        <time>2020-12-08T09:20:11Z</time>
      </trkpt>
      <trkpt lat="36.6337150" lon="-5.7667020">
        <ele>149.0</ele>
        <time>2020-12-08T09:20:16Z</time>
      </trkpt>
      <trkpt lat="36.6337690" lon="-5.7666310">
        <ele>149.0</ele>
        <time>2020-12-08T09:20:17Z</time>
      </trkpt>
      <trkpt lat="36.6339280" lon="-5.7662880">
        <ele>149.2</ele>
        <time>2020-12-08T09:20:21Z</time>
      </trkpt>
      <trkpt lat="36.6339530" lon="-5.7661840">
        <ele>149.2</ele>
        <time>2020-12-08T09:20:22Z</time>
      </trkpt>
      <trkpt lat="36.6340890" lon="-5.7655280">
        <ele>149.0</ele>
        <time>2020-12-08T09:20:28Z</time>
      </trkpt>
      <trkpt lat="36.6341450" lon="-5.7651740">
        <ele>147.6</ele>
        <time>2020-12-08T09:20:31Z</time>
      </trkpt>
      <trkpt lat="36.6341620" lon="-5.7649150">
        <ele>146.8</ele>
        <time>2020-12-08T09:20:33Z</time>
      </trkpt>
      <trkpt lat="36.6341630" lon="-5.7647800">
        <ele>146.4</ele>
        <time>2020-12-08T09:20:34Z</time>
      </trkpt>
      <trkpt lat="36.6341490" lon="-5.7642130">
        <ele>145.2</ele>
        <time>2020-12-08T09:20:38Z</time>
      </trkpt>
      <trkpt lat="36.6341310" lon="-5.7640640">
        <ele>144.4</ele>
        <time>2020-12-08T09:20:39Z</time>
      </trkpt>
      <trkpt lat="36.6340970" lon="-5.7639140">
        <ele>144.0</ele>
        <time>2020-12-08T09:20:40Z</time>
      </trkpt>
      <trkpt lat="36.6340480" lon="-5.7637660">
        <ele>143.2</ele>
        <time>2020-12-08T09:20:41Z</time>
      </trkpt>
      <trkpt lat="36.6339850" lon="-5.7636220">
        <ele>142.2</ele>
        <time>2020-12-08T09:20:42Z</time>
      </trkpt>
      <trkpt lat="36.6339140" lon="-5.7634820">
        <ele>140.8</ele>
        <time>2020-12-08T09:20:43Z</time>
      </trkpt>
      <trkpt lat="36.6338380" lon="-5.7633440">
        <ele>139.6</ele>
        <time>2020-12-08T09:20:44Z</time>
      </trkpt>
      <trkpt lat="36.6337630" lon="-5.7632060">
        <ele>138.2</ele>
        <time>2020-12-08T09:20:45Z</time>
      </trkpt>
      <trkpt lat="36.6336880" lon="-5.7630680">
        <ele>136.8</ele>
        <time>2020-12-08T09:20:46Z</time>
      </trkpt>
      <trkpt lat="36.6336150" lon="-5.7629280">
        <ele>135.8</ele>
        <time>2020-12-08T09:20:47Z</time>
      </trkpt>
      <trkpt lat="36.6335410" lon="-5.7627900">
        <ele>134.2</ele>
        <time>2020-12-08T09:20:48Z</time>
      </trkpt>
      <trkpt lat="36.6334640" lon="-5.7626540">
        <ele>133.4</ele>
        <time>2020-12-08T09:20:49Z</time>
      </trkpt>
      <trkpt lat="36.6333820" lon="-5.7625230">
        <ele>132.2</ele>
        <time>2020-12-08T09:20:50Z</time>
      </trkpt>
      <trkpt lat="36.6332930" lon="-5.7624010">
        <ele>130.6</ele>
        <time>2020-12-08T09:20:51Z</time>
      </trkpt>
      <trkpt lat="36.6331960" lon="-5.7622930">
        <ele>129.0</ele>
        <time>2020-12-08T09:20:52Z</time>
      </trkpt>
      <trkpt lat="36.6330920" lon="-5.7621990">
        <ele>127.6</ele>
        <time>2020-12-08T09:20:53Z</time>
      </trkpt>
      <trkpt lat="36.6329850" lon="-5.7621160">
        <ele>125.8</ele>
        <time>2020-12-08T09:20:54Z</time>
      </trkpt>
      <trkpt lat="36.6328790" lon="-5.7620360">
        <ele>124.6</ele>
        <time>2020-12-08T09:20:55Z</time>
      </trkpt>
      <trkpt lat="36.6326730" lon="-5.7618850">
        <ele>123.4</ele>
        <time>2020-12-08T09:20:57Z</time>
      </trkpt>
      <trkpt lat="36.6324710" lon="-5.7617550">
        <ele>121.8</ele>
        <time>2020-12-08T09:20:59Z</time>
      </trkpt>
      <trkpt lat="36.6323680" lon="-5.7617040">
        <ele>121.4</ele>
        <time>2020-12-08T09:21:00Z</time>
      </trkpt>
      <trkpt lat="36.6319650" lon="-5.7615810">
        <ele>121.2</ele>
        <time>2020-12-08T09:21:04Z</time>
      </trkpt>
      <trkpt lat="36.6314450" lon="-5.7613870">
        <ele>121.8</ele>
        <time>2020-12-08T09:21:10Z</time>
      </trkpt>
      <trkpt lat="36.6311380" lon="-5.7612360">
        <ele>122.8</ele>
        <time>2020-12-08T09:21:14Z</time>
      </trkpt>
      <trkpt lat="36.6308520" lon="-5.7610780">
        <ele>123.8</ele>
        <time>2020-12-08T09:21:18Z</time>
      </trkpt>
      <trkpt lat="36.6307840" lon="-5.7610380">
        <ele>124.4</ele>
        <time>2020-12-08T09:21:19Z</time>
      </trkpt>
      <trkpt lat="36.6305840" lon="-5.7609360">
        <ele>125.6</ele>
        <time>2020-12-08T09:21:22Z</time>
      </trkpt>
      <trkpt lat="36.6304590" lon="-5.7608690">
        <ele>126.4</ele>
        <time>2020-12-08T09:21:24Z</time>
      </trkpt>
      <trkpt lat="36.6303970" lon="-5.7608360">
        <ele>127.0</ele>
        <time>2020-12-08T09:21:25Z</time>
      </trkpt>
      <trkpt lat="36.6300950" lon="-5.7607090">
        <ele>128.2</ele>
        <time>2020-12-08T09:21:30Z</time>
      </trkpt>
      <trkpt lat="36.6297900" lon="-5.7606330">
        <ele>129.2</ele>
        <time>2020-12-08T09:21:35Z</time>
      </trkpt>
      <trkpt lat="36.6296700" lon="-5.7606080">
        <ele>129.2</ele>
        <time>2020-12-08T09:21:37Z</time>
      </trkpt>
      <trkpt lat="36.6293740" lon="-5.7605360">
        <ele>130.4</ele>
        <time>2020-12-08T09:21:42Z</time>
      </trkpt>
      <trkpt lat="36.6290830" lon="-5.7604590">
        <ele>131.4</ele>
        <time>2020-12-08T09:21:47Z</time>
      </trkpt>
      <trkpt lat="36.6288650" lon="-5.7603640">
        <ele>132.4</ele>
        <time>2020-12-08T09:21:51Z</time>
      </trkpt>
      <trkpt lat="36.6287080" lon="-5.7602640">
        <ele>132.8</ele>
        <time>2020-12-08T09:21:54Z</time>
      </trkpt>
      <trkpt lat="36.6283100" lon="-5.7599210">
        <ele>133.2</ele>
        <time>2020-12-08T09:22:02Z</time>
      </trkpt>
      <trkpt lat="36.6281580" lon="-5.7596910">
        <ele>133.4</ele>
        <time>2020-12-08T09:22:06Z</time>
      </trkpt>
      <trkpt lat="36.6280960" lon="-5.7595670">
        <ele>133.6</ele>
        <time>2020-12-08T09:22:08Z</time>
      </trkpt>
      <trkpt lat="36.6278310" lon="-5.7590000">
        <ele>133.8</ele>
        <time>2020-12-08T09:22:17Z</time>
      </trkpt>
      <trkpt lat="36.6276970" lon="-5.7587240">
        <ele>134.8</ele>
        <time>2020-12-08T09:22:22Z</time>
      </trkpt>
      <trkpt lat="36.6276080" lon="-5.7585760">
        <ele>135.4</ele>
        <time>2020-12-08T09:22:25Z</time>
      </trkpt>
      <trkpt lat="36.6275050" lon="-5.7584420">
        <ele>135.8</ele>
        <time>2020-12-08T09:22:28Z</time>
      </trkpt>
      <trkpt lat="36.6273330" lon="-5.7582320">
        <ele>136.8</ele>
        <time>2020-12-08T09:22:33Z</time>
      </trkpt>
      <trkpt lat="36.6273000" lon="-5.7581920">
        <ele>137.0</ele>
        <time>2020-12-08T09:22:34Z</time>
      </trkpt>
      <trkpt lat="36.6270760" lon="-5.7579190">
        <ele>138.2</ele>
        <time>2020-12-08T09:22:41Z</time>
      </trkpt>
      <trkpt lat="36.6270160" lon="-5.7578410">
        <ele>138.4</ele>
        <time>2020-12-08T09:22:43Z</time>
      </trkpt>
      <trkpt lat="36.6269090" lon="-5.7576770">
        <ele>139.4</ele>
        <time>2020-12-08T09:22:47Z</time>
      </trkpt>
      <trkpt lat="36.6268510" lon="-5.7575320">
        <ele>139.8</ele>
        <time>2020-12-08T09:22:50Z</time>
      </trkpt>
      <trkpt lat="36.6268260" lon="-5.7574260">
        <ele>140.4</ele>
        <time>2020-12-08T09:22:52Z</time>
      </trkpt>
      <trkpt lat="36.6268000" lon="-5.7572600">
        <ele>141.6</ele>
        <time>2020-12-08T09:22:55Z</time>
      </trkpt>
      <trkpt lat="36.6267880" lon="-5.7571460">
        <ele>142.0</ele>
        <time>2020-12-08T09:22:57Z</time>
      </trkpt>
      <trkpt lat="36.6267410" lon="-5.7567430">
        <ele>142.8</ele>
        <time>2020-12-08T09:23:04Z</time>
      </trkpt>
      <trkpt lat="36.6267210" lon="-5.7565120">
        <ele>143.2</ele>
        <time>2020-12-08T09:23:08Z</time>
      </trkpt>
      <trkpt lat="36.6266930" lon="-5.7562810">
        <ele>144.0</ele>
        <time>2020-12-08T09:23:12Z</time>
      </trkpt>
      <trkpt lat="36.6266610" lon="-5.7559850">
        <ele>144.8</ele>
        <time>2020-12-08T09:23:17Z</time>
      </trkpt>
      <trkpt lat="36.6266500" lon="-5.7558680">
        <ele>145.0</ele>
        <time>2020-12-08T09:23:19Z</time>
      </trkpt>
      <trkpt lat="36.6266160" lon="-5.7555350">
        <ele>146.2</ele>
        <time>2020-12-08T09:23:25Z</time>
      </trkpt>
      <trkpt lat="36.6266120" lon="-5.7554830">
        <ele>146.6</ele>
        <time>2020-12-08T09:23:26Z</time>
      </trkpt>
      <trkpt lat="36.6265920" lon="-5.7553320">
        <ele>147.4</ele>
        <time>2020-12-08T09:23:29Z</time>
      </trkpt>
      <trkpt lat="36.6265630" lon="-5.7550490">
        <ele>148.4</ele>
        <time>2020-12-08T09:23:35Z</time>
      </trkpt>
      <trkpt lat="36.6265580" lon="-5.7550080">
        <ele>148.6</ele>
        <time>2020-12-08T09:23:36Z</time>
      </trkpt>
      <trkpt lat="36.6265380" lon="-5.7548470">
        <ele>149.8</ele>
        <time>2020-12-08T09:23:40Z</time>
      </trkpt>
      <trkpt lat="36.6265190" lon="-5.7546850">
        <ele>151.0</ele>
        <time>2020-12-08T09:23:44Z</time>
      </trkpt>
      <trkpt lat="36.6265160" lon="-5.7546460">
        <ele>151.2</ele>
        <time>2020-12-08T09:23:45Z</time>
      </trkpt>
      <trkpt lat="36.6265060" lon="-5.7545290">
        <ele>152.0</ele>
        <time>2020-12-08T09:23:48Z</time>
      </trkpt>
      <trkpt lat="36.6264940" lon="-5.7543720">
        <ele>153.2</ele>
        <time>2020-12-08T09:23:52Z</time>
      </trkpt>
      <trkpt lat="36.6264860" lon="-5.7542180">
        <ele>154.4</ele>
        <time>2020-12-08T09:23:56Z</time>
      </trkpt>
      <trkpt lat="36.6265020" lon="-5.7541060">
        <ele>155.4</ele>
        <time>2020-12-08T09:23:59Z</time>
      </trkpt>
      <trkpt lat="36.6265420" lon="-5.7539660">
        <ele>156.4</ele>
        <time>2020-12-08T09:24:03Z</time>
      </trkpt>
      <trkpt lat="36.6265560" lon="-5.7539360">
        <ele>156.6</ele>
        <time>2020-12-08T09:24:04Z</time>
      </trkpt>
      <trkpt lat="36.6266280" lon="-5.7538210">
        <ele>157.6</ele>
        <time>2020-12-08T09:24:08Z</time>
      </trkpt>
      <trkpt lat="36.6266690" lon="-5.7537690">
        <ele>158.2</ele>
        <time>2020-12-08T09:24:10Z</time>
      </trkpt>
      <trkpt lat="36.6267130" lon="-5.7537190">
        <ele>158.8</ele>
        <time>2020-12-08T09:24:12Z</time>
      </trkpt>
      <trkpt lat="36.6267990" lon="-5.7536260">
        <ele>159.8</ele>
        <time>2020-12-08T09:24:16Z</time>
      </trkpt>
      <trkpt lat="36.6268810" lon="-5.7535320">
        <ele>161.2</ele>
        <time>2020-12-08T09:24:20Z</time>
      </trkpt>
      <trkpt lat="36.6269620" lon="-5.7534330">
        <ele>162.2</ele>
        <time>2020-12-08T09:24:24Z</time>
      </trkpt>
      <trkpt lat="36.6270390" lon="-5.7533290">
        <ele>163.2</ele>
        <time>2020-12-08T09:24:28Z</time>
      </trkpt>
      <trkpt lat="36.6270570" lon="-5.7533020">
        <ele>163.6</ele>
        <time>2020-12-08T09:24:29Z</time>
      </trkpt>
      <trkpt lat="36.6271120" lon="-5.7532200">
        <ele>164.4</ele>
        <time>2020-12-08T09:24:32Z</time>
      </trkpt>
      <trkpt lat="36.6271670" lon="-5.7530930">
        <ele>165.6</ele>
        <time>2020-12-08T09:24:36Z</time>
      </trkpt>
      <trkpt lat="36.6271740" lon="-5.7530580">
        <ele>165.6</ele>
        <time>2020-12-08T09:24:37Z</time>
      </trkpt>
      <trkpt lat="36.6271850" lon="-5.7529080">
        <ele>166.8</ele>
        <time>2020-12-08T09:24:41Z</time>
      </trkpt>
      <trkpt lat="36.6271760" lon="-5.7527510">
        <ele>167.6</ele>
        <time>2020-12-08T09:24:45Z</time>
      </trkpt>
      <trkpt lat="36.6271720" lon="-5.7527110">
        <ele>167.8</ele>
        <time>2020-12-08T09:24:46Z</time>
      </trkpt>
      <trkpt lat="36.6271620" lon="-5.7525870">
        <ele>168.8</ele>
        <time>2020-12-08T09:24:49Z</time>
      </trkpt>
      <trkpt lat="36.6271420" lon="-5.7523840">
        <ele>169.8</ele>
        <time>2020-12-08T09:24:54Z</time>
      </trkpt>
      <trkpt lat="36.6271360" lon="-5.7523060">
        <ele>170.2</ele>
        <time>2020-12-08T09:24:56Z</time>
      </trkpt>
      <trkpt lat="36.6271160" lon="-5.7521470">
        <ele>171.0</ele>
        <time>2020-12-08T09:25:00Z</time>
      </trkpt>
      <trkpt lat="36.6270990" lon="-5.7519930">
        <ele>172.0</ele>
        <time>2020-12-08T09:25:04Z</time>
      </trkpt>
      <trkpt lat="36.6270860" lon="-5.7518820">
        <ele>173.0</ele>
        <time>2020-12-08T09:25:07Z</time>
      </trkpt>
      <trkpt lat="36.6270820" lon="-5.7518450">
        <ele>173.2</ele>
        <time>2020-12-08T09:25:08Z</time>
      </trkpt>
      <trkpt lat="36.6270670" lon="-5.7517320">
        <ele>174.4</ele>
        <time>2020-12-08T09:25:11Z</time>
      </trkpt>
      <trkpt lat="36.6270500" lon="-5.7515440">
        <ele>175.4</ele>
        <time>2020-12-08T09:25:16Z</time>
      </trkpt>
      <trkpt lat="36.6270420" lon="-5.7514700">
        <ele>176.4</ele>
        <time>2020-12-08T09:25:18Z</time>
      </trkpt>
      <trkpt lat="36.6270370" lon="-5.7514330">
        <ele>176.8</ele>
        <time>2020-12-08T09:25:19Z</time>
      </trkpt>
      <trkpt lat="36.6269980" lon="-5.7512480">
        <ele>178.0</ele>
        <time>2020-12-08T09:25:24Z</time>
      </trkpt>
      <trkpt lat="36.6269740" lon="-5.7511330">
        <ele>179.0</ele>
        <time>2020-12-08T09:25:27Z</time>
      </trkpt>
      <trkpt lat="36.6269670" lon="-5.7510950">
        <ele>179.2</ele>
        <time>2020-12-08T09:25:28Z</time>
      </trkpt>
      <trkpt lat="36.6269300" lon="-5.7509410">
        <ele>180.4</ele>
        <time>2020-12-08T09:25:32Z</time>
      </trkpt>
      <trkpt lat="36.6268960" lon="-5.7507920">
        <ele>181.6</ele>
        <time>2020-12-08T09:25:36Z</time>
      </trkpt>
      <trkpt lat="36.6268760" lon="-5.7507190">
        <ele>182.0</ele>
        <time>2020-12-08T09:25:38Z</time>
      </trkpt>
      <trkpt lat="36.6268550" lon="-5.7506480">
        <ele>182.6</ele>
        <time>2020-12-08T09:25:40Z</time>
      </trkpt>
      <trkpt lat="36.6267990" lon="-5.7505150">
        <ele>183.8</ele>
        <time>2020-12-08T09:25:44Z</time>
      </trkpt>
      <trkpt lat="36.6267610" lon="-5.7504550">
        <ele>184.6</ele>
        <time>2020-12-08T09:25:46Z</time>
      </trkpt>
      <trkpt lat="36.6267410" lon="-5.7504260">
        <ele>184.8</ele>
        <time>2020-12-08T09:25:47Z</time>
      </trkpt>
      <trkpt lat="36.6266640" lon="-5.7503140">
        <ele>185.8</ele>
        <time>2020-12-08T09:25:51Z</time>
      </trkpt>
      <trkpt lat="36.6266020" lon="-5.7502240">
        <ele>186.6</ele>
        <time>2020-12-08T09:25:54Z</time>
      </trkpt>
      <trkpt lat="36.6265550" lon="-5.7501620">
        <ele>187.0</ele>
        <time>2020-12-08T09:25:56Z</time>
      </trkpt>
      <trkpt lat="36.6264310" lon="-5.7500130">
        <ele>188.2</ele>
        <time>2020-12-08T09:26:01Z</time>
      </trkpt>
      <trkpt lat="36.6264050" lon="-5.7499800">
        <ele>188.4</ele>
        <time>2020-12-08T09:26:02Z</time>
      </trkpt>
      <trkpt lat="36.6262950" lon="-5.7498500">
        <ele>189.2</ele>
        <time>2020-12-08T09:26:06Z</time>
      </trkpt>
      <trkpt lat="36.6262140" lon="-5.7497510">
        <ele>189.8</ele>
        <time>2020-12-08T09:26:09Z</time>
      </trkpt>
      <trkpt lat="36.6261080" lon="-5.7496220">
        <ele>190.4</ele>
        <time>2020-12-08T09:26:13Z</time>
      </trkpt>
      <trkpt lat="36.6260120" lon="-5.7494970">
        <ele>191.4</ele>
        <time>2020-12-08T09:26:17Z</time>
      </trkpt>
      <trkpt lat="36.6259900" lon="-5.7494630">
        <ele>191.8</ele>
        <time>2020-12-08T09:26:18Z</time>
      </trkpt>
      <trkpt lat="36.6259320" lon="-5.7493500">
        <ele>192.6</ele>
        <time>2020-12-08T09:26:21Z</time>
      </trkpt>
      <trkpt lat="36.6258840" lon="-5.7492140">
        <ele>193.4</ele>
        <time>2020-12-08T09:26:24Z</time>
      </trkpt>
      <trkpt lat="36.6258640" lon="-5.7491260">
        <ele>194.0</ele>
        <time>2020-12-08T09:26:26Z</time>
      </trkpt>
      <trkpt lat="36.6258390" lon="-5.7489460">
        <ele>195.0</ele>
        <time>2020-12-08T09:26:30Z</time>
      </trkpt>
      <trkpt lat="36.6258350" lon="-5.7488990">
        <ele>195.2</ele>
        <time>2020-12-08T09:26:31Z</time>
      </trkpt>
      <trkpt lat="36.6258210" lon="-5.7487160">
        <ele>196.2</ele>
        <time>2020-12-08T09:26:35Z</time>
      </trkpt>
      <trkpt lat="36.6258150" lon="-5.7485420">
        <ele>197.2</ele>
        <time>2020-12-08T09:26:39Z</time>
      </trkpt>
      <trkpt lat="36.6258110" lon="-5.7484130">
        <ele>198.4</ele>
        <time>2020-12-08T09:26:42Z</time>
      </trkpt>
      <trkpt lat="36.6258080" lon="-5.7483700">
        <ele>199.2</ele>
        <time>2020-12-08T09:26:43Z</time>
      </trkpt>
      <trkpt lat="36.6258040" lon="-5.7482820">
        <ele>199.4</ele>
        <time>2020-12-08T09:26:45Z</time>
      </trkpt>
      <trkpt lat="36.6257970" lon="-5.7481070">
        <ele>200.6</ele>
        <time>2020-12-08T09:26:49Z</time>
      </trkpt>
      <trkpt lat="36.6257910" lon="-5.7479310">
        <ele>202.0</ele>
        <time>2020-12-08T09:26:53Z</time>
      </trkpt>
      <trkpt lat="36.6257880" lon="-5.7478440">
        <ele>202.4</ele>
        <time>2020-12-08T09:26:55Z</time>
      </trkpt>
      <trkpt lat="36.6257860" lon="-5.7477140">
        <ele>203.0</ele>
        <time>2020-12-08T09:26:58Z</time>
      </trkpt>
      <trkpt lat="36.6257800" lon="-5.7475390">
        <ele>203.8</ele>
        <time>2020-12-08T09:27:02Z</time>
      </trkpt>
      <trkpt lat="36.6257750" lon="-5.7474060">
        <ele>205.0</ele>
        <time>2020-12-08T09:27:05Z</time>
      </trkpt>
      <trkpt lat="36.6257730" lon="-5.7473600">
        <ele>205.0</ele>
        <time>2020-12-08T09:27:06Z</time>
      </trkpt>
      <trkpt lat="36.6257670" lon="-5.7472110">
        <ele>206.0</ele>
        <time>2020-12-08T09:27:09Z</time>
      </trkpt>
      <trkpt lat="36.6257610" lon="-5.7470240">
        <ele>207.0</ele>
        <time>2020-12-08T09:27:12Z</time>
      </trkpt>
      <trkpt lat="36.6257440" lon="-5.7466120">
        <ele>207.4</ele>
        <time>2020-12-08T09:27:17Z</time>
      </trkpt>
      <trkpt lat="36.6257220" lon="-5.7459780">
        <ele>206.8</ele>
        <time>2020-12-08T09:27:23Z</time>
      </trkpt>
      <trkpt lat="36.6257160" lon="-5.7457430">
        <ele>205.8</ele>
        <time>2020-12-08T09:27:25Z</time>
      </trkpt>
      <trkpt lat="36.6257080" lon="-5.7454970">
        <ele>204.4</ele>
        <time>2020-12-08T09:27:27Z</time>
      </trkpt>
      <trkpt lat="36.6256980" lon="-5.7452430">
        <ele>203.0</ele>
        <time>2020-12-08T09:27:29Z</time>
      </trkpt>
      <trkpt lat="36.6256930" lon="-5.7451120">
        <ele>202.2</ele>
        <time>2020-12-08T09:27:30Z</time>
      </trkpt>
      <trkpt lat="36.6256900" lon="-5.7449800">
        <ele>201.8</ele>
        <time>2020-12-08T09:27:31Z</time>
      </trkpt>
      <trkpt lat="36.6256720" lon="-5.7445730">
        <ele>200.2</ele>
        <time>2020-12-08T09:27:34Z</time>
      </trkpt>
      <trkpt lat="36.6256640" lon="-5.7442950">
        <ele>198.6</ele>
        <time>2020-12-08T09:27:36Z</time>
      </trkpt>
      <trkpt lat="36.6256640" lon="-5.7441560">
        <ele>198.0</ele>
        <time>2020-12-08T09:27:37Z</time>
      </trkpt>
      <trkpt lat="36.6256600" lon="-5.7438820">
        <ele>197.4</ele>
        <time>2020-12-08T09:27:39Z</time>
      </trkpt>
      <trkpt lat="36.6256720" lon="-5.7436110">
        <ele>195.4</ele>
        <time>2020-12-08T09:27:41Z</time>
      </trkpt>
      <trkpt lat="36.6256900" lon="-5.7434780">
        <ele>194.6</ele>
        <time>2020-12-08T09:27:42Z</time>
      </trkpt>
      <trkpt lat="36.6257170" lon="-5.7433460">
        <ele>193.8</ele>
        <time>2020-12-08T09:27:43Z</time>
      </trkpt>
      <trkpt lat="36.6257820" lon="-5.7430760">
        <ele>192.2</ele>
        <time>2020-12-08T09:27:45Z</time>
      </trkpt>
      <trkpt lat="36.6258590" lon="-5.7427980">
        <ele>191.4</ele>
        <time>2020-12-08T09:27:47Z</time>
      </trkpt>
      <trkpt lat="36.6259020" lon="-5.7426560">
        <ele>191.0</ele>
        <time>2020-12-08T09:27:48Z</time>
      </trkpt>
      <trkpt lat="36.6260410" lon="-5.7422270">
        <ele>190.0</ele>
        <time>2020-12-08T09:27:51Z</time>
      </trkpt>
      <trkpt lat="36.6261790" lon="-5.7417890">
        <ele>189.4</ele>
        <time>2020-12-08T09:27:54Z</time>
      </trkpt>
      <trkpt lat="36.6262250" lon="-5.7416410">
        <ele>189.0</ele>
        <time>2020-12-08T09:27:55Z</time>
      </trkpt>
      <trkpt lat="36.6263820" lon="-5.7412160">
        <ele>187.0</ele>
        <time>2020-12-08T09:27:58Z</time>
      </trkpt>
      <trkpt lat="36.6264470" lon="-5.7410840">
        <ele>186.0</ele>
        <time>2020-12-08T09:27:59Z</time>
      </trkpt>
      <trkpt lat="36.6265190" lon="-5.7409570">
        <ele>185.2</ele>
        <time>2020-12-08T09:28:00Z</time>
      </trkpt>
      <trkpt lat="36.6267530" lon="-5.7405930">
        <ele>183.6</ele>
        <time>2020-12-08T09:28:03Z</time>
      </trkpt>
      <trkpt lat="36.6268340" lon="-5.7404750">
        <ele>182.8</ele>
        <time>2020-12-08T09:28:04Z</time>
      </trkpt>
      <trkpt lat="36.6269140" lon="-5.7403560">
        <ele>182.0</ele>
        <time>2020-12-08T09:28:05Z</time>
      </trkpt>
      <trkpt lat="36.6270790" lon="-5.7401270">
        <ele>181.0</ele>
        <time>2020-12-08T09:28:07Z</time>
      </trkpt>
      <trkpt lat="36.6272340" lon="-5.7398940">
        <ele>179.6</ele>
        <time>2020-12-08T09:28:09Z</time>
      </trkpt>
      <trkpt lat="36.6273110" lon="-5.7397800">
        <ele>179.2</ele>
        <time>2020-12-08T09:28:10Z</time>
      </trkpt>
      <trkpt lat="36.6274690" lon="-5.7395610">
        <ele>178.0</ele>
        <time>2020-12-08T09:28:12Z</time>
      </trkpt>
      <trkpt lat="36.6276160" lon="-5.7393360">
        <ele>176.6</ele>
        <time>2020-12-08T09:28:14Z</time>
      </trkpt>
      <trkpt lat="36.6277570" lon="-5.7391070">
        <ele>175.0</ele>
        <time>2020-12-08T09:28:16Z</time>
      </trkpt>
      <trkpt lat="36.6278830" lon="-5.7388680">
        <ele>173.6</ele>
        <time>2020-12-08T09:28:18Z</time>
      </trkpt>
      <trkpt lat="36.6280320" lon="-5.7384810">
        <ele>172.6</ele>
        <time>2020-12-08T09:28:21Z</time>
      </trkpt>
      <trkpt lat="36.6280760" lon="-5.7383500">
        <ele>172.4</ele>
        <time>2020-12-08T09:28:22Z</time>
      </trkpt>
      <trkpt lat="36.6282060" lon="-5.7379520">
        <ele>171.2</ele>
        <time>2020-12-08T09:28:25Z</time>
      </trkpt>
      <trkpt lat="36.6283840" lon="-5.7374150">
        <ele>170.2</ele>
        <time>2020-12-08T09:28:29Z</time>
      </trkpt>
      <trkpt lat="36.6284300" lon="-5.7372800">
        <ele>170.0</ele>
        <time>2020-12-08T09:28:30Z</time>
      </trkpt>
      <trkpt lat="36.6286490" lon="-5.7365910">
        <ele>169.0</ele>
        <time>2020-12-08T09:28:35Z</time>
      </trkpt>
      <trkpt lat="36.6286940" lon="-5.7364550">
        <ele>168.8</ele>
        <time>2020-12-08T09:28:36Z</time>
      </trkpt>
      <trkpt lat="36.6287400" lon="-5.7363180">
        <ele>168.6</ele>
        <time>2020-12-08T09:28:37Z</time>
      </trkpt>
      <trkpt lat="36.6287830" lon="-5.7361810">
        <ele>167.6</ele>
        <time>2020-12-08T09:28:38Z</time>
      </trkpt>
      <trkpt lat="36.6289010" lon="-5.7357590">
        <ele>166.4</ele>
        <time>2020-12-08T09:28:41Z</time>
      </trkpt>
      <trkpt lat="36.6289520" lon="-5.7354700">
        <ele>165.4</ele>
        <time>2020-12-08T09:28:43Z</time>
      </trkpt>
      <trkpt lat="36.6289700" lon="-5.7353260">
        <ele>165.2</ele>
        <time>2020-12-08T09:28:44Z</time>
      </trkpt>
      <trkpt lat="36.6290410" lon="-5.7346220">
        <ele>164.2</ele>
        <time>2020-12-08T09:28:49Z</time>
      </trkpt>
      <trkpt lat="36.6290530" lon="-5.7344860">
        <ele>163.8</ele>
        <time>2020-12-08T09:28:50Z</time>
      </trkpt>
      <trkpt lat="36.6290910" lon="-5.7340810">
        <ele>162.8</ele>
        <time>2020-12-08T09:28:53Z</time>
      </trkpt>
      <trkpt lat="36.6291570" lon="-5.7335550">
        <ele>161.8</ele>
        <time>2020-12-08T09:28:57Z</time>
      </trkpt>
      <trkpt lat="36.6291840" lon="-5.7334260">
        <ele>161.6</ele>
        <time>2020-12-08T09:28:58Z</time>
      </trkpt>
      <trkpt lat="36.6293700" lon="-5.7327950">
        <ele>160.8</ele>
        <time>2020-12-08T09:29:03Z</time>
      </trkpt>
      <trkpt lat="36.6294130" lon="-5.7326710">
        <ele>160.6</ele>
        <time>2020-12-08T09:29:04Z</time>
      </trkpt>
      <trkpt lat="36.6296180" lon="-5.7320470">
        <ele>159.6</ele>
        <time>2020-12-08T09:29:09Z</time>
      </trkpt>
      <trkpt lat="36.6297860" lon="-5.7315620">
        <ele>158.2</ele>
        <time>2020-12-08T09:29:13Z</time>
      </trkpt>
      <trkpt lat="36.6300240" lon="-5.7308470">
        <ele>157.6</ele>
        <time>2020-12-08T09:29:19Z</time>
      </trkpt>
      <trkpt lat="36.6301500" lon="-5.7304880">
        <ele>157.4</ele>
        <time>2020-12-08T09:29:22Z</time>
      </trkpt>
      <trkpt lat="36.6303780" lon="-5.7298610">
        <ele>157.4</ele>
        <time>2020-12-08T09:29:27Z</time>
      </trkpt>
      <trkpt lat="36.6305240" lon="-5.7294690">
        <ele>157.0</ele>
        <time>2020-12-08T09:29:30Z</time>
      </trkpt>
      <trkpt lat="36.6306220" lon="-5.7292090">
        <ele>155.8</ele>
        <time>2020-12-08T09:29:32Z</time>
      </trkpt>
      <trkpt lat="36.6307200" lon="-5.7289480">
        <ele>154.6</ele>
        <time>2020-12-08T09:29:34Z</time>
      </trkpt>
      <trkpt lat="36.6308180" lon="-5.7286850">
        <ele>153.2</ele>
        <time>2020-12-08T09:29:36Z</time>
      </trkpt>
      <trkpt lat="36.6309150" lon="-5.7284220">
        <ele>151.4</ele>
        <time>2020-12-08T09:29:38Z</time>
      </trkpt>
      <trkpt lat="36.6310130" lon="-5.7281590">
        <ele>150.6</ele>
        <time>2020-12-08T09:29:40Z</time>
      </trkpt>
      <trkpt lat="36.6310630" lon="-5.7280290">
        <ele>150.2</ele>
        <time>2020-12-08T09:29:41Z</time>
      </trkpt>
      <trkpt lat="36.6312650" lon="-5.7275130">
        <ele>149.0</ele>
        <time>2020-12-08T09:29:45Z</time>
      </trkpt>
      <trkpt lat="36.6313660" lon="-5.7272590">
        <ele>147.6</ele>
        <time>2020-12-08T09:29:47Z</time>
      </trkpt>
      <trkpt lat="36.6314710" lon="-5.7270120">
        <ele>146.8</ele>
        <time>2020-12-08T09:29:49Z</time>
      </trkpt>
      <trkpt lat="36.6315230" lon="-5.7268910">
        <ele>146.4</ele>
        <time>2020-12-08T09:29:50Z</time>
      </trkpt>
      <trkpt lat="36.6316810" lon="-5.7265310">
        <ele>145.2</ele>
        <time>2020-12-08T09:29:53Z</time>
      </trkpt>
      <trkpt lat="36.6318400" lon="-5.7261660">
        <ele>143.8</ele>
        <time>2020-12-08T09:29:56Z</time>
      </trkpt>
      <trkpt lat="36.6319470" lon="-5.7259210">
        <ele>143.4</ele>
        <time>2020-12-08T09:29:58Z</time>
      </trkpt>
      <trkpt lat="36.6322260" lon="-5.7253140">
        <ele>142.6</ele>
        <time>2020-12-08T09:30:03Z</time>
      </trkpt>
      <trkpt lat="36.6323450" lon="-5.7250800">
        <ele>141.6</ele>
        <time>2020-12-08T09:30:05Z</time>
      </trkpt>
      <trkpt lat="36.6324040" lon="-5.7249640">
        <ele>140.8</ele>
        <time>2020-12-08T09:30:06Z</time>
      </trkpt>
      <trkpt lat="36.6324610" lon="-5.7248460">
        <ele>140.4</ele>
        <time>2020-12-08T09:30:07Z</time>
      </trkpt>
      <trkpt lat="36.6325740" lon="-5.7246120">
        <ele>139.2</ele>
        <time>2020-12-08T09:30:09Z</time>
      </trkpt>
      <trkpt lat="36.6327400" lon="-5.7242620">
        <ele>137.8</ele>
        <time>2020-12-08T09:30:12Z</time>
      </trkpt>
      <trkpt lat="36.6329040" lon="-5.7239170">
        <ele>136.6</ele>
        <time>2020-12-08T09:30:15Z</time>
      </trkpt>
      <trkpt lat="36.6331170" lon="-5.7234700">
        <ele>135.6</ele>
        <time>2020-12-08T09:30:19Z</time>
      </trkpt>
      <trkpt lat="36.6332760" lon="-5.7231480">
        <ele>135.4</ele>
        <time>2020-12-08T09:30:22Z</time>
      </trkpt>
      <trkpt lat="36.6336040" lon="-5.7225140">
        <ele>135.2</ele>
        <time>2020-12-08T09:30:28Z</time>
      </trkpt>
      <trkpt lat="36.6337180" lon="-5.7223000">
        <ele>135.2</ele>
        <time>2020-12-08T09:30:30Z</time>
      </trkpt>
      <trkpt lat="36.6339550" lon="-5.7218600">
        <ele>134.6</ele>
        <time>2020-12-08T09:30:34Z</time>
      </trkpt>
      <trkpt lat="36.6341570" lon="-5.7215410">
        <ele>133.6</ele>
        <time>2020-12-08T09:30:37Z</time>
      </trkpt>
      <trkpt lat="36.6342290" lon="-5.7214380">
        <ele>133.0</ele>
        <time>2020-12-08T09:30:38Z</time>
      </trkpt>
      <trkpt lat="36.6344560" lon="-5.7211230">
        <ele>132.0</ele>
        <time>2020-12-08T09:30:41Z</time>
      </trkpt>
      <trkpt lat="36.6346910" lon="-5.7207970">
        <ele>130.4</ele>
        <time>2020-12-08T09:30:44Z</time>
      </trkpt>
      <trkpt lat="36.6347720" lon="-5.7206840">
        <ele>130.0</ele>
        <time>2020-12-08T09:30:45Z</time>
      </trkpt>
      <trkpt lat="36.6349350" lon="-5.7204550">
        <ele>129.0</ele>
        <time>2020-12-08T09:30:47Z</time>
      </trkpt>
      <trkpt lat="36.6351000" lon="-5.7202230">
        <ele>127.4</ele>
        <time>2020-12-08T09:30:49Z</time>
      </trkpt>
      <trkpt lat="36.6352600" lon="-5.7199900">
        <ele>125.2</ele>
        <time>2020-12-08T09:30:51Z</time>
      </trkpt>
      <trkpt lat="36.6353360" lon="-5.7198740">
        <ele>124.2</ele>
        <time>2020-12-08T09:30:52Z</time>
      </trkpt>
      <trkpt lat="36.6354110" lon="-5.7197580">
        <ele>123.4</ele>
        <time>2020-12-08T09:30:53Z</time>
      </trkpt>
      <trkpt lat="36.6355640" lon="-5.7195300">
        <ele>122.2</ele>
        <time>2020-12-08T09:30:55Z</time>
      </trkpt>
      <trkpt lat="36.6357160" lon="-5.7193050">
        <ele>120.6</ele>
        <time>2020-12-08T09:30:57Z</time>
      </trkpt>
      <trkpt lat="36.6358650" lon="-5.7190760">
        <ele>119.2</ele>
        <time>2020-12-08T09:30:59Z</time>
      </trkpt>
      <trkpt lat="36.6361450" lon="-5.7186100">
        <ele>118.0</ele>
        <time>2020-12-08T09:31:03Z</time>
      </trkpt>
      <trkpt lat="36.6362640" lon="-5.7183660">
        <ele>117.8</ele>
        <time>2020-12-08T09:31:05Z</time>
      </trkpt>
      <trkpt lat="36.6363070" lon="-5.7182340">
        <ele>117.6</ele>
        <time>2020-12-08T09:31:06Z</time>
      </trkpt>
      <trkpt lat="36.6363680" lon="-5.7178230">
        <ele>117.4</ele>
        <time>2020-12-08T09:31:09Z</time>
      </trkpt>
      <trkpt lat="36.6363370" lon="-5.7174100">
        <ele>117.2</ele>
        <time>2020-12-08T09:31:12Z</time>
      </trkpt>
      <trkpt lat="36.6363100" lon="-5.7172750">
        <ele>117.2</ele>
        <time>2020-12-08T09:31:13Z</time>
      </trkpt>
      <trkpt lat="36.6362800" lon="-5.7171410">
        <ele>117.0</ele>
        <time>2020-12-08T09:31:14Z</time>
      </trkpt>
      <trkpt lat="36.6361490" lon="-5.7166150">
        <ele>116.0</ele>
        <time>2020-12-08T09:31:18Z</time>
      </trkpt>
      <trkpt lat="36.6359840" lon="-5.7159680">
        <ele>114.8</ele>
        <time>2020-12-08T09:31:23Z</time>
      </trkpt>
      <trkpt lat="36.6358900" lon="-5.7155890">
        <ele>113.6</ele>
        <time>2020-12-08T09:31:26Z</time>
      </trkpt>
      <trkpt lat="36.6358010" lon="-5.7152160">
        <ele>112.4</ele>
        <time>2020-12-08T09:31:29Z</time>
      </trkpt>
      <trkpt lat="36.6357090" lon="-5.7148500">
        <ele>111.4</ele>
        <time>2020-12-08T09:31:32Z</time>
      </trkpt>
      <trkpt lat="36.6355930" lon="-5.7143700">
        <ele>110.4</ele>
        <time>2020-12-08T09:31:36Z</time>
      </trkpt>
      <trkpt lat="36.6355650" lon="-5.7142490">
        <ele>110.2</ele>
        <time>2020-12-08T09:31:37Z</time>
      </trkpt>
      <trkpt lat="36.6354490" lon="-5.7137680">
        <ele>109.2</ele>
        <time>2020-12-08T09:31:41Z</time>
      </trkpt>
      <trkpt lat="36.6352780" lon="-5.7130480">
        <ele>108.0</ele>
        <time>2020-12-08T09:31:47Z</time>
      </trkpt>
      <trkpt lat="36.6352190" lon="-5.7128080">
        <ele>107.8</ele>
        <time>2020-12-08T09:31:49Z</time>
      </trkpt>
      <trkpt lat="36.6351070" lon="-5.7123400">
        <ele>107.0</ele>
        <time>2020-12-08T09:31:53Z</time>
      </trkpt>
      <trkpt lat="36.6350220" lon="-5.7120050">
        <ele>106.8</ele>
        <time>2020-12-08T09:31:56Z</time>
      </trkpt>
      <trkpt lat="36.6348440" lon="-5.7112700">
        <ele>107.0</ele>
        <time>2020-12-08T09:32:03Z</time>
      </trkpt>
      <trkpt lat="36.6347960" lon="-5.7110660">
        <ele>107.4</ele>
        <time>2020-12-08T09:32:05Z</time>
      </trkpt>
      <trkpt lat="36.6346260" lon="-5.7103680">
        <ele>107.8</ele>
        <time>2020-12-08T09:32:12Z</time>
      </trkpt>
      <trkpt lat="36.6345590" lon="-5.7100680">
        <ele>108.0</ele>
        <time>2020-12-08T09:32:15Z</time>
      </trkpt>
      <trkpt lat="36.6345000" lon="-5.7095460">
        <ele>108.2</ele>
        <time>2020-12-08T09:32:20Z</time>
      </trkpt>
      <trkpt lat="36.6344850" lon="-5.7087810">
        <ele>108.8</ele>
        <time>2020-12-08T09:32:27Z</time>
      </trkpt>
      <trkpt lat="36.6344760" lon="-5.7086690">
        <ele>108.8</ele>
        <time>2020-12-08T09:32:28Z</time>
      </trkpt>
      <trkpt lat="36.6343560" lon="-5.7080060">
        <ele>108.6</ele>
        <time>2020-12-08T09:32:34Z</time>
      </trkpt>
      <trkpt lat="36.6342010" lon="-5.7073530">
        <ele>107.6</ele>
        <time>2020-12-08T09:32:40Z</time>
      </trkpt>
      <trkpt lat="36.6340660" lon="-5.7068110">
        <ele>107.2</ele>
        <time>2020-12-08T09:32:45Z</time>
      </trkpt>
      <trkpt lat="36.6339320" lon="-5.7062750">
        <ele>107.0</ele>
        <time>2020-12-08T09:32:50Z</time>
      </trkpt>
      <trkpt lat="36.6338280" lon="-5.7057340">
        <ele>106.4</ele>
        <time>2020-12-08T09:32:55Z</time>
      </trkpt>
      <trkpt lat="36.6338270" lon="-5.7053940">
        <ele>106.0</ele>
        <time>2020-12-08T09:32:58Z</time>
      </trkpt>
      <trkpt lat="36.6338430" lon="-5.7052800">
        <ele>106.0</ele>
        <time>2020-12-08T09:32:59Z</time>
      </trkpt>
      <trkpt lat="36.6339820" lon="-5.7048480">
        <ele>106.2</ele>
        <time>2020-12-08T09:33:03Z</time>
      </trkpt>
      <trkpt lat="36.6342360" lon="-5.7044890">
        <ele>105.8</ele>
        <time>2020-12-08T09:33:07Z</time>
      </trkpt>
      <trkpt lat="36.6343950" lon="-5.7043410">
        <ele>105.4</ele>
        <time>2020-12-08T09:33:09Z</time>
      </trkpt>
      <trkpt lat="36.6346440" lon="-5.7041300">
        <ele>105.0</ele>
        <time>2020-12-08T09:33:12Z</time>
      </trkpt>
      <trkpt lat="36.6348850" lon="-5.7039300">
        <ele>104.6</ele>
        <time>2020-12-08T09:33:15Z</time>
      </trkpt>
      <trkpt lat="36.6351760" lon="-5.7036890">
        <ele>104.4</ele>
        <time>2020-12-08T09:33:19Z</time>
      </trkpt>
      <trkpt lat="36.6356170" lon="-5.7033290">
        <ele>104.4</ele>
        <time>2020-12-08T09:33:26Z</time>
      </trkpt>
      <trkpt lat="36.6358990" lon="-5.7030940">
        <ele>105.8</ele>
        <time>2020-12-08T09:33:31Z</time>
      </trkpt>
      <trkpt lat="36.6361150" lon="-5.7029150">
        <ele>106.8</ele>
        <time>2020-12-08T09:33:35Z</time>
      </trkpt>
      <trkpt lat="36.6361680" lon="-5.7028700">
        <ele>107.0</ele>
        <time>2020-12-08T09:33:36Z</time>
      </trkpt>
      <trkpt lat="36.6366500" lon="-5.7024670">
        <ele>108.0</ele>
        <time>2020-12-08T09:33:45Z</time>
      </trkpt>
      <trkpt lat="36.6367580" lon="-5.7023780">
        <ele>108.2</ele>
        <time>2020-12-08T09:33:47Z</time>
      </trkpt>
      <trkpt lat="36.6372580" lon="-5.7019630">
        <ele>108.8</ele>
        <time>2020-12-08T09:33:56Z</time>
      </trkpt>
      <trkpt lat="36.6373120" lon="-5.7019120">
        <ele>108.8</ele>
        <time>2020-12-08T09:33:57Z</time>
      </trkpt>
      <trkpt lat="36.6376600" lon="-5.7015170">
        <ele>109.0</ele>
        <time>2020-12-08T09:34:04Z</time>
      </trkpt>
      <trkpt lat="36.6377030" lon="-5.7014550">
        <ele>109.2</ele>
        <time>2020-12-08T09:34:05Z</time>
      </trkpt>
      <trkpt lat="36.6380580" lon="-5.7009080">
        <ele>109.4</ele>
        <time>2020-12-08T09:34:14Z</time>
      </trkpt>
      <trkpt lat="36.6381650" lon="-5.7007390">
        <ele>110.2</ele>
        <time>2020-12-08T09:34:17Z</time>
      </trkpt>
      <trkpt lat="36.6383360" lon="-5.7004830">
        <ele>111.2</ele>
        <time>2020-12-08T09:34:22Z</time>
      </trkpt>
      <trkpt lat="36.6384650" lon="-5.7002870">
        <ele>112.0</ele>
        <time>2020-12-08T09:34:26Z</time>
      </trkpt>
      <trkpt lat="36.6385930" lon="-5.7000910">
        <ele>113.2</ele>
        <time>2020-12-08T09:34:30Z</time>
      </trkpt>
      <trkpt lat="36.6387250" lon="-5.6998910">
        <ele>113.8</ele>
        <time>2020-12-08T09:34:34Z</time>
      </trkpt>
      <trkpt lat="36.6387960" lon="-5.6997900">
        <ele>114.2</ele>
        <time>2020-12-08T09:34:36Z</time>
      </trkpt>
      <trkpt lat="36.6389370" lon="-5.6995830">
        <ele>115.2</ele>
        <time>2020-12-08T09:34:40Z</time>
      </trkpt>
      <trkpt lat="36.6390080" lon="-5.6994730">
        <ele>116.0</ele>
        <time>2020-12-08T09:34:42Z</time>
      </trkpt>
      <trkpt lat="36.6390810" lon="-5.6993600">
        <ele>116.4</ele>
        <time>2020-12-08T09:34:44Z</time>
      </trkpt>
      <trkpt lat="36.6394330" lon="-5.6988310">
        <ele>117.4</ele>
        <time>2020-12-08T09:34:53Z</time>
      </trkpt>
      <trkpt lat="36.6397010" lon="-5.6983980">
        <ele>117.8</ele>
        <time>2020-12-08T09:35:00Z</time>
      </trkpt>
      <trkpt lat="36.6399180" lon="-5.6979890">
        <ele>118.4</ele>
        <time>2020-12-08T09:35:07Z</time>
      </trkpt>
      <trkpt lat="36.6399470" lon="-5.6979320">
        <ele>118.6</ele>
        <time>2020-12-08T09:35:08Z</time>
      </trkpt>
      <trkpt lat="36.6400520" lon="-5.6976990">
        <ele>119.6</ele>
        <time>2020-12-08T09:35:12Z</time>
      </trkpt>
      <trkpt lat="36.6401520" lon="-5.6974660">
        <ele>120.8</ele>
        <time>2020-12-08T09:35:16Z</time>
      </trkpt>
      <trkpt lat="36.6401970" lon="-5.6973470">
        <ele>121.2</ele>
        <time>2020-12-08T09:35:18Z</time>
      </trkpt>
      <trkpt lat="36.6402400" lon="-5.6972250">
        <ele>121.8</ele>
        <time>2020-12-08T09:35:20Z</time>
      </trkpt>
      <trkpt lat="36.6403200" lon="-5.6969740">
        <ele>123.0</ele>
        <time>2020-12-08T09:35:24Z</time>
      </trkpt>
      <trkpt lat="36.6404180" lon="-5.6966440">
        <ele>124.2</ele>
        <time>2020-12-08T09:35:29Z</time>
      </trkpt>
      <trkpt lat="36.6404990" lon="-5.6962900">
        <ele>125.2</ele>
        <time>2020-12-08T09:35:34Z</time>
      </trkpt>
      <trkpt lat="36.6405460" lon="-5.6960700">
        <ele>125.6</ele>
        <time>2020-12-08T09:35:37Z</time>
      </trkpt>
      <trkpt lat="36.6406440" lon="-5.6953580">
        <ele>125.6</ele>
        <time>2020-12-08T09:35:46Z</time>
      </trkpt>
      <trkpt lat="36.6406830" lon="-5.6948420">
        <ele>125.4</ele>
        <time>2020-12-08T09:35:53Z</time>
      </trkpt>
      <trkpt lat="36.6406800" lon="-5.6944060">
        <ele>125.8</ele>
        <time>2020-12-08T09:36:00Z</time>
      </trkpt>
      <trkpt lat="36.6406700" lon="-5.6942920">
        <ele>126.4</ele>
        <time>2020-12-08T09:36:02Z</time>
      </trkpt>
      <trkpt lat="36.6406560" lon="-5.6940710">
        <ele>127.4</ele>
        <time>2020-12-08T09:36:06Z</time>
      </trkpt>
      <trkpt lat="36.6406370" lon="-5.6939070">
        <ele>128.0</ele>
        <time>2020-12-08T09:36:09Z</time>
      </trkpt>
      <trkpt lat="36.6406280" lon="-5.6937960">
        <ele>128.6</ele>
        <time>2020-12-08T09:36:11Z</time>
      </trkpt>
      <trkpt lat="36.6405940" lon="-5.6935100">
        <ele>130.0</ele>
        <time>2020-12-08T09:36:16Z</time>
      </trkpt>
      <trkpt lat="36.6405800" lon="-5.6933920">
        <ele>130.8</ele>
        <time>2020-12-08T09:36:18Z</time>
      </trkpt>
      <trkpt lat="36.6405740" lon="-5.6933320">
        <ele>131.0</ele>
        <time>2020-12-08T09:36:19Z</time>
      </trkpt>
      <trkpt lat="36.6405250" lon="-5.6928870">
        <ele>132.2</ele>
        <time>2020-12-08T09:36:26Z</time>
      </trkpt>
      <trkpt lat="36.6405190" lon="-5.6928230">
        <ele>132.4</ele>
        <time>2020-12-08T09:36:27Z</time>
      </trkpt>
      <trkpt lat="36.6404510" lon="-5.6920900">
        <ele>133.4</ele>
        <time>2020-12-08T09:36:38Z</time>
      </trkpt>
      <trkpt lat="36.6404190" lon="-5.6917410">
        <ele>134.4</ele>
        <time>2020-12-08T09:36:43Z</time>
      </trkpt>
      <trkpt lat="36.6404130" lon="-5.6915290">
        <ele>134.8</ele>
        <time>2020-12-08T09:36:46Z</time>
      </trkpt>
      <trkpt lat="36.6404100" lon="-5.6911640">
        <ele>135.4</ele>
        <time>2020-12-08T09:36:51Z</time>
      </trkpt>
      <trkpt lat="36.6404090" lon="-5.6907060">
        <ele>136.0</ele>
        <time>2020-12-08T09:36:57Z</time>
      </trkpt>
      <trkpt lat="36.6404100" lon="-5.6899910">
        <ele>136.4</ele>
        <time>2020-12-08T09:37:06Z</time>
      </trkpt>
      <trkpt lat="36.6404070" lon="-5.6898250">
        <ele>136.4</ele>
        <time>2020-12-08T09:37:08Z</time>
      </trkpt>
      <trkpt lat="36.6404040" lon="-5.6893010">
        <ele>136.4</ele>
        <time>2020-12-08T09:37:15Z</time>
      </trkpt>
      <trkpt lat="36.6404040" lon="-5.6892370">
        <ele>136.6</ele>
        <time>2020-12-08T09:37:16Z</time>
      </trkpt>
      <trkpt lat="36.6404030" lon="-5.6888410">
        <ele>137.8</ele>
        <time>2020-12-08T09:37:23Z</time>
      </trkpt>
      <trkpt lat="36.6404030" lon="-5.6887880">
        <ele>138.2</ele>
        <time>2020-12-08T09:37:24Z</time>
      </trkpt>
      <trkpt lat="36.6404030" lon="-5.6886840">
        <ele>139.0</ele>
        <time>2020-12-08T09:37:26Z</time>
      </trkpt>
      <trkpt lat="36.6404050" lon="-5.6885330">
        <ele>140.2</ele>
        <time>2020-12-08T09:37:29Z</time>
      </trkpt>
      <trkpt lat="36.6404050" lon="-5.6883410">
        <ele>141.2</ele>
        <time>2020-12-08T09:37:33Z</time>
      </trkpt>
      <trkpt lat="36.6404080" lon="-5.6882430">
        <ele>142.0</ele>
        <time>2020-12-08T09:37:35Z</time>
      </trkpt>
      <trkpt lat="36.6404150" lon="-5.6881450">
        <ele>142.6</ele>
        <time>2020-12-08T09:37:37Z</time>
      </trkpt>
      <trkpt lat="36.6404310" lon="-5.6880000">
        <ele>143.6</ele>
        <time>2020-12-08T09:37:40Z</time>
      </trkpt>
      <trkpt lat="36.6404630" lon="-5.6878540">
        <ele>144.6</ele>
        <time>2020-12-08T09:37:43Z</time>
      </trkpt>
      <trkpt lat="36.6404760" lon="-5.6878050">
        <ele>144.8</ele>
        <time>2020-12-08T09:37:44Z</time>
      </trkpt>
      <trkpt lat="36.6405550" lon="-5.6876180">
        <ele>145.8</ele>
        <time>2020-12-08T09:37:48Z</time>
      </trkpt>
      <trkpt lat="36.6406050" lon="-5.6875280">
        <ele>146.2</ele>
        <time>2020-12-08T09:37:50Z</time>
      </trkpt>
      <trkpt lat="36.6407700" lon="-5.6873260">
        <ele>147.0</ele>
        <time>2020-12-08T09:37:55Z</time>
      </trkpt>
      <trkpt lat="36.6408100" lon="-5.6872910">
        <ele>147.0</ele>
        <time>2020-12-08T09:37:56Z</time>
      </trkpt>
      <trkpt lat="36.6411140" lon="-5.6870950">
        <ele>147.6</ele>
        <time>2020-12-08T09:38:03Z</time>
      </trkpt>
      <trkpt lat="36.6413180" lon="-5.6869340">
        <ele>148.2</ele>
        <time>2020-12-08T09:38:08Z</time>
      </trkpt>
      <trkpt lat="36.6413880" lon="-5.6868550">
        <ele>148.6</ele>
        <time>2020-12-08T09:38:10Z</time>
      </trkpt>
      <trkpt lat="36.6415040" lon="-5.6866780">
        <ele>149.2</ele>
        <time>2020-12-08T09:38:14Z</time>
      </trkpt>
      <trkpt lat="36.6415730" lon="-5.6865300">
        <ele>149.8</ele>
        <time>2020-12-08T09:38:17Z</time>
      </trkpt>
      <trkpt lat="36.6416100" lon="-5.6864240">
        <ele>150.4</ele>
        <time>2020-12-08T09:38:19Z</time>
      </trkpt>
      <trkpt lat="36.6416570" lon="-5.6861810">
        <ele>151.2</ele>
        <time>2020-12-08T09:38:23Z</time>
      </trkpt>
      <trkpt lat="36.6416630" lon="-5.6859770">
        <ele>151.4</ele>
        <time>2020-12-08T09:38:26Z</time>
      </trkpt>
      <trkpt lat="36.6416470" lon="-5.6857500">
        <ele>151.6</ele>
        <time>2020-12-08T09:38:29Z</time>
      </trkpt>
      <trkpt lat="36.6415570" lon="-5.6850180">
        <ele>151.6</ele>
        <time>2020-12-08T09:38:38Z</time>
      </trkpt>
      <trkpt lat="36.6415960" lon="-5.6845670">
        <ele>151.4</ele>
        <time>2020-12-08T09:38:43Z</time>
      </trkpt>
      <trkpt lat="36.6417560" lon="-5.6839810">
        <ele>151.0</ele>
        <time>2020-12-08T09:38:49Z</time>
      </trkpt>
      <trkpt lat="36.6418820" lon="-5.6835520">
        <ele>150.2</ele>
        <time>2020-12-08T09:38:53Z</time>
      </trkpt>
      <trkpt lat="36.6419700" lon="-5.6832020">
        <ele>149.4</ele>
        <time>2020-12-08T09:38:56Z</time>
      </trkpt>
      <trkpt lat="36.6419900" lon="-5.6830760">
        <ele>149.0</ele>
        <time>2020-12-08T09:38:57Z</time>
      </trkpt>
      <trkpt lat="36.6420110" lon="-5.6828100">
        <ele>147.6</ele>
        <time>2020-12-08T09:38:59Z</time>
      </trkpt>
      <trkpt lat="36.6420090" lon="-5.6826720">
        <ele>147.2</ele>
        <time>2020-12-08T09:39:00Z</time>
      </trkpt>
      <trkpt lat="36.6419940" lon="-5.6825340">
        <ele>146.6</ele>
        <time>2020-12-08T09:39:01Z</time>
      </trkpt>
      <trkpt lat="36.6419370" lon="-5.6822550">
        <ele>145.4</ele>
        <time>2020-12-08T09:39:03Z</time>
      </trkpt>
      <trkpt lat="36.6418870" lon="-5.6821210">
        <ele>144.6</ele>
        <time>2020-12-08T09:39:04Z</time>
      </trkpt>
      <trkpt lat="36.6418180" lon="-5.6820000">
        <ele>143.8</ele>
        <time>2020-12-08T09:39:05Z</time>
      </trkpt>
      <trkpt lat="36.6416430" lon="-5.6817980">
        <ele>142.0</ele>
        <time>2020-12-08T09:39:07Z</time>
      </trkpt>
      <trkpt lat="36.6415480" lon="-5.6817120">
        <ele>139.8</ele>
        <time>2020-12-08T09:39:08Z</time>
      </trkpt>
      <trkpt lat="36.6413560" lon="-5.6815510">
        <ele>138.0</ele>
        <time>2020-12-08T09:39:10Z</time>
      </trkpt>
      <trkpt lat="36.6411690" lon="-5.6813980">
        <ele>136.8</ele>
        <time>2020-12-08T09:39:12Z</time>
      </trkpt>
      <trkpt lat="36.6409940" lon="-5.6812480">
        <ele>135.4</ele>
        <time>2020-12-08T09:39:14Z</time>
      </trkpt>
      <trkpt lat="36.6406740" lon="-5.6809690">
        <ele>134.6</ele>
        <time>2020-12-08T09:39:18Z</time>
      </trkpt>
      <trkpt lat="36.6402240" lon="-5.6804990">
        <ele>134.6</ele>
        <time>2020-12-08T09:39:25Z</time>
      </trkpt>
      <trkpt lat="36.6400090" lon="-5.6801970">
        <ele>136.6</ele>
        <time>2020-12-08T09:39:29Z</time>
      </trkpt>
      <trkpt lat="36.6399100" lon="-5.6800360">
        <ele>137.0</ele>
        <time>2020-12-08T09:39:31Z</time>
      </trkpt>
      <trkpt lat="36.6398170" lon="-5.6798660">
        <ele>137.6</ele>
        <time>2020-12-08T09:39:33Z</time>
      </trkpt>
      <trkpt lat="36.6396390" lon="-5.6794770">
        <ele>138.0</ele>
        <time>2020-12-08T09:39:37Z</time>
      </trkpt>
      <trkpt lat="36.6394170" lon="-5.6788840">
        <ele>138.0</ele>
        <time>2020-12-08T09:39:42Z</time>
      </trkpt>
      <trkpt lat="36.6392840" lon="-5.6781600">
        <ele>136.8</ele>
        <time>2020-12-08T09:39:47Z</time>
      </trkpt>
      <trkpt lat="36.6392660" lon="-5.6780090">
        <ele>136.0</ele>
        <time>2020-12-08T09:39:48Z</time>
      </trkpt>
      <trkpt lat="36.6392530" lon="-5.6778560">
        <ele>134.8</ele>
        <time>2020-12-08T09:39:49Z</time>
      </trkpt>
      <trkpt lat="36.6392270" lon="-5.6775500">
        <ele>132.8</ele>
        <time>2020-12-08T09:39:51Z</time>
      </trkpt>
      <trkpt lat="36.6392120" lon="-5.6773980">
        <ele>131.6</ele>
        <time>2020-12-08T09:39:52Z</time>
      </trkpt>
      <trkpt lat="36.6391950" lon="-5.6772460">
        <ele>130.8</ele>
        <time>2020-12-08T09:39:53Z</time>
      </trkpt>
      <trkpt lat="36.6391740" lon="-5.6770930">
        <ele>130.0</ele>
        <time>2020-12-08T09:39:54Z</time>
      </trkpt>
      <trkpt lat="36.6391440" lon="-5.6769400">
        <ele>128.8</ele>
        <time>2020-12-08T09:39:55Z</time>
      </trkpt>
      <trkpt lat="36.6391010" lon="-5.6767920">
        <ele>127.8</ele>
        <time>2020-12-08T09:39:56Z</time>
      </trkpt>
      <trkpt lat="36.6390440" lon="-5.6766510">
        <ele>126.8</ele>
        <time>2020-12-08T09:39:57Z</time>
      </trkpt>
      <trkpt lat="36.6389720" lon="-5.6765200">
        <ele>126.2</ele>
        <time>2020-12-08T09:39:58Z</time>
      </trkpt>
      <trkpt lat="36.6387960" lon="-5.6762870">
        <ele>125.4</ele>
        <time>2020-12-08T09:40:00Z</time>
      </trkpt>
      <trkpt lat="36.6387030" lon="-5.6761770">
        <ele>125.0</ele>
        <time>2020-12-08T09:40:01Z</time>
      </trkpt>
      <trkpt lat="36.6383370" lon="-5.6757280">
        <ele>123.6</ele>
        <time>2020-12-08T09:40:05Z</time>
      </trkpt>
      <trkpt lat="36.6382470" lon="-5.6756230">
        <ele>122.6</ele>
        <time>2020-12-08T09:40:06Z</time>
      </trkpt>
      <trkpt lat="36.6381600" lon="-5.6755180">
        <ele>121.4</ele>
        <time>2020-12-08T09:40:07Z</time>
      </trkpt>
      <trkpt lat="36.6380810" lon="-5.6754110">
        <ele>120.2</ele>
        <time>2020-12-08T09:40:08Z</time>
      </trkpt>
      <trkpt lat="36.6380120" lon="-5.6752980">
        <ele>119.4</ele>
        <time>2020-12-08T09:40:09Z</time>
      </trkpt>
      <trkpt lat="36.6379570" lon="-5.6751820">
        <ele>119.0</ele>
        <time>2020-12-08T09:40:10Z</time>
      </trkpt>
      <trkpt lat="36.6378830" lon="-5.6749400">
        <ele>117.6</ele>
        <time>2020-12-08T09:40:12Z</time>
      </trkpt>
      <trkpt lat="36.6378590" lon="-5.6748200">
        <ele>117.4</ele>
        <time>2020-12-08T09:40:13Z</time>
      </trkpt>
      <trkpt lat="36.6377630" lon="-5.6741370">
        <ele>117.0</ele>
        <time>2020-12-08T09:40:19Z</time>
      </trkpt>
      <trkpt lat="36.6377010" lon="-5.6735550">
        <ele>118.2</ele>
        <time>2020-12-08T09:40:25Z</time>
      </trkpt>
      <trkpt lat="36.6376610" lon="-5.6732270">
        <ele>118.8</ele>
        <time>2020-12-08T09:40:29Z</time>
      </trkpt>
      <trkpt lat="36.6376270" lon="-5.6730110">
        <ele>120.0</ele>
        <time>2020-12-08T09:40:32Z</time>
      </trkpt>
      <trkpt lat="36.6376010" lon="-5.6728780">
        <ele>121.2</ele>
        <time>2020-12-08T09:40:34Z</time>
      </trkpt>
      <trkpt lat="36.6375740" lon="-5.6727500">
        <ele>122.4</ele>
        <time>2020-12-08T09:40:36Z</time>
      </trkpt>
      <trkpt lat="36.6375180" lon="-5.6725650">
        <ele>123.6</ele>
        <time>2020-12-08T09:40:39Z</time>
      </trkpt>
      <trkpt lat="36.6374980" lon="-5.6725050">
        <ele>124.0</ele>
        <time>2020-12-08T09:40:40Z</time>
      </trkpt>
      <trkpt lat="36.6374610" lon="-5.6723870">
        <ele>124.8</ele>
        <time>2020-12-08T09:40:42Z</time>
      </trkpt>
      <trkpt lat="36.6373910" lon="-5.6721580">
        <ele>125.8</ele>
        <time>2020-12-08T09:40:46Z</time>
      </trkpt>
      <trkpt lat="36.6373140" lon="-5.6719330">
        <ele>126.6</ele>
        <time>2020-12-08T09:40:50Z</time>
      </trkpt>
      <trkpt lat="36.6372770" lon="-5.6718220">
        <ele>127.0</ele>
        <time>2020-12-08T09:40:52Z</time>
      </trkpt>
      <trkpt lat="36.6372050" lon="-5.6716020">
        <ele>128.0</ele>
        <time>2020-12-08T09:40:56Z</time>
      </trkpt>
      <trkpt lat="36.6371200" lon="-5.6713300">
        <ele>129.0</ele>
        <time>2020-12-08T09:41:01Z</time>
      </trkpt>
      <trkpt lat="36.6371030" lon="-5.6712760">
        <ele>129.4</ele>
        <time>2020-12-08T09:41:02Z</time>
      </trkpt>
      <trkpt lat="36.6370400" lon="-5.6710690">
        <ele>130.0</ele>
        <time>2020-12-08T09:41:06Z</time>
      </trkpt>
      <trkpt lat="36.6369640" lon="-5.6708140">
        <ele>131.2</ele>
        <time>2020-12-08T09:41:11Z</time>
      </trkpt>
      <trkpt lat="36.6369470" lon="-5.6707630">
        <ele>131.4</ele>
        <time>2020-12-08T09:41:12Z</time>
      </trkpt>
      <trkpt lat="36.6368840" lon="-5.6705570">
        <ele>132.2</ele>
        <time>2020-12-08T09:41:16Z</time>
      </trkpt>
      <trkpt lat="36.6368200" lon="-5.6703460">
        <ele>133.4</ele>
        <time>2020-12-08T09:41:20Z</time>
      </trkpt>
      <trkpt lat="36.6367910" lon="-5.6702420">
        <ele>133.8</ele>
        <time>2020-12-08T09:41:22Z</time>
      </trkpt>
      <trkpt lat="36.6367460" lon="-5.6700820">
        <ele>134.6</ele>
        <time>2020-12-08T09:41:25Z</time>
      </trkpt>
      <trkpt lat="36.6366800" lon="-5.6698320">
        <ele>135.6</ele>
        <time>2020-12-08T09:41:29Z</time>
      </trkpt>
      <trkpt lat="36.6366640" lon="-5.6697650">
        <ele>135.8</ele>
        <time>2020-12-08T09:41:30Z</time>
      </trkpt>
      <trkpt lat="36.6365100" lon="-5.6692780">
        <ele>136.2</ele>
        <time>2020-12-08T09:41:37Z</time>
      </trkpt>
      <trkpt lat="36.6362530" lon="-5.6686640">
        <ele>135.8</ele>
        <time>2020-12-08T09:41:46Z</time>
      </trkpt>
      <trkpt lat="36.6361330" lon="-5.6682660">
        <ele>136.0</ele>
        <time>2020-12-08T09:41:53Z</time>
      </trkpt>
      <trkpt lat="36.6360870" lon="-5.6680910">
        <ele>137.2</ele>
        <time>2020-12-08T09:41:56Z</time>
      </trkpt>
      <trkpt lat="36.6360300" lon="-5.6679010">
        <ele>138.6</ele>
        <time>2020-12-08T09:41:59Z</time>
      </trkpt>
      <trkpt lat="36.6360050" lon="-5.6678350">
        <ele>139.0</ele>
        <time>2020-12-08T09:42:00Z</time>
      </trkpt>
      <trkpt lat="36.6358100" lon="-5.6674780">
        <ele>139.4</ele>
        <time>2020-12-08T09:42:05Z</time>
      </trkpt>
      <trkpt lat="36.6354940" lon="-5.6669880">
        <ele>138.6</ele>
        <time>2020-12-08T09:42:11Z</time>
      </trkpt>
      <trkpt lat="36.6353450" lon="-5.6667350">
        <ele>137.0</ele>
        <time>2020-12-08T09:42:14Z</time>
      </trkpt>
      <trkpt lat="36.6352610" lon="-5.6665480">
        <ele>135.4</ele>
        <time>2020-12-08T09:42:16Z</time>
      </trkpt>
      <trkpt lat="36.6352250" lon="-5.6664510">
        <ele>135.0</ele>
        <time>2020-12-08T09:42:17Z</time>
      </trkpt>
      <trkpt lat="36.6351280" lon="-5.6661510">
        <ele>134.2</ele>
        <time>2020-12-08T09:42:20Z</time>
      </trkpt>
      <trkpt lat="36.6349930" lon="-5.6656250">
        <ele>133.6</ele>
        <time>2020-12-08T09:42:25Z</time>
      </trkpt>
      <trkpt lat="36.6349210" lon="-5.6652790">
        <ele>133.2</ele>
        <time>2020-12-08T09:42:28Z</time>
      </trkpt>
      <trkpt lat="36.6348430" lon="-5.6647920">
        <ele>132.6</ele>
        <time>2020-12-08T09:42:32Z</time>
      </trkpt>
      <trkpt lat="36.6348180" lon="-5.6645380">
        <ele>131.8</ele>
        <time>2020-12-08T09:42:34Z</time>
      </trkpt>
      <trkpt lat="36.6347960" lon="-5.6641460">
        <ele>130.6</ele>
        <time>2020-12-08T09:42:37Z</time>
      </trkpt>
      <trkpt lat="36.6347830" lon="-5.6638820">
        <ele>129.6</ele>
        <time>2020-12-08T09:42:39Z</time>
      </trkpt>
      <trkpt lat="36.6347750" lon="-5.6637500">
        <ele>129.4</ele>
        <time>2020-12-08T09:42:40Z</time>
      </trkpt>
      <trkpt lat="36.6347110" lon="-5.6632280">
        <ele>128.4</ele>
        <time>2020-12-08T09:42:44Z</time>
      </trkpt>
      <trkpt lat="36.6346790" lon="-5.6630980">
        <ele>128.0</ele>
        <time>2020-12-08T09:42:45Z</time>
      </trkpt>
      <trkpt lat="36.6345790" lon="-5.6628460">
        <ele>127.0</ele>
        <time>2020-12-08T09:42:47Z</time>
      </trkpt>
      <trkpt lat="36.6345170" lon="-5.6627250">
        <ele>126.6</ele>
        <time>2020-12-08T09:42:48Z</time>
      </trkpt>
      <trkpt lat="36.6344500" lon="-5.6626040">
        <ele>126.4</ele>
        <time>2020-12-08T09:42:49Z</time>
      </trkpt>
      <trkpt lat="36.6343810" lon="-5.6624810">
        <ele>126.0</ele>
        <time>2020-12-08T09:42:50Z</time>
      </trkpt>
      <trkpt lat="36.6342680" lon="-5.6622110">
        <ele>125.6</ele>
        <time>2020-12-08T09:42:52Z</time>
      </trkpt>
      <trkpt lat="36.6341890" lon="-5.6617640">
        <ele>124.4</ele>
        <time>2020-12-08T09:42:55Z</time>
      </trkpt>
      <trkpt lat="36.6341500" lon="-5.6614920">
        <ele>122.4</ele>
        <time>2020-12-08T09:42:57Z</time>
      </trkpt>
      <trkpt lat="36.6341110" lon="-5.6613690">
        <ele>121.2</ele>
        <time>2020-12-08T09:42:58Z</time>
      </trkpt>
      <trkpt lat="36.6340460" lon="-5.6612620">
        <ele>120.0</ele>
        <time>2020-12-08T09:42:59Z</time>
      </trkpt>
      <trkpt lat="36.6339610" lon="-5.6611770">
        <ele>119.0</ele>
        <time>2020-12-08T09:43:00Z</time>
      </trkpt>
      <trkpt lat="36.6338630" lon="-5.6611080">
        <ele>118.0</ele>
        <time>2020-12-08T09:43:01Z</time>
      </trkpt>
      <trkpt lat="36.6336360" lon="-5.6610270">
        <ele>116.8</ele>
        <time>2020-12-08T09:43:03Z</time>
      </trkpt>
      <trkpt lat="36.6332580" lon="-5.6610910">
        <ele>115.2</ele>
        <time>2020-12-08T09:43:06Z</time>
      </trkpt>
      <trkpt lat="36.6330220" lon="-5.6612140">
        <ele>114.0</ele>
        <time>2020-12-08T09:43:08Z</time>
      </trkpt>
      <trkpt lat="36.6329130" lon="-5.6612920">
        <ele>113.6</ele>
        <time>2020-12-08T09:43:09Z</time>
      </trkpt>
      <trkpt lat="36.6328120" lon="-5.6613860">
        <ele>113.0</ele>
        <time>2020-12-08T09:43:10Z</time>
      </trkpt>
      <trkpt lat="36.6326350" lon="-5.6616000">
        <ele>110.8</ele>
        <time>2020-12-08T09:43:12Z</time>
      </trkpt>
      <trkpt lat="36.6325520" lon="-5.6617130">
        <ele>109.2</ele>
        <time>2020-12-08T09:43:13Z</time>
      </trkpt>
      <trkpt lat="36.6324690" lon="-5.6618240">
        <ele>107.8</ele>
        <time>2020-12-08T09:43:14Z</time>
      </trkpt>
      <trkpt lat="36.6323860" lon="-5.6619320">
        <ele>106.4</ele>
        <time>2020-12-08T09:43:15Z</time>
      </trkpt>
      <trkpt lat="36.6323030" lon="-5.6620340">
        <ele>105.4</ele>
        <time>2020-12-08T09:43:16Z</time>
      </trkpt>
      <trkpt lat="36.6322200" lon="-5.6621340">
        <ele>104.0</ele>
        <time>2020-12-08T09:43:17Z</time>
      </trkpt>
      <trkpt lat="36.6321370" lon="-5.6622270">
        <ele>103.2</ele>
        <time>2020-12-08T09:43:18Z</time>
      </trkpt>
      <trkpt lat="36.6320530" lon="-5.6623110">
        <ele>102.2</ele>
        <time>2020-12-08T09:43:19Z</time>
      </trkpt>
      <trkpt lat="36.6319660" lon="-5.6623840">
        <ele>101.6</ele>
        <time>2020-12-08T09:43:20Z</time>
      </trkpt>
      <trkpt lat="36.6318750" lon="-5.6624450">
        <ele>101.0</ele>
        <time>2020-12-08T09:43:21Z</time>
      </trkpt>
      <trkpt lat="36.6317820" lon="-5.6624920">
        <ele>100.4</ele>
        <time>2020-12-08T09:43:22Z</time>
      </trkpt>
      <trkpt lat="36.6314970" lon="-5.6625530">
        <ele>100.0</ele>
        <time>2020-12-08T09:43:25Z</time>
      </trkpt>
      <trkpt lat="36.6314030" lon="-5.6625470">
        <ele>100.0</ele>
        <time>2020-12-08T09:43:26Z</time>
      </trkpt>
      <trkpt lat="36.6311400" lon="-5.6624690">
        <ele>100.0</ele>
        <time>2020-12-08T09:43:29Z</time>
      </trkpt>
      <trkpt lat="36.6308450" lon="-5.6622380">
        <ele>100.2</ele>
        <time>2020-12-08T09:43:33Z</time>
      </trkpt>
      <trkpt lat="36.6307790" lon="-5.6621640">
        <ele>100.4</ele>
        <time>2020-12-08T09:43:34Z</time>
      </trkpt>
      <trkpt lat="36.6304080" lon="-5.6617110">
        <ele>101.0</ele>
        <time>2020-12-08T09:43:40Z</time>
      </trkpt>
      <trkpt lat="36.6299730" lon="-5.6612420">
        <ele>101.6</ele>
        <time>2020-12-08T09:43:47Z</time>
      </trkpt>
      <trkpt lat="36.6299120" lon="-5.6611760">
        <ele>101.8</ele>
        <time>2020-12-08T09:43:48Z</time>
      </trkpt>
      <trkpt lat="36.6295520" lon="-5.6607830">
        <ele>102.4</ele>
        <time>2020-12-08T09:43:54Z</time>
      </trkpt>
      <trkpt lat="36.6295040" lon="-5.6607040">
        <ele>103.2</ele>
        <time>2020-12-08T09:43:55Z</time>
      </trkpt>
      <trkpt lat="36.6294250" lon="-5.6605300">
        <ele>103.6</ele>
        <time>2020-12-08T09:43:57Z</time>
      </trkpt>
      <trkpt lat="36.6293730" lon="-5.6603420">
        <ele>104.0</ele>
        <time>2020-12-08T09:43:59Z</time>
      </trkpt>
      <trkpt lat="36.6293700" lon="-5.6599520">
        <ele>104.2</ele>
        <time>2020-12-08T09:44:03Z</time>
      </trkpt>
      <trkpt lat="36.6294750" lon="-5.6595940">
        <ele>104.4</ele>
        <time>2020-12-08T09:44:07Z</time>
      </trkpt>
      <trkpt lat="36.6295790" lon="-5.6593470">
        <ele>104.8</ele>
        <time>2020-12-08T09:44:10Z</time>
      </trkpt>
      <trkpt lat="36.6297450" lon="-5.6589460">
        <ele>106.0</ele>
        <time>2020-12-08T09:44:15Z</time>
      </trkpt>
      <trkpt lat="36.6298080" lon="-5.6587880">
        <ele>106.4</ele>
        <time>2020-12-08T09:44:17Z</time>
      </trkpt>
      <trkpt lat="36.6299030" lon="-5.6585570">
        <ele>107.0</ele>
        <time>2020-12-08T09:44:20Z</time>
      </trkpt>
      <trkpt lat="36.6300580" lon="-5.6581790">
        <ele>107.8</ele>
        <time>2020-12-08T09:44:25Z</time>
      </trkpt>
      <trkpt lat="36.6301190" lon="-5.6580320">
        <ele>108.2</ele>
        <time>2020-12-08T09:44:27Z</time>
      </trkpt>
      <trkpt lat="36.6303740" lon="-5.6573990">
        <ele>109.2</ele>
        <time>2020-12-08T09:44:36Z</time>
      </trkpt>
      <trkpt lat="36.6304550" lon="-5.6571920">
        <ele>109.4</ele>
        <time>2020-12-08T09:44:39Z</time>
      </trkpt>
      <trkpt lat="36.6306190" lon="-5.6567770">
        <ele>110.4</ele>
        <time>2020-12-08T09:44:45Z</time>
      </trkpt>
      <trkpt lat="36.6306760" lon="-5.6566390">
        <ele>110.6</ele>
        <time>2020-12-08T09:44:47Z</time>
      </trkpt>
      <trkpt lat="36.6308910" lon="-5.6560940">
        <ele>111.8</ele>
        <time>2020-12-08T09:44:55Z</time>
      </trkpt>
      <trkpt lat="36.6310790" lon="-5.6556270">
        <ele>113.0</ele>
        <time>2020-12-08T09:45:02Z</time>
      </trkpt>
      <trkpt lat="36.6311590" lon="-5.6554280">
        <ele>113.6</ele>
        <time>2020-12-08T09:45:05Z</time>
      </trkpt>
      <trkpt lat="36.6312400" lon="-5.6552280">
        <ele>114.4</ele>
        <time>2020-12-08T09:45:08Z</time>
      </trkpt>
      <trkpt lat="36.6314120" lon="-5.6547920">
        <ele>114.8</ele>
        <time>2020-12-08T09:45:15Z</time>
      </trkpt>
      <trkpt lat="36.6314770" lon="-5.6546350">
        <ele>115.4</ele>
        <time>2020-12-08T09:45:18Z</time>
      </trkpt>
      <trkpt lat="36.6315640" lon="-5.6544060">
        <ele>116.6</ele>
        <time>2020-12-08T09:45:23Z</time>
      </trkpt>
      <trkpt lat="36.6316380" lon="-5.6541940">
        <ele>117.6</ele>
        <time>2020-12-08T09:45:28Z</time>
      </trkpt>
      <trkpt lat="36.6316770" lon="-5.6540760">
        <ele>118.6</ele>
        <time>2020-12-08T09:45:31Z</time>
      </trkpt>
      <trkpt lat="36.6317030" lon="-5.6539950">
        <ele>119.0</ele>
        <time>2020-12-08T09:45:33Z</time>
      </trkpt>
      <trkpt lat="36.6317330" lon="-5.6538760">
        <ele>119.8</ele>
        <time>2020-12-08T09:45:36Z</time>
      </trkpt>
      <trkpt lat="36.6317620" lon="-5.6537220">
        <ele>120.8</ele>
        <time>2020-12-08T09:45:40Z</time>
      </trkpt>
      <trkpt lat="36.6317690" lon="-5.6536850">
        <ele>121.0</ele>
        <time>2020-12-08T09:45:41Z</time>
      </trkpt>
      <trkpt lat="36.6317880" lon="-5.6535720">
        <ele>122.0</ele>
        <time>2020-12-08T09:45:44Z</time>
      </trkpt>
      <trkpt lat="36.6318070" lon="-5.6534540">
        <ele>123.2</ele>
        <time>2020-12-08T09:45:47Z</time>
      </trkpt>
      <trkpt lat="36.6318180" lon="-5.6533390">
        <ele>124.2</ele>
        <time>2020-12-08T09:45:50Z</time>
      </trkpt>
      <trkpt lat="36.6318260" lon="-5.6532630">
        <ele>125.2</ele>
        <time>2020-12-08T09:45:52Z</time>
      </trkpt>
      <trkpt lat="36.6318450" lon="-5.6531110">
        <ele>126.2</ele>
        <time>2020-12-08T09:45:56Z</time>
      </trkpt>
      <trkpt lat="36.6318540" lon="-5.6530270">
        <ele>126.8</ele>
        <time>2020-12-08T09:45:58Z</time>
      </trkpt>
      <trkpt lat="36.6318660" lon="-5.6529450">
        <ele>127.4</ele>
        <time>2020-12-08T09:46:00Z</time>
      </trkpt>
      <trkpt lat="36.6318870" lon="-5.6527420">
        <ele>128.6</ele>
        <time>2020-12-08T09:46:05Z</time>
      </trkpt>
      <trkpt lat="36.6318900" lon="-5.6527020">
        <ele>128.8</ele>
        <time>2020-12-08T09:46:06Z</time>
      </trkpt>
      <trkpt lat="36.6319030" lon="-5.6525780">
        <ele>129.8</ele>
        <time>2020-12-08T09:46:09Z</time>
      </trkpt>
      <trkpt lat="36.6319260" lon="-5.6524100">
        <ele>130.8</ele>
        <time>2020-12-08T09:46:13Z</time>
      </trkpt>
      <trkpt lat="36.6319430" lon="-5.6522800">
        <ele>131.4</ele>
        <time>2020-12-08T09:46:16Z</time>
      </trkpt>
      <trkpt lat="36.6319530" lon="-5.6521930">
        <ele>132.0</ele>
        <time>2020-12-08T09:46:18Z</time>
      </trkpt>
      <trkpt lat="36.6319810" lon="-5.6519730">
        <ele>133.0</ele>
        <time>2020-12-08T09:46:23Z</time>
      </trkpt>
      <trkpt lat="36.6319910" lon="-5.6518840">
        <ele>133.4</ele>
        <time>2020-12-08T09:46:25Z</time>
      </trkpt>
      <trkpt lat="36.6320070" lon="-5.6517470">
        <ele>134.2</ele>
        <time>2020-12-08T09:46:28Z</time>
      </trkpt>
      <trkpt lat="36.6320240" lon="-5.6516080">
        <ele>135.2</ele>
        <time>2020-12-08T09:46:31Z</time>
      </trkpt>
      <trkpt lat="36.6320430" lon="-5.6514650">
        <ele>136.0</ele>
        <time>2020-12-08T09:46:34Z</time>
      </trkpt>
      <trkpt lat="36.6320490" lon="-5.6514160">
        <ele>136.2</ele>
        <time>2020-12-08T09:46:35Z</time>
      </trkpt>
      <trkpt lat="36.6320910" lon="-5.6510560">
        <ele>137.4</ele>
        <time>2020-12-08T09:46:42Z</time>
      </trkpt>
      <trkpt lat="36.6320980" lon="-5.6510030">
        <ele>137.6</ele>
        <time>2020-12-08T09:46:43Z</time>
      </trkpt>
      <trkpt lat="36.6321630" lon="-5.6505120">
        <ele>138.4</ele>
        <time>2020-12-08T09:46:51Z</time>
      </trkpt>
      <trkpt lat="36.6321780" lon="-5.6503740">
        <ele>138.4</ele>
        <time>2020-12-08T09:46:53Z</time>
      </trkpt>
      <trkpt lat="36.6322110" lon="-5.6499830">
        <ele>138.6</ele>
        <time>2020-12-08T09:46:58Z</time>
      </trkpt>
      <trkpt lat="36.6321980" lon="-5.6493810">
        <ele>138.4</ele>
        <time>2020-12-08T09:47:05Z</time>
      </trkpt>
      <trkpt lat="36.6320850" lon="-5.6486540">
        <ele>137.4</ele>
        <time>2020-12-08T09:47:13Z</time>
      </trkpt>
      <trkpt lat="36.6319870" lon="-5.6481040">
        <ele>136.4</ele>
        <time>2020-12-08T09:47:19Z</time>
      </trkpt>
      <trkpt lat="36.6319040" lon="-5.6476280">
        <ele>135.8</ele>
        <time>2020-12-08T09:47:24Z</time>
      </trkpt>
      <trkpt lat="36.6317770" lon="-5.6469440">
        <ele>135.8</ele>
        <time>2020-12-08T09:47:31Z</time>
      </trkpt>
      <trkpt lat="36.6317420" lon="-5.6467480">
        <ele>135.8</ele>
        <time>2020-12-08T09:47:33Z</time>
      </trkpt>
      <trkpt lat="36.6316890" lon="-5.6464540">
        <ele>135.2</ele>
        <time>2020-12-08T09:47:36Z</time>
      </trkpt>
      <trkpt lat="36.6315990" lon="-5.6457530">
        <ele>134.4</ele>
        <time>2020-12-08T09:47:43Z</time>
      </trkpt>
      <trkpt lat="36.6316070" lon="-5.6454460">
        <ele>134.2</ele>
        <time>2020-12-08T09:47:46Z</time>
      </trkpt>
      <trkpt lat="36.6316360" lon="-5.6452430">
        <ele>134.0</ele>
        <time>2020-12-08T09:47:48Z</time>
      </trkpt>
      <trkpt lat="36.6317830" lon="-5.6447310">
        <ele>134.0</ele>
        <time>2020-12-08T09:47:53Z</time>
      </trkpt>
      <trkpt lat="36.6319930" lon="-5.6443240">
        <ele>133.4</ele>
        <time>2020-12-08T09:47:57Z</time>
      </trkpt>
      <trkpt lat="36.6321390" lon="-5.6441320">
        <ele>133.2</ele>
        <time>2020-12-08T09:47:59Z</time>
      </trkpt>
      <trkpt lat="36.6322250" lon="-5.6440430">
        <ele>132.8</ele>
        <time>2020-12-08T09:48:00Z</time>
      </trkpt>
      <trkpt lat="36.6323190" lon="-5.6439600">
        <ele>132.8</ele>
        <time>2020-12-08T09:48:01Z</time>
      </trkpt>
      <trkpt lat="36.6326350" lon="-5.6437400">
        <ele>131.8</ele>
        <time>2020-12-08T09:48:04Z</time>
      </trkpt>
      <trkpt lat="36.6327520" lon="-5.6436800">
        <ele>131.4</ele>
        <time>2020-12-08T09:48:05Z</time>
      </trkpt>
      <trkpt lat="36.6329910" lon="-5.6435580">
        <ele>130.4</ele>
        <time>2020-12-08T09:48:07Z</time>
      </trkpt>
      <trkpt lat="36.6332310" lon="-5.6434310">
        <ele>128.6</ele>
        <time>2020-12-08T09:48:09Z</time>
      </trkpt>
      <trkpt lat="36.6333520" lon="-5.6433640">
        <ele>127.0</ele>
        <time>2020-12-08T09:48:10Z</time>
      </trkpt>
      <trkpt lat="36.6334730" lon="-5.6432930">
        <ele>125.6</ele>
        <time>2020-12-08T09:48:11Z</time>
      </trkpt>
      <trkpt lat="36.6335930" lon="-5.6432180">
        <ele>124.4</ele>
        <time>2020-12-08T09:48:12Z</time>
      </trkpt>
      <trkpt lat="36.6337090" lon="-5.6431350">
        <ele>122.6</ele>
        <time>2020-12-08T09:48:13Z</time>
      </trkpt>
      <trkpt lat="36.6338210" lon="-5.6430410">
        <ele>120.4</ele>
        <time>2020-12-08T09:48:14Z</time>
      </trkpt>
      <trkpt lat="36.6339280" lon="-5.6429410">
        <ele>118.8</ele>
        <time>2020-12-08T09:48:15Z</time>
      </trkpt>
      <trkpt lat="36.6340330" lon="-5.6428360">
        <ele>117.6</ele>
        <time>2020-12-08T09:48:16Z</time>
      </trkpt>
      <trkpt lat="36.6342300" lon="-5.6426120">
        <ele>116.4</ele>
        <time>2020-12-08T09:48:18Z</time>
      </trkpt>
      <trkpt lat="36.6344010" lon="-5.6423730">
        <ele>115.8</ele>
        <time>2020-12-08T09:48:20Z</time>
      </trkpt>
      <trkpt lat="36.6344750" lon="-5.6422470">
        <ele>114.6</ele>
        <time>2020-12-08T09:48:21Z</time>
      </trkpt>
      <trkpt lat="36.6346040" lon="-5.6419870">
        <ele>113.0</ele>
        <time>2020-12-08T09:48:23Z</time>
      </trkpt>
      <trkpt lat="36.6346620" lon="-5.6418550">
        <ele>112.4</ele>
        <time>2020-12-08T09:48:24Z</time>
      </trkpt>
      <trkpt lat="36.6347160" lon="-5.6417220">
        <ele>111.4</ele>
        <time>2020-12-08T09:48:25Z</time>
      </trkpt>
      <trkpt lat="36.6347650" lon="-5.6415880">
        <ele>109.2</ele>
        <time>2020-12-08T09:48:26Z</time>
      </trkpt>
      <trkpt lat="36.6348080" lon="-5.6414540">
        <ele>107.6</ele>
        <time>2020-12-08T09:48:27Z</time>
      </trkpt>
      <trkpt lat="36.6348450" lon="-5.6413190">
        <ele>106.4</ele>
        <time>2020-12-08T09:48:28Z</time>
      </trkpt>
      <trkpt lat="36.6348760" lon="-5.6411830">
        <ele>105.8</ele>
        <time>2020-12-08T09:48:29Z</time>
      </trkpt>
      <trkpt lat="36.6349020" lon="-5.6410460">
        <ele>105.2</ele>
        <time>2020-12-08T09:48:30Z</time>
      </trkpt>
      <trkpt lat="36.6349670" lon="-5.6405070">
        <ele>104.2</ele>
        <time>2020-12-08T09:48:34Z</time>
      </trkpt>
      <trkpt lat="36.6349510" lon="-5.6398560">
        <ele>103.6</ele>
        <time>2020-12-08T09:48:39Z</time>
      </trkpt>
      <trkpt lat="36.6348390" lon="-5.6392600">
        <ele>103.2</ele>
        <time>2020-12-08T09:48:44Z</time>
      </trkpt>
      <trkpt lat="36.6346500" lon="-5.6386250">
        <ele>103.4</ele>
        <time>2020-12-08T09:48:50Z</time>
      </trkpt>
      <trkpt lat="36.6346180" lon="-5.6385250">
        <ele>103.4</ele>
        <time>2020-12-08T09:48:51Z</time>
      </trkpt>
      <trkpt lat="36.6344200" lon="-5.6378520">
        <ele>104.0</ele>
        <time>2020-12-08T09:48:58Z</time>
      </trkpt>
      <trkpt lat="36.6343950" lon="-5.6377620">
        <ele>104.2</ele>
        <time>2020-12-08T09:48:59Z</time>
      </trkpt>
      <trkpt lat="36.6342200" lon="-5.6371570">
        <ele>105.2</ele>
        <time>2020-12-08T09:49:06Z</time>
      </trkpt>
      <trkpt lat="36.6341190" lon="-5.6368280">
        <ele>106.6</ele>
        <time>2020-12-08T09:49:10Z</time>
      </trkpt>
      <trkpt lat="36.6340230" lon="-5.6365050">
        <ele>107.6</ele>
        <time>2020-12-08T09:49:14Z</time>
      </trkpt>
      <trkpt lat="36.6339750" lon="-5.6363430">
        <ele>107.8</ele>
        <time>2020-12-08T09:49:16Z</time>
      </trkpt>
      <trkpt lat="36.6338800" lon="-5.6360210">
        <ele>108.6</ele>
        <time>2020-12-08T09:49:20Z</time>
      </trkpt>
      <trkpt lat="36.6337880" lon="-5.6357080">
        <ele>109.6</ele>
        <time>2020-12-08T09:49:24Z</time>
      </trkpt>
      <trkpt lat="36.6337200" lon="-5.6354750">
        <ele>110.2</ele>
        <time>2020-12-08T09:49:27Z</time>
      </trkpt>
      <trkpt lat="36.6335260" lon="-5.6348040">
        <ele>110.4</ele>
        <time>2020-12-08T09:49:36Z</time>
      </trkpt>
      <trkpt lat="36.6334440" lon="-5.6345150">
        <ele>111.0</ele>
        <time>2020-12-08T09:49:40Z</time>
      </trkpt>
      <trkpt lat="36.6333330" lon="-5.6341650">
        <ele>112.0</ele>
        <time>2020-12-08T09:49:45Z</time>
      </trkpt>
      <trkpt lat="36.6333110" lon="-5.6340950">
        <ele>112.4</ele>
        <time>2020-12-08T09:49:46Z</time>
      </trkpt>
      <trkpt lat="36.6331300" lon="-5.6334610">
        <ele>113.2</ele>
        <time>2020-12-08T09:49:55Z</time>
      </trkpt>
      <trkpt lat="36.6330690" lon="-5.6332510">
        <ele>113.8</ele>
        <time>2020-12-08T09:49:58Z</time>
      </trkpt>
      <trkpt lat="36.6330140" lon="-5.6330410">
        <ele>114.4</ele>
        <time>2020-12-08T09:50:01Z</time>
      </trkpt>
      <trkpt lat="36.6328940" lon="-5.6326270">
        <ele>115.0</ele>
        <time>2020-12-08T09:50:07Z</time>
      </trkpt>
      <trkpt lat="36.6328370" lon="-5.6324110">
        <ele>115.6</ele>
        <time>2020-12-08T09:50:10Z</time>
      </trkpt>
      <trkpt lat="36.6328370" lon="-5.6324110">
        <ele>116.6</ele>
        <time>2020-12-08T09:50:17Z</time>
      </trkpt>
      <trkpt lat="36.6324930" lon="-5.6311190">
        <ele>117.6</ele>
        <time>2020-12-08T09:50:29Z</time>
      </trkpt>
      <trkpt lat="36.6324740" lon="-5.6310850">
        <ele>117.8</ele>
        <time>2020-12-08T09:50:30Z</time>
      </trkpt>
      <trkpt lat="36.6323510" lon="-5.6306960">
        <ele>118.6</ele>
        <time>2020-12-08T09:50:35Z</time>
      </trkpt>
      <trkpt lat="36.6323080" lon="-5.6305590">
        <ele>119.2</ele>
        <time>2020-12-08T09:50:37Z</time>
      </trkpt>
      <trkpt lat="36.6322210" lon="-5.6302710">
        <ele>119.6</ele>
        <time>2020-12-08T09:50:41Z</time>
      </trkpt>
      <trkpt lat="36.6321750" lon="-5.6301260">
        <ele>120.0</ele>
        <time>2020-12-08T09:50:43Z</time>
      </trkpt>
      <trkpt lat="36.6319620" lon="-5.6294320">
        <ele>120.6</ele>
        <time>2020-12-08T09:50:52Z</time>
      </trkpt>
      <trkpt lat="36.6317500" lon="-5.6289480">
        <ele>120.4</ele>
        <time>2020-12-08T09:50:58Z</time>
      </trkpt>
      <trkpt lat="36.6314610" lon="-5.6284820">
        <ele>119.6</ele>
        <time>2020-12-08T09:51:04Z</time>
      </trkpt>
      <trkpt lat="36.6312870" lon="-5.6282660">
        <ele>118.6</ele>
        <time>2020-12-08T09:51:07Z</time>
      </trkpt>
      <trkpt lat="36.6310930" lon="-5.6280770">
        <ele>118.2</ele>
        <time>2020-12-08T09:51:10Z</time>
      </trkpt>
      <trkpt lat="36.6308890" lon="-5.6279130">
        <ele>117.6</ele>
        <time>2020-12-08T09:51:13Z</time>
      </trkpt>
      <trkpt lat="36.6306220" lon="-5.6277390">
        <ele>116.6</ele>
        <time>2020-12-08T09:51:17Z</time>
      </trkpt>
      <trkpt lat="36.6302590" lon="-5.6275570">
        <ele>116.6</ele>
        <time>2020-12-08T09:51:23Z</time>
      </trkpt>
      <trkpt lat="36.6300420" lon="-5.6274460">
        <ele>118.0</ele>
        <time>2020-12-08T09:51:28Z</time>
      </trkpt>
      <trkpt lat="36.6300050" lon="-5.6274260">
        <ele>118.6</ele>
        <time>2020-12-08T09:51:29Z</time>
      </trkpt>
      <trkpt lat="36.6298490" lon="-5.6273430">
        <ele>119.8</ele>
        <time>2020-12-08T09:51:33Z</time>
      </trkpt>
      <trkpt lat="36.6297730" lon="-5.6273000">
        <ele>121.4</ele>
        <time>2020-12-08T09:51:35Z</time>
      </trkpt>
      <trkpt lat="36.6297370" lon="-5.6272760">
        <ele>121.6</ele>
        <time>2020-12-08T09:51:36Z</time>
      </trkpt>
      <trkpt lat="36.6296670" lon="-5.6272300">
        <ele>122.4</ele>
        <time>2020-12-08T09:51:38Z</time>
      </trkpt>
      <trkpt lat="36.6295670" lon="-5.6271510">
        <ele>123.6</ele>
        <time>2020-12-08T09:51:41Z</time>
      </trkpt>
      <trkpt lat="36.6294670" lon="-5.6270690">
        <ele>124.6</ele>
        <time>2020-12-08T09:51:44Z</time>
      </trkpt>
      <trkpt lat="36.6293710" lon="-5.6269840">
        <ele>125.8</ele>
        <time>2020-12-08T09:51:47Z</time>
      </trkpt>
      <trkpt lat="36.6292420" lon="-5.6268570">
        <ele>127.2</ele>
        <time>2020-12-08T09:51:51Z</time>
      </trkpt>
      <trkpt lat="36.6291750" lon="-5.6267870">
        <ele>128.0</ele>
        <time>2020-12-08T09:51:53Z</time>
      </trkpt>
      <trkpt lat="36.6291410" lon="-5.6267520">
        <ele>128.0</ele>
        <time>2020-12-08T09:51:54Z</time>
      </trkpt>
      <trkpt lat="36.6289990" lon="-5.6265960">
        <ele>129.2</ele>
        <time>2020-12-08T09:51:58Z</time>
      </trkpt>
      <trkpt lat="36.6288940" lon="-5.6264790">
        <ele>130.0</ele>
        <time>2020-12-08T09:52:01Z</time>
      </trkpt>
      <trkpt lat="36.6288230" lon="-5.6263960">
        <ele>130.6</ele>
        <time>2020-12-08T09:52:03Z</time>
      </trkpt>
      <trkpt lat="36.6285460" lon="-5.6260800">
        <ele>131.2</ele>
        <time>2020-12-08T09:52:10Z</time>
      </trkpt>
      <trkpt lat="36.6282400" lon="-5.6257260">
        <ele>131.2</ele>
        <time>2020-12-08T09:52:16Z</time>
      </trkpt>
      <trkpt lat="36.6279100" lon="-5.6253520">
        <ele>129.8</ele>
        <time>2020-12-08T09:52:21Z</time>
      </trkpt>
      <trkpt lat="36.6278350" lon="-5.6252720">
        <ele>129.4</ele>
        <time>2020-12-08T09:52:22Z</time>
      </trkpt>
      <trkpt lat="36.6275860" lon="-5.6250350">
        <ele>128.0</ele>
        <time>2020-12-08T09:52:25Z</time>
      </trkpt>
      <trkpt lat="36.6274920" lon="-5.6249590">
        <ele>127.6</ele>
        <time>2020-12-08T09:52:26Z</time>
      </trkpt>
      <trkpt lat="36.6273940" lon="-5.6248870">
        <ele>126.8</ele>
        <time>2020-12-08T09:52:27Z</time>
      </trkpt>
      <trkpt lat="36.6271860" lon="-5.6247650">
        <ele>125.2</ele>
        <time>2020-12-08T09:52:29Z</time>
      </trkpt>
      <trkpt lat="36.6270770" lon="-5.6247170">
        <ele>124.0</ele>
        <time>2020-12-08T09:52:30Z</time>
      </trkpt>
      <trkpt lat="36.6268540" lon="-5.6246430">
        <ele>122.0</ele>
        <time>2020-12-08T09:52:32Z</time>
      </trkpt>
      <trkpt lat="36.6266310" lon="-5.6245980">
        <ele>120.2</ele>
        <time>2020-12-08T09:52:34Z</time>
      </trkpt>
      <trkpt lat="36.6265230" lon="-5.6245780">
        <ele>118.6</ele>
        <time>2020-12-08T09:52:35Z</time>
      </trkpt>
      <trkpt lat="36.6264150" lon="-5.6245580">
        <ele>117.2</ele>
        <time>2020-12-08T09:52:36Z</time>
      </trkpt>
      <trkpt lat="36.6262040" lon="-5.6245210">
        <ele>115.6</ele>
        <time>2020-12-08T09:52:38Z</time>
      </trkpt>
      <trkpt lat="36.6259970" lon="-5.6244760">
        <ele>114.2</ele>
        <time>2020-12-08T09:52:40Z</time>
      </trkpt>
      <trkpt lat="36.6258940" lon="-5.6244480">
        <ele>113.6</ele>
        <time>2020-12-08T09:52:41Z</time>
      </trkpt>
      <trkpt lat="36.6256910" lon="-5.6243800">
        <ele>113.0</ele>
        <time>2020-12-08T09:52:43Z</time>
      </trkpt>
      <trkpt lat="36.6253970" lon="-5.6242360">
        <ele>112.4</ele>
        <time>2020-12-08T09:52:46Z</time>
      </trkpt>
      <trkpt lat="36.6251140" lon="-5.6240480">
        <ele>111.8</ele>
        <time>2020-12-08T09:52:49Z</time>
      </trkpt>
      <trkpt lat="36.6249340" lon="-5.6239040">
        <ele>111.0</ele>
        <time>2020-12-08T09:52:51Z</time>
      </trkpt>
      <trkpt lat="36.6247620" lon="-5.6237440">
        <ele>110.8</ele>
        <time>2020-12-08T09:52:53Z</time>
      </trkpt>
      <trkpt lat="36.6245360" lon="-5.6234740">
        <ele>109.8</ele>
        <time>2020-12-08T09:52:56Z</time>
      </trkpt>
      <trkpt lat="36.6244700" lon="-5.6233790">
        <ele>109.4</ele>
        <time>2020-12-08T09:52:57Z</time>
      </trkpt>
      <trkpt lat="36.6242480" lon="-5.6229960">
        <ele>109.0</ele>
        <time>2020-12-08T09:53:01Z</time>
      </trkpt>
      <trkpt lat="36.6240110" lon="-5.6224320">
        <ele>108.8</ele>
        <time>2020-12-08T09:53:07Z</time>
      </trkpt>
      <trkpt lat="36.6238600" lon="-5.6219120">
        <ele>110.2</ele>
        <time>2020-12-08T09:53:13Z</time>
      </trkpt>
      <trkpt lat="36.6238160" lon="-5.6217590">
        <ele>110.6</ele>
        <time>2020-12-08T09:53:15Z</time>
      </trkpt>
      <trkpt lat="36.6237360" lon="-5.6214920">
        <ele>111.2</ele>
        <time>2020-12-08T09:53:19Z</time>
      </trkpt>
      <trkpt lat="36.6236890" lon="-5.6213760">
        <ele>112.0</ele>
        <time>2020-12-08T09:53:21Z</time>
      </trkpt>
      <trkpt lat="36.6236360" lon="-5.6212700">
        <ele>113.0</ele>
        <time>2020-12-08T09:53:23Z</time>
      </trkpt>
      <trkpt lat="36.6235750" lon="-5.6211750">
        <ele>114.2</ele>
        <time>2020-12-08T09:53:25Z</time>
      </trkpt>
      <trkpt lat="36.6234750" lon="-5.6210520">
        <ele>115.4</ele>
        <time>2020-12-08T09:53:28Z</time>
      </trkpt>
      <trkpt lat="36.6234100" lon="-5.6209710">
        <ele>116.6</ele>
        <time>2020-12-08T09:53:30Z</time>
      </trkpt>
      <trkpt lat="36.6233080" lon="-5.6208570">
        <ele>117.4</ele>
        <time>2020-12-08T09:53:33Z</time>
      </trkpt>
      <trkpt lat="36.6232400" lon="-5.6207780">
        <ele>117.8</ele>
        <time>2020-12-08T09:53:35Z</time>
      </trkpt>
      <trkpt lat="36.6231360" lon="-5.6206560">
        <ele>119.0</ele>
        <time>2020-12-08T09:53:38Z</time>
      </trkpt>
      <trkpt lat="36.6230010" lon="-5.6204860">
        <ele>120.0</ele>
        <time>2020-12-08T09:53:42Z</time>
      </trkpt>
      <trkpt lat="36.6229690" lon="-5.6204410">
        <ele>120.2</ele>
        <time>2020-12-08T09:53:43Z</time>
      </trkpt>
      <trkpt lat="36.6228770" lon="-5.6202990">
        <ele>121.2</ele>
        <time>2020-12-08T09:53:46Z</time>
      </trkpt>
      <trkpt lat="36.6227280" lon="-5.6200490">
        <ele>122.4</ele>
        <time>2020-12-08T09:53:51Z</time>
      </trkpt>
      <trkpt lat="36.6226970" lon="-5.6200010">
        <ele>122.4</ele>
        <time>2020-12-08T09:53:52Z</time>
      </trkpt>
      <trkpt lat="36.6224450" lon="-5.6195290">
        <ele>123.4</ele>
        <time>2020-12-08T09:54:01Z</time>
      </trkpt>
      <trkpt lat="36.6224030" lon="-5.6193440">
        <ele>123.6</ele>
        <time>2020-12-08T09:54:04Z</time>
      </trkpt>
      <trkpt lat="36.6223960" lon="-5.6192140">
        <ele>123.8</ele>
        <time>2020-12-08T09:54:06Z</time>
      </trkpt>
      <trkpt lat="36.6224030" lon="-5.6190730">
        <ele>124.0</ele>
        <time>2020-12-08T09:54:08Z</time>
      </trkpt>
      <trkpt lat="36.6224290" lon="-5.6187000">
        <ele>124.0</ele>
        <time>2020-12-08T09:54:13Z</time>
      </trkpt>
      <trkpt lat="36.6224640" lon="-5.6181490">
        <ele>124.0</ele>
        <time>2020-12-08T09:54:21Z</time>
      </trkpt>
      <trkpt lat="36.6224750" lon="-5.6178510">
        <ele>124.4</ele>
        <time>2020-12-08T09:54:26Z</time>
      </trkpt>
      <trkpt lat="36.6224780" lon="-5.6177320">
        <ele>125.4</ele>
        <time>2020-12-08T09:54:28Z</time>
      </trkpt>
      <trkpt lat="36.6224790" lon="-5.6175550">
        <ele>126.8</ele>
        <time>2020-12-08T09:54:31Z</time>
      </trkpt>
      <trkpt lat="36.6224760" lon="-5.6173790">
        <ele>127.6</ele>
        <time>2020-12-08T09:54:34Z</time>
      </trkpt>
      <trkpt lat="36.6224740" lon="-5.6173170">
        <ele>127.8</ele>
        <time>2020-12-08T09:54:35Z</time>
      </trkpt>
      <trkpt lat="36.6224590" lon="-5.6169870">
        <ele>129.0</ele>
        <time>2020-12-08T09:54:40Z</time>
      </trkpt>
      <trkpt lat="36.6224470" lon="-5.6168480">
        <ele>129.2</ele>
        <time>2020-12-08T09:54:42Z</time>
      </trkpt>
      <trkpt lat="36.6223440" lon="-5.6162590">
        <ele>129.8</ele>
        <time>2020-12-08T09:54:50Z</time>
      </trkpt>
      <trkpt lat="36.6223200" lon="-5.6160170">
        <ele>129.8</ele>
        <time>2020-12-08T09:54:53Z</time>
      </trkpt>
      <trkpt lat="36.6223310" lon="-5.6158570">
        <ele>129.6</ele>
        <time>2020-12-08T09:54:55Z</time>
      </trkpt>
      <trkpt lat="36.6223590" lon="-5.6157010">
        <ele>129.4</ele>
        <time>2020-12-08T09:54:57Z</time>
      </trkpt>
      <trkpt lat="36.6224460" lon="-5.6153100">
        <ele>129.0</ele>
        <time>2020-12-08T09:55:02Z</time>
      </trkpt>
      <trkpt lat="36.6225870" lon="-5.6147180">
        <ele>128.6</ele>
        <time>2020-12-08T09:55:09Z</time>
      </trkpt>
      <trkpt lat="36.6227070" lon="-5.6141010">
        <ele>128.2</ele>
        <time>2020-12-08T09:55:15Z</time>
      </trkpt>
      <trkpt lat="36.6227520" lon="-5.6138760">
        <ele>127.8</ele>
        <time>2020-12-08T09:55:17Z</time>
      </trkpt>
      <trkpt lat="36.6228710" lon="-5.6132820">
        <ele>127.2</ele>
        <time>2020-12-08T09:55:22Z</time>
      </trkpt>
      <trkpt lat="36.6229030" lon="-5.6131610">
        <ele>126.8</ele>
        <time>2020-12-08T09:55:23Z</time>
      </trkpt>
      <trkpt lat="36.6229720" lon="-5.6129190">
        <ele>125.4</ele>
        <time>2020-12-08T09:55:25Z</time>
      </trkpt>
      <trkpt lat="36.6230430" lon="-5.6126780">
        <ele>124.2</ele>
        <time>2020-12-08T09:55:27Z</time>
      </trkpt>
      <trkpt lat="36.6230810" lon="-5.6125610">
        <ele>123.2</ele>
        <time>2020-12-08T09:55:28Z</time>
      </trkpt>
      <trkpt lat="36.6231190" lon="-5.6124460">
        <ele>122.6</ele>
        <time>2020-12-08T09:55:29Z</time>
      </trkpt>
      <trkpt lat="36.6231540" lon="-5.6123320">
        <ele>122.2</ele>
        <time>2020-12-08T09:55:30Z</time>
      </trkpt>
      <trkpt lat="36.6233190" lon="-5.6117840">
        <ele>121.0</ele>
        <time>2020-12-08T09:55:35Z</time>
      </trkpt>
      <trkpt lat="36.6233520" lon="-5.6116800">
        <ele>120.6</ele>
        <time>2020-12-08T09:55:36Z</time>
      </trkpt>
      <trkpt lat="36.6235550" lon="-5.6110060">
        <ele>120.0</ele>
        <time>2020-12-08T09:55:43Z</time>
      </trkpt>
      <trkpt lat="36.6237640" lon="-5.6103370">
        <ele>122.0</ele>
        <time>2020-12-08T09:55:51Z</time>
      </trkpt>
      <trkpt lat="36.6237870" lon="-5.6102550">
        <ele>122.2</ele>
        <time>2020-12-08T09:55:52Z</time>
      </trkpt>
      <trkpt lat="36.6238250" lon="-5.6100910">
        <ele>123.4</ele>
        <time>2020-12-08T09:55:54Z</time>
      </trkpt>
      <trkpt lat="36.6238510" lon="-5.6098400">
        <ele>124.0</ele>
        <time>2020-12-08T09:55:57Z</time>
      </trkpt>
      <trkpt lat="36.6238550" lon="-5.6096710">
        <ele>124.4</ele>
        <time>2020-12-08T09:55:59Z</time>
      </trkpt>
      <trkpt lat="36.6238550" lon="-5.6092480">
        <ele>125.8</ele>
        <time>2020-12-08T09:56:04Z</time>
      </trkpt>
      <trkpt lat="36.6238580" lon="-5.6090780">
        <ele>126.2</ele>
        <time>2020-12-08T09:56:06Z</time>
      </trkpt>
      <trkpt lat="36.6238630" lon="-5.6085520">
        <ele>126.8</ele>
        <time>2020-12-08T09:56:12Z</time>
      </trkpt>
      <trkpt lat="36.6238660" lon="-5.6083780">
        <ele>126.8</ele>
        <time>2020-12-08T09:56:14Z</time>
      </trkpt>
      <trkpt lat="36.6238570" lon="-5.6076910">
        <ele>127.0</ele>
        <time>2020-12-08T09:56:22Z</time>
      </trkpt>
      <trkpt lat="36.6238470" lon="-5.6075160">
        <ele>127.0</ele>
        <time>2020-12-08T09:56:24Z</time>
      </trkpt>
      <trkpt lat="36.6237750" lon="-5.6069900">
        <ele>127.0</ele>
        <time>2020-12-08T09:56:30Z</time>
      </trkpt>
      <trkpt lat="36.6236020" lon="-5.6065040">
        <ele>127.0</ele>
        <time>2020-12-08T09:56:36Z</time>
      </trkpt>
      <trkpt lat="36.6233090" lon="-5.6058570">
        <ele>126.6</ele>
        <time>2020-12-08T09:56:44Z</time>
      </trkpt>
      <trkpt lat="36.6232710" lon="-5.6057760">
        <ele>126.6</ele>
        <time>2020-12-08T09:56:45Z</time>
      </trkpt>
      <trkpt lat="36.6229760" lon="-5.6051490">
        <ele>126.8</ele>
        <time>2020-12-08T09:56:53Z</time>
      </trkpt>
      <trkpt lat="36.6228250" lon="-5.6047900">
        <ele>127.2</ele>
        <time>2020-12-08T09:56:58Z</time>
      </trkpt>
      <trkpt lat="36.6228130" lon="-5.6047130">
        <ele>127.2</ele>
        <time>2020-12-08T09:56:59Z</time>
      </trkpt>
      <trkpt lat="36.6228560" lon="-5.6043770">
        <ele>127.2</ele>
        <time>2020-12-08T09:57:03Z</time>
      </trkpt>
      <trkpt lat="36.6229100" lon="-5.6042080">
        <ele>127.2</ele>
        <time>2020-12-08T09:57:05Z</time>
      </trkpt>
      <trkpt lat="36.6229880" lon="-5.6039590">
        <ele>127.2</ele>
        <time>2020-12-08T09:57:08Z</time>
      </trkpt>
      <trkpt lat="36.6229990" lon="-5.6038710">
        <ele>127.2</ele>
        <time>2020-12-08T09:57:09Z</time>
      </trkpt>
      <trkpt lat="36.6229480" lon="-5.6036160">
        <ele>127.0</ele>
        <time>2020-12-08T09:57:12Z</time>
      </trkpt>
      <trkpt lat="36.6228670" lon="-5.6034750">
        <ele>127.0</ele>
        <time>2020-12-08T09:57:14Z</time>
      </trkpt>
      <trkpt lat="36.6227460" lon="-5.6032780">
        <ele>127.0</ele>
        <time>2020-12-08T09:57:17Z</time>
      </trkpt>
      <trkpt lat="36.6224420" lon="-5.6028040">
        <ele>127.4</ele>
        <time>2020-12-08T09:57:25Z</time>
      </trkpt>
      <trkpt lat="36.6224060" lon="-5.6027480">
        <ele>127.6</ele>
        <time>2020-12-08T09:57:26Z</time>
      </trkpt>
      <trkpt lat="36.6222660" lon="-5.6025280">
        <ele>128.8</ele>
        <time>2020-12-08T09:57:30Z</time>
      </trkpt>
      <trkpt lat="36.6220960" lon="-5.6022640">
        <ele>129.8</ele>
        <time>2020-12-08T09:57:35Z</time>
      </trkpt>
      <trkpt lat="36.6220630" lon="-5.6022100">
        <ele>130.0</ele>
        <time>2020-12-08T09:57:36Z</time>
      </trkpt>
      <trkpt lat="36.6218900" lon="-5.6019420">
        <ele>131.0</ele>
        <time>2020-12-08T09:57:41Z</time>
      </trkpt>
      <trkpt lat="36.6217550" lon="-5.6017350">
        <ele>132.0</ele>
        <time>2020-12-08T09:57:45Z</time>
      </trkpt>
      <trkpt lat="36.6217230" lon="-5.6016840">
        <ele>132.2</ele>
        <time>2020-12-08T09:57:46Z</time>
      </trkpt>
      <trkpt lat="36.6215970" lon="-5.6014910">
        <ele>133.2</ele>
        <time>2020-12-08T09:57:50Z</time>
      </trkpt>
      <trkpt lat="36.6214520" lon="-5.6012600">
        <ele>134.4</ele>
        <time>2020-12-08T09:57:55Z</time>
      </trkpt>
      <trkpt lat="36.6213590" lon="-5.6011230">
        <ele>135.6</ele>
        <time>2020-12-08T09:57:58Z</time>
      </trkpt>
      <trkpt lat="36.6212380" lon="-5.6009310">
        <ele>136.8</ele>
        <time>2020-12-08T09:58:02Z</time>
      </trkpt>
      <trkpt lat="36.6211160" lon="-5.6007420">
        <ele>137.8</ele>
        <time>2020-12-08T09:58:06Z</time>
      </trkpt>
      <trkpt lat="36.6210860" lon="-5.6006950">
        <ele>138.0</ele>
        <time>2020-12-08T09:58:07Z</time>
      </trkpt>
      <trkpt lat="36.6208840" lon="-5.6004240">
        <ele>139.2</ele>
        <time>2020-12-08T09:58:13Z</time>
      </trkpt>
      <trkpt lat="36.6208030" lon="-5.6003360">
        <ele>139.6</ele>
        <time>2020-12-08T09:58:15Z</time>
      </trkpt>
      <trkpt lat="36.6203660" lon="-5.5998870">
        <ele>140.0</ele>
        <time>2020-12-08T09:58:25Z</time>
      </trkpt>
      <trkpt lat="36.6203210" lon="-5.5998440">
        <ele>140.0</ele>
        <time>2020-12-08T09:58:26Z</time>
      </trkpt>
      <trkpt lat="36.6200220" lon="-5.5995870">
        <ele>140.2</ele>
        <time>2020-12-08T09:58:32Z</time>
      </trkpt>
      <trkpt lat="36.6199070" lon="-5.5995010">
        <ele>140.4</ele>
        <time>2020-12-08T09:58:34Z</time>
      </trkpt>
      <trkpt lat="36.6194190" lon="-5.5991510">
        <ele>140.4</ele>
        <time>2020-12-08T09:58:42Z</time>
      </trkpt>
      <trkpt lat="36.6192990" lon="-5.5990640">
        <ele>140.4</ele>
        <time>2020-12-08T09:58:44Z</time>
      </trkpt>
      <trkpt lat="36.6187760" lon="-5.5986940">
        <ele>140.6</ele>
        <time>2020-12-08T09:58:53Z</time>
      </trkpt>
      <trkpt lat="36.6186020" lon="-5.5985780">
        <ele>141.2</ele>
        <time>2020-12-08T09:58:56Z</time>
      </trkpt>
      <trkpt lat="36.6182010" lon="-5.5982860">
        <ele>142.2</ele>
        <time>2020-12-08T09:59:03Z</time>
      </trkpt>
      <trkpt lat="36.6178000" lon="-5.5979980">
        <ele>143.4</ele>
        <time>2020-12-08T09:59:10Z</time>
      </trkpt>
      <trkpt lat="36.6176300" lon="-5.5978540">
        <ele>144.2</ele>
        <time>2020-12-08T09:59:13Z</time>
      </trkpt>
      <trkpt lat="36.6175180" lon="-5.5977420">
        <ele>144.8</ele>
        <time>2020-12-08T09:59:15Z</time>
      </trkpt>
      <trkpt lat="36.6172460" lon="-5.5974320">
        <ele>145.2</ele>
        <time>2020-12-08T09:59:20Z</time>
      </trkpt>
      <trkpt lat="36.6168200" lon="-5.5969170">
        <ele>144.6</ele>
        <time>2020-12-08T09:59:28Z</time>
      </trkpt>
      <trkpt lat="36.6167660" lon="-5.5968530">
        <ele>144.4</ele>
        <time>2020-12-08T09:59:29Z</time>
      </trkpt>
      <trkpt lat="36.6163500" lon="-5.5963870">
        <ele>143.8</ele>
        <time>2020-12-08T09:59:37Z</time>
      </trkpt>
      <trkpt lat="36.6162530" lon="-5.5962860">
        <ele>144.0</ele>
        <time>2020-12-08T09:59:39Z</time>
      </trkpt>
      <trkpt lat="36.6159460" lon="-5.5959450">
        <ele>145.6</ele>
        <time>2020-12-08T09:59:46Z</time>
      </trkpt>
      <trkpt lat="36.6158570" lon="-5.5958320">
        <ele>146.4</ele>
        <time>2020-12-08T09:59:48Z</time>
      </trkpt>
      <trkpt lat="36.6158110" lon="-5.5957690">
        <ele>146.8</ele>
        <time>2020-12-08T09:59:49Z</time>
      </trkpt>
      <trkpt lat="36.6155650" lon="-5.5954310">
        <ele>147.2</ele>
        <time>2020-12-08T09:59:54Z</time>
      </trkpt>
      <trkpt lat="36.6151660" lon="-5.5948550">
        <ele>147.2</ele>
        <time>2020-12-08T10:00:02Z</time>
      </trkpt>
      <trkpt lat="36.6150120" lon="-5.5946450">
        <ele>146.8</ele>
        <time>2020-12-08T10:00:05Z</time>
      </trkpt>
      <trkpt lat="36.6147210" lon="-5.5943260">
        <ele>145.8</ele>
        <time>2020-12-08T10:00:10Z</time>
      </trkpt>
      <trkpt lat="36.6144830" lon="-5.5940820">
        <ele>145.4</ele>
        <time>2020-12-08T10:00:14Z</time>
      </trkpt>
      <trkpt lat="36.6140310" lon="-5.5936080">
        <ele>145.0</ele>
        <time>2020-12-08T10:00:22Z</time>
      </trkpt>
      <trkpt lat="36.6137210" lon="-5.5932840">
        <ele>145.8</ele>
        <time>2020-12-08T10:00:29Z</time>
      </trkpt>
      <trkpt lat="36.6135430" lon="-5.5931210">
        <ele>147.0</ele>
        <time>2020-12-08T10:00:33Z</time>
      </trkpt>
      <trkpt lat="36.6134390" lon="-5.5930440">
        <ele>148.0</ele>
        <time>2020-12-08T10:00:35Z</time>
      </trkpt>
      <trkpt lat="36.6133830" lon="-5.5930080">
        <ele>148.6</ele>
        <time>2020-12-08T10:00:36Z</time>
      </trkpt>
      <trkpt lat="36.6129910" lon="-5.5927850">
        <ele>149.0</ele>
        <time>2020-12-08T10:00:42Z</time>
      </trkpt>
      <trkpt lat="36.6124750" lon="-5.5925160">
        <ele>147.8</ele>
        <time>2020-12-08T10:00:49Z</time>
      </trkpt>
      <trkpt lat="36.6123190" lon="-5.5924280">
        <ele>147.2</ele>
        <time>2020-12-08T10:00:51Z</time>
      </trkpt>
      <trkpt lat="36.6122400" lon="-5.5923820">
        <ele>146.8</ele>
        <time>2020-12-08T10:00:52Z</time>
      </trkpt>
      <trkpt lat="36.6119070" lon="-5.5922010">
        <ele>145.8</ele>
        <time>2020-12-08T10:00:56Z</time>
      </trkpt>
      <trkpt lat="36.6116440" lon="-5.5920870">
        <ele>144.8</ele>
        <time>2020-12-08T10:00:59Z</time>
      </trkpt>
      <trkpt lat="36.6115550" lon="-5.5920610">
        <ele>144.4</ele>
        <time>2020-12-08T10:01:00Z</time>
      </trkpt>
      <trkpt lat="36.6113760" lon="-5.5920370">
        <ele>143.6</ele>
        <time>2020-12-08T10:01:02Z</time>
      </trkpt>
      <trkpt lat="36.6112880" lon="-5.5920410">
        <ele>143.4</ele>
        <time>2020-12-08T10:01:03Z</time>
      </trkpt>
      <trkpt lat="36.6107850" lon="-5.5921390">
        <ele>142.8</ele>
        <time>2020-12-08T10:01:09Z</time>
      </trkpt>
      <trkpt lat="36.6105460" lon="-5.5921920">
        <ele>142.2</ele>
        <time>2020-12-08T10:01:12Z</time>
      </trkpt>
      <trkpt lat="36.6100930" lon="-5.5923080">
        <ele>141.4</ele>
        <time>2020-12-08T10:01:18Z</time>
      </trkpt>
      <trkpt lat="36.6094930" lon="-5.5924560">
        <ele>141.4</ele>
        <time>2020-12-08T10:01:26Z</time>
      </trkpt>
      <trkpt lat="36.6093460" lon="-5.5924910">
        <ele>141.6</ele>
        <time>2020-12-08T10:01:28Z</time>
      </trkpt>
      <trkpt lat="36.6087740" lon="-5.5926210">
        <ele>142.6</ele>
        <time>2020-12-08T10:01:36Z</time>
      </trkpt>
      <trkpt lat="36.6083100" lon="-5.5927970">
        <ele>143.4</ele>
        <time>2020-12-08T10:01:43Z</time>
      </trkpt>
      <trkpt lat="36.6081110" lon="-5.5930250">
        <ele>144.2</ele>
        <time>2020-12-08T10:01:47Z</time>
      </trkpt>
      <trkpt lat="36.6079270" lon="-5.5933460">
        <ele>144.6</ele>
        <time>2020-12-08T10:01:52Z</time>
      </trkpt>
      <trkpt lat="36.6078180" lon="-5.5935340">
        <ele>145.0</ele>
        <time>2020-12-08T10:01:55Z</time>
      </trkpt>
      <trkpt lat="36.6075920" lon="-5.5939050">
        <ele>145.8</ele>
        <time>2020-12-08T10:02:01Z</time>
      </trkpt>
      <trkpt lat="36.6074750" lon="-5.5940630">
        <ele>146.2</ele>
        <time>2020-12-08T10:02:04Z</time>
      </trkpt>
      <trkpt lat="36.6072900" lon="-5.5941840">
        <ele>146.8</ele>
        <time>2020-12-08T10:02:08Z</time>
      </trkpt>
      <trkpt lat="36.6072410" lon="-5.5942020">
        <ele>147.0</ele>
        <time>2020-12-08T10:02:09Z</time>
      </trkpt>
      <trkpt lat="36.6068930" lon="-5.5942960">
        <ele>148.4</ele>
        <time>2020-12-08T10:02:16Z</time>
      </trkpt>
      <trkpt lat="36.6067950" lon="-5.5943190">
        <ele>149.0</ele>
        <time>2020-12-08T10:02:18Z</time>
      </trkpt>
      <trkpt lat="36.6066480" lon="-5.5943520">
        <ele>149.6</ele>
        <time>2020-12-08T10:02:21Z</time>
      </trkpt>
      <trkpt lat="36.6063120" lon="-5.5944340">
        <ele>150.8</ele>
        <time>2020-12-08T10:02:28Z</time>
      </trkpt>
      <trkpt lat="36.6062630" lon="-5.5944450">
        <ele>150.8</ele>
        <time>2020-12-08T10:02:29Z</time>
      </trkpt>
      <trkpt lat="36.6060190" lon="-5.5945020">
        <ele>151.8</ele>
        <time>2020-12-08T10:02:34Z</time>
      </trkpt>
      <trkpt lat="36.6057690" lon="-5.5945570">
        <ele>152.8</ele>
        <time>2020-12-08T10:02:39Z</time>
      </trkpt>
      <trkpt lat="36.6056690" lon="-5.5945820">
        <ele>153.0</ele>
        <time>2020-12-08T10:02:41Z</time>
      </trkpt>
      <trkpt lat="36.6053290" lon="-5.5946550">
        <ele>154.2</ele>
        <time>2020-12-08T10:02:48Z</time>
      </trkpt>
      <trkpt lat="36.6052340" lon="-5.5946780">
        <ele>154.6</ele>
        <time>2020-12-08T10:02:50Z</time>
      </trkpt>
      <trkpt lat="36.6050010" lon="-5.5947300">
        <ele>155.4</ele>
        <time>2020-12-08T10:02:55Z</time>
      </trkpt>
      <trkpt lat="36.6048670" lon="-5.5947600">
        <ele>155.6</ele>
        <time>2020-12-08T10:02:58Z</time>
      </trkpt>
      <trkpt lat="36.6045770" lon="-5.5948140">
        <ele>156.4</ele>
        <time>2020-12-08T10:03:05Z</time>
      </trkpt>
      <trkpt lat="36.6044930" lon="-5.5948330">
        <ele>157.6</ele>
        <time>2020-12-08T10:03:08Z</time>
      </trkpt>
      <trkpt lat="36.6044540" lon="-5.5948340">
        <ele>158.4</ele>
        <time>2020-12-08T10:03:10Z</time>
      </trkpt>
      <trkpt lat="36.6044260" lon="-5.5948240">
        <ele>158.8</ele>
        <time>2020-12-08T10:03:13Z</time>
      </trkpt>
      <trkpt lat="36.6043700" lon="-5.5948500">
        <ele>160.2</ele>
        <time>2020-12-08T10:04:58Z</time>
      </trkpt>
      <trkpt lat="36.6042910" lon="-5.5948560">
        <ele>160.2</ele>
        <time>2020-12-08T10:05:02Z</time>
      </trkpt>
      <trkpt lat="36.6042300" lon="-5.5948870">
        <ele>160.2</ele>
        <time>2020-12-08T10:05:04Z</time>
      </trkpt>
      <trkpt lat="36.6041170" lon="-5.5949330">
        <ele>160.2</ele>
        <time>2020-12-08T10:05:07Z</time>
      </trkpt>
      <trkpt lat="36.6037920" lon="-5.5950040">
        <ele>161.0</ele>
        <time>2020-12-08T10:05:15Z</time>
      </trkpt>
      <trkpt lat="36.6037100" lon="-5.5950190">
        <ele>161.2</ele>
        <time>2020-12-08T10:05:17Z</time>
      </trkpt>
      <trkpt lat="36.6034710" lon="-5.5950740">
        <ele>162.2</ele>
        <time>2020-12-08T10:05:23Z</time>
      </trkpt>
      <trkpt lat="36.6033610" lon="-5.5950960">
        <ele>163.0</ele>
        <time>2020-12-08T10:05:26Z</time>
      </trkpt>
      <trkpt lat="36.6032940" lon="-5.5951040">
        <ele>163.2</ele>
        <time>2020-12-08T10:05:28Z</time>
      </trkpt>
      <trkpt lat="36.6031340" lon="-5.5951330">
        <ele>164.4</ele>
        <time>2020-12-08T10:05:33Z</time>
      </trkpt>
      <trkpt lat="36.6031010" lon="-5.5951410">
        <ele>164.6</ele>
        <time>2020-12-08T10:05:34Z</time>
      </trkpt>
      <trkpt lat="36.6029000" lon="-5.5952070">
        <ele>165.6</ele>
        <time>2020-12-08T10:05:40Z</time>
      </trkpt>
      <trkpt lat="36.6027610" lon="-5.5952610">
        <ele>166.0</ele>
        <time>2020-12-08T10:05:44Z</time>
      </trkpt>
      <trkpt lat="36.6026170" lon="-5.5953340">
        <ele>166.6</ele>
        <time>2020-12-08T10:05:48Z</time>
      </trkpt>
      <trkpt lat="36.6023670" lon="-5.5954880">
        <ele>167.4</ele>
        <time>2020-12-08T10:05:55Z</time>
      </trkpt>
      <trkpt lat="36.6023310" lon="-5.5955100">
        <ele>167.6</ele>
        <time>2020-12-08T10:05:56Z</time>
      </trkpt>
      <trkpt lat="36.6020830" lon="-5.5956690">
        <ele>168.8</ele>
        <time>2020-12-08T10:06:03Z</time>
      </trkpt>
      <trkpt lat="36.6019730" lon="-5.5957360">
        <ele>169.2</ele>
        <time>2020-12-08T10:06:06Z</time>
      </trkpt>
      <trkpt lat="36.6018270" lon="-5.5958330">
        <ele>169.8</ele>
        <time>2020-12-08T10:06:10Z</time>
      </trkpt>
      <trkpt lat="36.6016730" lon="-5.5959460">
        <ele>170.2</ele>
        <time>2020-12-08T10:06:14Z</time>
      </trkpt>
      <trkpt lat="36.6015570" lon="-5.5960320">
        <ele>170.8</ele>
        <time>2020-12-08T10:06:17Z</time>
      </trkpt>
      <trkpt lat="36.6014530" lon="-5.5961520">
        <ele>171.6</ele>
        <time>2020-12-08T10:06:20Z</time>
      </trkpt>
      <trkpt lat="36.6013670" lon="-5.5962870">
        <ele>172.0</ele>
        <time>2020-12-08T10:06:23Z</time>
      </trkpt>
      <trkpt lat="36.6012710" lon="-5.5964860">
        <ele>172.2</ele>
        <time>2020-12-08T10:06:27Z</time>
      </trkpt>
      <trkpt lat="36.6010570" lon="-5.5969790">
        <ele>172.8</ele>
        <time>2020-12-08T10:06:36Z</time>
      </trkpt>
      <trkpt lat="36.6010370" lon="-5.5970370">
        <ele>173.0</ele>
        <time>2020-12-08T10:06:37Z</time>
      </trkpt>
      <trkpt lat="36.6009540" lon="-5.5974240">
        <ele>173.6</ele>
        <time>2020-12-08T10:06:43Z</time>
      </trkpt>
      <trkpt lat="36.6009240" lon="-5.5981130">
        <ele>173.8</ele>
        <time>2020-12-08T10:06:53Z</time>
      </trkpt>
      <trkpt lat="36.6009170" lon="-5.5982530">
        <ele>174.0</ele>
        <time>2020-12-08T10:06:55Z</time>
      </trkpt>
      <trkpt lat="36.6009060" lon="-5.5985200">
        <ele>175.0</ele>
        <time>2020-12-08T10:06:59Z</time>
      </trkpt>
      <trkpt lat="36.6008960" lon="-5.5986970">
        <ele>175.4</ele>
        <time>2020-12-08T10:07:02Z</time>
      </trkpt>
      <trkpt lat="36.6008820" lon="-5.5989200">
        <ele>176.0</ele>
        <time>2020-12-08T10:07:06Z</time>
      </trkpt>
      <trkpt lat="36.6008410" lon="-5.5991370">
        <ele>177.0</ele>
        <time>2020-12-08T10:07:10Z</time>
      </trkpt>
      <trkpt lat="36.6008230" lon="-5.5991890">
        <ele>177.4</ele>
        <time>2020-12-08T10:07:11Z</time>
      </trkpt>
      <trkpt lat="36.6007740" lon="-5.5992860">
        <ele>178.2</ele>
        <time>2020-12-08T10:07:13Z</time>
      </trkpt>
      <trkpt lat="36.6007150" lon="-5.5993740">
        <ele>178.8</ele>
        <time>2020-12-08T10:07:15Z</time>
      </trkpt>
      <trkpt lat="36.6006460" lon="-5.5994530">
        <ele>179.4</ele>
        <time>2020-12-08T10:07:17Z</time>
      </trkpt>
      <trkpt lat="36.6004540" lon="-5.5996340">
        <ele>180.6</ele>
        <time>2020-12-08T10:07:22Z</time>
      </trkpt>
      <trkpt lat="36.6003410" lon="-5.5997360">
        <ele>181.6</ele>
        <time>2020-12-08T10:07:25Z</time>
      </trkpt>
      <trkpt lat="36.6001330" lon="-5.5999150">
        <ele>182.4</ele>
        <time>2020-12-08T10:07:31Z</time>
      </trkpt>
      <trkpt lat="36.6000310" lon="-5.5999950">
        <ele>182.8</ele>
        <time>2020-12-08T10:07:34Z</time>
      </trkpt>
      <trkpt lat="36.5999280" lon="-5.6000740">
        <ele>183.8</ele>
        <time>2020-12-08T10:07:37Z</time>
      </trkpt>
      <trkpt lat="36.5998600" lon="-5.6001230">
        <ele>184.4</ele>
        <time>2020-12-08T10:07:39Z</time>
      </trkpt>
      <trkpt lat="36.5997930" lon="-5.6001690">
        <ele>185.0</ele>
        <time>2020-12-08T10:07:41Z</time>
      </trkpt>
      <trkpt lat="36.5996620" lon="-5.6002640">
        <ele>186.0</ele>
        <time>2020-12-08T10:07:45Z</time>
      </trkpt>
      <trkpt lat="36.5995970" lon="-5.6003130">
        <ele>186.4</ele>
        <time>2020-12-08T10:07:47Z</time>
      </trkpt>
      <trkpt lat="36.5994990" lon="-5.6003860">
        <ele>187.2</ele>
        <time>2020-12-08T10:07:50Z</time>
      </trkpt>
      <trkpt lat="36.5993540" lon="-5.6004830">
        <ele>188.6</ele>
        <time>2020-12-08T10:07:54Z</time>
      </trkpt>
      <trkpt lat="36.5992400" lon="-5.6005620">
        <ele>189.2</ele>
        <time>2020-12-08T10:07:57Z</time>
      </trkpt>
      <trkpt lat="36.5991630" lon="-5.6006140">
        <ele>189.8</ele>
        <time>2020-12-08T10:07:59Z</time>
      </trkpt>
      <trkpt lat="36.5989290" lon="-5.6007710">
        <ele>190.6</ele>
        <time>2020-12-08T10:08:06Z</time>
      </trkpt>
      <trkpt lat="36.5988720" lon="-5.6008090">
        <ele>191.0</ele>
        <time>2020-12-08T10:08:08Z</time>
      </trkpt>
      <trkpt lat="36.5987940" lon="-5.6008630">
        <ele>192.0</ele>
        <time>2020-12-08T10:08:11Z</time>
      </trkpt>
      <trkpt lat="36.5986840" lon="-5.6009340">
        <ele>193.2</ele>
        <time>2020-12-08T10:08:15Z</time>
      </trkpt>
      <trkpt lat="36.5986560" lon="-5.6009540">
        <ele>193.6</ele>
        <time>2020-12-08T10:08:16Z</time>
      </trkpt>
      <trkpt lat="36.5985990" lon="-5.6009910">
        <ele>194.4</ele>
        <time>2020-12-08T10:08:18Z</time>
      </trkpt>
      <trkpt lat="36.5985160" lon="-5.6010500">
        <ele>195.4</ele>
        <time>2020-12-08T10:08:21Z</time>
      </trkpt>
      <trkpt lat="36.5984310" lon="-5.6011040">
        <ele>196.4</ele>
        <time>2020-12-08T10:08:24Z</time>
      </trkpt>
      <trkpt lat="36.5983720" lon="-5.6011430">
        <ele>197.0</ele>
        <time>2020-12-08T10:08:26Z</time>
      </trkpt>
      <trkpt lat="36.5983110" lon="-5.6011810">
        <ele>197.8</ele>
        <time>2020-12-08T10:08:28Z</time>
      </trkpt>
      <trkpt lat="36.5981940" lon="-5.6012620">
        <ele>198.8</ele>
        <time>2020-12-08T10:08:32Z</time>
      </trkpt>
      <trkpt lat="36.5980810" lon="-5.6013400">
        <ele>199.8</ele>
        <time>2020-12-08T10:08:36Z</time>
      </trkpt>
      <trkpt lat="36.5979720" lon="-5.6014160">
        <ele>200.8</ele>
        <time>2020-12-08T10:08:40Z</time>
      </trkpt>
      <trkpt lat="36.5978320" lon="-5.6015070">
        <ele>202.0</ele>
        <time>2020-12-08T10:08:45Z</time>
      </trkpt>
      <trkpt lat="36.5977770" lon="-5.6015450">
        <ele>202.4</ele>
        <time>2020-12-08T10:08:47Z</time>
      </trkpt>
      <trkpt lat="36.5976940" lon="-5.6016020">
        <ele>202.8</ele>
        <time>2020-12-08T10:08:50Z</time>
      </trkpt>
      <trkpt lat="36.5974670" lon="-5.6017390">
        <ele>203.8</ele>
        <time>2020-12-08T10:08:58Z</time>
      </trkpt>
      <trkpt lat="36.5974390" lon="-5.6017570">
        <ele>204.0</ele>
        <time>2020-12-08T10:08:59Z</time>
      </trkpt>
      <trkpt lat="36.5971970" lon="-5.6018890">
        <ele>204.8</ele>
        <time>2020-12-08T10:09:07Z</time>
      </trkpt>
      <trkpt lat="36.5971650" lon="-5.6019020">
        <ele>205.0</ele>
        <time>2020-12-08T10:09:08Z</time>
      </trkpt>
      <trkpt lat="36.5969240" lon="-5.6019900">
        <ele>206.2</ele>
        <time>2020-12-08T10:09:16Z</time>
      </trkpt>
      <trkpt lat="36.5968300" lon="-5.6020130">
        <ele>207.4</ele>
        <time>2020-12-08T10:09:19Z</time>
      </trkpt>
      <trkpt lat="36.5967680" lon="-5.6020190">
        <ele>208.4</ele>
        <time>2020-12-08T10:09:21Z</time>
      </trkpt>
      <trkpt lat="36.5966470" lon="-5.6020450">
        <ele>209.4</ele>
        <time>2020-12-08T10:09:25Z</time>
      </trkpt>
      <trkpt lat="36.5965220" lon="-5.6020660">
        <ele>210.6</ele>
        <time>2020-12-08T10:09:29Z</time>
      </trkpt>
      <trkpt lat="36.5963980" lon="-5.6020850">
        <ele>211.8</ele>
        <time>2020-12-08T10:09:33Z</time>
      </trkpt>
      <trkpt lat="36.5963380" lon="-5.6020960">
        <ele>212.4</ele>
        <time>2020-12-08T10:09:35Z</time>
      </trkpt>
      <trkpt lat="36.5962770" lon="-5.6021110">
        <ele>212.8</ele>
        <time>2020-12-08T10:09:37Z</time>
      </trkpt>
      <trkpt lat="36.5961550" lon="-5.6021340">
        <ele>214.0</ele>
        <time>2020-12-08T10:09:41Z</time>
      </trkpt>
      <trkpt lat="36.5960660" lon="-5.6021540">
        <ele>214.8</ele>
        <time>2020-12-08T10:09:44Z</time>
      </trkpt>
      <trkpt lat="36.5960050" lon="-5.6021640">
        <ele>215.2</ele>
        <time>2020-12-08T10:09:46Z</time>
      </trkpt>
      <trkpt lat="36.5958770" lon="-5.6021810">
        <ele>216.6</ele>
        <time>2020-12-08T10:09:50Z</time>
      </trkpt>
      <trkpt lat="36.5957440" lon="-5.6021860">
        <ele>217.8</ele>
        <time>2020-12-08T10:09:54Z</time>
      </trkpt>
      <trkpt lat="36.5957120" lon="-5.6021820">
        <ele>218.0</ele>
        <time>2020-12-08T10:09:55Z</time>
      </trkpt>
      <trkpt lat="36.5954990" lon="-5.6021290">
        <ele>218.8</ele>
        <time>2020-12-08T10:10:02Z</time>
      </trkpt>
      <trkpt lat="36.5954360" lon="-5.6021030">
        <ele>219.4</ele>
        <time>2020-12-08T10:10:04Z</time>
      </trkpt>
      <trkpt lat="36.5953710" lon="-5.6020740">
        <ele>220.2</ele>
        <time>2020-12-08T10:10:06Z</time>
      </trkpt>
      <trkpt lat="36.5951730" lon="-5.6019820">
        <ele>221.2</ele>
        <time>2020-12-08T10:10:12Z</time>
      </trkpt>
      <trkpt lat="36.5951070" lon="-5.6019510">
        <ele>221.8</ele>
        <time>2020-12-08T10:10:14Z</time>
      </trkpt>
      <trkpt lat="36.5949820" lon="-5.6018930">
        <ele>222.4</ele>
        <time>2020-12-08T10:10:18Z</time>
      </trkpt>
      <trkpt lat="36.5948640" lon="-5.6018350">
        <ele>223.6</ele>
        <time>2020-12-08T10:10:22Z</time>
      </trkpt>
      <trkpt lat="36.5947760" lon="-5.6017910">
        <ele>224.4</ele>
        <time>2020-12-08T10:10:25Z</time>
      </trkpt>
      <trkpt lat="36.5947480" lon="-5.6017760">
        <ele>224.6</ele>
        <time>2020-12-08T10:10:26Z</time>
      </trkpt>
      <trkpt lat="36.5946310" lon="-5.6017300">
        <ele>225.8</ele>
        <time>2020-12-08T10:10:30Z</time>
      </trkpt>
      <trkpt lat="36.5944790" lon="-5.6016940">
        <ele>227.0</ele>
        <time>2020-12-08T10:10:35Z</time>
      </trkpt>
      <trkpt lat="36.5943580" lon="-5.6017000">
        <ele>228.0</ele>
        <time>2020-12-08T10:10:39Z</time>
      </trkpt>
      <trkpt lat="36.5942350" lon="-5.6017320">
        <ele>229.0</ele>
        <time>2020-12-08T10:10:43Z</time>
      </trkpt>
      <trkpt lat="36.5942040" lon="-5.6017400">
        <ele>229.4</ele>
        <time>2020-12-08T10:10:44Z</time>
      </trkpt>
      <trkpt lat="36.5941120" lon="-5.6017670">
        <ele>230.4</ele>
        <time>2020-12-08T10:10:47Z</time>
      </trkpt>
      <trkpt lat="36.5939270" lon="-5.6018280">
        <ele>231.4</ele>
        <time>2020-12-08T10:10:53Z</time>
      </trkpt>
      <trkpt lat="36.5937150" lon="-5.6018910">
        <ele>232.6</ele>
        <time>2020-12-08T10:11:00Z</time>
      </trkpt>
      <trkpt lat="36.5936530" lon="-5.6019090">
        <ele>233.0</ele>
        <time>2020-12-08T10:11:02Z</time>
      </trkpt>
      <trkpt lat="36.5935640" lon="-5.6019380">
        <ele>233.8</ele>
        <time>2020-12-08T10:11:05Z</time>
      </trkpt>
      <trkpt lat="36.5932870" lon="-5.6020160">
        <ele>235.0</ele>
        <time>2020-12-08T10:11:14Z</time>
      </trkpt>
      <trkpt lat="36.5932560" lon="-5.6020260">
        <ele>235.2</ele>
        <time>2020-12-08T10:11:15Z</time>
      </trkpt>
      <trkpt lat="36.5931630" lon="-5.6020570">
        <ele>236.0</ele>
        <time>2020-12-08T10:11:18Z</time>
      </trkpt>
      <trkpt lat="36.5930370" lon="-5.6020950">
        <ele>237.2</ele>
        <time>2020-12-08T10:11:22Z</time>
      </trkpt>
      <trkpt lat="36.5929390" lon="-5.6021200">
        <ele>238.0</ele>
        <time>2020-12-08T10:11:25Z</time>
      </trkpt>
      <trkpt lat="36.5929070" lon="-5.6021290">
        <ele>238.2</ele>
        <time>2020-12-08T10:11:26Z</time>
      </trkpt>
      <trkpt lat="36.5927200" lon="-5.6021920">
        <ele>239.6</ele>
        <time>2020-12-08T10:11:32Z</time>
      </trkpt>
      <trkpt lat="36.5926880" lon="-5.6022020">
        <ele>239.8</ele>
        <time>2020-12-08T10:11:33Z</time>
      </trkpt>
      <trkpt lat="36.5925620" lon="-5.6022300">
        <ele>240.6</ele>
        <time>2020-12-08T10:11:37Z</time>
      </trkpt>
      <trkpt lat="36.5924280" lon="-5.6022480">
        <ele>242.0</ele>
        <time>2020-12-08T10:11:41Z</time>
      </trkpt>
      <trkpt lat="36.5923550" lon="-5.6022540">
        <ele>242.6</ele>
        <time>2020-12-08T10:11:43Z</time>
      </trkpt>
      <trkpt lat="36.5922790" lon="-5.6022570">
        <ele>243.4</ele>
        <time>2020-12-08T10:11:45Z</time>
      </trkpt>
      <trkpt lat="36.5921150" lon="-5.6022450">
        <ele>244.0</ele>
        <time>2020-12-08T10:11:49Z</time>
      </trkpt>
      <trkpt lat="36.5920290" lon="-5.6022240">
        <ele>244.2</ele>
        <time>2020-12-08T10:11:51Z</time>
      </trkpt>
      <trkpt lat="36.5916130" lon="-5.6021690">
        <ele>244.4</ele>
        <time>2020-12-08T10:12:00Z</time>
      </trkpt>
      <trkpt lat="36.5912960" lon="-5.6021110">
        <ele>244.6</ele>
        <time>2020-12-08T10:12:08Z</time>
      </trkpt>
      <trkpt lat="36.5910720" lon="-5.6020710">
        <ele>246.2</ele>
        <time>2020-12-08T10:12:14Z</time>
      </trkpt>
      <trkpt lat="36.5909600" lon="-5.6020480">
        <ele>246.8</ele>
        <time>2020-12-08T10:12:17Z</time>
      </trkpt>
      <trkpt lat="36.5908840" lon="-5.6020340">
        <ele>247.2</ele>
        <time>2020-12-08T10:12:19Z</time>
      </trkpt>
      <trkpt lat="36.5906920" lon="-5.6019940">
        <ele>248.4</ele>
        <time>2020-12-08T10:12:24Z</time>
      </trkpt>
      <trkpt lat="36.5905370" lon="-5.6019710">
        <ele>249.6</ele>
        <time>2020-12-08T10:12:28Z</time>
      </trkpt>
      <trkpt lat="36.5903030" lon="-5.6019560">
        <ele>250.6</ele>
        <time>2020-12-08T10:12:34Z</time>
      </trkpt>
      <trkpt lat="36.5902270" lon="-5.6019760">
        <ele>251.2</ele>
        <time>2020-12-08T10:12:36Z</time>
      </trkpt>
      <trkpt lat="36.5901160" lon="-5.6020290">
        <ele>251.8</ele>
        <time>2020-12-08T10:12:39Z</time>
      </trkpt>
      <trkpt lat="36.5899760" lon="-5.6021300">
        <ele>253.4</ele>
        <time>2020-12-08T10:12:43Z</time>
      </trkpt>
      <trkpt lat="36.5898290" lon="-5.6022420">
        <ele>254.4</ele>
        <time>2020-12-08T10:12:47Z</time>
      </trkpt>
      <trkpt lat="36.5896910" lon="-5.6023680">
        <ele>255.6</ele>
        <time>2020-12-08T10:12:51Z</time>
      </trkpt>
      <trkpt lat="36.5896290" lon="-5.6024300">
        <ele>256.2</ele>
        <time>2020-12-08T10:12:53Z</time>
      </trkpt>
      <trkpt lat="36.5895690" lon="-5.6024940">
        <ele>256.6</ele>
        <time>2020-12-08T10:12:55Z</time>
      </trkpt>
      <trkpt lat="36.5894220" lon="-5.6026640">
        <ele>257.6</ele>
        <time>2020-12-08T10:13:00Z</time>
      </trkpt>
      <trkpt lat="36.5893070" lon="-5.6027980">
        <ele>258.2</ele>
        <time>2020-12-08T10:13:04Z</time>
      </trkpt>
      <trkpt lat="36.5891960" lon="-5.6029350">
        <ele>258.8</ele>
        <time>2020-12-08T10:13:08Z</time>
      </trkpt>
      <trkpt lat="36.5890280" lon="-5.6031410">
        <ele>259.6</ele>
        <time>2020-12-08T10:13:14Z</time>
      </trkpt>
      <trkpt lat="36.5889420" lon="-5.6032430">
        <ele>260.0</ele>
        <time>2020-12-08T10:13:17Z</time>
      </trkpt>
      <trkpt lat="36.5887810" lon="-5.6034510">
        <ele>261.0</ele>
        <time>2020-12-08T10:13:23Z</time>
      </trkpt>
      <trkpt lat="36.5887560" lon="-5.6034860">
        <ele>261.4</ele>
        <time>2020-12-08T10:13:24Z</time>
      </trkpt>
      <trkpt lat="36.5886190" lon="-5.6036510">
        <ele>262.2</ele>
        <time>2020-12-08T10:13:29Z</time>
      </trkpt>
      <trkpt lat="36.5885110" lon="-5.6037940">
        <ele>262.8</ele>
        <time>2020-12-08T10:13:33Z</time>
      </trkpt>
      <trkpt lat="36.5884550" lon="-5.6038620">
        <ele>263.2</ele>
        <time>2020-12-08T10:13:35Z</time>
      </trkpt>
      <trkpt lat="36.5882970" lon="-5.6039900">
        <ele>264.6</ele>
        <time>2020-12-08T10:13:40Z</time>
      </trkpt>
      <trkpt lat="36.5881260" lon="-5.6040830">
        <ele>265.6</ele>
        <time>2020-12-08T10:13:45Z</time>
      </trkpt>
      <trkpt lat="36.5879770" lon="-5.6041360">
        <ele>266.8</ele>
        <time>2020-12-08T10:13:49Z</time>
      </trkpt>
      <trkpt lat="36.5877930" lon="-5.6041720">
        <ele>268.0</ele>
        <time>2020-12-08T10:13:54Z</time>
      </trkpt>
      <trkpt lat="36.5877220" lon="-5.6041820">
        <ele>268.4</ele>
        <time>2020-12-08T10:13:56Z</time>
      </trkpt>
      <trkpt lat="36.5875300" lon="-5.6041930">
        <ele>269.2</ele>
        <time>2020-12-08T10:14:01Z</time>
      </trkpt>
      <trkpt lat="36.5874140" lon="-5.6041830">
        <ele>269.8</ele>
        <time>2020-12-08T10:14:04Z</time>
      </trkpt>
      <trkpt lat="36.5873350" lon="-5.6041810">
        <ele>270.0</ele>
        <time>2020-12-08T10:14:06Z</time>
      </trkpt>
      <trkpt lat="36.5871290" lon="-5.6041700">
        <ele>271.2</ele>
        <time>2020-12-08T10:14:11Z</time>
      </trkpt>
      <trkpt lat="36.5870490" lon="-5.6041590">
        <ele>271.4</ele>
        <time>2020-12-08T10:14:13Z</time>
      </trkpt>
      <trkpt lat="36.5867080" lon="-5.6041380">
        <ele>272.2</ele>
        <time>2020-12-08T10:14:22Z</time>
      </trkpt>
      <trkpt lat="36.5865400" lon="-5.6041160">
        <ele>273.4</ele>
        <time>2020-12-08T10:14:27Z</time>
      </trkpt>
      <trkpt lat="36.5864090" lon="-5.6040970">
        <ele>274.6</ele>
        <time>2020-12-08T10:14:31Z</time>
      </trkpt>
      <trkpt lat="36.5862420" lon="-5.6040740">
        <ele>275.8</ele>
        <time>2020-12-08T10:14:36Z</time>
      </trkpt>
      <trkpt lat="36.5861100" lon="-5.6040490">
        <ele>277.0</ele>
        <time>2020-12-08T10:14:40Z</time>
      </trkpt>
      <trkpt lat="36.5858560" lon="-5.6039840">
        <ele>278.2</ele>
        <time>2020-12-08T10:14:48Z</time>
      </trkpt>
      <trkpt lat="36.5857650" lon="-5.6039600">
        <ele>279.0</ele>
        <time>2020-12-08T10:14:51Z</time>
      </trkpt>
      <trkpt lat="36.5857350" lon="-5.6039490">
        <ele>279.2</ele>
        <time>2020-12-08T10:14:52Z</time>
      </trkpt>
      <trkpt lat="36.5855840" lon="-5.6038680">
        <ele>280.6</ele>
        <time>2020-12-08T10:14:57Z</time>
      </trkpt>
      <trkpt lat="36.5855290" lon="-5.6038380">
        <ele>281.4</ele>
        <time>2020-12-08T10:14:59Z</time>
      </trkpt>
      <trkpt lat="36.5855010" lon="-5.6038240">
        <ele>281.6</ele>
        <time>2020-12-08T10:15:00Z</time>
      </trkpt>
      <trkpt lat="36.5853950" lon="-5.6037550">
        <ele>282.8</ele>
        <time>2020-12-08T10:15:04Z</time>
      </trkpt>
      <trkpt lat="36.5852890" lon="-5.6036900">
        <ele>283.8</ele>
        <time>2020-12-08T10:15:08Z</time>
      </trkpt>
      <trkpt lat="36.5851600" lon="-5.6036110">
        <ele>285.0</ele>
        <time>2020-12-08T10:15:13Z</time>
      </trkpt>
      <trkpt lat="36.5850520" lon="-5.6035620">
        <ele>286.2</ele>
        <time>2020-12-08T10:15:17Z</time>
      </trkpt>
      <trkpt lat="36.5849140" lon="-5.6035720">
        <ele>287.4</ele>
        <time>2020-12-08T10:15:22Z</time>
      </trkpt>
      <trkpt lat="36.5848890" lon="-5.6035870">
        <ele>287.6</ele>
        <time>2020-12-08T10:15:23Z</time>
      </trkpt>
      <trkpt lat="36.5847730" lon="-5.6036960">
        <ele>288.6</ele>
        <time>2020-12-08T10:15:28Z</time>
      </trkpt>
      <trkpt lat="36.5847110" lon="-5.6037730">
        <ele>289.6</ele>
        <time>2020-12-08T10:15:31Z</time>
      </trkpt>
      <trkpt lat="36.5846900" lon="-5.6037990">
        <ele>290.2</ele>
        <time>2020-12-08T10:15:32Z</time>
      </trkpt>
      <trkpt lat="36.5846290" lon="-5.6038830">
        <ele>291.4</ele>
        <time>2020-12-08T10:15:35Z</time>
      </trkpt>
      <trkpt lat="36.5845720" lon="-5.6039720">
        <ele>292.4</ele>
        <time>2020-12-08T10:15:38Z</time>
      </trkpt>
      <trkpt lat="36.5845540" lon="-5.6040030">
        <ele>292.6</ele>
        <time>2020-12-08T10:15:39Z</time>
      </trkpt>
      <trkpt lat="36.5844710" lon="-5.6041230">
        <ele>293.4</ele>
        <time>2020-12-08T10:15:43Z</time>
      </trkpt>
      <trkpt lat="36.5843960" lon="-5.6042380">
        <ele>294.2</ele>
        <time>2020-12-08T10:15:47Z</time>
      </trkpt>
      <trkpt lat="36.5843790" lon="-5.6042690">
        <ele>294.4</ele>
        <time>2020-12-08T10:15:48Z</time>
      </trkpt>
      <trkpt lat="36.5842800" lon="-5.6044040">
        <ele>295.2</ele>
        <time>2020-12-08T10:15:53Z</time>
      </trkpt>
      <trkpt lat="36.5842410" lon="-5.6044590">
        <ele>295.6</ele>
        <time>2020-12-08T10:15:55Z</time>
      </trkpt>
      <trkpt lat="36.5841550" lon="-5.6045810">
        <ele>296.6</ele>
        <time>2020-12-08T10:15:59Z</time>
      </trkpt>
      <trkpt lat="36.5841330" lon="-5.6046130">
        <ele>296.8</ele>
        <time>2020-12-08T10:16:00Z</time>
      </trkpt>
      <trkpt lat="36.5840440" lon="-5.6047430">
        <ele>297.6</ele>
        <time>2020-12-08T10:16:04Z</time>
      </trkpt>
      <trkpt lat="36.5839510" lon="-5.6048730">
        <ele>298.4</ele>
        <time>2020-12-08T10:16:08Z</time>
      </trkpt>
      <trkpt lat="36.5838710" lon="-5.6049560">
        <ele>298.8</ele>
        <time>2020-12-08T10:16:11Z</time>
      </trkpt>
      <trkpt lat="36.5837240" lon="-5.6050680">
        <ele>299.2</ele>
        <time>2020-12-08T10:16:16Z</time>
      </trkpt>
      <trkpt lat="36.5836360" lon="-5.6051270">
        <ele>299.8</ele>
        <time>2020-12-08T10:16:19Z</time>
      </trkpt>
      <trkpt lat="36.5834570" lon="-5.6052230">
        <ele>301.0</ele>
        <time>2020-12-08T10:16:25Z</time>
      </trkpt>
      <trkpt lat="36.5833980" lon="-5.6052560">
        <ele>301.6</ele>
        <time>2020-12-08T10:16:27Z</time>
      </trkpt>
      <trkpt lat="36.5833070" lon="-5.6052990">
        <ele>302.0</ele>
        <time>2020-12-08T10:16:30Z</time>
      </trkpt>
      <trkpt lat="36.5831860" lon="-5.6053510">
        <ele>303.0</ele>
        <time>2020-12-08T10:16:34Z</time>
      </trkpt>
      <trkpt lat="36.5831560" lon="-5.6053680">
        <ele>303.4</ele>
        <time>2020-12-08T10:16:35Z</time>
      </trkpt>
      <trkpt lat="36.5830370" lon="-5.6054330">
        <ele>304.0</ele>
        <time>2020-12-08T10:16:39Z</time>
      </trkpt>
      <trkpt lat="36.5828820" lon="-5.6054940">
        <ele>305.2</ele>
        <time>2020-12-08T10:16:44Z</time>
      </trkpt>
      <trkpt lat="36.5828500" lon="-5.6055030">
        <ele>305.4</ele>
        <time>2020-12-08T10:16:45Z</time>
      </trkpt>
      <trkpt lat="36.5827490" lon="-5.6055170">
        <ele>306.2</ele>
        <time>2020-12-08T10:16:48Z</time>
      </trkpt>
      <trkpt lat="36.5826130" lon="-5.6055120">
        <ele>307.6</ele>
        <time>2020-12-08T10:16:52Z</time>
      </trkpt>
      <trkpt lat="36.5825800" lon="-5.6055030">
        <ele>307.8</ele>
        <time>2020-12-08T10:16:53Z</time>
      </trkpt>
      <trkpt lat="36.5824810" lon="-5.6054820">
        <ele>308.4</ele>
        <time>2020-12-08T10:16:56Z</time>
      </trkpt>
      <trkpt lat="36.5823880" lon="-5.6054660">
        <ele>309.6</ele>
        <time>2020-12-08T10:16:59Z</time>
      </trkpt>
      <trkpt lat="36.5823270" lon="-5.6054530">
        <ele>310.2</ele>
        <time>2020-12-08T10:17:01Z</time>
      </trkpt>
      <trkpt lat="36.5822660" lon="-5.6054290">
        <ele>311.0</ele>
        <time>2020-12-08T10:17:03Z</time>
      </trkpt>
      <trkpt lat="36.5821530" lon="-5.6053740">
        <ele>312.2</ele>
        <time>2020-12-08T10:17:07Z</time>
      </trkpt>
      <trkpt lat="36.5821260" lon="-5.6053600">
        <ele>312.4</ele>
        <time>2020-12-08T10:17:08Z</time>
      </trkpt>
      <trkpt lat="36.5819800" lon="-5.6052980">
        <ele>313.4</ele>
        <time>2020-12-08T10:17:13Z</time>
      </trkpt>
      <trkpt lat="36.5818930" lon="-5.6052530">
        <ele>314.0</ele>
        <time>2020-12-08T10:17:16Z</time>
      </trkpt>
      <trkpt lat="36.5818360" lon="-5.6052160">
        <ele>314.4</ele>
        <time>2020-12-08T10:17:18Z</time>
      </trkpt>
      <trkpt lat="36.5817240" lon="-5.6051390">
        <ele>315.4</ele>
        <time>2020-12-08T10:17:22Z</time>
      </trkpt>
      <trkpt lat="36.5816090" lon="-5.6050720">
        <ele>316.4</ele>
        <time>2020-12-08T10:17:26Z</time>
      </trkpt>
      <trkpt lat="36.5814720" lon="-5.6049880">
        <ele>317.6</ele>
        <time>2020-12-08T10:17:31Z</time>
      </trkpt>
      <trkpt lat="36.5813900" lon="-5.6049300">
        <ele>318.6</ele>
        <time>2020-12-08T10:17:34Z</time>
      </trkpt>
      <trkpt lat="36.5813350" lon="-5.6049020">
        <ele>319.2</ele>
        <time>2020-12-08T10:17:36Z</time>
      </trkpt>
      <trkpt lat="36.5812540" lon="-5.6048520">
        <ele>319.8</ele>
        <time>2020-12-08T10:17:39Z</time>
      </trkpt>
      <trkpt lat="36.5811760" lon="-5.6048120">
        <ele>320.4</ele>
        <time>2020-12-08T10:17:42Z</time>
      </trkpt>
      <trkpt lat="36.5811030" lon="-5.6047650">
        <ele>321.0</ele>
        <time>2020-12-08T10:17:45Z</time>
      </trkpt>
      <trkpt lat="36.5809910" lon="-5.6046590">
        <ele>322.2</ele>
        <time>2020-12-08T10:17:50Z</time>
      </trkpt>
      <trkpt lat="36.5809260" lon="-5.6045890">
        <ele>323.4</ele>
        <time>2020-12-08T10:17:53Z</time>
      </trkpt>
      <trkpt lat="36.5808560" lon="-5.6045200">
        <ele>324.4</ele>
        <time>2020-12-08T10:17:56Z</time>
      </trkpt>
      <trkpt lat="36.5808110" lon="-5.6044800">
        <ele>325.0</ele>
        <time>2020-12-08T10:17:58Z</time>
      </trkpt>
      <trkpt lat="36.5807650" lon="-5.6044350">
        <ele>325.6</ele>
        <time>2020-12-08T10:18:00Z</time>
      </trkpt>
      <trkpt lat="36.5806730" lon="-5.6043460">
        <ele>326.6</ele>
        <time>2020-12-08T10:18:04Z</time>
      </trkpt>
      <trkpt lat="36.5806490" lon="-5.6043260">
        <ele>326.8</ele>
        <time>2020-12-08T10:18:05Z</time>
      </trkpt>
      <trkpt lat="36.5804890" lon="-5.6042650">
        <ele>327.6</ele>
        <time>2020-12-08T10:18:11Z</time>
      </trkpt>
      <trkpt lat="36.5804620" lon="-5.6042700">
        <ele>327.8</ele>
        <time>2020-12-08T10:18:12Z</time>
      </trkpt>
      <trkpt lat="36.5803220" lon="-5.6043010">
        <ele>328.8</ele>
        <time>2020-12-08T10:18:17Z</time>
      </trkpt>
      <trkpt lat="36.5802630" lon="-5.6043090">
        <ele>329.0</ele>
        <time>2020-12-08T10:18:19Z</time>
      </trkpt>
      <trkpt lat="36.5801530" lon="-5.6043140">
        <ele>330.0</ele>
        <time>2020-12-08T10:18:23Z</time>
      </trkpt>
      <trkpt lat="36.5800460" lon="-5.6043030">
        <ele>330.8</ele>
        <time>2020-12-08T10:18:27Z</time>
      </trkpt>
      <trkpt lat="36.5800180" lon="-5.6042960">
        <ele>331.0</ele>
        <time>2020-12-08T10:18:28Z</time>
      </trkpt>
      <trkpt lat="36.5799300" lon="-5.6042750">
        <ele>332.2</ele>
        <time>2020-12-08T10:18:31Z</time>
      </trkpt>
      <trkpt lat="36.5798110" lon="-5.6042670">
        <ele>333.2</ele>
        <time>2020-12-08T10:18:35Z</time>
      </trkpt>
      <trkpt lat="36.5796280" lon="-5.6042570">
        <ele>334.4</ele>
        <time>2020-12-08T10:18:41Z</time>
      </trkpt>
      <trkpt lat="36.5795760" lon="-5.6042790">
        <ele>334.8</ele>
        <time>2020-12-08T10:18:43Z</time>
      </trkpt>
      <trkpt lat="36.5794940" lon="-5.6043180">
        <ele>335.4</ele>
        <time>2020-12-08T10:18:46Z</time>
      </trkpt>
      <trkpt lat="36.5793890" lon="-5.6043730">
        <ele>336.8</ele>
        <time>2020-12-08T10:18:50Z</time>
      </trkpt>
      <trkpt lat="36.5793630" lon="-5.6043850">
        <ele>337.0</ele>
        <time>2020-12-08T10:18:51Z</time>
      </trkpt>
      <trkpt lat="36.5792870" lon="-5.6044260">
        <ele>337.8</ele>
        <time>2020-12-08T10:18:54Z</time>
      </trkpt>
      <trkpt lat="36.5791430" lon="-5.6044980">
        <ele>339.0</ele>
        <time>2020-12-08T10:18:59Z</time>
      </trkpt>
      <trkpt lat="36.5790600" lon="-5.6045290">
        <ele>340.0</ele>
        <time>2020-12-08T10:19:02Z</time>
      </trkpt>
      <trkpt lat="36.5789230" lon="-5.6045610">
        <ele>341.4</ele>
        <time>2020-12-08T10:19:07Z</time>
      </trkpt>
      <trkpt lat="36.5788110" lon="-5.6045410">
        <ele>342.4</ele>
        <time>2020-12-08T10:19:11Z</time>
      </trkpt>
      <trkpt lat="36.5787240" lon="-5.6045110">
        <ele>343.2</ele>
        <time>2020-12-08T10:19:14Z</time>
      </trkpt>
      <trkpt lat="36.5786940" lon="-5.6045020">
        <ele>343.4</ele>
        <time>2020-12-08T10:19:15Z</time>
      </trkpt>
      <trkpt lat="36.5784930" lon="-5.6044370">
        <ele>344.6</ele>
        <time>2020-12-08T10:19:22Z</time>
      </trkpt>
      <trkpt lat="36.5784670" lon="-5.6044280">
        <ele>344.8</ele>
        <time>2020-12-08T10:19:23Z</time>
      </trkpt>
      <trkpt lat="36.5783670" lon="-5.6043980">
        <ele>345.8</ele>
        <time>2020-12-08T10:19:27Z</time>
      </trkpt>
      <trkpt lat="36.5782880" lon="-5.6043670">
        <ele>347.0</ele>
        <time>2020-12-08T10:19:30Z</time>
      </trkpt>
      <trkpt lat="36.5782620" lon="-5.6043610">
        <ele>347.4</ele>
        <time>2020-12-08T10:19:31Z</time>
      </trkpt>
      <trkpt lat="36.5781810" lon="-5.6043480">
        <ele>348.0</ele>
        <time>2020-12-08T10:19:34Z</time>
      </trkpt>
      <trkpt lat="36.5780520" lon="-5.6043730">
        <ele>349.4</ele>
        <time>2020-12-08T10:19:39Z</time>
      </trkpt>
      <trkpt lat="36.5779510" lon="-5.6044190">
        <ele>350.6</ele>
        <time>2020-12-08T10:19:43Z</time>
      </trkpt>
      <trkpt lat="36.5778780" lon="-5.6044550">
        <ele>351.8</ele>
        <time>2020-12-08T10:19:46Z</time>
      </trkpt>
      <trkpt lat="36.5778290" lon="-5.6044790">
        <ele>352.6</ele>
        <time>2020-12-08T10:19:48Z</time>
      </trkpt>
      <trkpt lat="36.5778050" lon="-5.6044910">
        <ele>353.2</ele>
        <time>2020-12-08T10:19:49Z</time>
      </trkpt>
      <trkpt lat="36.5776480" lon="-5.6045540">
        <ele>353.6</ele>
        <time>2020-12-08T10:19:55Z</time>
      </trkpt>
      <trkpt lat="36.5775230" lon="-5.6045790">
        <ele>354.2</ele>
        <time>2020-12-08T10:19:59Z</time>
      </trkpt>
      <trkpt lat="36.5774320" lon="-5.6045840">
        <ele>354.6</ele>
        <time>2020-12-08T10:20:02Z</time>
      </trkpt>
      <trkpt lat="36.5772990" lon="-5.6045830">
        <ele>355.2</ele>
        <time>2020-12-08T10:20:07Z</time>
      </trkpt>
      <trkpt lat="36.5771900" lon="-5.6045730">
        <ele>355.8</ele>
        <time>2020-12-08T10:20:11Z</time>
      </trkpt>
      <trkpt lat="36.5770800" lon="-5.6045640">
        <ele>356.4</ele>
        <time>2020-12-08T10:20:15Z</time>
      </trkpt>
      <trkpt lat="36.5769090" lon="-5.6045370">
        <ele>357.2</ele>
        <time>2020-12-08T10:20:21Z</time>
      </trkpt>
      <trkpt lat="36.5768510" lon="-5.6045270">
        <ele>357.8</ele>
        <time>2020-12-08T10:20:23Z</time>
      </trkpt>
      <trkpt lat="36.5767060" lon="-5.6044810">
        <ele>358.4</ele>
        <time>2020-12-08T10:20:28Z</time>
      </trkpt>
      <trkpt lat="36.5765620" lon="-5.6044290">
        <ele>359.6</ele>
        <time>2020-12-08T10:20:33Z</time>
      </trkpt>
      <trkpt lat="36.5764770" lon="-5.6043960">
        <ele>360.4</ele>
        <time>2020-12-08T10:20:36Z</time>
      </trkpt>
      <trkpt lat="36.5763600" lon="-5.6043620">
        <ele>361.6</ele>
        <time>2020-12-08T10:20:40Z</time>
      </trkpt>
      <trkpt lat="36.5763050" lon="-5.6043530">
        <ele>362.2</ele>
        <time>2020-12-08T10:20:42Z</time>
      </trkpt>
      <trkpt lat="36.5761700" lon="-5.6043640">
        <ele>363.0</ele>
        <time>2020-12-08T10:20:47Z</time>
      </trkpt>
      <trkpt lat="36.5760890" lon="-5.6043840">
        <ele>363.4</ele>
        <time>2020-12-08T10:20:50Z</time>
      </trkpt>
      <trkpt lat="36.5760080" lon="-5.6044190">
        <ele>364.2</ele>
        <time>2020-12-08T10:20:53Z</time>
      </trkpt>
      <trkpt lat="36.5759520" lon="-5.6044480">
        <ele>365.4</ele>
        <time>2020-12-08T10:20:55Z</time>
      </trkpt>
      <trkpt lat="36.5758420" lon="-5.6045190">
        <ele>366.2</ele>
        <time>2020-12-08T10:20:59Z</time>
      </trkpt>
      <trkpt lat="36.5756980" lon="-5.6046120">
        <ele>367.8</ele>
        <time>2020-12-08T10:21:04Z</time>
      </trkpt>
      <trkpt lat="36.5755560" lon="-5.6047160">
        <ele>369.2</ele>
        <time>2020-12-08T10:21:09Z</time>
      </trkpt>
      <trkpt lat="36.5754690" lon="-5.6047770">
        <ele>370.6</ele>
        <time>2020-12-08T10:21:12Z</time>
      </trkpt>
      <trkpt lat="36.5753230" lon="-5.6048850">
        <ele>371.6</ele>
        <time>2020-12-08T10:21:17Z</time>
      </trkpt>
      <trkpt lat="36.5752920" lon="-5.6049060">
        <ele>371.8</ele>
        <time>2020-12-08T10:21:18Z</time>
      </trkpt>
      <trkpt lat="36.5751390" lon="-5.6050080">
        <ele>372.6</ele>
        <time>2020-12-08T10:21:23Z</time>
      </trkpt>
      <trkpt lat="36.5750060" lon="-5.6050680">
        <ele>373.2</ele>
        <time>2020-12-08T10:21:27Z</time>
      </trkpt>
      <trkpt lat="36.5748990" lon="-5.6050940">
        <ele>373.8</ele>
        <time>2020-12-08T10:21:30Z</time>
      </trkpt>
      <trkpt lat="36.5747830" lon="-5.6050910">
        <ele>374.6</ele>
        <time>2020-12-08T10:21:33Z</time>
      </trkpt>
      <trkpt lat="36.5747070" lon="-5.6050810">
        <ele>375.0</ele>
        <time>2020-12-08T10:21:35Z</time>
      </trkpt>
      <trkpt lat="36.5745020" lon="-5.6050220">
        <ele>376.2</ele>
        <time>2020-12-08T10:21:41Z</time>
      </trkpt>
      <trkpt lat="36.5744690" lon="-5.6050080">
        <ele>376.4</ele>
        <time>2020-12-08T10:21:42Z</time>
      </trkpt>
      <trkpt lat="36.5743030" lon="-5.6049600">
        <ele>377.4</ele>
        <time>2020-12-08T10:21:47Z</time>
      </trkpt>
      <trkpt lat="36.5741760" lon="-5.6049060">
        <ele>378.4</ele>
        <time>2020-12-08T10:21:51Z</time>
      </trkpt>
      <trkpt lat="36.5740380" lon="-5.6048680">
        <ele>379.4</ele>
        <time>2020-12-08T10:21:55Z</time>
      </trkpt>
      <trkpt lat="36.5738940" lon="-5.6048240">
        <ele>380.4</ele>
        <time>2020-12-08T10:21:59Z</time>
      </trkpt>
      <trkpt lat="36.5738590" lon="-5.6048120">
        <ele>380.6</ele>
        <time>2020-12-08T10:22:00Z</time>
      </trkpt>
      <trkpt lat="36.5736370" lon="-5.6047460">
        <ele>381.6</ele>
        <time>2020-12-08T10:22:07Z</time>
      </trkpt>
      <trkpt lat="36.5736050" lon="-5.6047350">
        <ele>381.6</ele>
        <time>2020-12-08T10:22:08Z</time>
      </trkpt>
      <trkpt lat="36.5734490" lon="-5.6046990">
        <ele>382.6</ele>
        <time>2020-12-08T10:22:13Z</time>
      </trkpt>
      <trkpt lat="36.5733660" lon="-5.6047010">
        <ele>383.2</ele>
        <time>2020-12-08T10:22:16Z</time>
      </trkpt>
      <trkpt lat="36.5733080" lon="-5.6047010">
        <ele>383.8</ele>
        <time>2020-12-08T10:22:18Z</time>
      </trkpt>
      <trkpt lat="36.5731720" lon="-5.6047130">
        <ele>384.6</ele>
        <time>2020-12-08T10:22:22Z</time>
      </trkpt>
      <trkpt lat="36.5731340" lon="-5.6047160">
        <ele>385.0</ele>
        <time>2020-12-08T10:22:23Z</time>
      </trkpt>
      <trkpt lat="36.5729870" lon="-5.6047370">
        <ele>386.4</ele>
        <time>2020-12-08T10:22:27Z</time>
      </trkpt>
      <trkpt lat="36.5728820" lon="-5.6047540">
        <ele>387.2</ele>
        <time>2020-12-08T10:22:30Z</time>
      </trkpt>
      <trkpt lat="36.5728480" lon="-5.6047570">
        <ele>387.4</ele>
        <time>2020-12-08T10:22:31Z</time>
      </trkpt>
      <trkpt lat="36.5726450" lon="-5.6047810">
        <ele>388.6</ele>
        <time>2020-12-08T10:22:37Z</time>
      </trkpt>
      <trkpt lat="36.5725750" lon="-5.6047890">
        <ele>389.0</ele>
        <time>2020-12-08T10:22:39Z</time>
      </trkpt>
      <trkpt lat="36.5724650" lon="-5.6048000">
        <ele>389.6</ele>
        <time>2020-12-08T10:22:42Z</time>
      </trkpt>
      <trkpt lat="36.5722700" lon="-5.6048230">
        <ele>390.6</ele>
        <time>2020-12-08T10:22:47Z</time>
      </trkpt>
      <trkpt lat="36.5722300" lon="-5.6048300">
        <ele>390.6</ele>
        <time>2020-12-08T10:22:48Z</time>
      </trkpt>
      <trkpt lat="36.5719930" lon="-5.6048700">
        <ele>391.8</ele>
        <time>2020-12-08T10:22:54Z</time>
      </trkpt>
      <trkpt lat="36.5718320" lon="-5.6048770">
        <ele>392.6</ele>
        <time>2020-12-08T10:22:58Z</time>
      </trkpt>
      <trkpt lat="36.5717500" lon="-5.6048680">
        <ele>393.2</ele>
        <time>2020-12-08T10:23:00Z</time>
      </trkpt>
      <trkpt lat="36.5715850" lon="-5.6048180">
        <ele>394.0</ele>
        <time>2020-12-08T10:23:04Z</time>
      </trkpt>
      <trkpt lat="36.5715440" lon="-5.6048010">
        <ele>394.2</ele>
        <time>2020-12-08T10:23:05Z</time>
      </trkpt>
      <trkpt lat="36.5712510" lon="-5.6046160">
        <ele>395.4</ele>
        <time>2020-12-08T10:23:12Z</time>
      </trkpt>
      <trkpt lat="36.5709870" lon="-5.6044170">
        <ele>395.6</ele>
        <time>2020-12-08T10:23:19Z</time>
      </trkpt>
      <trkpt lat="36.5707930" lon="-5.6042620">
        <ele>396.8</ele>
        <time>2020-12-08T10:23:25Z</time>
      </trkpt>
      <trkpt lat="36.5707020" lon="-5.6041850">
        <ele>397.8</ele>
        <time>2020-12-08T10:23:28Z</time>
      </trkpt>
      <trkpt lat="36.5706710" lon="-5.6041590">
        <ele>398.0</ele>
        <time>2020-12-08T10:23:29Z</time>
      </trkpt>
      <trkpt lat="36.5705530" lon="-5.6040570">
        <ele>399.2</ele>
        <time>2020-12-08T10:23:33Z</time>
      </trkpt>
      <trkpt lat="36.5704410" lon="-5.6039550">
        <ele>400.4</ele>
        <time>2020-12-08T10:23:37Z</time>
      </trkpt>
      <trkpt lat="36.5704140" lon="-5.6039230">
        <ele>400.6</ele>
        <time>2020-12-08T10:23:38Z</time>
      </trkpt>
      <trkpt lat="36.5702430" lon="-5.6036550">
        <ele>400.8</ele>
        <time>2020-12-08T10:23:45Z</time>
      </trkpt>
      <trkpt lat="36.5700710" lon="-5.6033150">
        <ele>401.4</ele>
        <time>2020-12-08T10:23:54Z</time>
      </trkpt>
      <trkpt lat="36.5699580" lon="-5.6030930">
        <ele>401.8</ele>
        <time>2020-12-08T10:24:01Z</time>
      </trkpt>
      <trkpt lat="36.5699050" lon="-5.6029900">
        <ele>402.8</ele>
        <time>2020-12-08T10:24:04Z</time>
      </trkpt>
      <trkpt lat="36.5698310" lon="-5.6029030">
        <ele>403.6</ele>
        <time>2020-12-08T10:24:07Z</time>
      </trkpt>
      <trkpt lat="36.5698000" lon="-5.6028850">
        <ele>403.8</ele>
        <time>2020-12-08T10:24:08Z</time>
      </trkpt>
      <trkpt lat="36.5697110" lon="-5.6028760">
        <ele>404.4</ele>
        <time>2020-12-08T10:24:11Z</time>
      </trkpt>
      <trkpt lat="36.5696200" lon="-5.6028970">
        <ele>405.0</ele>
        <time>2020-12-08T10:24:14Z</time>
      </trkpt>
      <trkpt lat="36.5694880" lon="-5.6029480">
        <ele>406.0</ele>
        <time>2020-12-08T10:24:18Z</time>
      </trkpt>
      <trkpt lat="36.5693850" lon="-5.6029840">
        <ele>407.2</ele>
        <time>2020-12-08T10:24:21Z</time>
      </trkpt>
      <trkpt lat="36.5691880" lon="-5.6030630">
        <ele>407.8</ele>
        <time>2020-12-08T10:24:26Z</time>
      </trkpt>
      <trkpt lat="36.5690420" lon="-5.6031100">
        <ele>408.4</ele>
        <time>2020-12-08T10:24:29Z</time>
      </trkpt>
      <trkpt lat="36.5688690" lon="-5.6031500">
        <ele>409.0</ele>
        <time>2020-12-08T10:24:32Z</time>
      </trkpt>
      <trkpt lat="36.5684540" lon="-5.6031490">
        <ele>409.2</ele>
        <time>2020-12-08T10:24:38Z</time>
      </trkpt>
      <trkpt lat="36.5678450" lon="-5.6030160">
        <ele>407.4</ele>
        <time>2020-12-08T10:24:46Z</time>
      </trkpt>
      <trkpt lat="36.5676870" lon="-5.6029480">
        <ele>406.2</ele>
        <time>2020-12-08T10:24:48Z</time>
      </trkpt>
      <trkpt lat="36.5671360" lon="-5.6027130">
        <ele>405.4</ele>
        <time>2020-12-08T10:24:55Z</time>
      </trkpt>
      <trkpt lat="36.5668100" lon="-5.6026200">
        <ele>405.4</ele>
        <time>2020-12-08T10:25:00Z</time>
      </trkpt>
      <trkpt lat="36.5664730" lon="-5.6025980">
        <ele>406.0</ele>
        <time>2020-12-08T10:25:06Z</time>
      </trkpt>
      <trkpt lat="36.5662550" lon="-5.6025930">
        <ele>407.6</ele>
        <time>2020-12-08T10:25:10Z</time>
      </trkpt>
      <trkpt lat="36.5660800" lon="-5.6025960">
        <ele>409.4</ele>
        <time>2020-12-08T10:25:13Z</time>
      </trkpt>
      <trkpt lat="36.5659600" lon="-5.6025980">
        <ele>410.0</ele>
        <time>2020-12-08T10:25:15Z</time>
      </trkpt>
      <trkpt lat="36.5657800" lon="-5.6026020">
        <ele>410.4</ele>
        <time>2020-12-08T10:25:18Z</time>
      </trkpt>
      <trkpt lat="36.5656630" lon="-5.6025850">
        <ele>410.4</ele>
        <time>2020-12-08T10:25:20Z</time>
      </trkpt>
      <trkpt lat="36.5655500" lon="-5.6025420">
        <ele>410.4</ele>
        <time>2020-12-08T10:25:22Z</time>
      </trkpt>
      <trkpt lat="36.5650930" lon="-5.6023030">
        <ele>410.4</ele>
        <time>2020-12-08T10:25:30Z</time>
      </trkpt>
      <trkpt lat="36.5649850" lon="-5.6022560">
        <ele>410.2</ele>
        <time>2020-12-08T10:25:32Z</time>
      </trkpt>
      <trkpt lat="36.5648870" lon="-5.6022640">
        <ele>410.0</ele>
        <time>2020-12-08T10:25:34Z</time>
      </trkpt>
      <trkpt lat="36.5647490" lon="-5.6024000">
        <ele>409.6</ele>
        <time>2020-12-08T10:25:37Z</time>
      </trkpt>
      <trkpt lat="36.5645630" lon="-5.6025810">
        <ele>409.2</ele>
        <time>2020-12-08T10:25:40Z</time>
      </trkpt>
      <trkpt lat="36.5644960" lon="-5.6026450">
        <ele>409.2</ele>
        <time>2020-12-08T10:25:41Z</time>
      </trkpt>
      <trkpt lat="36.5642450" lon="-5.6029070">
        <ele>409.2</ele>
        <time>2020-12-08T10:25:45Z</time>
      </trkpt>
      <trkpt lat="36.5641950" lon="-5.6029930">
        <ele>409.0</ele>
        <time>2020-12-08T10:25:46Z</time>
      </trkpt>
      <trkpt lat="36.5641600" lon="-5.6030950">
        <ele>408.2</ele>
        <time>2020-12-08T10:25:47Z</time>
      </trkpt>
      <trkpt lat="36.5641360" lon="-5.6032090">
        <ele>406.8</ele>
        <time>2020-12-08T10:25:48Z</time>
      </trkpt>
      <trkpt lat="36.5641140" lon="-5.6033320">
        <ele>405.4</ele>
        <time>2020-12-08T10:25:49Z</time>
      </trkpt>
      <trkpt lat="36.5640940" lon="-5.6034590">
        <ele>404.4</ele>
        <time>2020-12-08T10:25:50Z</time>
      </trkpt>
      <trkpt lat="36.5640560" lon="-5.6037020">
        <ele>402.4</ele>
        <time>2020-12-08T10:25:52Z</time>
      </trkpt>
      <trkpt lat="36.5640190" lon="-5.6039190">
        <ele>400.4</ele>
        <time>2020-12-08T10:25:54Z</time>
      </trkpt>
      <trkpt lat="36.5639660" lon="-5.6041180">
        <ele>398.8</ele>
        <time>2020-12-08T10:25:56Z</time>
      </trkpt>
      <trkpt lat="36.5638510" lon="-5.6042880">
        <ele>397.2</ele>
        <time>2020-12-08T10:25:58Z</time>
      </trkpt>
      <trkpt lat="36.5637710" lon="-5.6043660">
        <ele>396.0</ele>
        <time>2020-12-08T10:25:59Z</time>
      </trkpt>
      <trkpt lat="36.5636850" lon="-5.6044400">
        <ele>395.0</ele>
        <time>2020-12-08T10:26:00Z</time>
      </trkpt>
      <trkpt lat="36.5635940" lon="-5.6045130">
        <ele>393.8</ele>
        <time>2020-12-08T10:26:01Z</time>
      </trkpt>
      <trkpt lat="36.5635020" lon="-5.6045870">
        <ele>392.4</ele>
        <time>2020-12-08T10:26:02Z</time>
      </trkpt>
      <trkpt lat="36.5634110" lon="-5.6046650">
        <ele>391.2</ele>
        <time>2020-12-08T10:26:03Z</time>
      </trkpt>
      <trkpt lat="36.5633230" lon="-5.6047480">
        <ele>390.2</ele>
        <time>2020-12-08T10:26:04Z</time>
      </trkpt>
      <trkpt lat="36.5632430" lon="-5.6048380">
        <ele>389.0</ele>
        <time>2020-12-08T10:26:05Z</time>
      </trkpt>
      <trkpt lat="36.5631740" lon="-5.6049360">
        <ele>387.8</ele>
        <time>2020-12-08T10:26:06Z</time>
      </trkpt>
      <trkpt lat="36.5631140" lon="-5.6050470">
        <ele>386.6</ele>
        <time>2020-12-08T10:26:07Z</time>
      </trkpt>
      <trkpt lat="36.5630630" lon="-5.6051670">
        <ele>384.8</ele>
        <time>2020-12-08T10:26:08Z</time>
      </trkpt>
      <trkpt lat="36.5630160" lon="-5.6052900">
        <ele>383.4</ele>
        <time>2020-12-08T10:26:09Z</time>
      </trkpt>
      <trkpt lat="36.5629670" lon="-5.6054130">
        <ele>382.0</ele>
        <time>2020-12-08T10:26:10Z</time>
      </trkpt>
      <trkpt lat="36.5629180" lon="-5.6055360">
        <ele>380.2</ele>
        <time>2020-12-08T10:26:11Z</time>
      </trkpt>
      <trkpt lat="36.5628280" lon="-5.6057710">
        <ele>378.8</ele>
        <time>2020-12-08T10:26:13Z</time>
      </trkpt>
      <trkpt lat="36.5627950" lon="-5.6058800">
        <ele>378.2</ele>
        <time>2020-12-08T10:26:14Z</time>
      </trkpt>
      <trkpt lat="36.5627730" lon="-5.6059780">
        <ele>377.2</ele>
        <time>2020-12-08T10:26:15Z</time>
      </trkpt>
      <trkpt lat="36.5627680" lon="-5.6060670">
        <ele>375.8</ele>
        <time>2020-12-08T10:26:16Z</time>
      </trkpt>
      <trkpt lat="36.5627870" lon="-5.6061480">
        <ele>374.2</ele>
        <time>2020-12-08T10:26:17Z</time>
      </trkpt>
      <trkpt lat="36.5628940" lon="-5.6062560">
        <ele>372.6</ele>
        <time>2020-12-08T10:26:19Z</time>
      </trkpt>
      <trkpt lat="36.5630440" lon="-5.6063090">
        <ele>370.8</ele>
        <time>2020-12-08T10:26:21Z</time>
      </trkpt>
      <trkpt lat="36.5632060" lon="-5.6063740">
        <ele>370.0</ele>
        <time>2020-12-08T10:26:23Z</time>
      </trkpt>
      <trkpt lat="36.5632870" lon="-5.6064210">
        <ele>369.8</ele>
        <time>2020-12-08T10:26:24Z</time>
      </trkpt>
      <trkpt lat="36.5635360" lon="-5.6066030">
        <ele>369.2</ele>
        <time>2020-12-08T10:26:27Z</time>
      </trkpt>
      <trkpt lat="36.5636230" lon="-5.6066690">
        <ele>368.4</ele>
        <time>2020-12-08T10:26:28Z</time>
      </trkpt>
      <trkpt lat="36.5637960" lon="-5.6068110">
        <ele>367.0</ele>
        <time>2020-12-08T10:26:30Z</time>
      </trkpt>
      <trkpt lat="36.5639640" lon="-5.6069700">
        <ele>366.0</ele>
        <time>2020-12-08T10:26:32Z</time>
      </trkpt>
      <trkpt lat="36.5640410" lon="-5.6070610">
        <ele>365.2</ele>
        <time>2020-12-08T10:26:33Z</time>
      </trkpt>
      <trkpt lat="36.5641130" lon="-5.6071600">
        <ele>364.4</ele>
        <time>2020-12-08T10:26:34Z</time>
      </trkpt>
      <trkpt lat="36.5642330" lon="-5.6073820">
        <ele>362.6</ele>
        <time>2020-12-08T10:26:36Z</time>
      </trkpt>
      <trkpt lat="36.5642800" lon="-5.6075010">
        <ele>361.8</ele>
        <time>2020-12-08T10:26:37Z</time>
      </trkpt>
      <trkpt lat="36.5643190" lon="-5.6076230">
        <ele>361.4</ele>
        <time>2020-12-08T10:26:38Z</time>
      </trkpt>
      <trkpt lat="36.5643690" lon="-5.6078700">
        <ele>359.0</ele>
        <time>2020-12-08T10:26:40Z</time>
      </trkpt>
      <trkpt lat="36.5643840" lon="-5.6079920">
        <ele>358.2</ele>
        <time>2020-12-08T10:26:41Z</time>
      </trkpt>
      <trkpt lat="36.5643960" lon="-5.6081120">
        <ele>357.2</ele>
        <time>2020-12-08T10:26:42Z</time>
      </trkpt>
      <trkpt lat="36.5644060" lon="-5.6083650">
        <ele>356.0</ele>
        <time>2020-12-08T10:26:44Z</time>
      </trkpt>
      <trkpt lat="36.5644090" lon="-5.6086410">
        <ele>354.8</ele>
        <time>2020-12-08T10:26:46Z</time>
      </trkpt>
      <trkpt lat="36.5643930" lon="-5.6089360">
        <ele>353.8</ele>
        <time>2020-12-08T10:26:48Z</time>
      </trkpt>
      <trkpt lat="36.5643340" lon="-5.6092370">
        <ele>352.6</ele>
        <time>2020-12-08T10:26:50Z</time>
      </trkpt>
      <trkpt lat="36.5642460" lon="-5.6095240">
        <ele>351.4</ele>
        <time>2020-12-08T10:26:52Z</time>
      </trkpt>
      <trkpt lat="36.5641990" lon="-5.6096630">
        <ele>350.2</ele>
        <time>2020-12-08T10:26:53Z</time>
      </trkpt>
      <trkpt lat="36.5641510" lon="-5.6098000">
        <ele>349.0</ele>
        <time>2020-12-08T10:26:54Z</time>
      </trkpt>
      <trkpt lat="36.5641050" lon="-5.6099350">
        <ele>347.4</ele>
        <time>2020-12-08T10:26:55Z</time>
      </trkpt>
      <trkpt lat="36.5640590" lon="-5.6100690">
        <ele>345.6</ele>
        <time>2020-12-08T10:26:56Z</time>
      </trkpt>
      <trkpt lat="36.5640130" lon="-5.6101990">
        <ele>344.0</ele>
        <time>2020-12-08T10:26:57Z</time>
      </trkpt>
      <trkpt lat="36.5639670" lon="-5.6103260">
        <ele>343.0</ele>
        <time>2020-12-08T10:26:58Z</time>
      </trkpt>
      <trkpt lat="36.5638750" lon="-5.6105750">
        <ele>341.2</ele>
        <time>2020-12-08T10:27:00Z</time>
      </trkpt>
      <trkpt lat="36.5637190" lon="-5.6109390">
        <ele>340.2</ele>
        <time>2020-12-08T10:27:03Z</time>
      </trkpt>
      <trkpt lat="36.5635060" lon="-5.6114460">
        <ele>339.2</ele>
        <time>2020-12-08T10:27:07Z</time>
      </trkpt>
      <trkpt lat="36.5634750" lon="-5.6115840">
        <ele>339.0</ele>
        <time>2020-12-08T10:27:08Z</time>
      </trkpt>
      <trkpt lat="36.5634740" lon="-5.6118640">
        <ele>338.0</ele>
        <time>2020-12-08T10:27:10Z</time>
      </trkpt>
      <trkpt lat="36.5634950" lon="-5.6119990">
        <ele>337.4</ele>
        <time>2020-12-08T10:27:11Z</time>
      </trkpt>
      <trkpt lat="36.5635210" lon="-5.6121330">
        <ele>336.8</ele>
        <time>2020-12-08T10:27:12Z</time>
      </trkpt>
      <trkpt lat="36.5635780" lon="-5.6123980">
        <ele>335.2</ele>
        <time>2020-12-08T10:27:14Z</time>
      </trkpt>
      <trkpt lat="36.5636190" lon="-5.6126450">
        <ele>333.8</ele>
        <time>2020-12-08T10:27:16Z</time>
      </trkpt>
      <trkpt lat="36.5636240" lon="-5.6127630">
        <ele>333.4</ele>
        <time>2020-12-08T10:27:17Z</time>
      </trkpt>
      <trkpt lat="36.5635650" lon="-5.6129710">
        <ele>332.8</ele>
        <time>2020-12-08T10:27:19Z</time>
      </trkpt>
      <trkpt lat="36.5635010" lon="-5.6130430">
        <ele>332.8</ele>
        <time>2020-12-08T10:27:20Z</time>
      </trkpt>
      <trkpt lat="36.5633450" lon="-5.6131310">
        <ele>332.6</ele>
        <time>2020-12-08T10:27:22Z</time>
      </trkpt>
      <trkpt lat="36.5632610" lon="-5.6131580">
        <ele>332.6</ele>
        <time>2020-12-08T10:27:23Z</time>
      </trkpt>
      <trkpt lat="36.5629020" lon="-5.6132030">
        <ele>332.4</ele>
        <time>2020-12-08T10:27:27Z</time>
      </trkpt>
      <trkpt lat="36.5626260" lon="-5.6131800">
        <ele>332.2</ele>
        <time>2020-12-08T10:27:30Z</time>
      </trkpt>
      <trkpt lat="36.5625370" lon="-5.6131940">
        <ele>332.0</ele>
        <time>2020-12-08T10:27:31Z</time>
      </trkpt>
      <trkpt lat="36.5623630" lon="-5.6133640">
        <ele>332.0</ele>
        <time>2020-12-08T10:27:34Z</time>
      </trkpt>
      <trkpt lat="36.5623530" lon="-5.6134590">
        <ele>331.8</ele>
        <time>2020-12-08T10:27:35Z</time>
      </trkpt>
      <trkpt lat="36.5623690" lon="-5.6135600">
        <ele>331.6</ele>
        <time>2020-12-08T10:27:36Z</time>
      </trkpt>
      <trkpt lat="36.5624390" lon="-5.6137680">
        <ele>330.6</ele>
        <time>2020-12-08T10:27:38Z</time>
      </trkpt>
      <trkpt lat="36.5625170" lon="-5.6139730">
        <ele>329.4</ele>
        <time>2020-12-08T10:27:40Z</time>
      </trkpt>
      <trkpt lat="36.5625800" lon="-5.6141900">
        <ele>327.8</ele>
        <time>2020-12-08T10:27:42Z</time>
      </trkpt>
      <trkpt lat="36.5625960" lon="-5.6144200">
        <ele>326.0</ele>
        <time>2020-12-08T10:27:44Z</time>
      </trkpt>
      <trkpt lat="36.5625800" lon="-5.6145330">
        <ele>324.6</ele>
        <time>2020-12-08T10:27:45Z</time>
      </trkpt>
      <trkpt lat="36.5625520" lon="-5.6146480">
        <ele>323.0</ele>
        <time>2020-12-08T10:27:46Z</time>
      </trkpt>
      <trkpt lat="36.5625230" lon="-5.6147650">
        <ele>321.4</ele>
        <time>2020-12-08T10:27:47Z</time>
      </trkpt>
      <trkpt lat="36.5624560" lon="-5.6150060">
        <ele>320.0</ele>
        <time>2020-12-08T10:27:49Z</time>
      </trkpt>
      <trkpt lat="36.5624290" lon="-5.6151350">
        <ele>319.6</ele>
        <time>2020-12-08T10:27:50Z</time>
      </trkpt>
      <trkpt lat="36.5624000" lon="-5.6154070">
        <ele>318.8</ele>
        <time>2020-12-08T10:27:52Z</time>
      </trkpt>
      <trkpt lat="36.5623840" lon="-5.6156890">
        <ele>317.2</ele>
        <time>2020-12-08T10:27:54Z</time>
      </trkpt>
      <trkpt lat="36.5623580" lon="-5.6159810">
        <ele>315.6</ele>
        <time>2020-12-08T10:27:56Z</time>
      </trkpt>
      <trkpt lat="36.5623120" lon="-5.6162770">
        <ele>314.2</ele>
        <time>2020-12-08T10:27:58Z</time>
      </trkpt>
      <trkpt lat="36.5622840" lon="-5.6164300">
        <ele>313.2</ele>
        <time>2020-12-08T10:27:59Z</time>
      </trkpt>
      <trkpt lat="36.5622570" lon="-5.6165850">
        <ele>311.6</ele>
        <time>2020-12-08T10:28:00Z</time>
      </trkpt>
      <trkpt lat="36.5622280" lon="-5.6167370">
        <ele>310.2</ele>
        <time>2020-12-08T10:28:01Z</time>
      </trkpt>
      <trkpt lat="36.5621700" lon="-5.6170220">
        <ele>308.8</ele>
        <time>2020-12-08T10:28:03Z</time>
      </trkpt>
      <trkpt lat="36.5621360" lon="-5.6171580">
        <ele>308.0</ele>
        <time>2020-12-08T10:28:04Z</time>
      </trkpt>
      <trkpt lat="36.5620910" lon="-5.6172870">
        <ele>306.4</ele>
        <time>2020-12-08T10:28:05Z</time>
      </trkpt>
      <trkpt lat="36.5620310" lon="-5.6174090">
        <ele>304.2</ele>
        <time>2020-12-08T10:28:06Z</time>
      </trkpt>
      <trkpt lat="36.5619600" lon="-5.6175270">
        <ele>303.2</ele>
        <time>2020-12-08T10:28:07Z</time>
      </trkpt>
      <trkpt lat="36.5618850" lon="-5.6176440">
        <ele>302.0</ele>
        <time>2020-12-08T10:28:08Z</time>
      </trkpt>
      <trkpt lat="36.5618160" lon="-5.6177670">
        <ele>301.4</ele>
        <time>2020-12-08T10:28:09Z</time>
      </trkpt>
      <trkpt lat="36.5617590" lon="-5.6179010">
        <ele>300.4</ele>
        <time>2020-12-08T10:28:10Z</time>
      </trkpt>
      <trkpt lat="36.5617160" lon="-5.6180450">
        <ele>298.8</ele>
        <time>2020-12-08T10:28:11Z</time>
      </trkpt>
      <trkpt lat="36.5616860" lon="-5.6181930">
        <ele>297.8</ele>
        <time>2020-12-08T10:28:12Z</time>
      </trkpt>
      <trkpt lat="36.5616700" lon="-5.6183380">
        <ele>296.2</ele>
        <time>2020-12-08T10:28:13Z</time>
      </trkpt>
      <trkpt lat="36.5616660" lon="-5.6184790">
        <ele>295.0</ele>
        <time>2020-12-08T10:28:14Z</time>
      </trkpt>
      <trkpt lat="36.5616630" lon="-5.6186160">
        <ele>293.8</ele>
        <time>2020-12-08T10:28:15Z</time>
      </trkpt>
      <trkpt lat="36.5616480" lon="-5.6187470">
        <ele>292.4</ele>
        <time>2020-12-08T10:28:16Z</time>
      </trkpt>
      <trkpt lat="36.5616220" lon="-5.6188740">
        <ele>291.2</ele>
        <time>2020-12-08T10:28:17Z</time>
      </trkpt>
      <trkpt lat="36.5615890" lon="-5.6189960">
        <ele>290.2</ele>
        <time>2020-12-08T10:28:18Z</time>
      </trkpt>
      <trkpt lat="36.5615480" lon="-5.6191130">
        <ele>289.0</ele>
        <time>2020-12-08T10:28:19Z</time>
      </trkpt>
      <trkpt lat="36.5615010" lon="-5.6192250">
        <ele>287.4</ele>
        <time>2020-12-08T10:28:20Z</time>
      </trkpt>
      <trkpt lat="36.5614500" lon="-5.6193330">
        <ele>286.4</ele>
        <time>2020-12-08T10:28:21Z</time>
      </trkpt>
      <trkpt lat="36.5613410" lon="-5.6195480">
        <ele>285.0</ele>
        <time>2020-12-08T10:28:23Z</time>
      </trkpt>
      <trkpt lat="36.5612780" lon="-5.6196480">
        <ele>284.8</ele>
        <time>2020-12-08T10:28:24Z</time>
      </trkpt>
      <trkpt lat="36.5611260" lon="-5.6198110">
        <ele>284.6</ele>
        <time>2020-12-08T10:28:26Z</time>
      </trkpt>
      <trkpt lat="36.5607190" lon="-5.6201580">
        <ele>284.0</ele>
        <time>2020-12-08T10:28:31Z</time>
      </trkpt>
      <trkpt lat="36.5605510" lon="-5.6204710">
        <ele>283.4</ele>
        <time>2020-12-08T10:28:34Z</time>
      </trkpt>
      <trkpt lat="36.5604780" lon="-5.6207120">
        <ele>283.0</ele>
        <time>2020-12-08T10:28:36Z</time>
      </trkpt>
      <trkpt lat="36.5604400" lon="-5.6208310">
        <ele>282.8</ele>
        <time>2020-12-08T10:28:37Z</time>
      </trkpt>
      <trkpt lat="36.5603930" lon="-5.6209420">
        <ele>282.4</ele>
        <time>2020-12-08T10:28:38Z</time>
      </trkpt>
      <trkpt lat="36.5603360" lon="-5.6210480">
        <ele>282.0</ele>
        <time>2020-12-08T10:28:39Z</time>
      </trkpt>
      <trkpt lat="36.5602100" lon="-5.6212580">
        <ele>280.6</ele>
        <time>2020-12-08T10:28:41Z</time>
      </trkpt>
      <trkpt lat="36.5600760" lon="-5.6214720">
        <ele>279.8</ele>
        <time>2020-12-08T10:28:43Z</time>
      </trkpt>
      <trkpt lat="36.5600070" lon="-5.6215780">
        <ele>279.6</ele>
        <time>2020-12-08T10:28:44Z</time>
      </trkpt>
      <trkpt lat="36.5598070" lon="-5.6219060">
        <ele>278.4</ele>
        <time>2020-12-08T10:28:47Z</time>
      </trkpt>
      <trkpt lat="36.5596770" lon="-5.6221190">
        <ele>277.4</ele>
        <time>2020-12-08T10:28:49Z</time>
      </trkpt>
      <trkpt lat="36.5595360" lon="-5.6223010">
        <ele>276.4</ele>
        <time>2020-12-08T10:28:51Z</time>
      </trkpt>
      <trkpt lat="36.5594530" lon="-5.6223690">
        <ele>275.4</ele>
        <time>2020-12-08T10:28:52Z</time>
      </trkpt>
      <trkpt lat="36.5593650" lon="-5.6224160">
        <ele>274.6</ele>
        <time>2020-12-08T10:28:53Z</time>
      </trkpt>
      <trkpt lat="36.5591860" lon="-5.6224490">
        <ele>273.4</ele>
        <time>2020-12-08T10:28:55Z</time>
      </trkpt>
      <trkpt lat="36.5590970" lon="-5.6224490">
        <ele>273.2</ele>
        <time>2020-12-08T10:28:56Z</time>
      </trkpt>
      <trkpt lat="36.5588440" lon="-5.6224660">
        <ele>272.6</ele>
        <time>2020-12-08T10:28:59Z</time>
      </trkpt>
      <trkpt lat="36.5587660" lon="-5.6224930">
        <ele>272.4</ele>
        <time>2020-12-08T10:29:00Z</time>
      </trkpt>
      <trkpt lat="36.5586930" lon="-5.6225360">
        <ele>272.4</ele>
        <time>2020-12-08T10:29:01Z</time>
      </trkpt>
      <trkpt lat="36.5585580" lon="-5.6226590">
        <ele>272.2</ele>
        <time>2020-12-08T10:29:03Z</time>
      </trkpt>
      <trkpt lat="36.5584940" lon="-5.6227260">
        <ele>272.2</ele>
        <time>2020-12-08T10:29:04Z</time>
      </trkpt>
      <trkpt lat="36.5581460" lon="-5.6231640">
        <ele>271.6</ele>
        <time>2020-12-08T10:29:10Z</time>
      </trkpt>
      <trkpt lat="36.5580870" lon="-5.6232300">
        <ele>271.6</ele>
        <time>2020-12-08T10:29:11Z</time>
      </trkpt>
      <trkpt lat="36.5578870" lon="-5.6233940">
        <ele>271.4</ele>
        <time>2020-12-08T10:29:14Z</time>
      </trkpt>
      <trkpt lat="36.5576140" lon="-5.6236070">
        <ele>271.2</ele>
        <time>2020-12-08T10:29:18Z</time>
      </trkpt>
      <trkpt lat="36.5575580" lon="-5.6236690">
        <ele>271.0</ele>
        <time>2020-12-08T10:29:19Z</time>
      </trkpt>
      <trkpt lat="36.5574640" lon="-5.6239130">
        <ele>271.0</ele>
        <time>2020-12-08T10:29:22Z</time>
      </trkpt>
      <trkpt lat="36.5574520" lon="-5.6239990">
        <ele>271.0</ele>
        <time>2020-12-08T10:29:23Z</time>
      </trkpt>
      <trkpt lat="36.5573900" lon="-5.6244010">
        <ele>271.4</ele>
        <time>2020-12-08T10:29:28Z</time>
      </trkpt>
      <trkpt lat="36.5572520" lon="-5.6246900">
        <ele>271.8</ele>
        <time>2020-12-08T10:29:32Z</time>
      </trkpt>
      <trkpt lat="36.5572090" lon="-5.6247620">
        <ele>271.8</ele>
        <time>2020-12-08T10:29:33Z</time>
      </trkpt>
      <trkpt lat="36.5571320" lon="-5.6249240">
        <ele>271.8</ele>
        <time>2020-12-08T10:29:35Z</time>
      </trkpt>
      <trkpt lat="36.5570990" lon="-5.6251130">
        <ele>271.8</ele>
        <time>2020-12-08T10:29:37Z</time>
      </trkpt>
      <trkpt lat="36.5571850" lon="-5.6253830">
        <ele>271.8</ele>
        <time>2020-12-08T10:29:40Z</time>
      </trkpt>
      <trkpt lat="36.5573110" lon="-5.6255340">
        <ele>271.6</ele>
        <time>2020-12-08T10:29:42Z</time>
      </trkpt>
      <trkpt lat="36.5574970" lon="-5.6257860">
        <ele>270.4</ele>
        <time>2020-12-08T10:29:45Z</time>
      </trkpt>
      <trkpt lat="36.5575760" lon="-5.6260090">
        <ele>270.0</ele>
        <time>2020-12-08T10:29:47Z</time>
      </trkpt>
      <trkpt lat="36.5576010" lon="-5.6261280">
        <ele>270.0</ele>
        <time>2020-12-08T10:29:48Z</time>
      </trkpt>
      <trkpt lat="36.5576340" lon="-5.6263760">
        <ele>268.8</ele>
        <time>2020-12-08T10:29:50Z</time>
      </trkpt>
      <trkpt lat="36.5576630" lon="-5.6266230">
        <ele>267.8</ele>
        <time>2020-12-08T10:29:52Z</time>
      </trkpt>
      <trkpt lat="36.5576740" lon="-5.6267430">
        <ele>267.4</ele>
        <time>2020-12-08T10:29:53Z</time>
      </trkpt>
      <trkpt lat="36.5576820" lon="-5.6268600">
        <ele>266.8</ele>
        <time>2020-12-08T10:29:54Z</time>
      </trkpt>
      <trkpt lat="36.5576970" lon="-5.6270880">
        <ele>265.6</ele>
        <time>2020-12-08T10:29:56Z</time>
      </trkpt>
      <trkpt lat="36.5577220" lon="-5.6273180">
        <ele>264.4</ele>
        <time>2020-12-08T10:29:58Z</time>
      </trkpt>
      <trkpt lat="36.5577360" lon="-5.6274330">
        <ele>264.2</ele>
        <time>2020-12-08T10:29:59Z</time>
      </trkpt>
      <trkpt lat="36.5577800" lon="-5.6277690">
        <ele>263.0</ele>
        <time>2020-12-08T10:30:02Z</time>
      </trkpt>
      <trkpt lat="36.5578210" lon="-5.6279560">
        <ele>262.6</ele>
        <time>2020-12-08T10:30:04Z</time>
      </trkpt>
      <trkpt lat="36.5578910" lon="-5.6283270">
        <ele>262.4</ele>
        <time>2020-12-08T10:30:09Z</time>
      </trkpt>
      <trkpt lat="36.5579000" lon="-5.6285710">
        <ele>262.8</ele>
        <time>2020-12-08T10:30:13Z</time>
      </trkpt>
      <trkpt lat="36.5578820" lon="-5.6286840">
        <ele>264.6</ele>
        <time>2020-12-08T10:30:15Z</time>
      </trkpt>
      <trkpt lat="36.5578520" lon="-5.6287870">
        <ele>265.6</ele>
        <time>2020-12-08T10:30:17Z</time>
      </trkpt>
      <trkpt lat="36.5578330" lon="-5.6288360">
        <ele>265.8</ele>
        <time>2020-12-08T10:30:18Z</time>
      </trkpt>
      <trkpt lat="36.5577680" lon="-5.6289790">
        <ele>266.6</ele>
        <time>2020-12-08T10:30:21Z</time>
      </trkpt>
      <trkpt lat="36.5575550" lon="-5.6293240">
        <ele>267.8</ele>
        <time>2020-12-08T10:30:28Z</time>
      </trkpt>
      <trkpt lat="36.5575210" lon="-5.6293760">
        <ele>268.2</ele>
        <time>2020-12-08T10:30:29Z</time>
      </trkpt>
      <trkpt lat="36.5572820" lon="-5.6298270">
        <ele>269.2</ele>
        <time>2020-12-08T10:30:37Z</time>
      </trkpt>
      <trkpt lat="36.5571280" lon="-5.6301820">
        <ele>269.2</ele>
        <time>2020-12-08T10:30:43Z</time>
      </trkpt>
      <trkpt lat="36.5570630" lon="-5.6302950">
        <ele>269.2</ele>
        <time>2020-12-08T10:30:45Z</time>
      </trkpt>
      <trkpt lat="36.5567920" lon="-5.6306790">
        <ele>268.8</ele>
        <time>2020-12-08T10:30:52Z</time>
      </trkpt>
      <trkpt lat="36.5566500" lon="-5.6310130">
        <ele>268.6</ele>
        <time>2020-12-08T10:30:57Z</time>
      </trkpt>
      <trkpt lat="36.5565300" lon="-5.6314630">
        <ele>268.4</ele>
        <time>2020-12-08T10:31:04Z</time>
      </trkpt>
      <trkpt lat="36.5563940" lon="-5.6318730">
        <ele>269.6</ele>
        <time>2020-12-08T10:31:12Z</time>
      </trkpt>
      <trkpt lat="36.5563240" lon="-5.6320230">
        <ele>270.4</ele>
        <time>2020-12-08T10:31:15Z</time>
      </trkpt>
      <trkpt lat="36.5563050" lon="-5.6320770">
        <ele>270.8</ele>
        <time>2020-12-08T10:31:16Z</time>
      </trkpt>
      <trkpt lat="36.5562830" lon="-5.6321920">
        <ele>271.2</ele>
        <time>2020-12-08T10:31:18Z</time>
      </trkpt>
      <trkpt lat="36.5562850" lon="-5.6322500">
        <ele>271.4</ele>
        <time>2020-12-08T10:31:19Z</time>
      </trkpt>
      <trkpt lat="36.5563320" lon="-5.6324060">
        <ele>272.4</ele>
        <time>2020-12-08T10:31:22Z</time>
      </trkpt>
      <trkpt lat="36.5563510" lon="-5.6324490">
        <ele>272.8</ele>
        <time>2020-12-08T10:31:23Z</time>
      </trkpt>
      <trkpt lat="36.5564180" lon="-5.6325900">
        <ele>273.4</ele>
        <time>2020-12-08T10:31:27Z</time>
      </trkpt>
      <trkpt lat="36.5564310" lon="-5.6326610">
        <ele>273.6</ele>
        <time>2020-12-08T10:31:29Z</time>
      </trkpt>
      <trkpt lat="36.5564170" lon="-5.6327680">
        <ele>274.8</ele>
        <time>2020-12-08T10:31:32Z</time>
      </trkpt>
      <trkpt lat="36.5563410" lon="-5.6328880">
        <ele>276.0</ele>
        <time>2020-12-08T10:31:36Z</time>
      </trkpt>
      <trkpt lat="36.5562950" lon="-5.6329440">
        <ele>276.8</ele>
        <time>2020-12-08T10:31:38Z</time>
      </trkpt>
      <trkpt lat="36.5562720" lon="-5.6329720">
        <ele>277.2</ele>
        <time>2020-12-08T10:31:39Z</time>
      </trkpt>
      <trkpt lat="36.5561800" lon="-5.6330750">
        <ele>278.4</ele>
        <time>2020-12-08T10:31:43Z</time>
      </trkpt>
      <trkpt lat="36.5561150" lon="-5.6331410">
        <ele>278.8</ele>
        <time>2020-12-08T10:31:46Z</time>
      </trkpt>
      <trkpt lat="36.5560250" lon="-5.6332240">
        <ele>279.6</ele>
        <time>2020-12-08T10:31:50Z</time>
      </trkpt>
      <trkpt lat="36.5559560" lon="-5.6332910">
        <ele>280.6</ele>
        <time>2020-12-08T10:31:53Z</time>
      </trkpt>
      <trkpt lat="36.5558870" lon="-5.6333590">
        <ele>282.0</ele>
        <time>2020-12-08T10:31:56Z</time>
      </trkpt>
      <trkpt lat="36.5558640" lon="-5.6333810">
        <ele>282.4</ele>
        <time>2020-12-08T10:31:57Z</time>
      </trkpt>
      <trkpt lat="36.5557510" lon="-5.6334930">
        <ele>283.2</ele>
        <time>2020-12-08T10:32:02Z</time>
      </trkpt>
      <trkpt lat="36.5556760" lon="-5.6335930">
        <ele>284.2</ele>
        <time>2020-12-08T10:32:06Z</time>
      </trkpt>
      <trkpt lat="36.5556590" lon="-5.6336190">
        <ele>284.2</ele>
        <time>2020-12-08T10:32:07Z</time>
      </trkpt>
      <trkpt lat="36.5555160" lon="-5.6338280">
        <ele>285.0</ele>
        <time>2020-12-08T10:32:15Z</time>
      </trkpt>
      <trkpt lat="36.5554960" lon="-5.6338490">
        <ele>285.2</ele>
        <time>2020-12-08T10:32:16Z</time>
      </trkpt>
      <trkpt lat="36.5554270" lon="-5.6339050">
        <ele>286.6</ele>
        <time>2020-12-08T10:32:19Z</time>
      </trkpt>
      <trkpt lat="36.5553760" lon="-5.6339350">
        <ele>287.6</ele>
        <time>2020-12-08T10:32:21Z</time>
      </trkpt>
      <trkpt lat="36.5553510" lon="-5.6339510">
        <ele>288.0</ele>
        <time>2020-12-08T10:32:22Z</time>
      </trkpt>
      <trkpt lat="36.5552750" lon="-5.6340030">
        <ele>288.8</ele>
        <time>2020-12-08T10:32:25Z</time>
      </trkpt>
      <trkpt lat="36.5551670" lon="-5.6340470">
        <ele>289.8</ele>
        <time>2020-12-08T10:32:29Z</time>
      </trkpt>
      <trkpt lat="36.5550000" lon="-5.6341020">
        <ele>291.2</ele>
        <time>2020-12-08T10:32:35Z</time>
      </trkpt>
      <trkpt lat="36.5549460" lon="-5.6341160">
        <ele>292.2</ele>
        <time>2020-12-08T10:32:37Z</time>
      </trkpt>
      <trkpt lat="36.5548420" lon="-5.6341470">
        <ele>293.4</ele>
        <time>2020-12-08T10:32:41Z</time>
      </trkpt>
      <trkpt lat="36.5547190" lon="-5.6341990">
        <ele>294.6</ele>
        <time>2020-12-08T10:32:46Z</time>
      </trkpt>
      <trkpt lat="36.5546960" lon="-5.6342150">
        <ele>294.8</ele>
        <time>2020-12-08T10:32:47Z</time>
      </trkpt>
      <trkpt lat="36.5545880" lon="-5.6342890">
        <ele>296.0</ele>
        <time>2020-12-08T10:32:52Z</time>
      </trkpt>
      <trkpt lat="36.5545470" lon="-5.6343180">
        <ele>297.2</ele>
        <time>2020-12-08T10:32:54Z</time>
      </trkpt>
      <trkpt lat="36.5544600" lon="-5.6343780">
        <ele>298.2</ele>
        <time>2020-12-08T10:32:58Z</time>
      </trkpt>
      <trkpt lat="36.5544370" lon="-5.6343930">
        <ele>298.2</ele>
        <time>2020-12-08T10:32:59Z</time>
      </trkpt>
      <trkpt lat="36.5542720" lon="-5.6344870">
        <ele>298.6</ele>
        <time>2020-12-08T10:33:06Z</time>
      </trkpt>
      <trkpt lat="36.5542020" lon="-5.6345260">
        <ele>299.2</ele>
        <time>2020-12-08T10:33:09Z</time>
      </trkpt>
      <trkpt lat="36.5540800" lon="-5.6345760">
        <ele>300.4</ele>
        <time>2020-12-08T10:33:14Z</time>
      </trkpt>
      <trkpt lat="36.5540560" lon="-5.6345900">
        <ele>300.6</ele>
        <time>2020-12-08T10:33:15Z</time>
      </trkpt>
      <trkpt lat="36.5539140" lon="-5.6347120">
        <ele>301.6</ele>
        <time>2020-12-08T10:33:21Z</time>
      </trkpt>
      <trkpt lat="36.5538790" lon="-5.6347670">
        <ele>302.0</ele>
        <time>2020-12-08T10:33:23Z</time>
      </trkpt>
      <trkpt lat="36.5537820" lon="-5.6349190">
        <ele>303.0</ele>
        <time>2020-12-08T10:33:29Z</time>
      </trkpt>
      <trkpt lat="36.5537330" lon="-5.6349880">
        <ele>304.2</ele>
        <time>2020-12-08T10:33:32Z</time>
      </trkpt>
      <trkpt lat="36.5536350" lon="-5.6351290">
        <ele>305.2</ele>
        <time>2020-12-08T10:33:38Z</time>
      </trkpt>
      <trkpt lat="36.5536000" lon="-5.6351760">
        <ele>305.6</ele>
        <time>2020-12-08T10:33:40Z</time>
      </trkpt>
      <trkpt lat="36.5534950" lon="-5.6353480">
        <ele>306.4</ele>
        <time>2020-12-08T10:33:47Z</time>
      </trkpt>
      <trkpt lat="36.5534650" lon="-5.6353990">
        <ele>306.6</ele>
        <time>2020-12-08T10:33:49Z</time>
      </trkpt>
      <trkpt lat="36.5534050" lon="-5.6354930">
        <ele>307.4</ele>
        <time>2020-12-08T10:33:53Z</time>
      </trkpt>
      <trkpt lat="36.5533410" lon="-5.6355840">
        <ele>308.6</ele>
        <time>2020-12-08T10:33:57Z</time>
      </trkpt>
      <trkpt lat="36.5533100" lon="-5.6356270">
        <ele>309.4</ele>
        <time>2020-12-08T10:33:59Z</time>
      </trkpt>
      <trkpt lat="36.5532660" lon="-5.6356900">
        <ele>309.8</ele>
        <time>2020-12-08T10:34:02Z</time>
      </trkpt>
      <trkpt lat="36.5532210" lon="-5.6357490">
        <ele>311.0</ele>
        <time>2020-12-08T10:34:05Z</time>
      </trkpt>
      <trkpt lat="36.5531690" lon="-5.6358020">
        <ele>312.0</ele>
        <time>2020-12-08T10:34:08Z</time>
      </trkpt>
      <trkpt lat="36.5531510" lon="-5.6358200">
        <ele>312.4</ele>
        <time>2020-12-08T10:34:09Z</time>
      </trkpt>
      <trkpt lat="36.5530920" lon="-5.6358700">
        <ele>313.4</ele>
        <time>2020-12-08T10:34:12Z</time>
      </trkpt>
      <trkpt lat="36.5529700" lon="-5.6359350">
        <ele>314.4</ele>
        <time>2020-12-08T10:34:17Z</time>
      </trkpt>
      <trkpt lat="36.5529440" lon="-5.6359480">
        <ele>314.8</ele>
        <time>2020-12-08T10:34:18Z</time>
      </trkpt>
      <trkpt lat="36.5528910" lon="-5.6359690">
        <ele>316.0</ele>
        <time>2020-12-08T10:34:20Z</time>
      </trkpt>
      <trkpt lat="36.5527660" lon="-5.6360020">
        <ele>317.0</ele>
        <time>2020-12-08T10:34:25Z</time>
      </trkpt>
      <trkpt lat="36.5527400" lon="-5.6360110">
        <ele>317.2</ele>
        <time>2020-12-08T10:34:26Z</time>
      </trkpt>
      <trkpt lat="36.5526110" lon="-5.6360620">
        <ele>318.2</ele>
        <time>2020-12-08T10:34:31Z</time>
      </trkpt>
      <trkpt lat="36.5525020" lon="-5.6360980">
        <ele>319.4</ele>
        <time>2020-12-08T10:34:35Z</time>
      </trkpt>
      <trkpt lat="36.5524750" lon="-5.6361080">
        <ele>319.6</ele>
        <time>2020-12-08T10:34:36Z</time>
      </trkpt>
      <trkpt lat="36.5523650" lon="-5.6361480">
        <ele>320.4</ele>
        <time>2020-12-08T10:34:40Z</time>
      </trkpt>
      <trkpt lat="36.5521880" lon="-5.6361750">
        <ele>321.6</ele>
        <time>2020-12-08T10:34:46Z</time>
      </trkpt>
      <trkpt lat="36.5521570" lon="-5.6361790">
        <ele>321.8</ele>
        <time>2020-12-08T10:34:47Z</time>
      </trkpt>
      <trkpt lat="36.5520340" lon="-5.6362100">
        <ele>322.6</ele>
        <time>2020-12-08T10:34:51Z</time>
      </trkpt>
      <trkpt lat="36.5518360" lon="-5.6362650">
        <ele>323.8</ele>
        <time>2020-12-08T10:34:58Z</time>
      </trkpt>
      <trkpt lat="36.5516540" lon="-5.6363310">
        <ele>325.0</ele>
        <time>2020-12-08T10:35:05Z</time>
      </trkpt>
      <trkpt lat="36.5515930" lon="-5.6363490">
        <ele>325.6</ele>
        <time>2020-12-08T10:35:07Z</time>
      </trkpt>
      <trkpt lat="36.5515310" lon="-5.6363670">
        <ele>326.0</ele>
        <time>2020-12-08T10:35:09Z</time>
      </trkpt>
      <trkpt lat="36.5512890" lon="-5.6364480">
        <ele>327.0</ele>
        <time>2020-12-08T10:35:17Z</time>
      </trkpt>
      <trkpt lat="36.5512580" lon="-5.6364610">
        <ele>327.2</ele>
        <time>2020-12-08T10:35:18Z</time>
      </trkpt>
      <trkpt lat="36.5510760" lon="-5.6365530">
        <ele>328.0</ele>
        <time>2020-12-08T10:35:24Z</time>
      </trkpt>
      <trkpt lat="36.5509380" lon="-5.6366200">
        <ele>328.8</ele>
        <time>2020-12-08T10:35:29Z</time>
      </trkpt>
      <trkpt lat="36.5508400" lon="-5.6366760">
        <ele>329.4</ele>
        <time>2020-12-08T10:35:33Z</time>
      </trkpt>
      <trkpt lat="36.5507690" lon="-5.6367030">
        <ele>330.8</ele>
        <time>2020-12-08T10:35:36Z</time>
      </trkpt>
      <trkpt lat="36.5507470" lon="-5.6367090">
        <ele>331.2</ele>
        <time>2020-12-08T10:35:37Z</time>
      </trkpt>
      <trkpt lat="36.5507000" lon="-5.6367220">
        <ele>331.8</ele>
        <time>2020-12-08T10:35:39Z</time>
      </trkpt>
      <trkpt lat="36.5505860" lon="-5.6367750">
        <ele>333.2</ele>
        <time>2020-12-08T10:35:44Z</time>
      </trkpt>
      <trkpt lat="36.5504970" lon="-5.6368120">
        <ele>334.4</ele>
        <time>2020-12-08T10:35:48Z</time>
      </trkpt>
      <trkpt lat="36.5504270" lon="-5.6368370">
        <ele>335.4</ele>
        <time>2020-12-08T10:35:51Z</time>
      </trkpt>
      <trkpt lat="36.5503290" lon="-5.6368660">
        <ele>336.8</ele>
        <time>2020-12-08T10:35:55Z</time>
      </trkpt>
      <trkpt lat="36.5502250" lon="-5.6368950">
        <ele>337.8</ele>
        <time>2020-12-08T10:35:59Z</time>
      </trkpt>
      <trkpt lat="36.5501350" lon="-5.6369090">
        <ele>338.8</ele>
        <time>2020-12-08T10:36:02Z</time>
      </trkpt>
      <trkpt lat="36.5500150" lon="-5.6369340">
        <ele>339.8</ele>
        <time>2020-12-08T10:36:06Z</time>
      </trkpt>
      <trkpt lat="36.5499250" lon="-5.6369450">
        <ele>341.2</ele>
        <time>2020-12-08T10:36:09Z</time>
      </trkpt>
      <trkpt lat="36.5497750" lon="-5.6369650">
        <ele>342.4</ele>
        <time>2020-12-08T10:36:14Z</time>
      </trkpt>
      <trkpt lat="36.5496550" lon="-5.6369820">
        <ele>343.6</ele>
        <time>2020-12-08T10:36:18Z</time>
      </trkpt>
      <trkpt lat="36.5495570" lon="-5.6369880">
        <ele>344.6</ele>
        <time>2020-12-08T10:36:21Z</time>
      </trkpt>
      <trkpt lat="36.5494610" lon="-5.6370000">
        <ele>345.0</ele>
        <time>2020-12-08T10:36:24Z</time>
      </trkpt>
      <trkpt lat="36.5491530" lon="-5.6370230">
        <ele>345.4</ele>
        <time>2020-12-08T10:36:33Z</time>
      </trkpt>
      <trkpt lat="36.5490140" lon="-5.6369810">
        <ele>345.4</ele>
        <time>2020-12-08T10:36:36Z</time>
      </trkpt>
      <trkpt lat="36.5489180" lon="-5.6369350">
        <ele>345.2</ele>
        <time>2020-12-08T10:36:38Z</time>
      </trkpt>
      <trkpt lat="36.5485640" lon="-5.6367740">
        <ele>343.6</ele>
        <time>2020-12-08T10:36:44Z</time>
      </trkpt>
      <trkpt lat="36.5484980" lon="-5.6367470">
        <ele>343.2</ele>
        <time>2020-12-08T10:36:45Z</time>
      </trkpt>
      <trkpt lat="36.5482200" lon="-5.6366830">
        <ele>342.6</ele>
        <time>2020-12-08T10:36:49Z</time>
      </trkpt>
      <trkpt lat="36.5481490" lon="-5.6366760">
        <ele>342.0</ele>
        <time>2020-12-08T10:36:50Z</time>
      </trkpt>
      <trkpt lat="36.5480030" lon="-5.6366640">
        <ele>340.6</ele>
        <time>2020-12-08T10:36:52Z</time>
      </trkpt>
      <trkpt lat="36.5478500" lon="-5.6366590">
        <ele>339.4</ele>
        <time>2020-12-08T10:36:54Z</time>
      </trkpt>
      <trkpt lat="36.5477670" lon="-5.6366550">
        <ele>338.6</ele>
        <time>2020-12-08T10:36:55Z</time>
      </trkpt>
      <trkpt lat="36.5476810" lon="-5.6366540">
        <ele>338.2</ele>
        <time>2020-12-08T10:36:56Z</time>
      </trkpt>
      <trkpt lat="36.5473140" lon="-5.6366900">
        <ele>336.6</ele>
        <time>2020-12-08T10:37:00Z</time>
      </trkpt>
      <trkpt lat="36.5471260" lon="-5.6367240">
        <ele>335.0</ele>
        <time>2020-12-08T10:37:02Z</time>
      </trkpt>
      <trkpt lat="36.5469270" lon="-5.6367650">
        <ele>333.6</ele>
        <time>2020-12-08T10:37:04Z</time>
      </trkpt>
      <trkpt lat="36.5468230" lon="-5.6367850">
        <ele>332.6</ele>
        <time>2020-12-08T10:37:05Z</time>
      </trkpt>
      <trkpt lat="36.5467170" lon="-5.6368030">
        <ele>331.8</ele>
        <time>2020-12-08T10:37:06Z</time>
      </trkpt>
      <trkpt lat="36.5466090" lon="-5.6368250">
        <ele>331.2</ele>
        <time>2020-12-08T10:37:07Z</time>
      </trkpt>
      <trkpt lat="36.5462870" lon="-5.6368890">
        <ele>330.2</ele>
        <time>2020-12-08T10:37:10Z</time>
      </trkpt>
      <trkpt lat="36.5460920" lon="-5.6369260">
        <ele>329.0</ele>
        <time>2020-12-08T10:37:12Z</time>
      </trkpt>
      <trkpt lat="36.5460060" lon="-5.6369330">
        <ele>328.4</ele>
        <time>2020-12-08T10:37:13Z</time>
      </trkpt>
      <trkpt lat="36.5458580" lon="-5.6368890">
        <ele>327.8</ele>
        <time>2020-12-08T10:37:15Z</time>
      </trkpt>
      <trkpt lat="36.5457990" lon="-5.6368450">
        <ele>327.8</ele>
        <time>2020-12-08T10:37:16Z</time>
      </trkpt>
      <trkpt lat="36.5457040" lon="-5.6367340">
        <ele>327.8</ele>
        <time>2020-12-08T10:37:18Z</time>
      </trkpt>
      <trkpt lat="36.5455670" lon="-5.6365430">
        <ele>327.8</ele>
        <time>2020-12-08T10:37:21Z</time>
      </trkpt>
      <trkpt lat="36.5453810" lon="-5.6363980">
        <ele>327.8</ele>
        <time>2020-12-08T10:37:24Z</time>
      </trkpt>
      <trkpt lat="36.5452370" lon="-5.6363540">
        <ele>327.8</ele>
        <time>2020-12-08T10:37:26Z</time>
      </trkpt>
      <trkpt lat="36.5450990" lon="-5.6363000">
        <ele>327.8</ele>
        <time>2020-12-08T10:37:28Z</time>
      </trkpt>
      <trkpt lat="36.5450350" lon="-5.6362580">
        <ele>327.8</ele>
        <time>2020-12-08T10:37:29Z</time>
      </trkpt>
      <trkpt lat="36.5448440" lon="-5.6361050">
        <ele>327.8</ele>
        <time>2020-12-08T10:37:32Z</time>
      </trkpt>
      <trkpt lat="36.5447700" lon="-5.6360740">
        <ele>327.8</ele>
        <time>2020-12-08T10:37:33Z</time>
      </trkpt>
      <trkpt lat="36.5446210" lon="-5.6361000">
        <ele>327.6</ele>
        <time>2020-12-08T10:37:35Z</time>
      </trkpt>
      <trkpt lat="36.5444780" lon="-5.6363050">
        <ele>327.4</ele>
        <time>2020-12-08T10:37:38Z</time>
      </trkpt>
      <trkpt lat="36.5444460" lon="-5.6364700">
        <ele>327.0</ele>
        <time>2020-12-08T10:37:40Z</time>
      </trkpt>
      <trkpt lat="36.5444360" lon="-5.6365440">
        <ele>326.8</ele>
        <time>2020-12-08T10:37:41Z</time>
      </trkpt>
      <trkpt lat="36.5444250" lon="-5.6366160">
        <ele>326.4</ele>
        <time>2020-12-08T10:37:42Z</time>
      </trkpt>
      <trkpt lat="36.5443250" lon="-5.6371020">
        <ele>325.6</ele>
        <time>2020-12-08T10:37:49Z</time>
      </trkpt>
      <trkpt lat="36.5443050" lon="-5.6371570">
        <ele>325.6</ele>
        <time>2020-12-08T10:37:50Z</time>
      </trkpt>
      <trkpt lat="36.5442230" lon="-5.6372710">
        <ele>325.8</ele>
        <time>2020-12-08T10:37:53Z</time>
      </trkpt>
      <trkpt lat="36.5441050" lon="-5.6373100">
        <ele>326.4</ele>
        <time>2020-12-08T10:37:56Z</time>
      </trkpt>
      <trkpt lat="36.5440210" lon="-5.6373280">
        <ele>327.2</ele>
        <time>2020-12-08T10:37:58Z</time>
      </trkpt>
      <trkpt lat="36.5439390" lon="-5.6373340">
        <ele>328.0</ele>
        <time>2020-12-08T10:38:00Z</time>
      </trkpt>
      <trkpt lat="36.5437710" lon="-5.6373290">
        <ele>328.6</ele>
        <time>2020-12-08T10:38:04Z</time>
      </trkpt>
      <trkpt lat="36.5436890" lon="-5.6373190">
        <ele>329.2</ele>
        <time>2020-12-08T10:38:06Z</time>
      </trkpt>
      <trkpt lat="36.5434820" lon="-5.6373130">
        <ele>330.4</ele>
        <time>2020-12-08T10:38:11Z</time>
      </trkpt>
      <trkpt lat="36.5434100" lon="-5.6373590">
        <ele>331.6</ele>
        <time>2020-12-08T10:38:13Z</time>
      </trkpt>
      <trkpt lat="36.5433810" lon="-5.6373970">
        <ele>331.8</ele>
        <time>2020-12-08T10:38:14Z</time>
      </trkpt>
      <trkpt lat="36.5433390" lon="-5.6374930">
        <ele>333.0</ele>
        <time>2020-12-08T10:38:16Z</time>
      </trkpt>
      <trkpt lat="36.5433250" lon="-5.6375980">
        <ele>333.8</ele>
        <time>2020-12-08T10:38:18Z</time>
      </trkpt>
      <trkpt lat="36.5433260" lon="-5.6376520">
        <ele>334.0</ele>
        <time>2020-12-08T10:38:19Z</time>
      </trkpt>
      <trkpt lat="36.5433560" lon="-5.6378100">
        <ele>334.4</ele>
        <time>2020-12-08T10:38:22Z</time>
      </trkpt>
      <trkpt lat="36.5434260" lon="-5.6379580">
        <ele>335.2</ele>
        <time>2020-12-08T10:38:25Z</time>
      </trkpt>
      <trkpt lat="36.5434900" lon="-5.6380490">
        <ele>336.0</ele>
        <time>2020-12-08T10:38:27Z</time>
      </trkpt>
      <trkpt lat="36.5435250" lon="-5.6380910">
        <ele>336.2</ele>
        <time>2020-12-08T10:38:28Z</time>
      </trkpt>
      <trkpt lat="36.5435590" lon="-5.6381340">
        <ele>336.4</ele>
        <time>2020-12-08T10:38:29Z</time>
      </trkpt>
      <trkpt lat="36.5435900" lon="-5.6381820">
        <ele>336.4</ele>
        <time>2020-12-08T10:38:30Z</time>
      </trkpt>
      <trkpt lat="36.5436560" lon="-5.6383590">
        <ele>336.6</ele>
        <time>2020-12-08T10:38:33Z</time>
      </trkpt>
      <trkpt lat="36.5436840" lon="-5.6384950">
        <ele>336.8</ele>
        <time>2020-12-08T10:38:35Z</time>
      </trkpt>
      <trkpt lat="36.5437200" lon="-5.6387890">
        <ele>336.8</ele>
        <time>2020-12-08T10:38:39Z</time>
      </trkpt>
      <trkpt lat="36.5437350" lon="-5.6392500">
        <ele>337.0</ele>
        <time>2020-12-08T10:38:46Z</time>
      </trkpt>
      <trkpt lat="36.5436970" lon="-5.6395900">
        <ele>337.0</ele>
        <time>2020-12-08T10:38:52Z</time>
      </trkpt>
      <trkpt lat="36.5436850" lon="-5.6396460">
        <ele>337.2</ele>
        <time>2020-12-08T10:38:53Z</time>
      </trkpt>
      <trkpt lat="36.5436140" lon="-5.6399790">
        <ele>338.4</ele>
        <time>2020-12-08T10:38:59Z</time>
      </trkpt>
      <trkpt lat="36.5436060" lon="-5.6400350">
        <ele>338.6</ele>
        <time>2020-12-08T10:39:00Z</time>
      </trkpt>
      <trkpt lat="36.5435440" lon="-5.6403590">
        <ele>339.4</ele>
        <time>2020-12-08T10:39:07Z</time>
      </trkpt>
      <trkpt lat="36.5435360" lon="-5.6404010">
        <ele>339.4</ele>
        <time>2020-12-08T10:39:08Z</time>
      </trkpt>
      <trkpt lat="36.5435100" lon="-5.6405190">
        <ele>340.6</ele>
        <time>2020-12-08T10:39:11Z</time>
      </trkpt>
      <trkpt lat="36.5434850" lon="-5.6406570">
        <ele>342.0</ele>
        <time>2020-12-08T10:39:15Z</time>
      </trkpt>
      <trkpt lat="36.5434660" lon="-5.6407570">
        <ele>343.6</ele>
        <time>2020-12-08T10:39:18Z</time>
      </trkpt>
      <trkpt lat="36.5434430" lon="-5.6408620">
        <ele>344.6</ele>
        <time>2020-12-08T10:39:21Z</time>
      </trkpt>
      <trkpt lat="36.5434190" lon="-5.6409670">
        <ele>345.2</ele>
        <time>2020-12-08T10:39:24Z</time>
      </trkpt>
      <trkpt lat="36.5434040" lon="-5.6410380">
        <ele>345.8</ele>
        <time>2020-12-08T10:39:26Z</time>
      </trkpt>
      <trkpt lat="36.5433700" lon="-5.6411400">
        <ele>347.0</ele>
        <time>2020-12-08T10:39:29Z</time>
      </trkpt>
      <trkpt lat="36.5433210" lon="-5.6412340">
        <ele>347.4</ele>
        <time>2020-12-08T10:39:32Z</time>
      </trkpt>
      <trkpt lat="36.5432750" lon="-5.6412790">
        <ele>348.0</ele>
        <time>2020-12-08T10:39:34Z</time>
      </trkpt>
      <trkpt lat="36.5431900" lon="-5.6413170">
        <ele>349.0</ele>
        <time>2020-12-08T10:39:37Z</time>
      </trkpt>
      <trkpt lat="36.5431600" lon="-5.6413240">
        <ele>349.4</ele>
        <time>2020-12-08T10:39:38Z</time>
      </trkpt>
      <trkpt lat="36.5431010" lon="-5.6413300">
        <ele>350.4</ele>
        <time>2020-12-08T10:39:40Z</time>
      </trkpt>
      <trkpt lat="36.5430100" lon="-5.6413250">
        <ele>351.6</ele>
        <time>2020-12-08T10:39:43Z</time>
      </trkpt>
      <trkpt lat="36.5429490" lon="-5.6413160">
        <ele>352.0</ele>
        <time>2020-12-08T10:39:45Z</time>
      </trkpt>
      <trkpt lat="36.5428620" lon="-5.6412830">
        <ele>352.6</ele>
        <time>2020-12-08T10:39:48Z</time>
      </trkpt>
      <trkpt lat="36.5427530" lon="-5.6412230">
        <ele>353.6</ele>
        <time>2020-12-08T10:39:52Z</time>
      </trkpt>
      <trkpt lat="36.5427250" lon="-5.6412080">
        <ele>353.8</ele>
        <time>2020-12-08T10:39:53Z</time>
      </trkpt>
      <trkpt lat="36.5425690" lon="-5.6411070">
        <ele>354.6</ele>
        <time>2020-12-08T10:39:59Z</time>
      </trkpt>
      <trkpt lat="36.5425430" lon="-5.6410880">
        <ele>354.8</ele>
        <time>2020-12-08T10:40:00Z</time>
      </trkpt>
      <trkpt lat="36.5424230" lon="-5.6410060">
        <ele>356.0</ele>
        <time>2020-12-08T10:40:05Z</time>
      </trkpt>
      <trkpt lat="36.5423790" lon="-5.6409710">
        <ele>356.4</ele>
        <time>2020-12-08T10:40:07Z</time>
      </trkpt>
      <trkpt lat="36.5423090" lon="-5.6409130">
        <ele>357.2</ele>
        <time>2020-12-08T10:40:10Z</time>
      </trkpt>
      <trkpt lat="36.5422150" lon="-5.6408510">
        <ele>358.2</ele>
        <time>2020-12-08T10:40:14Z</time>
      </trkpt>
      <trkpt lat="36.5421920" lon="-5.6408380">
        <ele>358.2</ele>
        <time>2020-12-08T10:40:15Z</time>
      </trkpt>
      <trkpt lat="36.5421050" lon="-5.6407860">
        <ele>360.0</ele>
        <time>2020-12-08T10:40:19Z</time>
      </trkpt>
      <trkpt lat="36.5420240" lon="-5.6407310">
        <ele>360.8</ele>
        <time>2020-12-08T10:40:23Z</time>
      </trkpt>
      <trkpt lat="36.5420020" lon="-5.6407230">
        <ele>361.2</ele>
        <time>2020-12-08T10:40:24Z</time>
      </trkpt>
      <trkpt lat="36.5419350" lon="-5.6406980">
        <ele>362.2</ele>
        <time>2020-12-08T10:40:27Z</time>
      </trkpt>
      <trkpt lat="36.5418660" lon="-5.6406720">
        <ele>363.2</ele>
        <time>2020-12-08T10:40:30Z</time>
      </trkpt>
      <trkpt lat="36.5417700" lon="-5.6406580">
        <ele>364.4</ele>
        <time>2020-12-08T10:40:34Z</time>
      </trkpt>
      <trkpt lat="36.5416660" lon="-5.6406720">
        <ele>365.6</ele>
        <time>2020-12-08T10:40:38Z</time>
      </trkpt>
      <trkpt lat="36.5415560" lon="-5.6407090">
        <ele>366.6</ele>
        <time>2020-12-08T10:40:42Z</time>
      </trkpt>
      <trkpt lat="36.5414520" lon="-5.6407680">
        <ele>366.6</ele>
        <time>2020-12-08T10:40:46Z</time>
      </trkpt>
      <trkpt lat="36.5413620" lon="-5.6408220">
        <ele>367.2</ele>
        <time>2020-12-08T10:40:50Z</time>
      </trkpt>
      <trkpt lat="36.5413170" lon="-5.6408500">
        <ele>368.0</ele>
        <time>2020-12-08T10:40:52Z</time>
      </trkpt>
      <trkpt lat="36.5412490" lon="-5.6408950">
        <ele>369.2</ele>
        <time>2020-12-08T10:40:55Z</time>
      </trkpt>
      <trkpt lat="36.5411410" lon="-5.6409340">
        <ele>370.8</ele>
        <time>2020-12-08T10:40:59Z</time>
      </trkpt>
      <trkpt lat="36.5410510" lon="-5.6409410">
        <ele>372.0</ele>
        <time>2020-12-08T10:41:02Z</time>
      </trkpt>
      <trkpt lat="36.5409270" lon="-5.6409180">
        <ele>372.8</ele>
        <time>2020-12-08T10:41:06Z</time>
      </trkpt>
      <trkpt lat="36.5408930" lon="-5.6409120">
        <ele>373.2</ele>
        <time>2020-12-08T10:41:07Z</time>
      </trkpt>
      <trkpt lat="36.5407890" lon="-5.6409050">
        <ele>374.2</ele>
        <time>2020-12-08T10:41:10Z</time>
      </trkpt>
      <trkpt lat="36.5406930" lon="-5.6409220">
        <ele>375.0</ele>
        <time>2020-12-08T10:41:13Z</time>
      </trkpt>
      <trkpt lat="36.5406320" lon="-5.6409420">
        <ele>375.4</ele>
        <time>2020-12-08T10:41:15Z</time>
      </trkpt>
      <trkpt lat="36.5404560" lon="-5.6410430">
        <ele>376.2</ele>
        <time>2020-12-08T10:41:21Z</time>
      </trkpt>
      <trkpt lat="36.5404260" lon="-5.6410610">
        <ele>376.4</ele>
        <time>2020-12-08T10:41:22Z</time>
      </trkpt>
      <trkpt lat="36.5402850" lon="-5.6411580">
        <ele>377.4</ele>
        <time>2020-12-08T10:41:27Z</time>
      </trkpt>
      <trkpt lat="36.5402100" lon="-5.6412240">
        <ele>377.6</ele>
        <time>2020-12-08T10:41:30Z</time>
      </trkpt>
      <trkpt lat="36.5400120" lon="-5.6414330">
        <ele>378.6</ele>
        <time>2020-12-08T10:41:38Z</time>
      </trkpt>
      <trkpt lat="36.5398630" lon="-5.6415970">
        <ele>379.6</ele>
        <time>2020-12-08T10:41:44Z</time>
      </trkpt>
      <trkpt lat="36.5397900" lon="-5.6416640">
        <ele>380.4</ele>
        <time>2020-12-08T10:41:47Z</time>
      </trkpt>
      <trkpt lat="36.5397640" lon="-5.6416820">
        <ele>380.8</ele>
        <time>2020-12-08T10:41:48Z</time>
      </trkpt>
      <trkpt lat="36.5396140" lon="-5.6417560">
        <ele>381.8</ele>
        <time>2020-12-08T10:41:53Z</time>
      </trkpt>
      <trkpt lat="36.5395800" lon="-5.6417680">
        <ele>382.2</ele>
        <time>2020-12-08T10:41:54Z</time>
      </trkpt>
      <trkpt lat="36.5394730" lon="-5.6418030">
        <ele>383.0</ele>
        <time>2020-12-08T10:41:57Z</time>
      </trkpt>
      <trkpt lat="36.5392510" lon="-5.6418750">
        <ele>384.0</ele>
        <time>2020-12-08T10:42:03Z</time>
      </trkpt>
      <trkpt lat="36.5391790" lon="-5.6418990">
        <ele>384.2</ele>
        <time>2020-12-08T10:42:05Z</time>
      </trkpt>
      <trkpt lat="36.5388400" lon="-5.6419950">
        <ele>385.2</ele>
        <time>2020-12-08T10:42:14Z</time>
      </trkpt>
      <trkpt lat="36.5386130" lon="-5.6420600">
        <ele>386.2</ele>
        <time>2020-12-08T10:42:20Z</time>
      </trkpt>
      <trkpt lat="36.5384540" lon="-5.6420970">
        <ele>386.6</ele>
        <time>2020-12-08T10:42:24Z</time>
      </trkpt>
      <trkpt lat="36.5381830" lon="-5.6421430">
        <ele>387.4</ele>
        <time>2020-12-08T10:42:30Z</time>
      </trkpt>
      <trkpt lat="36.5380840" lon="-5.6421580">
        <ele>387.4</ele>
        <time>2020-12-08T10:42:32Z</time>
      </trkpt>
      <trkpt lat="36.5376810" lon="-5.6422650">
        <ele>387.4</ele>
        <time>2020-12-08T10:42:40Z</time>
      </trkpt>
      <trkpt lat="36.5375030" lon="-5.6424300">
        <ele>387.0</ele>
        <time>2020-12-08T10:42:44Z</time>
      </trkpt>
      <trkpt lat="36.5374510" lon="-5.6427230">
        <ele>387.0</ele>
        <time>2020-12-08T10:42:48Z</time>
      </trkpt>
      <trkpt lat="36.5374490" lon="-5.6427980">
        <ele>387.0</ele>
        <time>2020-12-08T10:42:49Z</time>
      </trkpt>
      <trkpt lat="36.5374590" lon="-5.6431220">
        <ele>387.2</ele>
        <time>2020-12-08T10:42:54Z</time>
      </trkpt>
      <trkpt lat="36.5374780" lon="-5.6432810">
        <ele>387.2</ele>
        <time>2020-12-08T10:42:57Z</time>
      </trkpt>
      <trkpt lat="36.5375310" lon="-5.6434220">
        <ele>388.2</ele>
        <time>2020-12-08T10:43:00Z</time>
      </trkpt>
      <trkpt lat="36.5376070" lon="-5.6435320">
        <ele>389.4</ele>
        <time>2020-12-08T10:43:03Z</time>
      </trkpt>
      <trkpt lat="36.5376610" lon="-5.6435880">
        <ele>390.0</ele>
        <time>2020-12-08T10:43:05Z</time>
      </trkpt>
      <trkpt lat="36.5377170" lon="-5.6436430">
        <ele>390.4</ele>
        <time>2020-12-08T10:43:07Z</time>
      </trkpt>
      <trkpt lat="36.5378520" lon="-5.6438440">
        <ele>391.8</ele>
        <time>2020-12-08T10:43:13Z</time>
      </trkpt>
      <trkpt lat="36.5378770" lon="-5.6439360">
        <ele>392.8</ele>
        <time>2020-12-08T10:43:15Z</time>
      </trkpt>
      <trkpt lat="36.5378930" lon="-5.6440810">
        <ele>393.8</ele>
        <time>2020-12-08T10:43:18Z</time>
      </trkpt>
      <trkpt lat="36.5378960" lon="-5.6441300">
        <ele>394.4</ele>
        <time>2020-12-08T10:43:19Z</time>
      </trkpt>
      <trkpt lat="36.5378970" lon="-5.6442810">
        <ele>395.0</ele>
        <time>2020-12-08T10:43:22Z</time>
      </trkpt>
      <trkpt lat="36.5379070" lon="-5.6444450">
        <ele>395.4</ele>
        <time>2020-12-08T10:43:25Z</time>
      </trkpt>
      <trkpt lat="36.5379180" lon="-5.6445010">
        <ele>395.6</ele>
        <time>2020-12-08T10:43:26Z</time>
      </trkpt>
      <trkpt lat="36.5379470" lon="-5.6446090">
        <ele>396.2</ele>
        <time>2020-12-08T10:43:28Z</time>
      </trkpt>
      <trkpt lat="36.5380420" lon="-5.6448620">
        <ele>397.2</ele>
        <time>2020-12-08T10:43:33Z</time>
      </trkpt>
      <trkpt lat="36.5381210" lon="-5.6451400">
        <ele>397.2</ele>
        <time>2020-12-08T10:43:37Z</time>
      </trkpt>
      <trkpt lat="36.5381960" lon="-5.6455220">
        <ele>396.8</ele>
        <time>2020-12-08T10:43:41Z</time>
      </trkpt>
      <trkpt lat="36.5381970" lon="-5.6456240">
        <ele>396.4</ele>
        <time>2020-12-08T10:43:42Z</time>
      </trkpt>
      <trkpt lat="36.5381460" lon="-5.6459430">
        <ele>395.4</ele>
        <time>2020-12-08T10:43:45Z</time>
      </trkpt>
      <trkpt lat="36.5381250" lon="-5.6460560">
        <ele>394.8</ele>
        <time>2020-12-08T10:43:46Z</time>
      </trkpt>
      <trkpt lat="36.5380850" lon="-5.6462870">
        <ele>393.4</ele>
        <time>2020-12-08T10:43:48Z</time>
      </trkpt>
      <trkpt lat="36.5380590" lon="-5.6465280">
        <ele>392.0</ele>
        <time>2020-12-08T10:43:50Z</time>
      </trkpt>
      <trkpt lat="36.5380520" lon="-5.6466440">
        <ele>391.2</ele>
        <time>2020-12-08T10:43:51Z</time>
      </trkpt>
      <trkpt lat="36.5380460" lon="-5.6467540">
        <ele>390.8</ele>
        <time>2020-12-08T10:43:52Z</time>
      </trkpt>
      <trkpt lat="36.5380380" lon="-5.6469540">
        <ele>389.2</ele>
        <time>2020-12-08T10:43:54Z</time>
      </trkpt>
      <trkpt lat="36.5380250" lon="-5.6471330">
        <ele>388.0</ele>
        <time>2020-12-08T10:43:56Z</time>
      </trkpt>
      <trkpt lat="36.5380110" lon="-5.6474490">
        <ele>387.2</ele>
        <time>2020-12-08T10:44:00Z</time>
      </trkpt>
      <trkpt lat="36.5379780" lon="-5.6478950">
        <ele>388.2</ele>
        <time>2020-12-08T10:44:07Z</time>
      </trkpt>
      <trkpt lat="36.5379590" lon="-5.6480610">
        <ele>388.8</ele>
        <time>2020-12-08T10:44:10Z</time>
      </trkpt>
      <trkpt lat="36.5379450" lon="-5.6481780">
        <ele>389.8</ele>
        <time>2020-12-08T10:44:12Z</time>
      </trkpt>
      <trkpt lat="36.5379320" lon="-5.6482960">
        <ele>391.0</ele>
        <time>2020-12-08T10:44:14Z</time>
      </trkpt>
      <trkpt lat="36.5379130" lon="-5.6484670">
        <ele>391.6</ele>
        <time>2020-12-08T10:44:17Z</time>
      </trkpt>
      <trkpt lat="36.5378660" lon="-5.6487910">
        <ele>392.2</ele>
        <time>2020-12-08T10:44:23Z</time>
      </trkpt>
      <trkpt lat="36.5378630" lon="-5.6488470">
        <ele>392.6</ele>
        <time>2020-12-08T10:44:24Z</time>
      </trkpt>
      <trkpt lat="36.5378700" lon="-5.6489030">
        <ele>393.0</ele>
        <time>2020-12-08T10:44:25Z</time>
      </trkpt>
      <trkpt lat="36.5378850" lon="-5.6489580">
        <ele>393.8</ele>
        <time>2020-12-08T10:44:26Z</time>
      </trkpt>
      <trkpt lat="36.5379330" lon="-5.6490620">
        <ele>394.8</ele>
        <time>2020-12-08T10:44:28Z</time>
      </trkpt>
      <trkpt lat="36.5379600" lon="-5.6491130">
        <ele>395.0</ele>
        <time>2020-12-08T10:44:29Z</time>
      </trkpt>
      <trkpt lat="36.5379880" lon="-5.6491630">
        <ele>395.2</ele>
        <time>2020-12-08T10:44:30Z</time>
      </trkpt>
      <trkpt lat="36.5380730" lon="-5.6493060">
        <ele>395.6</ele>
        <time>2020-12-08T10:44:33Z</time>
      </trkpt>
      <trkpt lat="36.5381090" lon="-5.6494150">
        <ele>395.8</ele>
        <time>2020-12-08T10:44:35Z</time>
      </trkpt>
      <trkpt lat="36.5381130" lon="-5.6495340">
        <ele>396.0</ele>
        <time>2020-12-08T10:44:37Z</time>
      </trkpt>
      <trkpt lat="36.5380880" lon="-5.6496480">
        <ele>396.2</ele>
        <time>2020-12-08T10:44:39Z</time>
      </trkpt>
      <trkpt lat="36.5380710" lon="-5.6497010">
        <ele>396.4</ele>
        <time>2020-12-08T10:44:40Z</time>
      </trkpt>
      <trkpt lat="36.5379550" lon="-5.6499370">
        <ele>396.6</ele>
        <time>2020-12-08T10:44:45Z</time>
      </trkpt>
      <trkpt lat="36.5378850" lon="-5.6500080">
        <ele>397.0</ele>
        <time>2020-12-08T10:44:47Z</time>
      </trkpt>
      <trkpt lat="36.5377670" lon="-5.6500750">
        <ele>397.6</ele>
        <time>2020-12-08T10:44:50Z</time>
      </trkpt>
      <trkpt lat="36.5376520" lon="-5.6501230">
        <ele>398.4</ele>
        <time>2020-12-08T10:44:53Z</time>
      </trkpt>
      <trkpt lat="36.5374820" lon="-5.6501870">
        <ele>398.8</ele>
        <time>2020-12-08T10:44:58Z</time>
      </trkpt>
      <trkpt lat="36.5373870" lon="-5.6502170">
        <ele>399.6</ele>
        <time>2020-12-08T10:45:01Z</time>
      </trkpt>
      <trkpt lat="36.5372620" lon="-5.6502470">
        <ele>400.8</ele>
        <time>2020-12-08T10:45:05Z</time>
      </trkpt>
      <trkpt lat="36.5371970" lon="-5.6502590">
        <ele>401.8</ele>
        <time>2020-12-08T10:45:07Z</time>
      </trkpt>
      <trkpt lat="36.5371000" lon="-5.6502680">
        <ele>403.2</ele>
        <time>2020-12-08T10:45:10Z</time>
      </trkpt>
      <trkpt lat="36.5369380" lon="-5.6503040">
        <ele>404.2</ele>
        <time>2020-12-08T10:45:15Z</time>
      </trkpt>
      <trkpt lat="36.5367460" lon="-5.6504210">
        <ele>405.6</ele>
        <time>2020-12-08T10:45:21Z</time>
      </trkpt>
      <trkpt lat="36.5367140" lon="-5.6504460">
        <ele>406.0</ele>
        <time>2020-12-08T10:45:22Z</time>
      </trkpt>
      <trkpt lat="36.5364780" lon="-5.6506430">
        <ele>406.6</ele>
        <time>2020-12-08T10:45:29Z</time>
      </trkpt>
      <trkpt lat="36.5364050" lon="-5.6507000">
        <ele>406.6</ele>
        <time>2020-12-08T10:45:31Z</time>
      </trkpt>
      <trkpt lat="36.5361510" lon="-5.6509180">
        <ele>407.2</ele>
        <time>2020-12-08T10:45:39Z</time>
      </trkpt>
      <trkpt lat="36.5360660" lon="-5.6509890">
        <ele>407.6</ele>
        <time>2020-12-08T10:45:42Z</time>
      </trkpt>
      <trkpt lat="36.5359290" lon="-5.6511100">
        <ele>408.8</ele>
        <time>2020-12-08T10:45:47Z</time>
      </trkpt>
      <trkpt lat="36.5358750" lon="-5.6511630">
        <ele>409.2</ele>
        <time>2020-12-08T10:45:49Z</time>
      </trkpt>
      <trkpt lat="36.5358210" lon="-5.6512110">
        <ele>410.0</ele>
        <time>2020-12-08T10:45:51Z</time>
      </trkpt>
      <trkpt lat="36.5357480" lon="-5.6512950">
        <ele>410.4</ele>
        <time>2020-12-08T10:45:54Z</time>
      </trkpt>
      <trkpt lat="36.5357420" lon="-5.6513390">
        <ele>410.6</ele>
        <time>2020-12-08T10:45:55Z</time>
      </trkpt>
      <trkpt lat="36.5358090" lon="-5.6514710">
        <ele>411.2</ele>
        <time>2020-12-08T10:45:58Z</time>
      </trkpt>
      <trkpt lat="36.5358470" lon="-5.6515140">
        <ele>411.2</ele>
        <time>2020-12-08T10:45:59Z</time>
      </trkpt>
      <trkpt lat="36.5360310" lon="-5.6516960">
        <ele>411.4</ele>
        <time>2020-12-08T10:46:03Z</time>
      </trkpt>
      <trkpt lat="36.5364420" lon="-5.6520550">
        <ele>410.6</ele>
        <time>2020-12-08T10:46:10Z</time>
      </trkpt>
      <trkpt lat="36.5365680" lon="-5.6521720">
        <ele>410.0</ele>
        <time>2020-12-08T10:46:12Z</time>
      </trkpt>
      <trkpt lat="36.5366820" lon="-5.6523000">
        <ele>409.2</ele>
        <time>2020-12-08T10:46:14Z</time>
      </trkpt>
      <trkpt lat="36.5367270" lon="-5.6523830">
        <ele>409.2</ele>
        <time>2020-12-08T10:46:15Z</time>
      </trkpt>
      <trkpt lat="36.5367570" lon="-5.6524810">
        <ele>408.8</ele>
        <time>2020-12-08T10:46:16Z</time>
      </trkpt>
      <trkpt lat="36.5367960" lon="-5.6527070">
        <ele>407.4</ele>
        <time>2020-12-08T10:46:18Z</time>
      </trkpt>
      <trkpt lat="36.5368370" lon="-5.6529480">
        <ele>405.0</ele>
        <time>2020-12-08T10:46:20Z</time>
      </trkpt>
      <trkpt lat="36.5368780" lon="-5.6532010">
        <ele>403.2</ele>
        <time>2020-12-08T10:46:22Z</time>
      </trkpt>
      <trkpt lat="36.5369390" lon="-5.6534410">
        <ele>401.4</ele>
        <time>2020-12-08T10:46:24Z</time>
      </trkpt>
      <trkpt lat="36.5370370" lon="-5.6536570">
        <ele>399.0</ele>
        <time>2020-12-08T10:46:26Z</time>
      </trkpt>
      <trkpt lat="36.5370970" lon="-5.6537500">
        <ele>398.0</ele>
        <time>2020-12-08T10:46:27Z</time>
      </trkpt>
      <trkpt lat="36.5371610" lon="-5.6538320">
        <ele>396.8</ele>
        <time>2020-12-08T10:46:28Z</time>
      </trkpt>
      <trkpt lat="36.5372330" lon="-5.6539000">
        <ele>395.2</ele>
        <time>2020-12-08T10:46:29Z</time>
      </trkpt>
      <trkpt lat="36.5373170" lon="-5.6539500">
        <ele>394.0</ele>
        <time>2020-12-08T10:46:30Z</time>
      </trkpt>
      <trkpt lat="36.5374130" lon="-5.6539830">
        <ele>392.8</ele>
        <time>2020-12-08T10:46:31Z</time>
      </trkpt>
      <trkpt lat="36.5375150" lon="-5.6540100">
        <ele>391.2</ele>
        <time>2020-12-08T10:46:32Z</time>
      </trkpt>
      <trkpt lat="36.5377280" lon="-5.6540670">
        <ele>389.8</ele>
        <time>2020-12-08T10:46:34Z</time>
      </trkpt>
      <trkpt lat="36.5378380" lon="-5.6540870">
        <ele>388.8</ele>
        <time>2020-12-08T10:46:35Z</time>
      </trkpt>
      <trkpt lat="36.5379510" lon="-5.6540960">
        <ele>387.4</ele>
        <time>2020-12-08T10:46:36Z</time>
      </trkpt>
      <trkpt lat="36.5381860" lon="-5.6540930">
        <ele>385.8</ele>
        <time>2020-12-08T10:46:38Z</time>
      </trkpt>
      <trkpt lat="36.5384260" lon="-5.6540750">
        <ele>384.2</ele>
        <time>2020-12-08T10:46:40Z</time>
      </trkpt>
      <trkpt lat="36.5385430" lon="-5.6540630">
        <ele>383.0</ele>
        <time>2020-12-08T10:46:41Z</time>
      </trkpt>
      <trkpt lat="36.5386550" lon="-5.6540560">
        <ele>382.0</ele>
        <time>2020-12-08T10:46:42Z</time>
      </trkpt>
      <trkpt lat="36.5387640" lon="-5.6540600">
        <ele>381.0</ele>
        <time>2020-12-08T10:46:43Z</time>
      </trkpt>
      <trkpt lat="36.5388700" lon="-5.6540840">
        <ele>380.4</ele>
        <time>2020-12-08T10:46:44Z</time>
      </trkpt>
      <trkpt lat="36.5390720" lon="-5.6541940">
        <ele>378.6</ele>
        <time>2020-12-08T10:46:46Z</time>
      </trkpt>
      <trkpt lat="36.5391650" lon="-5.6542660">
        <ele>377.4</ele>
        <time>2020-12-08T10:46:47Z</time>
      </trkpt>
      <trkpt lat="36.5392550" lon="-5.6543430">
        <ele>374.8</ele>
        <time>2020-12-08T10:46:48Z</time>
      </trkpt>
      <trkpt lat="36.5394200" lon="-5.6545010">
        <ele>373.8</ele>
        <time>2020-12-08T10:46:50Z</time>
      </trkpt>
      <trkpt lat="36.5395690" lon="-5.6546500">
        <ele>372.4</ele>
        <time>2020-12-08T10:46:52Z</time>
      </trkpt>
      <trkpt lat="36.5397070" lon="-5.6547880">
        <ele>370.6</ele>
        <time>2020-12-08T10:46:54Z</time>
      </trkpt>
      <trkpt lat="36.5397750" lon="-5.6548460">
        <ele>370.0</ele>
        <time>2020-12-08T10:46:55Z</time>
      </trkpt>
      <trkpt lat="36.5399150" lon="-5.6549440">
        <ele>369.6</ele>
        <time>2020-12-08T10:46:57Z</time>
      </trkpt>
      <trkpt lat="36.5401200" lon="-5.6550750">
        <ele>369.4</ele>
        <time>2020-12-08T10:47:00Z</time>
      </trkpt>
      <trkpt lat="36.5405760" lon="-5.6553210">
        <ele>369.4</ele>
        <time>2020-12-08T10:47:07Z</time>
      </trkpt>
      <trkpt lat="36.5406400" lon="-5.6553640">
        <ele>369.6</ele>
        <time>2020-12-08T10:47:08Z</time>
      </trkpt>
      <trkpt lat="36.5408050" lon="-5.6555260">
        <ele>371.0</ele>
        <time>2020-12-08T10:47:11Z</time>
      </trkpt>
      <trkpt lat="36.5408460" lon="-5.6556850">
        <ele>372.0</ele>
        <time>2020-12-08T10:47:13Z</time>
      </trkpt>
      <trkpt lat="36.5408440" lon="-5.6557600">
        <ele>372.2</ele>
        <time>2020-12-08T10:47:14Z</time>
      </trkpt>
      <trkpt lat="36.5407690" lon="-5.6559600">
        <ele>373.6</ele>
        <time>2020-12-08T10:47:17Z</time>
      </trkpt>
      <trkpt lat="36.5407340" lon="-5.6560150">
        <ele>373.8</ele>
        <time>2020-12-08T10:47:18Z</time>
      </trkpt>
      <trkpt lat="36.5406200" lon="-5.6561610">
        <ele>374.4</ele>
        <time>2020-12-08T10:47:21Z</time>
      </trkpt>
      <trkpt lat="36.5405500" lon="-5.6562440">
        <ele>374.4</ele>
        <time>2020-12-08T10:47:23Z</time>
      </trkpt>
      <trkpt lat="36.5405200" lon="-5.6562870">
        <ele>374.8</ele>
        <time>2020-12-08T10:47:24Z</time>
      </trkpt>
      <trkpt lat="36.5403820" lon="-5.6564840">
        <ele>376.2</ele>
        <time>2020-12-08T10:47:29Z</time>
      </trkpt>
      <trkpt lat="36.5403380" lon="-5.6565730">
        <ele>377.4</ele>
        <time>2020-12-08T10:47:31Z</time>
      </trkpt>
      <trkpt lat="36.5403200" lon="-5.6566210">
        <ele>377.8</ele>
        <time>2020-12-08T10:47:32Z</time>
      </trkpt>
      <trkpt lat="36.5403060" lon="-5.6566700">
        <ele>378.0</ele>
        <time>2020-12-08T10:47:33Z</time>
      </trkpt>
      <trkpt lat="36.5402870" lon="-5.6567710">
        <ele>378.4</ele>
        <time>2020-12-08T10:47:35Z</time>
      </trkpt>
      <trkpt lat="36.5402740" lon="-5.6568770">
        <ele>379.6</ele>
        <time>2020-12-08T10:47:37Z</time>
      </trkpt>
      <trkpt lat="36.5402580" lon="-5.6571030">
        <ele>380.8</ele>
        <time>2020-12-08T10:47:41Z</time>
      </trkpt>
      <trkpt lat="36.5402510" lon="-5.6573320">
        <ele>381.6</ele>
        <time>2020-12-08T10:47:45Z</time>
      </trkpt>
      <trkpt lat="36.5402500" lon="-5.6574450">
        <ele>381.8</ele>
        <time>2020-12-08T10:47:47Z</time>
      </trkpt>
      <trkpt lat="36.5402860" lon="-5.6577280">
        <ele>382.6</ele>
        <time>2020-12-08T10:47:52Z</time>
      </trkpt>
      <trkpt lat="36.5403170" lon="-5.6579710">
        <ele>383.0</ele>
        <time>2020-12-08T10:47:56Z</time>
      </trkpt>
      <trkpt lat="36.5403030" lon="-5.6580930">
        <ele>382.8</ele>
        <time>2020-12-08T10:47:58Z</time>
      </trkpt>
      <trkpt lat="36.5402690" lon="-5.6582070">
        <ele>383.0</ele>
        <time>2020-12-08T10:48:00Z</time>
      </trkpt>
      <trkpt lat="36.5402270" lon="-5.6583120">
        <ele>383.8</ele>
        <time>2020-12-08T10:48:02Z</time>
      </trkpt>
      <trkpt lat="36.5401790" lon="-5.6584100">
        <ele>384.4</ele>
        <time>2020-12-08T10:48:04Z</time>
      </trkpt>
      <trkpt lat="36.5400840" lon="-5.6585970">
        <ele>385.0</ele>
        <time>2020-12-08T10:48:08Z</time>
      </trkpt>
      <trkpt lat="36.5399680" lon="-5.6588310">
        <ele>385.6</ele>
        <time>2020-12-08T10:48:13Z</time>
      </trkpt>
      <trkpt lat="36.5398940" lon="-5.6589690">
        <ele>386.4</ele>
        <time>2020-12-08T10:48:16Z</time>
      </trkpt>
      <trkpt lat="36.5397900" lon="-5.6591440">
        <ele>387.6</ele>
        <time>2020-12-08T10:48:20Z</time>
      </trkpt>
      <trkpt lat="36.5397030" lon="-5.6592820">
        <ele>388.2</ele>
        <time>2020-12-08T10:48:23Z</time>
      </trkpt>
      <trkpt lat="36.5396070" lon="-5.6594250">
        <ele>388.8</ele>
        <time>2020-12-08T10:48:26Z</time>
      </trkpt>
      <trkpt lat="36.5394980" lon="-5.6595920">
        <ele>388.8</ele>
        <time>2020-12-08T10:48:29Z</time>
      </trkpt>
      <trkpt lat="36.5394700" lon="-5.6596590">
        <ele>388.8</ele>
        <time>2020-12-08T10:48:30Z</time>
      </trkpt>
      <trkpt lat="36.5394670" lon="-5.6597960">
        <ele>388.8</ele>
        <time>2020-12-08T10:48:32Z</time>
      </trkpt>
      <trkpt lat="36.5395570" lon="-5.6598890">
        <ele>388.8</ele>
        <time>2020-12-08T10:48:34Z</time>
      </trkpt>
      <trkpt lat="36.5397850" lon="-5.6599180">
        <ele>388.0</ele>
        <time>2020-12-08T10:48:37Z</time>
      </trkpt>
      <trkpt lat="36.5399610" lon="-5.6599290">
        <ele>387.6</ele>
        <time>2020-12-08T10:48:39Z</time>
      </trkpt>
      <trkpt lat="36.5402550" lon="-5.6599720">
        <ele>386.0</ele>
        <time>2020-12-08T10:48:42Z</time>
      </trkpt>
      <trkpt lat="36.5403550" lon="-5.6600020">
        <ele>385.0</ele>
        <time>2020-12-08T10:48:43Z</time>
      </trkpt>
      <trkpt lat="36.5404550" lon="-5.6600460">
        <ele>384.0</ele>
        <time>2020-12-08T10:48:44Z</time>
      </trkpt>
      <trkpt lat="36.5405550" lon="-5.6600940">
        <ele>383.0</ele>
        <time>2020-12-08T10:48:45Z</time>
      </trkpt>
      <trkpt lat="36.5406530" lon="-5.6601440">
        <ele>381.6</ele>
        <time>2020-12-08T10:48:46Z</time>
      </trkpt>
      <trkpt lat="36.5407530" lon="-5.6601920">
        <ele>380.6</ele>
        <time>2020-12-08T10:48:47Z</time>
      </trkpt>
      <trkpt lat="36.5408560" lon="-5.6602340">
        <ele>379.6</ele>
        <time>2020-12-08T10:48:48Z</time>
      </trkpt>
      <trkpt lat="36.5409640" lon="-5.6602590">
        <ele>378.2</ele>
        <time>2020-12-08T10:48:49Z</time>
      </trkpt>
      <trkpt lat="36.5410740" lon="-5.6602660">
        <ele>376.8</ele>
        <time>2020-12-08T10:48:50Z</time>
      </trkpt>
      <trkpt lat="36.5411840" lon="-5.6602660">
        <ele>375.4</ele>
        <time>2020-12-08T10:48:51Z</time>
      </trkpt>
      <trkpt lat="36.5412960" lon="-5.6602650">
        <ele>374.2</ele>
        <time>2020-12-08T10:48:52Z</time>
      </trkpt>
      <trkpt lat="36.5415170" lon="-5.6602880">
        <ele>372.6</ele>
        <time>2020-12-08T10:48:54Z</time>
      </trkpt>
      <trkpt lat="36.5416240" lon="-5.6603190">
        <ele>371.6</ele>
        <time>2020-12-08T10:48:55Z</time>
      </trkpt>
      <trkpt lat="36.5417330" lon="-5.6603620">
        <ele>370.0</ele>
        <time>2020-12-08T10:48:56Z</time>
      </trkpt>
      <trkpt lat="36.5418440" lon="-5.6604070">
        <ele>368.8</ele>
        <time>2020-12-08T10:48:57Z</time>
      </trkpt>
      <trkpt lat="36.5419550" lon="-5.6604550">
        <ele>367.6</ele>
        <time>2020-12-08T10:48:58Z</time>
      </trkpt>
      <trkpt lat="36.5420690" lon="-5.6605030">
        <ele>366.4</ele>
        <time>2020-12-08T10:48:59Z</time>
      </trkpt>
      <trkpt lat="36.5421840" lon="-5.6605490">
        <ele>365.2</ele>
        <time>2020-12-08T10:49:00Z</time>
      </trkpt>
      <trkpt lat="36.5422990" lon="-5.6605970">
        <ele>364.2</ele>
        <time>2020-12-08T10:49:01Z</time>
      </trkpt>
      <trkpt lat="36.5424140" lon="-5.6606470">
        <ele>363.0</ele>
        <time>2020-12-08T10:49:02Z</time>
      </trkpt>
      <trkpt lat="36.5426320" lon="-5.6607390">
        <ele>361.0</ele>
        <time>2020-12-08T10:49:04Z</time>
      </trkpt>
      <trkpt lat="36.5427330" lon="-5.6607750">
        <ele>360.0</ele>
        <time>2020-12-08T10:49:05Z</time>
      </trkpt>
      <trkpt lat="36.5428300" lon="-5.6607980">
        <ele>359.0</ele>
        <time>2020-12-08T10:49:06Z</time>
      </trkpt>
      <trkpt lat="36.5429270" lon="-5.6608110">
        <ele>358.0</ele>
        <time>2020-12-08T10:49:07Z</time>
      </trkpt>
      <trkpt lat="36.5430210" lon="-5.6608220">
        <ele>357.0</ele>
        <time>2020-12-08T10:49:08Z</time>
      </trkpt>
      <trkpt lat="36.5431090" lon="-5.6608500">
        <ele>356.0</ele>
        <time>2020-12-08T10:49:09Z</time>
      </trkpt>
      <trkpt lat="36.5431940" lon="-5.6609040">
        <ele>354.0</ele>
        <time>2020-12-08T10:49:10Z</time>
      </trkpt>
      <trkpt lat="36.5433520" lon="-5.6610590">
        <ele>352.8</ele>
        <time>2020-12-08T10:49:12Z</time>
      </trkpt>
      <trkpt lat="36.5434840" lon="-5.6612180">
        <ele>351.8</ele>
        <time>2020-12-08T10:49:14Z</time>
      </trkpt>
      <trkpt lat="36.5435500" lon="-5.6612980">
        <ele>351.4</ele>
        <time>2020-12-08T10:49:15Z</time>
      </trkpt>
      <trkpt lat="36.5436880" lon="-5.6614500">
        <ele>350.0</ele>
        <time>2020-12-08T10:49:17Z</time>
      </trkpt>
      <trkpt lat="36.5437620" lon="-5.6615090">
        <ele>349.4</ele>
        <time>2020-12-08T10:49:18Z</time>
      </trkpt>
      <trkpt lat="36.5438450" lon="-5.6615460">
        <ele>348.2</ele>
        <time>2020-12-08T10:49:19Z</time>
      </trkpt>
      <trkpt lat="36.5439340" lon="-5.6615630">
        <ele>347.0</ele>
        <time>2020-12-08T10:49:20Z</time>
      </trkpt>
      <trkpt lat="36.5441180" lon="-5.6615750">
        <ele>345.6</ele>
        <time>2020-12-08T10:49:22Z</time>
      </trkpt>
      <trkpt lat="36.5442120" lon="-5.6615850">
        <ele>345.0</ele>
        <time>2020-12-08T10:49:23Z</time>
      </trkpt>
      <trkpt lat="36.5443080" lon="-5.6615970">
        <ele>344.4</ele>
        <time>2020-12-08T10:49:24Z</time>
      </trkpt>
      <trkpt lat="36.5445040" lon="-5.6616250">
        <ele>343.2</ele>
        <time>2020-12-08T10:49:26Z</time>
      </trkpt>
      <trkpt lat="36.5448100" lon="-5.6616820">
        <ele>341.6</ele>
        <time>2020-12-08T10:49:29Z</time>
      </trkpt>
      <trkpt lat="36.5450200" lon="-5.6617230">
        <ele>340.6</ele>
        <time>2020-12-08T10:49:31Z</time>
      </trkpt>
      <trkpt lat="36.5452340" lon="-5.6617720">
        <ele>339.4</ele>
        <time>2020-12-08T10:49:33Z</time>
      </trkpt>
      <trkpt lat="36.5454470" lon="-5.6618250">
        <ele>338.0</ele>
        <time>2020-12-08T10:49:35Z</time>
      </trkpt>
      <trkpt lat="36.5456370" lon="-5.6618750">
        <ele>336.8</ele>
        <time>2020-12-08T10:49:37Z</time>
      </trkpt>
      <trkpt lat="36.5457240" lon="-5.6618970">
        <ele>335.6</ele>
        <time>2020-12-08T10:49:38Z</time>
      </trkpt>
      <trkpt lat="36.5458910" lon="-5.6619390">
        <ele>333.8</ele>
        <time>2020-12-08T10:49:40Z</time>
      </trkpt>
      <trkpt lat="36.5460430" lon="-5.6619770">
        <ele>331.6</ele>
        <time>2020-12-08T10:49:42Z</time>
      </trkpt>
      <trkpt lat="36.5461750" lon="-5.6620100">
        <ele>330.0</ele>
        <time>2020-12-08T10:49:44Z</time>
      </trkpt>
      <trkpt lat="36.5462340" lon="-5.6620250">
        <ele>329.6</ele>
        <time>2020-12-08T10:49:45Z</time>
      </trkpt>
      <trkpt lat="36.5463170" lon="-5.6620480">
        <ele>328.8</ele>
        <time>2020-12-08T10:49:47Z</time>
      </trkpt>
      <trkpt lat="36.5463400" lon="-5.6620560">
        <ele>328.4</ele>
        <time>2020-12-08T10:49:48Z</time>
      </trkpt>
      <trkpt lat="36.5463660" lon="-5.6620700">
        <ele>327.4</ele>
        <time>2020-12-08T10:49:50Z</time>
      </trkpt>
      <trkpt lat="36.5463660" lon="-5.6620730">
        <ele>327.0</ele>
        <time>2020-12-08T10:49:51Z</time>
      </trkpt>
      <trkpt lat="36.5464170" lon="-5.6620730">
        <ele>325.8</ele>
        <time>2020-12-08T10:51:36Z</time>
      </trkpt>
      <trkpt lat="36.5465370" lon="-5.6620970">
        <ele>325.6</ele>
        <time>2020-12-08T10:51:41Z</time>
      </trkpt>
      <trkpt lat="36.5466260" lon="-5.6621160">
        <ele>325.6</ele>
        <time>2020-12-08T10:51:43Z</time>
      </trkpt>
      <trkpt lat="36.5467340" lon="-5.6621500">
        <ele>325.4</ele>
        <time>2020-12-08T10:51:45Z</time>
      </trkpt>
      <trkpt lat="36.5468600" lon="-5.6622010">
        <ele>324.8</ele>
        <time>2020-12-08T10:51:47Z</time>
      </trkpt>
      <trkpt lat="36.5469260" lon="-5.6622400">
        <ele>324.6</ele>
        <time>2020-12-08T10:51:48Z</time>
      </trkpt>
      <trkpt lat="36.5469950" lon="-5.6622860">
        <ele>324.2</ele>
        <time>2020-12-08T10:51:49Z</time>
      </trkpt>
      <trkpt lat="36.5471430" lon="-5.6624050">
        <ele>323.6</ele>
        <time>2020-12-08T10:51:51Z</time>
      </trkpt>
      <trkpt lat="36.5472690" lon="-5.6625620">
        <ele>322.4</ele>
        <time>2020-12-08T10:51:53Z</time>
      </trkpt>
      <trkpt lat="36.5473690" lon="-5.6627470">
        <ele>321.0</ele>
        <time>2020-12-08T10:51:55Z</time>
      </trkpt>
      <trkpt lat="36.5474330" lon="-5.6629560">
        <ele>319.6</ele>
        <time>2020-12-08T10:51:57Z</time>
      </trkpt>
      <trkpt lat="36.5474710" lon="-5.6631760">
        <ele>318.4</ele>
        <time>2020-12-08T10:51:59Z</time>
      </trkpt>
      <trkpt lat="36.5474900" lon="-5.6633990">
        <ele>315.4</ele>
        <time>2020-12-08T10:52:01Z</time>
      </trkpt>
      <trkpt lat="36.5474890" lon="-5.6635110">
        <ele>314.4</ele>
        <time>2020-12-08T10:52:02Z</time>
      </trkpt>
      <trkpt lat="36.5474640" lon="-5.6637220">
        <ele>313.0</ele>
        <time>2020-12-08T10:52:04Z</time>
      </trkpt>
      <trkpt lat="36.5474220" lon="-5.6639300">
        <ele>312.0</ele>
        <time>2020-12-08T10:52:06Z</time>
      </trkpt>
      <trkpt lat="36.5473720" lon="-5.6641540">
        <ele>310.4</ele>
        <time>2020-12-08T10:52:08Z</time>
      </trkpt>
      <trkpt lat="36.5473000" lon="-5.6645100">
        <ele>308.6</ele>
        <time>2020-12-08T10:52:11Z</time>
      </trkpt>
      <trkpt lat="36.5472900" lon="-5.6646350">
        <ele>307.0</ele>
        <time>2020-12-08T10:52:12Z</time>
      </trkpt>
      <trkpt lat="36.5472960" lon="-5.6648960">
        <ele>305.4</ele>
        <time>2020-12-08T10:52:14Z</time>
      </trkpt>
      <trkpt lat="36.5473070" lon="-5.6650310">
        <ele>304.6</ele>
        <time>2020-12-08T10:52:15Z</time>
      </trkpt>
      <trkpt lat="36.5473140" lon="-5.6651680">
        <ele>303.8</ele>
        <time>2020-12-08T10:52:16Z</time>
      </trkpt>
      <trkpt lat="36.5472820" lon="-5.6654420">
        <ele>302.4</ele>
        <time>2020-12-08T10:52:18Z</time>
      </trkpt>
      <trkpt lat="36.5472450" lon="-5.6655780">
        <ele>301.2</ele>
        <time>2020-12-08T10:52:19Z</time>
      </trkpt>
      <trkpt lat="36.5472000" lon="-5.6657150">
        <ele>300.0</ele>
        <time>2020-12-08T10:52:20Z</time>
      </trkpt>
      <trkpt lat="36.5471500" lon="-5.6658510">
        <ele>299.0</ele>
        <time>2020-12-08T10:52:21Z</time>
      </trkpt>
      <trkpt lat="36.5470590" lon="-5.6661170">
        <ele>297.4</ele>
        <time>2020-12-08T10:52:23Z</time>
      </trkpt>
      <trkpt lat="36.5470220" lon="-5.6662530">
        <ele>296.0</ele>
        <time>2020-12-08T10:52:24Z</time>
      </trkpt>
      <trkpt lat="36.5469960" lon="-5.6663950">
        <ele>294.8</ele>
        <time>2020-12-08T10:52:25Z</time>
      </trkpt>
      <trkpt lat="36.5469670" lon="-5.6666710">
        <ele>293.6</ele>
        <time>2020-12-08T10:52:27Z</time>
      </trkpt>
      <trkpt lat="36.5469490" lon="-5.6668090">
        <ele>292.8</ele>
        <time>2020-12-08T10:52:28Z</time>
      </trkpt>
      <trkpt lat="36.5469200" lon="-5.6669450">
        <ele>291.8</ele>
        <time>2020-12-08T10:52:29Z</time>
      </trkpt>
      <trkpt lat="36.5468780" lon="-5.6670790">
        <ele>289.4</ele>
        <time>2020-12-08T10:52:30Z</time>
      </trkpt>
      <trkpt lat="36.5468200" lon="-5.6672050">
        <ele>288.4</ele>
        <time>2020-12-08T10:52:31Z</time>
      </trkpt>
      <trkpt lat="36.5467500" lon="-5.6673230">
        <ele>287.2</ele>
        <time>2020-12-08T10:52:32Z</time>
      </trkpt>
      <trkpt lat="36.5466730" lon="-5.6674390">
        <ele>285.8</ele>
        <time>2020-12-08T10:52:33Z</time>
      </trkpt>
      <trkpt lat="36.5465930" lon="-5.6675570">
        <ele>284.4</ele>
        <time>2020-12-08T10:52:34Z</time>
      </trkpt>
      <trkpt lat="36.5465110" lon="-5.6676790">
        <ele>283.4</ele>
        <time>2020-12-08T10:52:35Z</time>
      </trkpt>
      <trkpt lat="36.5464300" lon="-5.6678060">
        <ele>282.8</ele>
        <time>2020-12-08T10:52:36Z</time>
      </trkpt>
      <trkpt lat="36.5462620" lon="-5.6680620">
        <ele>280.6</ele>
        <time>2020-12-08T10:52:38Z</time>
      </trkpt>
      <trkpt lat="36.5461690" lon="-5.6681870">
        <ele>279.6</ele>
        <time>2020-12-08T10:52:39Z</time>
      </trkpt>
      <trkpt lat="36.5460710" lon="-5.6683120">
        <ele>278.6</ele>
        <time>2020-12-08T10:52:40Z</time>
      </trkpt>
      <trkpt lat="36.5459720" lon="-5.6684390">
        <ele>277.0</ele>
        <time>2020-12-08T10:52:41Z</time>
      </trkpt>
      <trkpt lat="36.5458770" lon="-5.6685720">
        <ele>275.8</ele>
        <time>2020-12-08T10:52:42Z</time>
      </trkpt>
      <trkpt lat="36.5456990" lon="-5.6688420">
        <ele>273.8</ele>
        <time>2020-12-08T10:52:44Z</time>
      </trkpt>
      <trkpt lat="36.5456170" lon="-5.6689770">
        <ele>273.0</ele>
        <time>2020-12-08T10:52:45Z</time>
      </trkpt>
      <trkpt lat="36.5455360" lon="-5.6691100">
        <ele>272.6</ele>
        <time>2020-12-08T10:52:46Z</time>
      </trkpt>
      <trkpt lat="36.5453830" lon="-5.6693730">
        <ele>271.2</ele>
        <time>2020-12-08T10:52:48Z</time>
      </trkpt>
      <trkpt lat="36.5453070" lon="-5.6695030">
        <ele>270.0</ele>
        <time>2020-12-08T10:52:49Z</time>
      </trkpt>
      <trkpt lat="36.5452280" lon="-5.6696330">
        <ele>268.2</ele>
        <time>2020-12-08T10:52:50Z</time>
      </trkpt>
      <trkpt lat="36.5451490" lon="-5.6697610">
        <ele>266.2</ele>
        <time>2020-12-08T10:52:51Z</time>
      </trkpt>
      <trkpt lat="36.5450710" lon="-5.6698860">
        <ele>264.6</ele>
        <time>2020-12-08T10:52:52Z</time>
      </trkpt>
      <trkpt lat="36.5449030" lon="-5.6701170">
        <ele>263.2</ele>
        <time>2020-12-08T10:52:54Z</time>
      </trkpt>
      <trkpt lat="36.5448190" lon="-5.6702120">
        <ele>262.8</ele>
        <time>2020-12-08T10:52:55Z</time>
      </trkpt>
      <trkpt lat="36.5446620" lon="-5.6703950">
        <ele>262.4</ele>
        <time>2020-12-08T10:52:57Z</time>
      </trkpt>
      <trkpt lat="36.5446000" lon="-5.6705030">
        <ele>261.6</ele>
        <time>2020-12-08T10:52:58Z</time>
      </trkpt>
      <trkpt lat="36.5445480" lon="-5.6706230">
        <ele>259.6</ele>
        <time>2020-12-08T10:52:59Z</time>
      </trkpt>
      <trkpt lat="36.5444530" lon="-5.6708710">
        <ele>258.4</ele>
        <time>2020-12-08T10:53:01Z</time>
      </trkpt>
      <trkpt lat="36.5443130" lon="-5.6712020">
        <ele>256.6</ele>
        <time>2020-12-08T10:53:04Z</time>
      </trkpt>
      <trkpt lat="36.5442170" lon="-5.6715130">
        <ele>255.6</ele>
        <time>2020-12-08T10:53:07Z</time>
      </trkpt>
      <trkpt lat="36.5442020" lon="-5.6716130">
        <ele>255.6</ele>
        <time>2020-12-08T10:53:08Z</time>
      </trkpt>
      <trkpt lat="36.5441780" lon="-5.6718880">
        <ele>255.6</ele>
        <time>2020-12-08T10:53:11Z</time>
      </trkpt>
      <trkpt lat="36.5441690" lon="-5.6720560">
        <ele>255.6</ele>
        <time>2020-12-08T10:53:13Z</time>
      </trkpt>
      <trkpt lat="36.5441320" lon="-5.6725360">
        <ele>256.8</ele>
        <time>2020-12-08T10:53:19Z</time>
      </trkpt>
      <trkpt lat="36.5441220" lon="-5.6726850">
        <ele>257.8</ele>
        <time>2020-12-08T10:53:21Z</time>
      </trkpt>
      <trkpt lat="36.5441100" lon="-5.6728880">
        <ele>259.2</ele>
        <time>2020-12-08T10:53:24Z</time>
      </trkpt>
      <trkpt lat="36.5440920" lon="-5.6731330">
        <ele>260.0</ele>
        <time>2020-12-08T10:53:28Z</time>
      </trkpt>
      <trkpt lat="36.5440880" lon="-5.6731880">
        <ele>260.2</ele>
        <time>2020-12-08T10:53:29Z</time>
      </trkpt>
      <trkpt lat="36.5440760" lon="-5.6733860">
        <ele>261.4</ele>
        <time>2020-12-08T10:53:33Z</time>
      </trkpt>
      <trkpt lat="36.5440690" lon="-5.6734790">
        <ele>262.6</ele>
        <time>2020-12-08T10:53:35Z</time>
      </trkpt>
      <trkpt lat="36.5440660" lon="-5.6735240">
        <ele>263.4</ele>
        <time>2020-12-08T10:53:36Z</time>
      </trkpt>
      <trkpt lat="36.5440620" lon="-5.6735700">
        <ele>264.0</ele>
        <time>2020-12-08T10:53:37Z</time>
      </trkpt>
      <trkpt lat="36.5440530" lon="-5.6737520">
        <ele>265.0</ele>
        <time>2020-12-08T10:53:41Z</time>
      </trkpt>
      <trkpt lat="36.5440660" lon="-5.6739430">
        <ele>266.0</ele>
        <time>2020-12-08T10:53:45Z</time>
      </trkpt>
      <trkpt lat="36.5440750" lon="-5.6739940">
        <ele>266.4</ele>
        <time>2020-12-08T10:53:46Z</time>
      </trkpt>
      <trkpt lat="36.5441220" lon="-5.6742070">
        <ele>267.6</ele>
        <time>2020-12-08T10:53:50Z</time>
      </trkpt>
      <trkpt lat="36.5441790" lon="-5.6744230">
        <ele>268.2</ele>
        <time>2020-12-08T10:53:54Z</time>
      </trkpt>
      <trkpt lat="36.5442370" lon="-5.6746430">
        <ele>268.6</ele>
        <time>2020-12-08T10:53:58Z</time>
      </trkpt>
      <trkpt lat="36.5443370" lon="-5.6748840">
        <ele>269.0</ele>
        <time>2020-12-08T10:54:03Z</time>
      </trkpt>
      <trkpt lat="36.5444520" lon="-5.6750560">
        <ele>269.2</ele>
        <time>2020-12-08T10:54:07Z</time>
      </trkpt>
      <trkpt lat="36.5445290" lon="-5.6751150">
        <ele>269.4</ele>
        <time>2020-12-08T10:54:09Z</time>
      </trkpt>
      <trkpt lat="36.5446150" lon="-5.6751550">
        <ele>269.6</ele>
        <time>2020-12-08T10:54:11Z</time>
      </trkpt>
      <trkpt lat="36.5447040" lon="-5.6751920">
        <ele>269.6</ele>
        <time>2020-12-08T10:54:13Z</time>
      </trkpt>
      <trkpt lat="36.5448390" lon="-5.6752440">
        <ele>269.8</ele>
        <time>2020-12-08T10:54:16Z</time>
      </trkpt>
      <trkpt lat="36.5451970" lon="-5.6753710">
        <ele>270.8</ele>
        <time>2020-12-08T10:54:24Z</time>
      </trkpt>
      <trkpt lat="36.5452410" lon="-5.6753860">
        <ele>270.8</ele>
        <time>2020-12-08T10:54:25Z</time>
      </trkpt>
      <trkpt lat="36.5455700" lon="-5.6755070">
        <ele>271.8</ele>
        <time>2020-12-08T10:54:33Z</time>
      </trkpt>
      <trkpt lat="36.5456110" lon="-5.6755220">
        <ele>272.0</ele>
        <time>2020-12-08T10:54:34Z</time>
      </trkpt>
      <trkpt lat="36.5458200" lon="-5.6756000">
        <ele>273.0</ele>
        <time>2020-12-08T10:54:39Z</time>
      </trkpt>
      <trkpt lat="36.5460680" lon="-5.6756910">
        <ele>273.8</ele>
        <time>2020-12-08T10:54:45Z</time>
      </trkpt>
      <trkpt lat="36.5461940" lon="-5.6757310">
        <ele>274.0</ele>
        <time>2020-12-08T10:54:48Z</time>
      </trkpt>
      <trkpt lat="36.5463250" lon="-5.6757770">
        <ele>274.8</ele>
        <time>2020-12-08T10:54:51Z</time>
      </trkpt>
      <trkpt lat="36.5465420" lon="-5.6758490">
        <ele>275.4</ele>
        <time>2020-12-08T10:54:56Z</time>
      </trkpt>
      <trkpt lat="36.5468730" lon="-5.6759590">
        <ele>275.8</ele>
        <time>2020-12-08T10:55:04Z</time>
      </trkpt>
      <trkpt lat="36.5469570" lon="-5.6759870">
        <ele>276.2</ele>
        <time>2020-12-08T10:55:06Z</time>
      </trkpt>
      <trkpt lat="36.5472250" lon="-5.6760440">
        <ele>277.4</ele>
        <time>2020-12-08T10:55:12Z</time>
      </trkpt>
      <trkpt lat="36.5472710" lon="-5.6760490">
        <ele>277.6</ele>
        <time>2020-12-08T10:55:13Z</time>
      </trkpt>
      <trkpt lat="36.5473630" lon="-5.6760580">
        <ele>278.6</ele>
        <time>2020-12-08T10:55:15Z</time>
      </trkpt>
      <trkpt lat="36.5475050" lon="-5.6760700">
        <ele>279.6</ele>
        <time>2020-12-08T10:55:18Z</time>
      </trkpt>
      <trkpt lat="36.5477750" lon="-5.6760910">
        <ele>280.4</ele>
        <time>2020-12-08T10:55:23Z</time>
      </trkpt>
      <trkpt lat="36.5482720" lon="-5.6761010">
        <ele>280.0</ele>
        <time>2020-12-08T10:55:31Z</time>
      </trkpt>
      <trkpt lat="36.5488270" lon="-5.6761220">
        <ele>278.8</ele>
        <time>2020-12-08T10:55:39Z</time>
      </trkpt>
      <trkpt lat="36.5489040" lon="-5.6761230">
        <ele>278.6</ele>
        <time>2020-12-08T10:55:40Z</time>
      </trkpt>
      <trkpt lat="36.5494050" lon="-5.6761420">
        <ele>277.4</ele>
        <time>2020-12-08T10:55:46Z</time>
      </trkpt>
      <trkpt lat="36.5494920" lon="-5.6761430">
        <ele>277.0</ele>
        <time>2020-12-08T10:55:47Z</time>
      </trkpt>
      <trkpt lat="36.5496670" lon="-5.6761400">
        <ele>276.2</ele>
        <time>2020-12-08T10:55:49Z</time>
      </trkpt>
      <trkpt lat="36.5498470" lon="-5.6761240">
        <ele>274.2</ele>
        <time>2020-12-08T10:55:51Z</time>
      </trkpt>
      <trkpt lat="36.5500360" lon="-5.6761100">
        <ele>273.2</ele>
        <time>2020-12-08T10:55:53Z</time>
      </trkpt>
      <trkpt lat="36.5502290" lon="-5.6761210">
        <ele>272.2</ele>
        <time>2020-12-08T10:55:55Z</time>
      </trkpt>
      <trkpt lat="36.5504240" lon="-5.6761590">
        <ele>271.2</ele>
        <time>2020-12-08T10:55:57Z</time>
      </trkpt>
      <trkpt lat="36.5505200" lon="-5.6761790">
        <ele>270.4</ele>
        <time>2020-12-08T10:55:58Z</time>
      </trkpt>
      <trkpt lat="36.5507140" lon="-5.6762220">
        <ele>268.8</ele>
        <time>2020-12-08T10:56:00Z</time>
      </trkpt>
      <trkpt lat="36.5508120" lon="-5.6762510">
        <ele>267.8</ele>
        <time>2020-12-08T10:56:01Z</time>
      </trkpt>
      <trkpt lat="36.5509090" lon="-5.6762880">
        <ele>266.8</ele>
        <time>2020-12-08T10:56:02Z</time>
      </trkpt>
      <trkpt lat="36.5510060" lon="-5.6763310">
        <ele>266.0</ele>
        <time>2020-12-08T10:56:03Z</time>
      </trkpt>
      <trkpt lat="36.5511030" lon="-5.6763780">
        <ele>265.6</ele>
        <time>2020-12-08T10:56:04Z</time>
      </trkpt>
      <trkpt lat="36.5515940" lon="-5.6766380">
        <ele>264.2</ele>
        <time>2020-12-08T10:56:09Z</time>
      </trkpt>
      <trkpt lat="36.5516920" lon="-5.6767020">
        <ele>263.6</ele>
        <time>2020-12-08T10:56:10Z</time>
      </trkpt>
      <trkpt lat="36.5517880" lon="-5.6767720">
        <ele>262.8</ele>
        <time>2020-12-08T10:56:11Z</time>
      </trkpt>
      <trkpt lat="36.5520660" lon="-5.6770070">
        <ele>261.6</ele>
        <time>2020-12-08T10:56:14Z</time>
      </trkpt>
      <trkpt lat="36.5521600" lon="-5.6770840">
        <ele>261.0</ele>
        <time>2020-12-08T10:56:15Z</time>
      </trkpt>
      <trkpt lat="36.5522550" lon="-5.6771610">
        <ele>260.2</ele>
        <time>2020-12-08T10:56:16Z</time>
      </trkpt>
      <trkpt lat="36.5524380" lon="-5.6773300">
        <ele>258.8</ele>
        <time>2020-12-08T10:56:18Z</time>
      </trkpt>
      <trkpt lat="36.5526120" lon="-5.6775140">
        <ele>258.0</ele>
        <time>2020-12-08T10:56:20Z</time>
      </trkpt>
      <trkpt lat="36.5526980" lon="-5.6776070">
        <ele>257.4</ele>
        <time>2020-12-08T10:56:21Z</time>
      </trkpt>
      <trkpt lat="36.5528680" lon="-5.6777930">
        <ele>255.0</ele>
        <time>2020-12-08T10:56:23Z</time>
      </trkpt>
      <trkpt lat="36.5529520" lon="-5.6778830">
        <ele>253.6</ele>
        <time>2020-12-08T10:56:24Z</time>
      </trkpt>
      <trkpt lat="36.5531310" lon="-5.6780490">
        <ele>251.8</ele>
        <time>2020-12-08T10:56:26Z</time>
      </trkpt>
      <trkpt lat="36.5532280" lon="-5.6781240">
        <ele>250.6</ele>
        <time>2020-12-08T10:56:27Z</time>
      </trkpt>
      <trkpt lat="36.5533310" lon="-5.6781920">
        <ele>249.6</ele>
        <time>2020-12-08T10:56:28Z</time>
      </trkpt>
      <trkpt lat="36.5534380" lon="-5.6782520">
        <ele>248.4</ele>
        <time>2020-12-08T10:56:29Z</time>
      </trkpt>
      <trkpt lat="36.5536640" lon="-5.6783480">
        <ele>247.4</ele>
        <time>2020-12-08T10:56:31Z</time>
      </trkpt>
      <trkpt lat="36.5540170" lon="-5.6784650">
        <ele>246.4</ele>
        <time>2020-12-08T10:56:34Z</time>
      </trkpt>
      <trkpt lat="36.5542600" lon="-5.6785410">
        <ele>245.2</ele>
        <time>2020-12-08T10:56:36Z</time>
      </trkpt>
      <trkpt lat="36.5543820" lon="-5.6785770">
        <ele>244.0</ele>
        <time>2020-12-08T10:56:37Z</time>
      </trkpt>
      <trkpt lat="36.5545070" lon="-5.6786100">
        <ele>243.0</ele>
        <time>2020-12-08T10:56:38Z</time>
      </trkpt>
      <trkpt lat="36.5547610" lon="-5.6786630">
        <ele>241.0</ele>
        <time>2020-12-08T10:56:40Z</time>
      </trkpt>
      <trkpt lat="36.5550180" lon="-5.6787080">
        <ele>239.6</ele>
        <time>2020-12-08T10:56:42Z</time>
      </trkpt>
      <trkpt lat="36.5551460" lon="-5.6787310">
        <ele>238.6</ele>
        <time>2020-12-08T10:56:43Z</time>
      </trkpt>
      <trkpt lat="36.5552730" lon="-5.6787520">
        <ele>237.6</ele>
        <time>2020-12-08T10:56:44Z</time>
      </trkpt>
      <trkpt lat="36.5554010" lon="-5.6787730">
        <ele>236.4</ele>
        <time>2020-12-08T10:56:45Z</time>
      </trkpt>
      <trkpt lat="36.5556510" lon="-5.6788010">
        <ele>233.4</ele>
        <time>2020-12-08T10:56:47Z</time>
      </trkpt>
      <trkpt lat="36.5557710" lon="-5.6788100">
        <ele>232.2</ele>
        <time>2020-12-08T10:56:48Z</time>
      </trkpt>
      <trkpt lat="36.5558890" lon="-5.6788190">
        <ele>231.2</ele>
        <time>2020-12-08T10:56:49Z</time>
      </trkpt>
      <trkpt lat="36.5560010" lon="-5.6788260">
        <ele>230.4</ele>
        <time>2020-12-08T10:56:50Z</time>
      </trkpt>
      <trkpt lat="36.5562190" lon="-5.6788410">
        <ele>229.0</ele>
        <time>2020-12-08T10:56:52Z</time>
      </trkpt>
      <trkpt lat="36.5566460" lon="-5.6788520">
        <ele>227.8</ele>
        <time>2020-12-08T10:56:56Z</time>
      </trkpt>
      <trkpt lat="36.5571870" lon="-5.6788290">
        <ele>226.8</ele>
        <time>2020-12-08T10:57:01Z</time>
      </trkpt>
      <trkpt lat="36.5573920" lon="-5.6788160">
        <ele>226.4</ele>
        <time>2020-12-08T10:57:03Z</time>
      </trkpt>
      <trkpt lat="36.5575900" lon="-5.6788140">
        <ele>225.6</ele>
        <time>2020-12-08T10:57:05Z</time>
      </trkpt>
      <trkpt lat="36.5577890" lon="-5.6788250">
        <ele>224.4</ele>
        <time>2020-12-08T10:57:07Z</time>
      </trkpt>
      <trkpt lat="36.5579910" lon="-5.6788370">
        <ele>223.2</ele>
        <time>2020-12-08T10:57:09Z</time>
      </trkpt>
      <trkpt lat="36.5582930" lon="-5.6788540">
        <ele>222.0</ele>
        <time>2020-12-08T10:57:12Z</time>
      </trkpt>
      <trkpt lat="36.5586700" lon="-5.6788840">
        <ele>221.0</ele>
        <time>2020-12-08T10:57:16Z</time>
      </trkpt>
      <trkpt lat="36.5588560" lon="-5.6789000">
        <ele>219.2</ele>
        <time>2020-12-08T10:57:18Z</time>
      </trkpt>
      <trkpt lat="36.5590470" lon="-5.6789160">
        <ele>218.0</ele>
        <time>2020-12-08T10:57:20Z</time>
      </trkpt>
      <trkpt lat="36.5593430" lon="-5.6789410">
        <ele>217.0</ele>
        <time>2020-12-08T10:57:23Z</time>
      </trkpt>
      <trkpt lat="36.5595380" lon="-5.6789560">
        <ele>216.8</ele>
        <time>2020-12-08T10:57:25Z</time>
      </trkpt>
      <trkpt lat="36.5601060" lon="-5.6789830">
        <ele>215.6</ele>
        <time>2020-12-08T10:57:31Z</time>
      </trkpt>
      <trkpt lat="36.5602910" lon="-5.6789830">
        <ele>215.6</ele>
        <time>2020-12-08T10:57:33Z</time>
      </trkpt>
      <trkpt lat="36.5606520" lon="-5.6790050">
        <ele>214.4</ele>
        <time>2020-12-08T10:57:37Z</time>
      </trkpt>
      <trkpt lat="36.5608260" lon="-5.6790160">
        <ele>213.0</ele>
        <time>2020-12-08T10:57:39Z</time>
      </trkpt>
      <trkpt lat="36.5609980" lon="-5.6790250">
        <ele>212.6</ele>
        <time>2020-12-08T10:57:41Z</time>
      </trkpt>
      <trkpt lat="36.5616040" lon="-5.6790540">
        <ele>212.2</ele>
        <time>2020-12-08T10:57:48Z</time>
      </trkpt>
      <trkpt lat="36.5618650" lon="-5.6790530">
        <ele>212.0</ele>
        <time>2020-12-08T10:57:51Z</time>
      </trkpt>
      <trkpt lat="36.5623310" lon="-5.6790380">
        <ele>212.2</ele>
        <time>2020-12-08T10:57:57Z</time>
      </trkpt>
      <trkpt lat="36.5628610" lon="-5.6790230">
        <ele>213.2</ele>
        <time>2020-12-08T10:58:05Z</time>
      </trkpt>
      <trkpt lat="36.5631980" lon="-5.6790060">
        <ele>214.2</ele>
        <time>2020-12-08T10:58:10Z</time>
      </trkpt>
      <trkpt lat="36.5634050" lon="-5.6789760">
        <ele>214.6</ele>
        <time>2020-12-08T10:58:13Z</time>
      </trkpt>
      <trkpt lat="36.5638410" lon="-5.6788540">
        <ele>215.0</ele>
        <time>2020-12-08T10:58:20Z</time>
      </trkpt>
      <trkpt lat="36.5640460" lon="-5.6787830">
        <ele>215.2</ele>
        <time>2020-12-08T10:58:24Z</time>
      </trkpt>
      <trkpt lat="36.5641750" lon="-5.6787400">
        <ele>215.6</ele>
        <time>2020-12-08T10:58:27Z</time>
      </trkpt>
      <trkpt lat="36.5642550" lon="-5.6787170">
        <ele>216.4</ele>
        <time>2020-12-08T10:58:29Z</time>
      </trkpt>
      <trkpt lat="36.5644080" lon="-5.6786690">
        <ele>217.8</ele>
        <time>2020-12-08T10:58:33Z</time>
      </trkpt>
      <trkpt lat="36.5644900" lon="-5.6786490">
        <ele>218.8</ele>
        <time>2020-12-08T10:58:35Z</time>
      </trkpt>
      <trkpt lat="36.5645350" lon="-5.6786410">
        <ele>219.4</ele>
        <time>2020-12-08T10:58:36Z</time>
      </trkpt>
      <trkpt lat="36.5646380" lon="-5.6786290">
        <ele>220.4</ele>
        <time>2020-12-08T10:58:38Z</time>
      </trkpt>
      <trkpt lat="36.5647520" lon="-5.6786280">
        <ele>221.2</ele>
        <time>2020-12-08T10:58:40Z</time>
      </trkpt>
      <trkpt lat="36.5653200" lon="-5.6786260">
        <ele>221.0</ele>
        <time>2020-12-08T10:58:49Z</time>
      </trkpt>
      <trkpt lat="36.5659020" lon="-5.6786570">
        <ele>219.6</ele>
        <time>2020-12-08T10:58:58Z</time>
      </trkpt>
      <trkpt lat="36.5660440" lon="-5.6786980">
        <ele>219.4</ele>
        <time>2020-12-08T10:59:00Z</time>
      </trkpt>
      <trkpt lat="36.5663440" lon="-5.6788050">
        <ele>219.2</ele>
        <time>2020-12-08T10:59:04Z</time>
      </trkpt>
      <trkpt lat="36.5667100" lon="-5.6789450">
        <ele>218.4</ele>
        <time>2020-12-08T10:59:09Z</time>
      </trkpt>
      <trkpt lat="36.5669000" lon="-5.6790190">
        <ele>217.8</ele>
        <time>2020-12-08T10:59:12Z</time>
      </trkpt>
      <trkpt lat="36.5671980" lon="-5.6791260">
        <ele>217.6</ele>
        <time>2020-12-08T10:59:18Z</time>
      </trkpt>
      <trkpt lat="36.5673330" lon="-5.6791620">
        <ele>219.2</ele>
        <time>2020-12-08T10:59:21Z</time>
      </trkpt>
      <trkpt lat="36.5674270" lon="-5.6791800">
        <ele>220.2</ele>
        <time>2020-12-08T10:59:23Z</time>
      </trkpt>
      <trkpt lat="36.5675740" lon="-5.6792060">
        <ele>221.6</ele>
        <time>2020-12-08T10:59:26Z</time>
      </trkpt>
      <trkpt lat="36.5677270" lon="-5.6792300">
        <ele>222.6</ele>
        <time>2020-12-08T10:59:29Z</time>
      </trkpt>
      <trkpt lat="36.5680090" lon="-5.6792880">
        <ele>223.4</ele>
        <time>2020-12-08T10:59:34Z</time>
      </trkpt>
      <trkpt lat="36.5685170" lon="-5.6794500">
        <ele>223.4</ele>
        <time>2020-12-08T10:59:42Z</time>
      </trkpt>
      <trkpt lat="36.5689610" lon="-5.6796690">
        <ele>223.0</ele>
        <time>2020-12-08T10:59:49Z</time>
      </trkpt>
      <trkpt lat="36.5694930" lon="-5.6799150">
        <ele>222.2</ele>
        <time>2020-12-08T10:59:56Z</time>
      </trkpt>
      <trkpt lat="36.5695710" lon="-5.6799520">
        <ele>222.2</ele>
        <time>2020-12-08T10:59:57Z</time>
      </trkpt>
      <trkpt lat="36.5697290" lon="-5.6800290">
        <ele>221.6</ele>
        <time>2020-12-08T10:59:59Z</time>
      </trkpt>
      <trkpt lat="36.5700560" lon="-5.6801760">
        <ele>220.2</ele>
        <time>2020-12-08T11:00:03Z</time>
      </trkpt>
      <trkpt lat="36.5702280" lon="-5.6802360">
        <ele>219.4</ele>
        <time>2020-12-08T11:00:05Z</time>
      </trkpt>
      <trkpt lat="36.5706670" lon="-5.6803570">
        <ele>218.0</ele>
        <time>2020-12-08T11:00:10Z</time>
      </trkpt>
      <trkpt lat="36.5708330" lon="-5.6804000">
        <ele>217.2</ele>
        <time>2020-12-08T11:00:12Z</time>
      </trkpt>
      <trkpt lat="36.5709130" lon="-5.6804220">
        <ele>217.0</ele>
        <time>2020-12-08T11:00:13Z</time>
      </trkpt>
      <trkpt lat="36.5711930" lon="-5.6804930">
        <ele>216.8</ele>
        <time>2020-12-08T11:00:17Z</time>
      </trkpt>
      <trkpt lat="36.5713490" lon="-5.6805090">
        <ele>216.6</ele>
        <time>2020-12-08T11:00:21Z</time>
      </trkpt>
      <trkpt lat="36.5715990" lon="-5.6805370">
        <ele>217.6</ele>
        <time>2020-12-08T11:00:25Z</time>
      </trkpt>
      <trkpt lat="36.5717620" lon="-5.6805440">
        <ele>217.8</ele>
        <time>2020-12-08T11:00:27Z</time>
      </trkpt>
      <trkpt lat="36.5720990" lon="-5.6805520">
        <ele>218.0</ele>
        <time>2020-12-08T11:00:31Z</time>
      </trkpt>
      <trkpt lat="36.5725230" lon="-5.6804940">
        <ele>216.8</ele>
        <time>2020-12-08T11:00:36Z</time>
      </trkpt>
      <trkpt lat="36.5726980" lon="-5.6804220">
        <ele>215.4</ele>
        <time>2020-12-08T11:00:38Z</time>
      </trkpt>
      <trkpt lat="36.5729800" lon="-5.6803160">
        <ele>214.8</ele>
        <time>2020-12-08T11:00:41Z</time>
      </trkpt>
      <trkpt lat="36.5732970" lon="-5.6802090">
        <ele>213.8</ele>
        <time>2020-12-08T11:00:44Z</time>
      </trkpt>
      <trkpt lat="36.5734070" lon="-5.6801890">
        <ele>213.2</ele>
        <time>2020-12-08T11:00:45Z</time>
      </trkpt>
      <trkpt lat="36.5735160" lon="-5.6801820">
        <ele>212.6</ele>
        <time>2020-12-08T11:00:46Z</time>
      </trkpt>
      <trkpt lat="36.5738290" lon="-5.6801880">
        <ele>211.2</ele>
        <time>2020-12-08T11:00:49Z</time>
      </trkpt>
      <trkpt lat="36.5740230" lon="-5.6801960">
        <ele>209.2</ele>
        <time>2020-12-08T11:00:51Z</time>
      </trkpt>
      <trkpt lat="36.5742100" lon="-5.6802040">
        <ele>207.8</ele>
        <time>2020-12-08T11:00:53Z</time>
      </trkpt>
      <trkpt lat="36.5743900" lon="-5.6802380">
        <ele>207.4</ele>
        <time>2020-12-08T11:00:55Z</time>
      </trkpt>
      <trkpt lat="36.5744740" lon="-5.6802690">
        <ele>207.4</ele>
        <time>2020-12-08T11:00:56Z</time>
      </trkpt>
      <trkpt lat="36.5748280" lon="-5.6804710">
        <ele>207.4</ele>
        <time>2020-12-08T11:01:01Z</time>
      </trkpt>
      <trkpt lat="36.5751340" lon="-5.6806880">
        <ele>208.6</ele>
        <time>2020-12-08T11:01:06Z</time>
      </trkpt>
      <trkpt lat="36.5752010" lon="-5.6807220">
        <ele>209.2</ele>
        <time>2020-12-08T11:01:07Z</time>
      </trkpt>
      <trkpt lat="36.5753440" lon="-5.6807730">
        <ele>210.2</ele>
        <time>2020-12-08T11:01:09Z</time>
      </trkpt>
      <trkpt lat="36.5755080" lon="-5.6807940">
        <ele>210.6</ele>
        <time>2020-12-08T11:01:11Z</time>
      </trkpt>
      <trkpt lat="36.5757770" lon="-5.6807380">
        <ele>210.6</ele>
        <time>2020-12-08T11:01:14Z</time>
      </trkpt>
      <trkpt lat="36.5759460" lon="-5.6806290">
        <ele>210.6</ele>
        <time>2020-12-08T11:01:16Z</time>
      </trkpt>
      <trkpt lat="36.5761080" lon="-5.6805010">
        <ele>210.6</ele>
        <time>2020-12-08T11:01:18Z</time>
      </trkpt>
      <trkpt lat="36.5763660" lon="-5.6803300">
        <ele>209.2</ele>
        <time>2020-12-08T11:01:21Z</time>
      </trkpt>
      <trkpt lat="36.5764580" lon="-5.6802930">
        <ele>208.8</ele>
        <time>2020-12-08T11:01:22Z</time>
      </trkpt>
      <trkpt lat="36.5766460" lon="-5.6802620">
        <ele>207.4</ele>
        <time>2020-12-08T11:01:24Z</time>
      </trkpt>
      <trkpt lat="36.5767400" lon="-5.6802630">
        <ele>206.8</ele>
        <time>2020-12-08T11:01:25Z</time>
      </trkpt>
      <trkpt lat="36.5768350" lon="-5.6802670">
        <ele>206.2</ele>
        <time>2020-12-08T11:01:26Z</time>
      </trkpt>
      <trkpt lat="36.5772040" lon="-5.6802880">
        <ele>205.0</ele>
        <time>2020-12-08T11:01:30Z</time>
      </trkpt>
      <trkpt lat="36.5774560" lon="-5.6803130">
        <ele>204.2</ele>
        <time>2020-12-08T11:01:33Z</time>
      </trkpt>
      <trkpt lat="36.5778890" lon="-5.6803340">
        <ele>204.0</ele>
        <time>2020-12-08T11:01:39Z</time>
      </trkpt>
      <trkpt lat="36.5782420" lon="-5.6802770">
        <ele>206.2</ele>
        <time>2020-12-08T11:01:44Z</time>
      </trkpt>
      <trkpt lat="36.5788370" lon="-5.6801290">
        <ele>206.6</ele>
        <time>2020-12-08T11:01:51Z</time>
      </trkpt>
      <trkpt lat="36.5790120" lon="-5.6801090">
        <ele>206.6</ele>
        <time>2020-12-08T11:01:53Z</time>
      </trkpt>
      <trkpt lat="36.5791840" lon="-5.6801250">
        <ele>206.4</ele>
        <time>2020-12-08T11:01:55Z</time>
      </trkpt>
      <trkpt lat="36.5793440" lon="-5.6801710">
        <ele>205.8</ele>
        <time>2020-12-08T11:01:57Z</time>
      </trkpt>
      <trkpt lat="36.5795700" lon="-5.6802380">
        <ele>205.6</ele>
        <time>2020-12-08T11:02:00Z</time>
      </trkpt>
      <trkpt lat="36.5800250" lon="-5.6803880">
        <ele>206.0</ele>
        <time>2020-12-08T11:02:07Z</time>
      </trkpt>
      <trkpt lat="36.5803060" lon="-5.6805230">
        <ele>207.4</ele>
        <time>2020-12-08T11:02:12Z</time>
      </trkpt>
      <trkpt lat="36.5804750" lon="-5.6806250">
        <ele>208.4</ele>
        <time>2020-12-08T11:02:15Z</time>
      </trkpt>
      <trkpt lat="36.5808630" lon="-5.6809570">
        <ele>209.0</ele>
        <time>2020-12-08T11:02:22Z</time>
      </trkpt>
      <trkpt lat="36.5812300" lon="-5.6812880">
        <ele>209.0</ele>
        <time>2020-12-08T11:02:28Z</time>
      </trkpt>
      <trkpt lat="36.5816450" lon="-5.6815350">
        <ele>208.2</ele>
        <time>2020-12-08T11:02:33Z</time>
      </trkpt>
      <trkpt lat="36.5818130" lon="-5.6816560">
        <ele>207.0</ele>
        <time>2020-12-08T11:02:35Z</time>
      </trkpt>
      <trkpt lat="36.5819650" lon="-5.6817900">
        <ele>206.0</ele>
        <time>2020-12-08T11:02:37Z</time>
      </trkpt>
      <trkpt lat="36.5821950" lon="-5.6819930">
        <ele>204.2</ele>
        <time>2020-12-08T11:02:40Z</time>
      </trkpt>
      <trkpt lat="36.5823630" lon="-5.6821080">
        <ele>203.0</ele>
        <time>2020-12-08T11:02:42Z</time>
      </trkpt>
      <trkpt lat="36.5824520" lon="-5.6821500">
        <ele>202.6</ele>
        <time>2020-12-08T11:02:43Z</time>
      </trkpt>
      <trkpt lat="36.5828820" lon="-5.6822710">
        <ele>202.2</ele>
        <time>2020-12-08T11:02:48Z</time>
      </trkpt>
      <trkpt lat="36.5833790" lon="-5.6823850">
        <ele>202.2</ele>
        <time>2020-12-08T11:02:55Z</time>
      </trkpt>
      <trkpt lat="36.5837300" lon="-5.6824710">
        <ele>204.0</ele>
        <time>2020-12-08T11:03:01Z</time>
      </trkpt>
      <trkpt lat="36.5837850" lon="-5.6824870">
        <ele>204.4</ele>
        <time>2020-12-08T11:03:02Z</time>
      </trkpt>
      <trkpt lat="36.5838930" lon="-5.6825210">
        <ele>205.4</ele>
        <time>2020-12-08T11:03:04Z</time>
      </trkpt>
      <trkpt lat="36.5840500" lon="-5.6825820">
        <ele>206.4</ele>
        <time>2020-12-08T11:03:07Z</time>
      </trkpt>
      <trkpt lat="36.5842600" lon="-5.6826790">
        <ele>207.2</ele>
        <time>2020-12-08T11:03:11Z</time>
      </trkpt>
      <trkpt lat="36.5843150" lon="-5.6827020">
        <ele>207.8</ele>
        <time>2020-12-08T11:03:12Z</time>
      </trkpt>
      <trkpt lat="36.5844830" lon="-5.6827810">
        <ele>208.8</ele>
        <time>2020-12-08T11:03:15Z</time>
      </trkpt>
      <trkpt lat="36.5847040" lon="-5.6828870">
        <ele>209.4</ele>
        <time>2020-12-08T11:03:19Z</time>
      </trkpt>
      <trkpt lat="36.5852550" lon="-5.6831510">
        <ele>209.6</ele>
        <time>2020-12-08T11:03:29Z</time>
      </trkpt>
      <trkpt lat="36.5853130" lon="-5.6831750">
        <ele>209.6</ele>
        <time>2020-12-08T11:03:30Z</time>
      </trkpt>
      <trkpt lat="36.5854290" lon="-5.6832090">
        <ele>209.6</ele>
        <time>2020-12-08T11:03:32Z</time>
      </trkpt>
      <trkpt lat="36.5856070" lon="-5.6832100">
        <ele>209.6</ele>
        <time>2020-12-08T11:03:35Z</time>
      </trkpt>
      <trkpt lat="36.5860020" lon="-5.6831290">
        <ele>209.4</ele>
        <time>2020-12-08T11:03:42Z</time>
      </trkpt>
      <trkpt lat="36.5863950" lon="-5.6830800">
        <ele>209.8</ele>
        <time>2020-12-08T11:03:49Z</time>
      </trkpt>
      <trkpt lat="36.5864530" lon="-5.6830760">
        <ele>210.0</ele>
        <time>2020-12-08T11:03:50Z</time>
      </trkpt>
      <trkpt lat="36.5865110" lon="-5.6830760">
        <ele>210.0</ele>
        <time>2020-12-08T11:03:51Z</time>
      </trkpt>
      <trkpt lat="36.5866240" lon="-5.6830990">
        <ele>211.0</ele>
        <time>2020-12-08T11:03:53Z</time>
      </trkpt>
      <trkpt lat="36.5867340" lon="-5.6831460">
        <ele>211.6</ele>
        <time>2020-12-08T11:03:55Z</time>
      </trkpt>
      <trkpt lat="36.5867880" lon="-5.6831750">
        <ele>211.8</ele>
        <time>2020-12-08T11:03:56Z</time>
      </trkpt>
      <trkpt lat="36.5868400" lon="-5.6832060">
        <ele>212.2</ele>
        <time>2020-12-08T11:03:57Z</time>
      </trkpt>
      <trkpt lat="36.5871370" lon="-5.6834190">
        <ele>213.0</ele>
        <time>2020-12-08T11:04:03Z</time>
      </trkpt>
      <trkpt lat="36.5872680" lon="-5.6835220">
        <ele>213.4</ele>
        <time>2020-12-08T11:04:06Z</time>
      </trkpt>
      <trkpt lat="36.5873890" lon="-5.6836140">
        <ele>214.6</ele>
        <time>2020-12-08T11:04:09Z</time>
      </trkpt>
      <trkpt lat="36.5874690" lon="-5.6836720">
        <ele>215.4</ele>
        <time>2020-12-08T11:04:11Z</time>
      </trkpt>
      <trkpt lat="36.5875090" lon="-5.6837000">
        <ele>215.8</ele>
        <time>2020-12-08T11:04:12Z</time>
      </trkpt>
      <trkpt lat="36.5877050" lon="-5.6838230">
        <ele>216.8</ele>
        <time>2020-12-08T11:04:17Z</time>
      </trkpt>
      <trkpt lat="36.5878150" lon="-5.6838840">
        <ele>217.2</ele>
        <time>2020-12-08T11:04:20Z</time>
      </trkpt>
      <trkpt lat="36.5879230" lon="-5.6839480">
        <ele>217.8</ele>
        <time>2020-12-08T11:04:23Z</time>
      </trkpt>
      <trkpt lat="36.5880700" lon="-5.6840470">
        <ele>219.2</ele>
        <time>2020-12-08T11:04:27Z</time>
      </trkpt>
      <trkpt lat="36.5881440" lon="-5.6841050">
        <ele>220.0</ele>
        <time>2020-12-08T11:04:29Z</time>
      </trkpt>
      <trkpt lat="36.5881810" lon="-5.6841340">
        <ele>220.4</ele>
        <time>2020-12-08T11:04:30Z</time>
      </trkpt>
      <trkpt lat="36.5882530" lon="-5.6841920">
        <ele>221.4</ele>
        <time>2020-12-08T11:04:32Z</time>
      </trkpt>
      <trkpt lat="36.5884650" lon="-5.6843680">
        <ele>222.6</ele>
        <time>2020-12-08T11:04:38Z</time>
      </trkpt>
      <trkpt lat="36.5885420" lon="-5.6844310">
        <ele>223.2</ele>
        <time>2020-12-08T11:04:40Z</time>
      </trkpt>
      <trkpt lat="36.5886460" lon="-5.6845260">
        <ele>223.8</ele>
        <time>2020-12-08T11:04:43Z</time>
      </trkpt>
      <trkpt lat="36.5887800" lon="-5.6846450">
        <ele>224.8</ele>
        <time>2020-12-08T11:04:47Z</time>
      </trkpt>
      <trkpt lat="36.5888490" lon="-5.6847090">
        <ele>225.2</ele>
        <time>2020-12-08T11:04:49Z</time>
      </trkpt>
      <trkpt lat="36.5889950" lon="-5.6848390">
        <ele>226.0</ele>
        <time>2020-12-08T11:04:53Z</time>
      </trkpt>
      <trkpt lat="36.5891290" lon="-5.6849890">
        <ele>227.0</ele>
        <time>2020-12-08T11:04:57Z</time>
      </trkpt>
      <trkpt lat="36.5893880" lon="-5.6853620">
        <ele>228.2</ele>
        <time>2020-12-08T11:05:05Z</time>
      </trkpt>
      <trkpt lat="36.5896780" lon="-5.6858540">
        <ele>229.0</ele>
        <time>2020-12-08T11:05:15Z</time>
      </trkpt>
      <trkpt lat="36.5898300" lon="-5.6861170">
        <ele>229.2</ele>
        <time>2020-12-08T11:05:20Z</time>
      </trkpt>
      <trkpt lat="36.5898620" lon="-5.6861700">
        <ele>229.2</ele>
        <time>2020-12-08T11:05:21Z</time>
      </trkpt>
      <trkpt lat="36.5899230" lon="-5.6862780">
        <ele>231.0</ele>
        <time>2020-12-08T11:05:23Z</time>
      </trkpt>
      <trkpt lat="36.5899800" lon="-5.6863860">
        <ele>232.0</ele>
        <time>2020-12-08T11:05:25Z</time>
      </trkpt>
      <trkpt lat="36.5900690" lon="-5.6865400">
        <ele>232.4</ele>
        <time>2020-12-08T11:05:28Z</time>
      </trkpt>
      <trkpt lat="36.5903420" lon="-5.6869840">
        <ele>233.0</ele>
        <time>2020-12-08T11:05:37Z</time>
      </trkpt>
      <trkpt lat="36.5903730" lon="-5.6870350">
        <ele>233.2</ele>
        <time>2020-12-08T11:05:38Z</time>
      </trkpt>
      <trkpt lat="36.5906180" lon="-5.6874510">
        <ele>234.2</ele>
        <time>2020-12-08T11:05:46Z</time>
      </trkpt>
      <trkpt lat="36.5907130" lon="-5.6876060">
        <ele>235.4</ele>
        <time>2020-12-08T11:05:49Z</time>
      </trkpt>
      <trkpt lat="36.5908150" lon="-5.6877510">
        <ele>236.2</ele>
        <time>2020-12-08T11:05:52Z</time>
      </trkpt>
      <trkpt lat="36.5909250" lon="-5.6878930">
        <ele>236.4</ele>
        <time>2020-12-08T11:05:55Z</time>
      </trkpt>
      <trkpt lat="36.5911030" lon="-5.6881190">
        <ele>236.8</ele>
        <time>2020-12-08T11:06:00Z</time>
      </trkpt>
      <trkpt lat="36.5912110" lon="-5.6882450">
        <ele>237.4</ele>
        <time>2020-12-08T11:06:03Z</time>
      </trkpt>
      <trkpt lat="36.5913820" lon="-5.6884500">
        <ele>238.2</ele>
        <time>2020-12-08T11:06:08Z</time>
      </trkpt>
      <trkpt lat="36.5914790" lon="-5.6885810">
        <ele>238.4</ele>
        <time>2020-12-08T11:06:11Z</time>
      </trkpt>
      <trkpt lat="36.5916170" lon="-5.6887450">
        <ele>238.8</ele>
        <time>2020-12-08T11:06:15Z</time>
      </trkpt>
      <trkpt lat="36.5918380" lon="-5.6890290">
        <ele>239.4</ele>
        <time>2020-12-08T11:06:21Z</time>
      </trkpt>
      <trkpt lat="36.5919130" lon="-5.6891240">
        <ele>239.8</ele>
        <time>2020-12-08T11:06:23Z</time>
      </trkpt>
      <trkpt lat="36.5922290" lon="-5.6894950">
        <ele>240.6</ele>
        <time>2020-12-08T11:06:31Z</time>
      </trkpt>
      <trkpt lat="36.5923070" lon="-5.6895890">
        <ele>240.8</ele>
        <time>2020-12-08T11:06:33Z</time>
      </trkpt>
      <trkpt lat="36.5926120" lon="-5.6899640">
        <ele>241.6</ele>
        <time>2020-12-08T11:06:41Z</time>
      </trkpt>
      <trkpt lat="36.5927250" lon="-5.6900980">
        <ele>242.2</ele>
        <time>2020-12-08T11:06:44Z</time>
      </trkpt>
      <trkpt lat="36.5928320" lon="-5.6902310">
        <ele>242.6</ele>
        <time>2020-12-08T11:06:47Z</time>
      </trkpt>
      <trkpt lat="36.5930890" lon="-5.6905430">
        <ele>243.4</ele>
        <time>2020-12-08T11:06:54Z</time>
      </trkpt>
      <trkpt lat="36.5931650" lon="-5.6906340">
        <ele>244.0</ele>
        <time>2020-12-08T11:06:56Z</time>
      </trkpt>
      <trkpt lat="36.5934270" lon="-5.6909590">
        <ele>244.8</ele>
        <time>2020-12-08T11:07:03Z</time>
      </trkpt>
      <trkpt lat="36.5935050" lon="-5.6910520">
        <ele>245.0</ele>
        <time>2020-12-08T11:07:05Z</time>
      </trkpt>
      <trkpt lat="36.5937820" lon="-5.6913920">
        <ele>245.8</ele>
        <time>2020-12-08T11:07:12Z</time>
      </trkpt>
      <trkpt lat="36.5938620" lon="-5.6914910">
        <ele>246.0</ele>
        <time>2020-12-08T11:07:14Z</time>
      </trkpt>
      <trkpt lat="36.5941840" lon="-5.6918900">
        <ele>247.0</ele>
        <time>2020-12-08T11:07:22Z</time>
      </trkpt>
      <trkpt lat="36.5942250" lon="-5.6919390">
        <ele>247.0</ele>
        <time>2020-12-08T11:07:23Z</time>
      </trkpt>
      <trkpt lat="36.5945670" lon="-5.6923630">
        <ele>248.2</ele>
        <time>2020-12-08T11:07:32Z</time>
      </trkpt>
      <trkpt lat="36.5948170" lon="-5.6926470">
        <ele>249.0</ele>
        <time>2020-12-08T11:07:39Z</time>
      </trkpt>
      <trkpt lat="36.5949670" lon="-5.6928050">
        <ele>249.2</ele>
        <time>2020-12-08T11:07:43Z</time>
      </trkpt>
      <trkpt lat="36.5951220" lon="-5.6929800">
        <ele>250.4</ele>
        <time>2020-12-08T11:07:47Z</time>
      </trkpt>
      <trkpt lat="36.5952920" lon="-5.6931680">
        <ele>251.4</ele>
        <time>2020-12-08T11:07:51Z</time>
      </trkpt>
      <trkpt lat="36.5953950" lon="-5.6932580">
        <ele>251.4</ele>
        <time>2020-12-08T11:07:53Z</time>
      </trkpt>
      <trkpt lat="36.5958150" lon="-5.6935970">
        <ele>251.0</ele>
        <time>2020-12-08T11:08:00Z</time>
      </trkpt>
      <trkpt lat="36.5959470" lon="-5.6936980">
        <ele>250.2</ele>
        <time>2020-12-08T11:08:02Z</time>
      </trkpt>
      <trkpt lat="36.5962150" lon="-5.6939010">
        <ele>249.4</ele>
        <time>2020-12-08T11:08:06Z</time>
      </trkpt>
      <trkpt lat="36.5962860" lon="-5.6939410">
        <ele>249.2</ele>
        <time>2020-12-08T11:08:07Z</time>
      </trkpt>
      <trkpt lat="36.5966280" lon="-5.6941050">
        <ele>248.6</ele>
        <time>2020-12-08T11:08:12Z</time>
      </trkpt>
      <trkpt lat="36.5968250" lon="-5.6942660">
        <ele>248.0</ele>
        <time>2020-12-08T11:08:15Z</time>
      </trkpt>
      <trkpt lat="36.5969610" lon="-5.6943960">
        <ele>247.0</ele>
        <time>2020-12-08T11:08:17Z</time>
      </trkpt>
      <trkpt lat="36.5973990" lon="-5.6948430">
        <ele>246.0</ele>
        <time>2020-12-08T11:08:23Z</time>
      </trkpt>
      <trkpt lat="36.5976980" lon="-5.6951560">
        <ele>244.4</ele>
        <time>2020-12-08T11:08:27Z</time>
      </trkpt>
      <trkpt lat="36.5979920" lon="-5.6954490">
        <ele>243.4</ele>
        <time>2020-12-08T11:08:31Z</time>
      </trkpt>
      <trkpt lat="36.5980630" lon="-5.6955250">
        <ele>242.8</ele>
        <time>2020-12-08T11:08:32Z</time>
      </trkpt>
      <trkpt lat="36.5981340" lon="-5.6956010">
        <ele>241.6</ele>
        <time>2020-12-08T11:08:33Z</time>
      </trkpt>
      <trkpt lat="36.5982080" lon="-5.6956760">
        <ele>240.6</ele>
        <time>2020-12-08T11:08:34Z</time>
      </trkpt>
      <trkpt lat="36.5984310" lon="-5.6958980">
        <ele>239.4</ele>
        <time>2020-12-08T11:08:37Z</time>
      </trkpt>
      <trkpt lat="36.5985730" lon="-5.6960450">
        <ele>239.0</ele>
        <time>2020-12-08T11:08:39Z</time>
      </trkpt>
      <trkpt lat="36.5988400" lon="-5.6963380">
        <ele>238.2</ele>
        <time>2020-12-08T11:08:43Z</time>
      </trkpt>
      <trkpt lat="36.5990330" lon="-5.6965610">
        <ele>237.2</ele>
        <time>2020-12-08T11:08:46Z</time>
      </trkpt>
      <trkpt lat="36.5990990" lon="-5.6966320">
        <ele>237.0</ele>
        <time>2020-12-08T11:08:47Z</time>
      </trkpt>
      <trkpt lat="36.5993010" lon="-5.6968390">
        <ele>235.8</ele>
        <time>2020-12-08T11:08:50Z</time>
      </trkpt>
      <trkpt lat="36.5995680" lon="-5.6971150">
        <ele>234.8</ele>
        <time>2020-12-08T11:08:54Z</time>
      </trkpt>
      <trkpt lat="36.5997070" lon="-5.6972450">
        <ele>234.2</ele>
        <time>2020-12-08T11:08:56Z</time>
      </trkpt>
      <trkpt lat="36.5998390" lon="-5.6973810">
        <ele>233.8</ele>
        <time>2020-12-08T11:08:58Z</time>
      </trkpt>
      <trkpt lat="36.6001470" lon="-5.6977580">
        <ele>232.4</ele>
        <time>2020-12-08T11:09:03Z</time>
      </trkpt>
      <trkpt lat="36.6002820" lon="-5.6980240">
        <ele>231.4</ele>
        <time>2020-12-08T11:09:06Z</time>
      </trkpt>
      <trkpt lat="36.6003530" lon="-5.6982010">
        <ele>231.0</ele>
        <time>2020-12-08T11:09:08Z</time>
      </trkpt>
      <trkpt lat="36.6004620" lon="-5.6985420">
        <ele>230.4</ele>
        <time>2020-12-08T11:09:12Z</time>
      </trkpt>
      <trkpt lat="36.6005050" lon="-5.6987010">
        <ele>230.2</ele>
        <time>2020-12-08T11:09:14Z</time>
      </trkpt>
      <trkpt lat="36.6006610" lon="-5.6992610">
        <ele>230.0</ele>
        <time>2020-12-08T11:09:22Z</time>
      </trkpt>
      <trkpt lat="36.6008550" lon="-5.6999170">
        <ele>231.0</ele>
        <time>2020-12-08T11:09:32Z</time>
      </trkpt>
      <trkpt lat="36.6010010" lon="-5.7004320">
        <ele>231.6</ele>
        <time>2020-12-08T11:09:40Z</time>
      </trkpt>
      <trkpt lat="36.6010550" lon="-5.7006200">
        <ele>231.8</ele>
        <time>2020-12-08T11:09:43Z</time>
      </trkpt>
      <trkpt lat="36.6012570" lon="-5.7013110">
        <ele>232.4</ele>
        <time>2020-12-08T11:09:54Z</time>
      </trkpt>
      <trkpt lat="36.6012740" lon="-5.7013740">
        <ele>232.4</ele>
        <time>2020-12-08T11:09:55Z</time>
      </trkpt>
      <trkpt lat="36.6013270" lon="-5.7015600">
        <ele>232.6</ele>
        <time>2020-12-08T11:09:58Z</time>
      </trkpt>
      <trkpt lat="36.6013490" lon="-5.7016200">
        <ele>232.8</ele>
        <time>2020-12-08T11:09:59Z</time>
      </trkpt>
      <trkpt lat="36.6013950" lon="-5.7017400">
        <ele>233.2</ele>
        <time>2020-12-08T11:10:01Z</time>
      </trkpt>
      <trkpt lat="36.6014100" lon="-5.7018040">
        <ele>233.4</ele>
        <time>2020-12-08T11:10:02Z</time>
      </trkpt>
      <trkpt lat="36.6015360" lon="-5.7023510">
        <ele>234.0</ele>
        <time>2020-12-08T11:10:11Z</time>
      </trkpt>
      <trkpt lat="36.6015480" lon="-5.7024010">
        <ele>234.2</ele>
        <time>2020-12-08T11:10:12Z</time>
      </trkpt>
      <trkpt lat="36.6015900" lon="-5.7025750">
        <ele>234.6</ele>
        <time>2020-12-08T11:10:17Z</time>
      </trkpt>
      <trkpt lat="36.6016130" lon="-5.7026660">
        <ele>235.2</ele>
        <time>2020-12-08T11:10:20Z</time>
      </trkpt>
      <trkpt lat="36.6016370" lon="-5.7027430">
        <ele>235.6</ele>
        <time>2020-12-08T11:10:22Z</time>
      </trkpt>
      <trkpt lat="36.6017090" lon="-5.7030200">
        <ele>235.8</ele>
        <time>2020-12-08T11:10:27Z</time>
      </trkpt>
      <trkpt lat="36.6018380" lon="-5.7035560">
        <ele>234.8</ele>
        <time>2020-12-08T11:10:35Z</time>
      </trkpt>
      <trkpt lat="36.6020020" lon="-5.7041560">
        <ele>234.4</ele>
        <time>2020-12-08T11:10:44Z</time>
      </trkpt>
      <trkpt lat="36.6021980" lon="-5.7046930">
        <ele>234.4</ele>
        <time>2020-12-08T11:10:52Z</time>
      </trkpt>
      <trkpt lat="36.6024230" lon="-5.7052170">
        <ele>234.6</ele>
        <time>2020-12-08T11:11:00Z</time>
      </trkpt>
      <trkpt lat="36.6026640" lon="-5.7058240">
        <ele>235.0</ele>
        <time>2020-12-08T11:11:09Z</time>
      </trkpt>
      <trkpt lat="36.6027850" lon="-5.7063220">
        <ele>235.2</ele>
        <time>2020-12-08T11:11:16Z</time>
      </trkpt>
      <trkpt lat="36.6028480" lon="-5.7068670">
        <ele>235.6</ele>
        <time>2020-12-08T11:11:24Z</time>
      </trkpt>
      <trkpt lat="36.6028880" lon="-5.7073780">
        <ele>236.0</ele>
        <time>2020-12-08T11:11:32Z</time>
      </trkpt>
      <trkpt lat="36.6029190" lon="-5.7077520">
        <ele>236.6</ele>
        <time>2020-12-08T11:11:38Z</time>
      </trkpt>
      <trkpt lat="36.6029260" lon="-5.7078140">
        <ele>236.8</ele>
        <time>2020-12-08T11:11:39Z</time>
      </trkpt>
      <trkpt lat="36.6029730" lon="-5.7083640">
        <ele>237.6</ele>
        <time>2020-12-08T11:11:48Z</time>
      </trkpt>
      <trkpt lat="36.6029790" lon="-5.7084230">
        <ele>237.8</ele>
        <time>2020-12-08T11:11:49Z</time>
      </trkpt>
      <trkpt lat="36.6030330" lon="-5.7090680">
        <ele>238.6</ele>
        <time>2020-12-08T11:12:00Z</time>
      </trkpt>
      <trkpt lat="36.6030450" lon="-5.7091840">
        <ele>238.8</ele>
        <time>2020-12-08T11:12:02Z</time>
      </trkpt>
      <trkpt lat="36.6030620" lon="-5.7094120">
        <ele>240.0</ele>
        <time>2020-12-08T11:12:06Z</time>
      </trkpt>
      <trkpt lat="36.6030780" lon="-5.7095780">
        <ele>240.6</ele>
        <time>2020-12-08T11:12:09Z</time>
      </trkpt>
      <trkpt lat="36.6030900" lon="-5.7097470">
        <ele>241.0</ele>
        <time>2020-12-08T11:12:12Z</time>
      </trkpt>
      <trkpt lat="36.6031140" lon="-5.7100240">
        <ele>242.2</ele>
        <time>2020-12-08T11:12:17Z</time>
      </trkpt>
      <trkpt lat="36.6031220" lon="-5.7101340">
        <ele>243.0</ele>
        <time>2020-12-08T11:12:19Z</time>
      </trkpt>
      <trkpt lat="36.6031260" lon="-5.7101900">
        <ele>243.4</ele>
        <time>2020-12-08T11:12:20Z</time>
      </trkpt>
      <trkpt lat="36.6031450" lon="-5.7104090">
        <ele>244.6</ele>
        <time>2020-12-08T11:12:24Z</time>
      </trkpt>
      <trkpt lat="36.6031660" lon="-5.7106810">
        <ele>245.8</ele>
        <time>2020-12-08T11:12:29Z</time>
      </trkpt>
      <trkpt lat="36.6031920" lon="-5.7109970">
        <ele>246.8</ele>
        <time>2020-12-08T11:12:35Z</time>
      </trkpt>
      <trkpt lat="36.6032020" lon="-5.7111420">
        <ele>248.0</ele>
        <time>2020-12-08T11:12:38Z</time>
      </trkpt>
      <trkpt lat="36.6032150" lon="-5.7112910">
        <ele>249.2</ele>
        <time>2020-12-08T11:12:41Z</time>
      </trkpt>
      <trkpt lat="36.6032320" lon="-5.7114960">
        <ele>250.4</ele>
        <time>2020-12-08T11:12:45Z</time>
      </trkpt>
      <trkpt lat="36.6032380" lon="-5.7115500">
        <ele>250.6</ele>
        <time>2020-12-08T11:12:46Z</time>
      </trkpt>
      <trkpt lat="36.6032750" lon="-5.7120350">
        <ele>251.0</ele>
        <time>2020-12-08T11:12:54Z</time>
      </trkpt>
      <trkpt lat="36.6033240" lon="-5.7126480">
        <ele>251.0</ele>
        <time>2020-12-08T11:13:04Z</time>
      </trkpt>
      <trkpt lat="36.6033530" lon="-5.7130030">
        <ele>251.4</ele>
        <time>2020-12-08T11:13:10Z</time>
      </trkpt>
      <trkpt lat="36.6033610" lon="-5.7131210">
        <ele>251.8</ele>
        <time>2020-12-08T11:13:12Z</time>
      </trkpt>
      <trkpt lat="36.6033840" lon="-5.7134070">
        <ele>252.6</ele>
        <time>2020-12-08T11:13:17Z</time>
      </trkpt>
      <trkpt lat="36.6034060" lon="-5.7136240">
        <ele>253.6</ele>
        <time>2020-12-08T11:13:21Z</time>
      </trkpt>
      <trkpt lat="36.6034160" lon="-5.7137290">
        <ele>254.0</ele>
        <time>2020-12-08T11:13:23Z</time>
      </trkpt>
      <trkpt lat="36.6034690" lon="-5.7141790">
        <ele>254.4</ele>
        <time>2020-12-08T11:13:31Z</time>
      </trkpt>
      <trkpt lat="36.6034780" lon="-5.7142390">
        <ele>254.6</ele>
        <time>2020-12-08T11:13:32Z</time>
      </trkpt>
      <trkpt lat="36.6035140" lon="-5.7147480">
        <ele>255.0</ele>
        <time>2020-12-08T11:13:40Z</time>
      </trkpt>
      <trkpt lat="36.6035080" lon="-5.7152940">
        <ele>255.8</ele>
        <time>2020-12-08T11:13:48Z</time>
      </trkpt>
      <trkpt lat="36.6035030" lon="-5.7154280">
        <ele>256.0</ele>
        <time>2020-12-08T11:13:50Z</time>
      </trkpt>
      <trkpt lat="36.6034640" lon="-5.7157670">
        <ele>256.8</ele>
        <time>2020-12-08T11:13:55Z</time>
      </trkpt>
      <trkpt lat="36.6034350" lon="-5.7159060">
        <ele>257.2</ele>
        <time>2020-12-08T11:13:57Z</time>
      </trkpt>
      <trkpt lat="36.6032960" lon="-5.7164630">
        <ele>257.8</ele>
        <time>2020-12-08T11:14:04Z</time>
      </trkpt>
      <trkpt lat="36.6031290" lon="-5.7171070">
        <ele>257.0</ele>
        <time>2020-12-08T11:14:11Z</time>
      </trkpt>
      <trkpt lat="36.6030560" lon="-5.7174070">
        <ele>255.2</ele>
        <time>2020-12-08T11:14:14Z</time>
      </trkpt>
      <trkpt lat="36.6029810" lon="-5.7177280">
        <ele>254.0</ele>
        <time>2020-12-08T11:14:17Z</time>
      </trkpt>
      <trkpt lat="36.6029590" lon="-5.7178390">
        <ele>253.8</ele>
        <time>2020-12-08T11:14:18Z</time>
      </trkpt>
      <trkpt lat="36.6029000" lon="-5.7183020">
        <ele>253.0</ele>
        <time>2020-12-08T11:14:22Z</time>
      </trkpt>
      <trkpt lat="36.6028910" lon="-5.7184190">
        <ele>252.4</ele>
        <time>2020-12-08T11:14:23Z</time>
      </trkpt>
      <trkpt lat="36.6028850" lon="-5.7185340">
        <ele>251.8</ele>
        <time>2020-12-08T11:14:24Z</time>
      </trkpt>
      <trkpt lat="36.6028770" lon="-5.7188620">
        <ele>250.4</ele>
        <time>2020-12-08T11:14:27Z</time>
      </trkpt>
      <trkpt lat="36.6028810" lon="-5.7190650">
        <ele>249.8</ele>
        <time>2020-12-08T11:14:29Z</time>
      </trkpt>
      <trkpt lat="36.6028830" lon="-5.7191630">
        <ele>249.0</ele>
        <time>2020-12-08T11:14:30Z</time>
      </trkpt>
      <trkpt lat="36.6028840" lon="-5.7192610">
        <ele>247.8</ele>
        <time>2020-12-08T11:14:31Z</time>
      </trkpt>
      <trkpt lat="36.6028940" lon="-5.7199150">
        <ele>247.2</ele>
        <time>2020-12-08T11:14:38Z</time>
      </trkpt>
      <trkpt lat="36.6028900" lon="-5.7206100">
        <ele>247.8</ele>
        <time>2020-12-08T11:14:46Z</time>
      </trkpt>
      <trkpt lat="36.6028920" lon="-5.7207770">
        <ele>248.0</ele>
        <time>2020-12-08T11:14:48Z</time>
      </trkpt>
      <trkpt lat="36.6029190" lon="-5.7215120">
        <ele>248.8</ele>
        <time>2020-12-08T11:14:57Z</time>
      </trkpt>
      <trkpt lat="36.6029270" lon="-5.7215940">
        <ele>248.8</ele>
        <time>2020-12-08T11:14:58Z</time>
      </trkpt>
      <trkpt lat="36.6030010" lon="-5.7223410">
        <ele>248.6</ele>
        <time>2020-12-08T11:15:07Z</time>
      </trkpt>
      <trkpt lat="36.6030180" lon="-5.7225130">
        <ele>248.6</ele>
        <time>2020-12-08T11:15:09Z</time>
      </trkpt>
      <trkpt lat="36.6030810" lon="-5.7232110">
        <ele>248.6</ele>
        <time>2020-12-08T11:15:17Z</time>
      </trkpt>
      <trkpt lat="36.6030890" lon="-5.7233900">
        <ele>248.4</ele>
        <time>2020-12-08T11:15:19Z</time>
      </trkpt>
      <trkpt lat="36.6030520" lon="-5.7241150">
        <ele>247.6</ele>
        <time>2020-12-08T11:15:27Z</time>
      </trkpt>
      <trkpt lat="36.6028950" lon="-5.7248310">
        <ele>247.2</ele>
        <time>2020-12-08T11:15:35Z</time>
      </trkpt>
      <trkpt lat="36.6027040" lon="-5.7254700">
        <ele>247.0</ele>
        <time>2020-12-08T11:15:42Z</time>
      </trkpt>
      <trkpt lat="36.6026770" lon="-5.7255590">
        <ele>246.8</ele>
        <time>2020-12-08T11:15:43Z</time>
      </trkpt>
      <trkpt lat="36.6025910" lon="-5.7258370">
        <ele>246.6</ele>
        <time>2020-12-08T11:15:46Z</time>
      </trkpt>
      <trkpt lat="36.6024170" lon="-5.7264110">
        <ele>245.8</ele>
        <time>2020-12-08T11:15:52Z</time>
      </trkpt>
      <trkpt lat="36.6023340" lon="-5.7266930">
        <ele>245.4</ele>
        <time>2020-12-08T11:15:55Z</time>
      </trkpt>
      <trkpt lat="36.6021950" lon="-5.7271630">
        <ele>244.6</ele>
        <time>2020-12-08T11:16:00Z</time>
      </trkpt>
      <trkpt lat="36.6021380" lon="-5.7273500">
        <ele>244.6</ele>
        <time>2020-12-08T11:16:02Z</time>
      </trkpt>
      <trkpt lat="36.6019750" lon="-5.7278980">
        <ele>244.4</ele>
        <time>2020-12-08T11:16:08Z</time>
      </trkpt>
      <trkpt lat="36.6017840" lon="-5.7285390">
        <ele>244.2</ele>
        <time>2020-12-08T11:16:15Z</time>
      </trkpt>
      <trkpt lat="36.6017270" lon="-5.7287150">
        <ele>244.0</ele>
        <time>2020-12-08T11:16:17Z</time>
      </trkpt>
      <trkpt lat="36.6015110" lon="-5.7293350">
        <ele>244.0</ele>
        <time>2020-12-08T11:16:24Z</time>
      </trkpt>
      <trkpt lat="36.6014800" lon="-5.7294250">
        <ele>244.0</ele>
        <time>2020-12-08T11:16:25Z</time>
      </trkpt>
      <trkpt lat="36.6012750" lon="-5.7300660">
        <ele>244.0</ele>
        <time>2020-12-08T11:16:32Z</time>
      </trkpt>
      <trkpt lat="36.6012540" lon="-5.7301620">
        <ele>244.0</ele>
        <time>2020-12-08T11:16:33Z</time>
      </trkpt>
      <trkpt lat="36.6011760" lon="-5.7307320">
        <ele>244.0</ele>
        <time>2020-12-08T11:16:39Z</time>
      </trkpt>
      <trkpt lat="36.6011540" lon="-5.7309250">
        <ele>243.6</ele>
        <time>2020-12-08T11:16:41Z</time>
      </trkpt>
      <trkpt lat="36.6010800" lon="-5.7316110">
        <ele>242.8</ele>
        <time>2020-12-08T11:16:48Z</time>
      </trkpt>
      <trkpt lat="36.6010670" lon="-5.7317080">
        <ele>242.6</ele>
        <time>2020-12-08T11:16:49Z</time>
      </trkpt>
      <trkpt lat="36.6010530" lon="-5.7318040">
        <ele>242.6</ele>
        <time>2020-12-08T11:16:50Z</time>
      </trkpt>
      <trkpt lat="36.6010000" lon="-5.7322880">
        <ele>241.6</ele>
        <time>2020-12-08T11:16:55Z</time>
      </trkpt>
      <trkpt lat="36.6009870" lon="-5.7323840">
        <ele>241.6</ele>
        <time>2020-12-08T11:16:56Z</time>
      </trkpt>
      <trkpt lat="36.6008360" lon="-5.7330470">
        <ele>241.4</ele>
        <time>2020-12-08T11:17:03Z</time>
      </trkpt>
      <trkpt lat="36.6006420" lon="-5.7337110">
        <ele>241.8</ele>
        <time>2020-12-08T11:17:10Z</time>
      </trkpt>
      <trkpt lat="36.6005870" lon="-5.7339010">
        <ele>241.8</ele>
        <time>2020-12-08T11:17:12Z</time>
      </trkpt>
      <trkpt lat="36.6003910" lon="-5.7345760">
        <ele>242.2</ele>
        <time>2020-12-08T11:17:19Z</time>
      </trkpt>
      <trkpt lat="36.6003110" lon="-5.7348590">
        <ele>242.2</ele>
        <time>2020-12-08T11:17:22Z</time>
      </trkpt>
      <trkpt lat="36.6001270" lon="-5.7354990">
        <ele>242.6</ele>
        <time>2020-12-08T11:17:29Z</time>
      </trkpt>
      <trkpt lat="36.6000760" lon="-5.7356810">
        <ele>242.8</ele>
        <time>2020-12-08T11:17:31Z</time>
      </trkpt>
      <trkpt lat="36.5999210" lon="-5.7363270">
        <ele>243.0</ele>
        <time>2020-12-08T11:17:38Z</time>
      </trkpt>
      <trkpt lat="36.5998940" lon="-5.7365150">
        <ele>243.2</ele>
        <time>2020-12-08T11:17:40Z</time>
      </trkpt>
      <trkpt lat="36.5998250" lon="-5.7372490">
        <ele>243.6</ele>
        <time>2020-12-08T11:17:48Z</time>
      </trkpt>
      <trkpt lat="36.5998170" lon="-5.7373400">
        <ele>243.6</ele>
        <time>2020-12-08T11:17:49Z</time>
      </trkpt>
      <trkpt lat="36.5997910" lon="-5.7376090">
        <ele>243.8</ele>
        <time>2020-12-08T11:17:52Z</time>
      </trkpt>
      <trkpt lat="36.5997130" lon="-5.7383220">
        <ele>244.2</ele>
        <time>2020-12-08T11:18:00Z</time>
      </trkpt>
      <trkpt lat="36.5996600" lon="-5.7390600">
        <ele>244.6</ele>
        <time>2020-12-08T11:18:08Z</time>
      </trkpt>
      <trkpt lat="36.5996540" lon="-5.7391560">
        <ele>244.6</ele>
        <time>2020-12-08T11:18:09Z</time>
      </trkpt>
      <trkpt lat="36.5996160" lon="-5.7398520">
        <ele>244.8</ele>
        <time>2020-12-08T11:18:16Z</time>
      </trkpt>
      <trkpt lat="36.5996010" lon="-5.7400560">
        <ele>244.8</ele>
        <time>2020-12-08T11:18:18Z</time>
      </trkpt>
      <trkpt lat="36.5995060" lon="-5.7407680">
        <ele>244.6</ele>
        <time>2020-12-08T11:18:25Z</time>
      </trkpt>
      <trkpt lat="36.5994630" lon="-5.7409720">
        <ele>244.6</ele>
        <time>2020-12-08T11:18:27Z</time>
      </trkpt>
      <trkpt lat="36.5993190" lon="-5.7416840">
        <ele>244.6</ele>
        <time>2020-12-08T11:18:34Z</time>
      </trkpt>
      <trkpt lat="36.5992760" lon="-5.7418870">
        <ele>244.6</ele>
        <time>2020-12-08T11:18:36Z</time>
      </trkpt>
      <trkpt lat="36.5991270" lon="-5.7426020">
        <ele>244.4</ele>
        <time>2020-12-08T11:18:43Z</time>
      </trkpt>
      <trkpt lat="36.5990230" lon="-5.7431060">
        <ele>244.4</ele>
        <time>2020-12-08T11:18:48Z</time>
      </trkpt>
      <trkpt lat="36.5988580" lon="-5.7438210">
        <ele>243.0</ele>
        <time>2020-12-08T11:18:55Z</time>
      </trkpt>
      <trkpt lat="36.5987050" lon="-5.7443530">
        <ele>242.2</ele>
        <time>2020-12-08T11:19:00Z</time>
      </trkpt>
      <trkpt lat="36.5986310" lon="-5.7445840">
        <ele>241.6</ele>
        <time>2020-12-08T11:19:02Z</time>
      </trkpt>
      <trkpt lat="36.5985470" lon="-5.7448250">
        <ele>241.0</ele>
        <time>2020-12-08T11:19:04Z</time>
      </trkpt>
      <trkpt lat="36.5984160" lon="-5.7452020">
        <ele>239.8</ele>
        <time>2020-12-08T11:19:07Z</time>
      </trkpt>
      <trkpt lat="36.5983730" lon="-5.7453310">
        <ele>239.4</ele>
        <time>2020-12-08T11:19:08Z</time>
      </trkpt>
      <trkpt lat="36.5982850" lon="-5.7455930">
        <ele>238.6</ele>
        <time>2020-12-08T11:19:10Z</time>
      </trkpt>
      <trkpt lat="36.5981550" lon="-5.7459980">
        <ele>237.2</ele>
        <time>2020-12-08T11:19:13Z</time>
      </trkpt>
      <trkpt lat="36.5980730" lon="-5.7462740">
        <ele>236.4</ele>
        <time>2020-12-08T11:19:15Z</time>
      </trkpt>
      <trkpt lat="36.5980290" lon="-5.7464140">
        <ele>236.0</ele>
        <time>2020-12-08T11:19:16Z</time>
      </trkpt>
      <trkpt lat="36.5978770" lon="-5.7468180">
        <ele>234.6</ele>
        <time>2020-12-08T11:19:19Z</time>
      </trkpt>
      <trkpt lat="36.5978160" lon="-5.7469410">
        <ele>234.2</ele>
        <time>2020-12-08T11:19:20Z</time>
      </trkpt>
      <trkpt lat="36.5977530" lon="-5.7470550">
        <ele>233.0</ele>
        <time>2020-12-08T11:19:21Z</time>
      </trkpt>
      <trkpt lat="36.5976190" lon="-5.7472640">
        <ele>231.6</ele>
        <time>2020-12-08T11:19:23Z</time>
      </trkpt>
      <trkpt lat="36.5975450" lon="-5.7473580">
        <ele>231.0</ele>
        <time>2020-12-08T11:19:24Z</time>
      </trkpt>
      <trkpt lat="36.5974670" lon="-5.7474470">
        <ele>230.8</ele>
        <time>2020-12-08T11:19:25Z</time>
      </trkpt>
      <trkpt lat="36.5973050" lon="-5.7476130">
        <ele>229.8</ele>
        <time>2020-12-08T11:19:27Z</time>
      </trkpt>
      <trkpt lat="36.5971550" lon="-5.7477760">
        <ele>228.6</ele>
        <time>2020-12-08T11:19:29Z</time>
      </trkpt>
      <trkpt lat="36.5970180" lon="-5.7479310">
        <ele>227.4</ele>
        <time>2020-12-08T11:19:31Z</time>
      </trkpt>
      <trkpt lat="36.5968840" lon="-5.7480750">
        <ele>226.2</ele>
        <time>2020-12-08T11:19:33Z</time>
      </trkpt>
      <trkpt lat="36.5967560" lon="-5.7482110">
        <ele>225.4</ele>
        <time>2020-12-08T11:19:35Z</time>
      </trkpt>
      <trkpt lat="36.5966930" lon="-5.7482760">
        <ele>225.0</ele>
        <time>2020-12-08T11:19:36Z</time>
      </trkpt>
      <trkpt lat="36.5965110" lon="-5.7484590">
        <ele>223.6</ele>
        <time>2020-12-08T11:19:39Z</time>
      </trkpt>
      <trkpt lat="36.5964040" lon="-5.7485770">
        <ele>222.8</ele>
        <time>2020-12-08T11:19:41Z</time>
      </trkpt>
      <trkpt lat="36.5963520" lon="-5.7486340">
        <ele>222.6</ele>
        <time>2020-12-08T11:19:42Z</time>
      </trkpt>
      <trkpt lat="36.5962020" lon="-5.7487990">
        <ele>221.6</ele>
        <time>2020-12-08T11:19:45Z</time>
      </trkpt>
      <trkpt lat="36.5960500" lon="-5.7489580">
        <ele>220.6</ele>
        <time>2020-12-08T11:19:48Z</time>
      </trkpt>
      <trkpt lat="36.5960000" lon="-5.7490110">
        <ele>220.2</ele>
        <time>2020-12-08T11:19:49Z</time>
      </trkpt>
      <trkpt lat="36.5959500" lon="-5.7490650">
        <ele>219.4</ele>
        <time>2020-12-08T11:19:50Z</time>
      </trkpt>
      <trkpt lat="36.5957500" lon="-5.7492850">
        <ele>218.2</ele>
        <time>2020-12-08T11:19:54Z</time>
      </trkpt>
      <trkpt lat="36.5956030" lon="-5.7494430">
        <ele>217.4</ele>
        <time>2020-12-08T11:19:57Z</time>
      </trkpt>
      <trkpt lat="36.5955070" lon="-5.7495460">
        <ele>217.2</ele>
        <time>2020-12-08T11:19:59Z</time>
      </trkpt>
      <trkpt lat="36.5952350" lon="-5.7498700">
        <ele>216.2</ele>
        <time>2020-12-08T11:20:05Z</time>
      </trkpt>
      <trkpt lat="36.5951940" lon="-5.7499300">
        <ele>216.0</ele>
        <time>2020-12-08T11:20:06Z</time>
      </trkpt>
      <trkpt lat="36.5949940" lon="-5.7502320">
        <ele>215.2</ele>
        <time>2020-12-08T11:20:11Z</time>
      </trkpt>
      <trkpt lat="36.5948870" lon="-5.7504190">
        <ele>215.0</ele>
        <time>2020-12-08T11:20:14Z</time>
      </trkpt>
      <trkpt lat="36.5947460" lon="-5.7506680">
        <ele>214.2</ele>
        <time>2020-12-08T11:20:18Z</time>
      </trkpt>
      <trkpt lat="36.5945430" lon="-5.7510400">
        <ele>213.8</ele>
        <time>2020-12-08T11:20:24Z</time>
      </trkpt>
      <trkpt lat="36.5942530" lon="-5.7516060">
        <ele>213.2</ele>
        <time>2020-12-08T11:20:33Z</time>
      </trkpt>
      <trkpt lat="36.5940590" lon="-5.7520610">
        <ele>213.2</ele>
        <time>2020-12-08T11:20:40Z</time>
      </trkpt>
      <trkpt lat="36.5938390" lon="-5.7526440">
        <ele>213.2</ele>
        <time>2020-12-08T11:20:49Z</time>
      </trkpt>
      <trkpt lat="36.5936120" lon="-5.7532110">
        <ele>213.2</ele>
        <time>2020-12-08T11:20:57Z</time>
      </trkpt>
      <trkpt lat="36.5933990" lon="-5.7538310">
        <ele>213.4</ele>
        <time>2020-12-08T11:21:05Z</time>
      </trkpt>
      <trkpt lat="36.5933770" lon="-5.7539140">
        <ele>213.4</ele>
        <time>2020-12-08T11:21:06Z</time>
      </trkpt>
      <trkpt lat="36.5932350" lon="-5.7546320">
        <ele>213.2</ele>
        <time>2020-12-08T11:21:14Z</time>
      </trkpt>
      <trkpt lat="36.5931180" lon="-5.7552920">
        <ele>212.8</ele>
        <time>2020-12-08T11:21:21Z</time>
      </trkpt>
      <trkpt lat="36.5931020" lon="-5.7553840">
        <ele>212.6</ele>
        <time>2020-12-08T11:21:22Z</time>
      </trkpt>
      <trkpt lat="36.5930670" lon="-5.7555680">
        <ele>212.2</ele>
        <time>2020-12-08T11:21:24Z</time>
      </trkpt>
      <trkpt lat="36.5929500" lon="-5.7562250">
        <ele>211.0</ele>
        <time>2020-12-08T11:21:31Z</time>
      </trkpt>
      <trkpt lat="36.5929210" lon="-5.7568170">
        <ele>209.8</ele>
        <time>2020-12-08T11:21:37Z</time>
      </trkpt>
      <trkpt lat="36.5930100" lon="-5.7573950">
        <ele>209.4</ele>
        <time>2020-12-08T11:21:43Z</time>
      </trkpt>
      <trkpt lat="36.5930720" lon="-5.7575720">
        <ele>208.8</ele>
        <time>2020-12-08T11:21:45Z</time>
      </trkpt>
      <trkpt lat="36.5932330" lon="-5.7580220">
        <ele>208.0</ele>
        <time>2020-12-08T11:21:50Z</time>
      </trkpt>
      <trkpt lat="36.5932620" lon="-5.7581170">
        <ele>207.8</ele>
        <time>2020-12-08T11:21:51Z</time>
      </trkpt>
      <trkpt lat="36.5933350" lon="-5.7585120">
        <ele>206.8</ele>
        <time>2020-12-08T11:21:55Z</time>
      </trkpt>
      <trkpt lat="36.5933390" lon="-5.7586130">
        <ele>206.6</ele>
        <time>2020-12-08T11:21:56Z</time>
      </trkpt>
      <trkpt lat="36.5932980" lon="-5.7590220">
        <ele>206.2</ele>
        <time>2020-12-08T11:22:00Z</time>
      </trkpt>
      <trkpt lat="36.5932500" lon="-5.7592240">
        <ele>205.8</ele>
        <time>2020-12-08T11:22:02Z</time>
      </trkpt>
      <trkpt lat="36.5931970" lon="-5.7594270">
        <ele>205.4</ele>
        <time>2020-12-08T11:22:04Z</time>
      </trkpt>
      <trkpt lat="36.5931140" lon="-5.7597210">
        <ele>205.0</ele>
        <time>2020-12-08T11:22:07Z</time>
      </trkpt>
      <trkpt lat="36.5929550" lon="-5.7603190">
        <ele>204.4</ele>
        <time>2020-12-08T11:22:13Z</time>
      </trkpt>
      <trkpt lat="36.5928680" lon="-5.7606440">
        <ele>203.8</ele>
        <time>2020-12-08T11:22:16Z</time>
      </trkpt>
      <trkpt lat="36.5927280" lon="-5.7610970">
        <ele>203.2</ele>
        <time>2020-12-08T11:22:20Z</time>
      </trkpt>
      <trkpt lat="36.5926090" lon="-5.7614250">
        <ele>202.8</ele>
        <time>2020-12-08T11:22:23Z</time>
      </trkpt>
      <trkpt lat="36.5925160" lon="-5.7616240">
        <ele>202.2</ele>
        <time>2020-12-08T11:22:25Z</time>
      </trkpt>
      <trkpt lat="36.5923620" lon="-5.7618920">
        <ele>201.2</ele>
        <time>2020-12-08T11:22:28Z</time>
      </trkpt>
      <trkpt lat="36.5923100" lon="-5.7619770">
        <ele>201.0</ele>
        <time>2020-12-08T11:22:29Z</time>
      </trkpt>
      <trkpt lat="36.5921500" lon="-5.7622190">
        <ele>199.4</ele>
        <time>2020-12-08T11:22:32Z</time>
      </trkpt>
      <trkpt lat="36.5919920" lon="-5.7624510">
        <ele>198.2</ele>
        <time>2020-12-08T11:22:35Z</time>
      </trkpt>
      <trkpt lat="36.5919430" lon="-5.7625300">
        <ele>198.0</ele>
        <time>2020-12-08T11:22:36Z</time>
      </trkpt>
      <trkpt lat="36.5918050" lon="-5.7627640">
        <ele>197.2</ele>
        <time>2020-12-08T11:22:39Z</time>
      </trkpt>
      <trkpt lat="36.5917010" lon="-5.7630010">
        <ele>195.8</ele>
        <time>2020-12-08T11:22:42Z</time>
      </trkpt>
      <trkpt lat="36.5916000" lon="-5.7633210">
        <ele>194.8</ele>
        <time>2020-12-08T11:22:46Z</time>
      </trkpt>
      <trkpt lat="36.5915380" lon="-5.7635640">
        <ele>193.8</ele>
        <time>2020-12-08T11:22:49Z</time>
      </trkpt>
      <trkpt lat="36.5913960" lon="-5.7640580">
        <ele>192.8</ele>
        <time>2020-12-08T11:22:55Z</time>
      </trkpt>
      <trkpt lat="36.5913540" lon="-5.7642180">
        <ele>192.6</ele>
        <time>2020-12-08T11:22:57Z</time>
      </trkpt>
      <trkpt lat="36.5911680" lon="-5.7647390">
        <ele>192.8</ele>
        <time>2020-12-08T11:23:04Z</time>
      </trkpt>
      <trkpt lat="36.5909560" lon="-5.7652180">
        <ele>194.0</ele>
        <time>2020-12-08T11:23:11Z</time>
      </trkpt>
      <trkpt lat="36.5909260" lon="-5.7652850">
        <ele>194.0</ele>
        <time>2020-12-08T11:23:12Z</time>
      </trkpt>
      <trkpt lat="36.5907850" lon="-5.7656070">
        <ele>195.0</ele>
        <time>2020-12-08T11:23:17Z</time>
      </trkpt>
      <trkpt lat="36.5906900" lon="-5.7658540">
        <ele>195.6</ele>
        <time>2020-12-08T11:23:21Z</time>
      </trkpt>
      <trkpt lat="36.5906090" lon="-5.7661630">
        <ele>196.0</ele>
        <time>2020-12-08T11:23:26Z</time>
      </trkpt>
      <trkpt lat="36.5905820" lon="-5.7662830">
        <ele>196.4</ele>
        <time>2020-12-08T11:23:28Z</time>
      </trkpt>
      <trkpt lat="36.5905300" lon="-5.7665180">
        <ele>197.2</ele>
        <time>2020-12-08T11:23:32Z</time>
      </trkpt>
      <trkpt lat="36.5904640" lon="-5.7667990">
        <ele>198.4</ele>
        <time>2020-12-08T11:23:37Z</time>
      </trkpt>
      <trkpt lat="36.5904240" lon="-5.7670210">
        <ele>199.6</ele>
        <time>2020-12-08T11:23:41Z</time>
      </trkpt>
      <trkpt lat="36.5903950" lon="-5.7672520">
        <ele>199.8</ele>
        <time>2020-12-08T11:23:45Z</time>
      </trkpt>
      <trkpt lat="36.5903610" lon="-5.7675590">
        <ele>200.4</ele>
        <time>2020-12-08T11:23:50Z</time>
      </trkpt>
      <trkpt lat="36.5903390" lon="-5.7677610">
        <ele>201.2</ele>
        <time>2020-12-08T11:23:53Z</time>
      </trkpt>
      <trkpt lat="36.5903260" lon="-5.7679040">
        <ele>201.6</ele>
        <time>2020-12-08T11:23:55Z</time>
      </trkpt>
      <trkpt lat="36.5902900" lon="-5.7683100">
        <ele>202.0</ele>
        <time>2020-12-08T11:24:00Z</time>
      </trkpt>
      <trkpt lat="36.5902820" lon="-5.7684930">
        <ele>202.0</ele>
        <time>2020-12-08T11:24:02Z</time>
      </trkpt>
      <trkpt lat="36.5902980" lon="-5.7687830">
        <ele>202.0</ele>
        <time>2020-12-08T11:24:05Z</time>
      </trkpt>
      <trkpt lat="36.5904310" lon="-5.7691830">
        <ele>201.2</ele>
        <time>2020-12-08T11:24:09Z</time>
      </trkpt>
      <trkpt lat="36.5906970" lon="-5.7695260">
        <ele>200.2</ele>
        <time>2020-12-08T11:24:13Z</time>
      </trkpt>
      <trkpt lat="36.5909980" lon="-5.7698550">
        <ele>199.0</ele>
        <time>2020-12-08T11:24:17Z</time>
      </trkpt>
      <trkpt lat="36.5910620" lon="-5.7699520">
        <ele>198.8</ele>
        <time>2020-12-08T11:24:18Z</time>
      </trkpt>
      <trkpt lat="36.5911970" lon="-5.7702940">
        <ele>197.6</ele>
        <time>2020-12-08T11:24:21Z</time>
      </trkpt>
      <trkpt lat="36.5912410" lon="-5.7706780">
        <ele>196.8</ele>
        <time>2020-12-08T11:24:24Z</time>
      </trkpt>
      <trkpt lat="36.5912380" lon="-5.7708090">
        <ele>196.2</ele>
        <time>2020-12-08T11:24:25Z</time>
      </trkpt>
      <trkpt lat="36.5912300" lon="-5.7712040">
        <ele>194.8</ele>
        <time>2020-12-08T11:24:28Z</time>
      </trkpt>
      <trkpt lat="36.5912320" lon="-5.7714720">
        <ele>193.8</ele>
        <time>2020-12-08T11:24:30Z</time>
      </trkpt>
      <trkpt lat="36.5912400" lon="-5.7717480">
        <ele>192.8</ele>
        <time>2020-12-08T11:24:32Z</time>
      </trkpt>
      <trkpt lat="36.5912610" lon="-5.7720270">
        <ele>191.4</ele>
        <time>2020-12-08T11:24:34Z</time>
      </trkpt>
      <trkpt lat="36.5912920" lon="-5.7723060">
        <ele>190.0</ele>
        <time>2020-12-08T11:24:36Z</time>
      </trkpt>
      <trkpt lat="36.5913440" lon="-5.7725850">
        <ele>188.0</ele>
        <time>2020-12-08T11:24:38Z</time>
      </trkpt>
      <trkpt lat="36.5914360" lon="-5.7728480">
        <ele>187.2</ele>
        <time>2020-12-08T11:24:40Z</time>
      </trkpt>
      <trkpt lat="36.5914970" lon="-5.7729670">
        <ele>186.8</ele>
        <time>2020-12-08T11:24:41Z</time>
      </trkpt>
      <trkpt lat="36.5915610" lon="-5.7730820">
        <ele>186.2</ele>
        <time>2020-12-08T11:24:42Z</time>
      </trkpt>
      <trkpt lat="36.5916240" lon="-5.7731980">
        <ele>185.4</ele>
        <time>2020-12-08T11:24:43Z</time>
      </trkpt>
      <trkpt lat="36.5917390" lon="-5.7734390">
        <ele>184.2</ele>
        <time>2020-12-08T11:24:45Z</time>
      </trkpt>
      <trkpt lat="36.5918400" lon="-5.7736860">
        <ele>183.0</ele>
        <time>2020-12-08T11:24:47Z</time>
      </trkpt>
      <trkpt lat="36.5919260" lon="-5.7739330">
        <ele>181.8</ele>
        <time>2020-12-08T11:24:49Z</time>
      </trkpt>
      <trkpt lat="36.5919590" lon="-5.7740570">
        <ele>181.2</ele>
        <time>2020-12-08T11:24:50Z</time>
      </trkpt>
      <trkpt lat="36.5919850" lon="-5.7741830">
        <ele>180.6</ele>
        <time>2020-12-08T11:24:51Z</time>
      </trkpt>
      <trkpt lat="36.5920000" lon="-5.7743090">
        <ele>180.0</ele>
        <time>2020-12-08T11:24:52Z</time>
      </trkpt>
      <trkpt lat="36.5920020" lon="-5.7744360">
        <ele>179.4</ele>
        <time>2020-12-08T11:24:53Z</time>
      </trkpt>
      <trkpt lat="36.5919710" lon="-5.7746880">
        <ele>178.4</ele>
        <time>2020-12-08T11:24:55Z</time>
      </trkpt>
      <trkpt lat="36.5919080" lon="-5.7749320">
        <ele>177.4</ele>
        <time>2020-12-08T11:24:57Z</time>
      </trkpt>
      <trkpt lat="36.5918360" lon="-5.7751710">
        <ele>176.2</ele>
        <time>2020-12-08T11:24:59Z</time>
      </trkpt>
      <trkpt lat="36.5917410" lon="-5.7755190">
        <ele>174.8</ele>
        <time>2020-12-08T11:25:02Z</time>
      </trkpt>
      <trkpt lat="36.5917050" lon="-5.7757480">
        <ele>173.8</ele>
        <time>2020-12-08T11:25:04Z</time>
      </trkpt>
      <trkpt lat="36.5917000" lon="-5.7758620">
        <ele>173.6</ele>
        <time>2020-12-08T11:25:05Z</time>
      </trkpt>
      <trkpt lat="36.5917060" lon="-5.7760860">
        <ele>172.2</ele>
        <time>2020-12-08T11:25:07Z</time>
      </trkpt>
      <trkpt lat="36.5917130" lon="-5.7761950">
        <ele>171.6</ele>
        <time>2020-12-08T11:25:08Z</time>
      </trkpt>
      <trkpt lat="36.5917190" lon="-5.7763030">
        <ele>171.0</ele>
        <time>2020-12-08T11:25:09Z</time>
      </trkpt>
      <trkpt lat="36.5917310" lon="-5.7767300">
        <ele>169.8</ele>
        <time>2020-12-08T11:25:13Z</time>
      </trkpt>
      <trkpt lat="36.5917200" lon="-5.7770450">
        <ele>169.4</ele>
        <time>2020-12-08T11:25:16Z</time>
      </trkpt>
      <trkpt lat="36.5916350" lon="-5.7776700">
        <ele>168.8</ele>
        <time>2020-12-08T11:25:22Z</time>
      </trkpt>
      <trkpt lat="36.5916160" lon="-5.7777720">
        <ele>168.8</ele>
        <time>2020-12-08T11:25:23Z</time>
      </trkpt>
      <trkpt lat="36.5915420" lon="-5.7783920">
        <ele>168.0</ele>
        <time>2020-12-08T11:25:29Z</time>
      </trkpt>
      <trkpt lat="36.5915430" lon="-5.7787050">
        <ele>167.8</ele>
        <time>2020-12-08T11:25:32Z</time>
      </trkpt>
      <trkpt lat="36.5915650" lon="-5.7790160">
        <ele>167.2</ele>
        <time>2020-12-08T11:25:35Z</time>
      </trkpt>
      <trkpt lat="36.5916220" lon="-5.7794280">
        <ele>166.6</ele>
        <time>2020-12-08T11:25:39Z</time>
      </trkpt>
      <trkpt lat="36.5916790" lon="-5.7797380">
        <ele>166.6</ele>
        <time>2020-12-08T11:25:42Z</time>
      </trkpt>
      <trkpt lat="36.5918270" lon="-5.7802290">
        <ele>166.4</ele>
        <time>2020-12-08T11:25:47Z</time>
      </trkpt>
      <trkpt lat="36.5920770" lon="-5.7806500">
        <ele>166.2</ele>
        <time>2020-12-08T11:25:52Z</time>
      </trkpt>
      <trkpt lat="36.5923040" lon="-5.7808060">
        <ele>166.2</ele>
        <time>2020-12-08T11:25:55Z</time>
      </trkpt>
      <trkpt lat="36.5923830" lon="-5.7808460">
        <ele>166.2</ele>
        <time>2020-12-08T11:25:56Z</time>
      </trkpt>
      <trkpt lat="36.5926820" lon="-5.7810230">
        <ele>165.8</ele>
        <time>2020-12-08T11:26:00Z</time>
      </trkpt>
      <trkpt lat="36.5928080" lon="-5.7811350">
        <ele>165.6</ele>
        <time>2020-12-08T11:26:02Z</time>
      </trkpt>
      <trkpt lat="36.5929800" lon="-5.7813110">
        <ele>165.2</ele>
        <time>2020-12-08T11:26:05Z</time>
      </trkpt>
      <trkpt lat="36.5931790" lon="-5.7816110">
        <ele>164.6</ele>
        <time>2020-12-08T11:26:09Z</time>
      </trkpt>
      <trkpt lat="36.5932230" lon="-5.7816930">
        <ele>164.2</ele>
        <time>2020-12-08T11:26:10Z</time>
      </trkpt>
      <trkpt lat="36.5935090" lon="-5.7823110">
        <ele>163.6</ele>
        <time>2020-12-08T11:26:17Z</time>
      </trkpt>
      <trkpt lat="36.5936880" lon="-5.7827590">
        <ele>163.4</ele>
        <time>2020-12-08T11:26:22Z</time>
      </trkpt>
      <trkpt lat="36.5938560" lon="-5.7831820">
        <ele>163.2</ele>
        <time>2020-12-08T11:26:27Z</time>
      </trkpt>
      <trkpt lat="36.5940870" lon="-5.7837210">
        <ele>163.4</ele>
        <time>2020-12-08T11:26:34Z</time>
      </trkpt>
      <trkpt lat="36.5941330" lon="-5.7837800">
        <ele>163.4</ele>
        <time>2020-12-08T11:26:35Z</time>
      </trkpt>
      <trkpt lat="36.5943730" lon="-5.7839360">
        <ele>164.4</ele>
        <time>2020-12-08T11:26:39Z</time>
      </trkpt>
      <trkpt lat="36.5944400" lon="-5.7839650">
        <ele>164.6</ele>
        <time>2020-12-08T11:26:40Z</time>
      </trkpt>
      <trkpt lat="36.5949150" lon="-5.7841840">
        <ele>165.0</ele>
        <time>2020-12-08T11:26:47Z</time>
      </trkpt>
      <trkpt lat="36.5953980" lon="-5.7844460">
        <ele>164.8</ele>
        <time>2020-12-08T11:26:54Z</time>
      </trkpt>
      <trkpt lat="36.5959020" lon="-5.7845730">
        <ele>164.2</ele>
        <time>2020-12-08T11:27:00Z</time>
      </trkpt>
      <trkpt lat="36.5961160" lon="-5.7846470">
        <ele>163.4</ele>
        <time>2020-12-08T11:27:03Z</time>
      </trkpt>
      <trkpt lat="36.5962430" lon="-5.7846940">
        <ele>162.8</ele>
        <time>2020-12-08T11:27:05Z</time>
      </trkpt>
      <trkpt lat="36.5962970" lon="-5.7847200">
        <ele>162.6</ele>
        <time>2020-12-08T11:27:06Z</time>
      </trkpt>
      <trkpt lat="36.5964840" lon="-5.7848180">
        <ele>162.4</ele>
        <time>2020-12-08T11:27:10Z</time>
      </trkpt>
      <trkpt lat="36.5966980" lon="-5.7849370">
        <ele>162.6</ele>
        <time>2020-12-08T11:27:15Z</time>
      </trkpt>
      <trkpt lat="36.5969630" lon="-5.7850730">
        <ele>164.4</ele>
        <time>2020-12-08T11:27:21Z</time>
      </trkpt>
      <trkpt lat="36.5970110" lon="-5.7850960">
        <ele>164.8</ele>
        <time>2020-12-08T11:27:22Z</time>
      </trkpt>
      <trkpt lat="36.5972210" lon="-5.7851950">
        <ele>165.6</ele>
        <time>2020-12-08T11:27:26Z</time>
      </trkpt>
      <trkpt lat="36.5973370" lon="-5.7852380">
        <ele>166.2</ele>
        <time>2020-12-08T11:27:28Z</time>
      </trkpt>
      <trkpt lat="36.5973950" lon="-5.7852570">
        <ele>166.6</ele>
        <time>2020-12-08T11:27:29Z</time>
      </trkpt>
      <trkpt lat="36.5977120" lon="-5.7853090">
        <ele>167.2</ele>
        <time>2020-12-08T11:27:34Z</time>
      </trkpt>
      <trkpt lat="36.5980660" lon="-5.7852880">
        <ele>167.2</ele>
        <time>2020-12-08T11:27:40Z</time>
      </trkpt>
      <trkpt lat="36.5984840" lon="-5.7852880">
        <ele>167.2</ele>
        <time>2020-12-08T11:27:48Z</time>
      </trkpt>
      <trkpt lat="36.5988300" lon="-5.7854010">
        <ele>167.4</ele>
        <time>2020-12-08T11:27:55Z</time>
      </trkpt>
      <trkpt lat="36.5989280" lon="-5.7854640">
        <ele>167.8</ele>
        <time>2020-12-08T11:27:57Z</time>
      </trkpt>
      <trkpt lat="36.5990880" lon="-5.7855990">
        <ele>168.2</ele>
        <time>2020-12-08T11:28:00Z</time>
      </trkpt>
      <trkpt lat="36.5992850" lon="-5.7857210">
        <ele>169.0</ele>
        <time>2020-12-08T11:28:03Z</time>
      </trkpt>
      <trkpt lat="36.5994330" lon="-5.7857850">
        <ele>169.0</ele>
        <time>2020-12-08T11:28:05Z</time>
      </trkpt>
      <trkpt lat="36.5997860" lon="-5.7860110">
        <ele>169.0</ele>
        <time>2020-12-08T11:28:10Z</time>
      </trkpt>
      <trkpt lat="36.5999250" lon="-5.7861060">
        <ele>168.6</ele>
        <time>2020-12-08T11:28:12Z</time>
      </trkpt>
      <trkpt lat="36.6001430" lon="-5.7861990">
        <ele>168.2</ele>
        <time>2020-12-08T11:28:15Z</time>
      </trkpt>
      <trkpt lat="36.6004310" lon="-5.7862980">
        <ele>167.8</ele>
        <time>2020-12-08T11:28:19Z</time>
      </trkpt>
      <trkpt lat="36.6007780" lon="-5.7864210">
        <ele>167.4</ele>
        <time>2020-12-08T11:28:24Z</time>
      </trkpt>
      <trkpt lat="36.6011430" lon="-5.7865760">
        <ele>167.0</ele>
        <time>2020-12-08T11:28:30Z</time>
      </trkpt>
      <trkpt lat="36.6011970" lon="-5.7866140">
        <ele>167.0</ele>
        <time>2020-12-08T11:28:31Z</time>
      </trkpt>
      <trkpt lat="36.6013350" lon="-5.7867640">
        <ele>167.0</ele>
        <time>2020-12-08T11:28:34Z</time>
      </trkpt>
      <trkpt lat="36.6015860" lon="-5.7871860">
        <ele>168.0</ele>
        <time>2020-12-08T11:28:41Z</time>
      </trkpt>
      <trkpt lat="36.6017450" lon="-5.7874390">
        <ele>168.6</ele>
        <time>2020-12-08T11:28:45Z</time>
      </trkpt>
      <trkpt lat="36.6018460" lon="-5.7875370">
        <ele>169.0</ele>
        <time>2020-12-08T11:28:47Z</time>
      </trkpt>
      <trkpt lat="36.6022690" lon="-5.7878900">
        <ele>169.4</ele>
        <time>2020-12-08T11:28:55Z</time>
      </trkpt>
      <trkpt lat="36.6025420" lon="-5.7882560">
        <ele>169.6</ele>
        <time>2020-12-08T11:29:01Z</time>
      </trkpt>
      <trkpt lat="36.6028540" lon="-5.7887190">
        <ele>169.6</ele>
        <time>2020-12-08T11:29:07Z</time>
      </trkpt>
      <trkpt lat="36.6030340" lon="-5.7891070">
        <ele>169.0</ele>
        <time>2020-12-08T11:29:11Z</time>
      </trkpt>
      <trkpt lat="36.6032000" lon="-5.7896820">
        <ele>167.8</ele>
        <time>2020-12-08T11:29:16Z</time>
      </trkpt>
      <trkpt lat="36.6032960" lon="-5.7900140">
        <ele>166.2</ele>
        <time>2020-12-08T11:29:19Z</time>
      </trkpt>
      <trkpt lat="36.6033580" lon="-5.7902310">
        <ele>165.2</ele>
        <time>2020-12-08T11:29:21Z</time>
      </trkpt>
      <trkpt lat="36.6034180" lon="-5.7904450">
        <ele>164.4</ele>
        <time>2020-12-08T11:29:23Z</time>
      </trkpt>
      <trkpt lat="36.6034490" lon="-5.7905490">
        <ele>163.6</ele>
        <time>2020-12-08T11:29:24Z</time>
      </trkpt>
      <trkpt lat="36.6035500" lon="-5.7909420">
        <ele>162.6</ele>
        <time>2020-12-08T11:29:28Z</time>
      </trkpt>
      <trkpt lat="36.6035620" lon="-5.7910330">
        <ele>162.2</ele>
        <time>2020-12-08T11:29:29Z</time>
      </trkpt>
      <trkpt lat="36.6035650" lon="-5.7912060">
        <ele>161.4</ele>
        <time>2020-12-08T11:29:31Z</time>
      </trkpt>
      <trkpt lat="36.6035540" lon="-5.7913870">
        <ele>161.0</ele>
        <time>2020-12-08T11:29:33Z</time>
      </trkpt>
      <trkpt lat="36.6035480" lon="-5.7916740">
        <ele>160.6</ele>
        <time>2020-12-08T11:29:36Z</time>
      </trkpt>
      <trkpt lat="36.6035570" lon="-5.7917720">
        <ele>160.6</ele>
        <time>2020-12-08T11:29:37Z</time>
      </trkpt>
      <trkpt lat="36.6035730" lon="-5.7918680">
        <ele>160.6</ele>
        <time>2020-12-08T11:29:38Z</time>
      </trkpt>
      <trkpt lat="36.6037180" lon="-5.7924220">
        <ele>160.4</ele>
        <time>2020-12-08T11:29:44Z</time>
      </trkpt>
      <trkpt lat="36.6037550" lon="-5.7928420">
        <ele>160.2</ele>
        <time>2020-12-08T11:29:48Z</time>
      </trkpt>
      <trkpt lat="36.6037340" lon="-5.7934990">
        <ele>159.4</ele>
        <time>2020-12-08T11:29:54Z</time>
      </trkpt>
      <trkpt lat="36.6037250" lon="-5.7937180">
        <ele>158.4</ele>
        <time>2020-12-08T11:29:56Z</time>
      </trkpt>
      <trkpt lat="36.6037220" lon="-5.7938290">
        <ele>158.2</ele>
        <time>2020-12-08T11:29:57Z</time>
      </trkpt>
      <trkpt lat="36.6037370" lon="-5.7944280">
        <ele>157.0</ele>
        <time>2020-12-08T11:30:02Z</time>
      </trkpt>
      <trkpt lat="36.6037430" lon="-5.7950690">
        <ele>155.8</ele>
        <time>2020-12-08T11:30:07Z</time>
      </trkpt>
      <trkpt lat="36.6037310" lon="-5.7951890">
        <ele>155.6</ele>
        <time>2020-12-08T11:30:08Z</time>
      </trkpt>
      <trkpt lat="36.6036940" lon="-5.7954180">
        <ele>154.8</ele>
        <time>2020-12-08T11:30:10Z</time>
      </trkpt>
      <trkpt lat="36.6036550" lon="-5.7956330">
        <ele>153.8</ele>
        <time>2020-12-08T11:30:12Z</time>
      </trkpt>
      <trkpt lat="36.6036170" lon="-5.7958380">
        <ele>152.8</ele>
        <time>2020-12-08T11:30:14Z</time>
      </trkpt>
      <trkpt lat="36.6035660" lon="-5.7961380">
        <ele>151.4</ele>
        <time>2020-12-08T11:30:17Z</time>
      </trkpt>
      <trkpt lat="36.6034910" lon="-5.7966010">
        <ele>150.6</ele>
        <time>2020-12-08T11:30:22Z</time>
      </trkpt>
      <trkpt lat="36.6034850" lon="-5.7966830">
        <ele>150.6</ele>
        <time>2020-12-08T11:30:23Z</time>
      </trkpt>
      <trkpt lat="36.6035100" lon="-5.7969030">
        <ele>150.6</ele>
        <time>2020-12-08T11:30:26Z</time>
      </trkpt>
      <trkpt lat="36.6036110" lon="-5.7971530">
        <ele>150.6</ele>
        <time>2020-12-08T11:30:30Z</time>
      </trkpt>
      <trkpt lat="36.6036380" lon="-5.7972120">
        <ele>150.6</ele>
        <time>2020-12-08T11:30:31Z</time>
      </trkpt>
      <trkpt lat="36.6037990" lon="-5.7976310">
        <ele>150.6</ele>
        <time>2020-12-08T11:30:38Z</time>
      </trkpt>
      <trkpt lat="36.6038520" lon="-5.7977530">
        <ele>150.4</ele>
        <time>2020-12-08T11:30:40Z</time>
      </trkpt>
      <trkpt lat="36.6039980" lon="-5.7981070">
        <ele>149.6</ele>
        <time>2020-12-08T11:30:46Z</time>
      </trkpt>
      <trkpt lat="36.6040450" lon="-5.7982240">
        <ele>149.4</ele>
        <time>2020-12-08T11:30:48Z</time>
      </trkpt>
      <trkpt lat="36.6041250" lon="-5.7984110">
        <ele>148.2</ele>
        <time>2020-12-08T11:30:51Z</time>
      </trkpt>
      <trkpt lat="36.6041740" lon="-5.7985320">
        <ele>147.8</ele>
        <time>2020-12-08T11:30:53Z</time>
      </trkpt>
      <trkpt lat="36.6042410" lon="-5.7986980">
        <ele>147.2</ele>
        <time>2020-12-08T11:30:56Z</time>
      </trkpt>
      <trkpt lat="36.6043440" lon="-5.7989180">
        <ele>147.0</ele>
        <time>2020-12-08T11:31:00Z</time>
      </trkpt>
      <trkpt lat="36.6044990" lon="-5.7991840">
        <ele>146.8</ele>
        <time>2020-12-08T11:31:05Z</time>
      </trkpt>
      <trkpt lat="36.6047920" lon="-5.7995950">
        <ele>146.4</ele>
        <time>2020-12-08T11:31:11Z</time>
      </trkpt>
      <trkpt lat="36.6049010" lon="-5.7997420">
        <ele>146.0</ele>
        <time>2020-12-08T11:31:13Z</time>
      </trkpt>
      <trkpt lat="36.6051800" lon="-5.8000990">
        <ele>144.8</ele>
        <time>2020-12-08T11:31:18Z</time>
      </trkpt>
      <trkpt lat="36.6052370" lon="-5.8001760">
        <ele>144.0</ele>
        <time>2020-12-08T11:31:19Z</time>
      </trkpt>
      <trkpt lat="36.6052960" lon="-5.8002490">
        <ele>143.8</ele>
        <time>2020-12-08T11:31:20Z</time>
      </trkpt>
      <trkpt lat="36.6056700" lon="-5.8006530">
        <ele>142.6</ele>
        <time>2020-12-08T11:31:26Z</time>
      </trkpt>
      <trkpt lat="36.6057350" lon="-5.8007170">
        <ele>142.4</ele>
        <time>2020-12-08T11:31:27Z</time>
      </trkpt>
      <trkpt lat="36.6059300" lon="-5.8009090">
        <ele>141.6</ele>
        <time>2020-12-08T11:31:30Z</time>
      </trkpt>
      <trkpt lat="36.6061260" lon="-5.8011030">
        <ele>140.6</ele>
        <time>2020-12-08T11:31:33Z</time>
      </trkpt>
      <trkpt lat="36.6063270" lon="-5.8013050">
        <ele>140.0</ele>
        <time>2020-12-08T11:31:36Z</time>
      </trkpt>
      <trkpt lat="36.6065300" lon="-5.8015030">
        <ele>139.6</ele>
        <time>2020-12-08T11:31:39Z</time>
      </trkpt>
      <trkpt lat="36.6067310" lon="-5.8016960">
        <ele>138.6</ele>
        <time>2020-12-08T11:31:42Z</time>
      </trkpt>
      <trkpt lat="36.6070040" lon="-5.8019440">
        <ele>137.6</ele>
        <time>2020-12-08T11:31:46Z</time>
      </trkpt>
      <trkpt lat="36.6070720" lon="-5.8020000">
        <ele>137.4</ele>
        <time>2020-12-08T11:31:47Z</time>
      </trkpt>
      <trkpt lat="36.6072470" lon="-5.8021340">
        <ele>136.4</ele>
        <time>2020-12-08T11:31:50Z</time>
      </trkpt>
      <trkpt lat="36.6073010" lon="-5.8021690">
        <ele>136.2</ele>
        <time>2020-12-08T11:31:51Z</time>
      </trkpt>
      <trkpt lat="36.6075550" lon="-5.8023450">
        <ele>135.0</ele>
        <time>2020-12-08T11:31:56Z</time>
      </trkpt>
      <trkpt lat="36.6079380" lon="-5.8025970">
        <ele>134.4</ele>
        <time>2020-12-08T11:32:02Z</time>
      </trkpt>
      <trkpt lat="36.6082170" lon="-5.8027900">
        <ele>133.8</ele>
        <time>2020-12-08T11:32:06Z</time>
      </trkpt>
      <trkpt lat="36.6084980" lon="-5.8029860">
        <ele>133.0</ele>
        <time>2020-12-08T11:32:10Z</time>
      </trkpt>
      <trkpt lat="36.6085680" lon="-5.8030360">
        <ele>132.6</ele>
        <time>2020-12-08T11:32:11Z</time>
      </trkpt>
      <trkpt lat="36.6089290" lon="-5.8032920">
        <ele>131.6</ele>
        <time>2020-12-08T11:32:16Z</time>
      </trkpt>
      <trkpt lat="36.6090680" lon="-5.8033990">
        <ele>131.0</ele>
        <time>2020-12-08T11:32:18Z</time>
      </trkpt>
      <trkpt lat="36.6094230" lon="-5.8036250">
        <ele>130.4</ele>
        <time>2020-12-08T11:32:23Z</time>
      </trkpt>
      <trkpt lat="36.6094960" lon="-5.8036640">
        <ele>130.4</ele>
        <time>2020-12-08T11:32:24Z</time>
      </trkpt>
      <trkpt lat="36.6098810" lon="-5.8038450">
        <ele>129.4</ele>
        <time>2020-12-08T11:32:29Z</time>
      </trkpt>
      <trkpt lat="36.6101180" lon="-5.8039410">
        <ele>129.0</ele>
        <time>2020-12-08T11:32:32Z</time>
      </trkpt>
      <trkpt lat="36.6106370" lon="-5.8041430">
        <ele>128.8</ele>
        <time>2020-12-08T11:32:39Z</time>
      </trkpt>
      <trkpt lat="36.6111930" lon="-5.8043680">
        <ele>129.2</ele>
        <time>2020-12-08T11:32:47Z</time>
      </trkpt>
      <trkpt lat="36.6112560" lon="-5.8043950">
        <ele>129.2</ele>
        <time>2020-12-08T11:32:48Z</time>
      </trkpt>
      <trkpt lat="36.6116170" lon="-5.8045960">
        <ele>129.4</ele>
        <time>2020-12-08T11:32:54Z</time>
      </trkpt>
      <trkpt lat="36.6117290" lon="-5.8046770">
        <ele>129.4</ele>
        <time>2020-12-08T11:32:56Z</time>
      </trkpt>
      <trkpt lat="36.6120650" lon="-5.8050400">
        <ele>129.6</ele>
        <time>2020-12-08T11:33:03Z</time>
      </trkpt>
      <trkpt lat="36.6122870" lon="-5.8053160">
        <ele>130.0</ele>
        <time>2020-12-08T11:33:09Z</time>
      </trkpt>
      <trkpt lat="36.6123330" lon="-5.8054040">
        <ele>130.2</ele>
        <time>2020-12-08T11:33:11Z</time>
      </trkpt>
      <trkpt lat="36.6123740" lon="-5.8055750">
        <ele>130.6</ele>
        <time>2020-12-08T11:33:14Z</time>
      </trkpt>
      <trkpt lat="36.6123830" lon="-5.8056350">
        <ele>130.6</ele>
        <time>2020-12-08T11:33:15Z</time>
      </trkpt>
      <trkpt lat="36.6124490" lon="-5.8059810">
        <ele>131.6</ele>
        <time>2020-12-08T11:33:21Z</time>
      </trkpt>
      <trkpt lat="36.6124660" lon="-5.8060380">
        <ele>131.8</ele>
        <time>2020-12-08T11:33:22Z</time>
      </trkpt>
      <trkpt lat="36.6125660" lon="-5.8064560">
        <ele>132.6</ele>
        <time>2020-12-08T11:33:29Z</time>
      </trkpt>
      <trkpt lat="36.6125800" lon="-5.8065150">
        <ele>133.0</ele>
        <time>2020-12-08T11:33:30Z</time>
      </trkpt>
      <trkpt lat="36.6126210" lon="-5.8066940">
        <ele>133.8</ele>
        <time>2020-12-08T11:33:33Z</time>
      </trkpt>
      <trkpt lat="36.6127290" lon="-5.8072440">
        <ele>134.6</ele>
        <time>2020-12-08T11:33:42Z</time>
      </trkpt>
      <trkpt lat="36.6127350" lon="-5.8073070">
        <ele>135.0</ele>
        <time>2020-12-08T11:33:43Z</time>
      </trkpt>
      <trkpt lat="36.6127280" lon="-5.8076830">
        <ele>136.0</ele>
        <time>2020-12-08T11:33:49Z</time>
      </trkpt>
      <trkpt lat="36.6127210" lon="-5.8077460">
        <ele>136.2</ele>
        <time>2020-12-08T11:33:50Z</time>
      </trkpt>
      <trkpt lat="36.6126800" lon="-5.8082200">
        <ele>137.4</ele>
        <time>2020-12-08T11:33:58Z</time>
      </trkpt>
      <trkpt lat="36.6126730" lon="-5.8082750">
        <ele>137.6</ele>
        <time>2020-12-08T11:33:59Z</time>
      </trkpt>
      <trkpt lat="36.6126190" lon="-5.8087330">
        <ele>138.6</ele>
        <time>2020-12-08T11:34:07Z</time>
      </trkpt>
      <trkpt lat="36.6125970" lon="-5.8089210">
        <ele>139.4</ele>
        <time>2020-12-08T11:34:10Z</time>
      </trkpt>
      <trkpt lat="36.6125890" lon="-5.8089850">
        <ele>139.6</ele>
        <time>2020-12-08T11:34:11Z</time>
      </trkpt>
      <trkpt lat="36.6125450" lon="-5.8094560">
        <ele>139.8</ele>
        <time>2020-12-08T11:34:18Z</time>
      </trkpt>
      <trkpt lat="36.6125180" lon="-5.8100260">
        <ele>140.0</ele>
        <time>2020-12-08T11:34:26Z</time>
      </trkpt>
      <trkpt lat="36.6125580" lon="-5.8105420">
        <ele>140.0</ele>
        <time>2020-12-08T11:34:33Z</time>
      </trkpt>
      <trkpt lat="36.6126820" lon="-5.8111070">
        <ele>139.0</ele>
        <time>2020-12-08T11:34:40Z</time>
      </trkpt>
      <trkpt lat="36.6128530" lon="-5.8118240">
        <ele>138.4</ele>
        <time>2020-12-08T11:34:48Z</time>
      </trkpt>
      <trkpt lat="36.6129220" lon="-5.8121100">
        <ele>137.2</ele>
        <time>2020-12-08T11:34:51Z</time>
      </trkpt>
      <trkpt lat="36.6130100" lon="-5.8125010">
        <ele>136.0</ele>
        <time>2020-12-08T11:34:55Z</time>
      </trkpt>
      <trkpt lat="36.6130800" lon="-5.8127990">
        <ele>134.6</ele>
        <time>2020-12-08T11:34:58Z</time>
      </trkpt>
      <trkpt lat="36.6131530" lon="-5.8130960">
        <ele>133.2</ele>
        <time>2020-12-08T11:35:01Z</time>
      </trkpt>
      <trkpt lat="36.6131970" lon="-5.8132910">
        <ele>132.0</ele>
        <time>2020-12-08T11:35:03Z</time>
      </trkpt>
      <trkpt lat="36.6132420" lon="-5.8134890">
        <ele>130.8</ele>
        <time>2020-12-08T11:35:05Z</time>
      </trkpt>
      <trkpt lat="36.6132860" lon="-5.8136870">
        <ele>129.6</ele>
        <time>2020-12-08T11:35:07Z</time>
      </trkpt>
      <trkpt lat="36.6133080" lon="-5.8137840">
        <ele>129.4</ele>
        <time>2020-12-08T11:35:08Z</time>
      </trkpt>
      <trkpt lat="36.6133730" lon="-5.8140740">
        <ele>128.4</ele>
        <time>2020-12-08T11:35:11Z</time>
      </trkpt>
      <trkpt lat="36.6134580" lon="-5.8144370">
        <ele>127.4</ele>
        <time>2020-12-08T11:35:15Z</time>
      </trkpt>
      <trkpt lat="36.6135650" lon="-5.8147800">
        <ele>126.2</ele>
        <time>2020-12-08T11:35:19Z</time>
      </trkpt>
      <trkpt lat="36.6136680" lon="-5.8150370">
        <ele>125.2</ele>
        <time>2020-12-08T11:35:22Z</time>
      </trkpt>
      <trkpt lat="36.6139640" lon="-5.8157030">
        <ele>124.6</ele>
        <time>2020-12-08T11:35:30Z</time>
      </trkpt>
      <trkpt lat="36.6139970" lon="-5.8157860">
        <ele>124.6</ele>
        <time>2020-12-08T11:35:31Z</time>
      </trkpt>
      <trkpt lat="36.6142180" lon="-5.8164770">
        <ele>124.4</ele>
        <time>2020-12-08T11:35:39Z</time>
      </trkpt>
      <trkpt lat="36.6142460" lon="-5.8165670">
        <ele>124.4</ele>
        <time>2020-12-08T11:35:40Z</time>
      </trkpt>
      <trkpt lat="36.6143820" lon="-5.8170220">
        <ele>124.0</ele>
        <time>2020-12-08T11:35:45Z</time>
      </trkpt>
      <trkpt lat="36.6145200" lon="-5.8174730">
        <ele>123.4</ele>
        <time>2020-12-08T11:35:50Z</time>
      </trkpt>
      <trkpt lat="36.6146020" lon="-5.8177450">
        <ele>123.0</ele>
        <time>2020-12-08T11:35:53Z</time>
      </trkpt>
      <trkpt lat="36.6146820" lon="-5.8180130">
        <ele>122.0</ele>
        <time>2020-12-08T11:35:56Z</time>
      </trkpt>
      <trkpt lat="36.6147640" lon="-5.8182840">
        <ele>121.0</ele>
        <time>2020-12-08T11:35:59Z</time>
      </trkpt>
      <trkpt lat="36.6149590" lon="-5.8189360">
        <ele>120.0</ele>
        <time>2020-12-08T11:36:06Z</time>
      </trkpt>
      <trkpt lat="36.6150170" lon="-5.8191250">
        <ele>119.8</ele>
        <time>2020-12-08T11:36:08Z</time>
      </trkpt>
      <trkpt lat="36.6150770" lon="-5.8193170">
        <ele>119.6</ele>
        <time>2020-12-08T11:36:10Z</time>
      </trkpt>
      <trkpt lat="36.6151620" lon="-5.8196090">
        <ele>118.8</ele>
        <time>2020-12-08T11:36:13Z</time>
      </trkpt>
      <trkpt lat="36.6153400" lon="-5.8202160">
        <ele>118.2</ele>
        <time>2020-12-08T11:36:19Z</time>
      </trkpt>
      <trkpt lat="36.6153870" lon="-5.8204270">
        <ele>117.8</ele>
        <time>2020-12-08T11:36:21Z</time>
      </trkpt>
      <trkpt lat="36.6154490" lon="-5.8208590">
        <ele>117.2</ele>
        <time>2020-12-08T11:36:25Z</time>
      </trkpt>
      <trkpt lat="36.6154720" lon="-5.8211800">
        <ele>116.6</ele>
        <time>2020-12-08T11:36:28Z</time>
      </trkpt>
      <trkpt lat="36.6154850" lon="-5.8214800">
        <ele>115.4</ele>
        <time>2020-12-08T11:36:31Z</time>
      </trkpt>
      <trkpt lat="36.6154900" lon="-5.8215730">
        <ele>115.0</ele>
        <time>2020-12-08T11:36:32Z</time>
      </trkpt>
      <trkpt lat="36.6155020" lon="-5.8217520">
        <ele>114.4</ele>
        <time>2020-12-08T11:36:34Z</time>
      </trkpt>
      <trkpt lat="36.6155440" lon="-5.8220810">
        <ele>114.0</ele>
        <time>2020-12-08T11:36:38Z</time>
      </trkpt>
      <trkpt lat="36.6156930" lon="-5.8226750">
        <ele>114.4</ele>
        <time>2020-12-08T11:36:45Z</time>
      </trkpt>
      <trkpt lat="36.6158850" lon="-5.8233220">
        <ele>115.2</ele>
        <time>2020-12-08T11:36:52Z</time>
      </trkpt>
      <trkpt lat="36.6159300" lon="-5.8235190">
        <ele>115.2</ele>
        <time>2020-12-08T11:36:54Z</time>
      </trkpt>
      <trkpt lat="36.6160840" lon="-5.8242420">
        <ele>114.2</ele>
        <time>2020-12-08T11:37:01Z</time>
      </trkpt>
      <trkpt lat="36.6161250" lon="-5.8244460">
        <ele>113.4</ele>
        <time>2020-12-08T11:37:03Z</time>
      </trkpt>
      <trkpt lat="36.6161470" lon="-5.8245480">
        <ele>113.2</ele>
        <time>2020-12-08T11:37:04Z</time>
      </trkpt>
      <trkpt lat="36.6162310" lon="-5.8249470">
        <ele>111.8</ele>
        <time>2020-12-08T11:37:08Z</time>
      </trkpt>
      <trkpt lat="36.6163110" lon="-5.8253360">
        <ele>110.6</ele>
        <time>2020-12-08T11:37:12Z</time>
      </trkpt>
      <trkpt lat="36.6163310" lon="-5.8254320">
        <ele>110.4</ele>
        <time>2020-12-08T11:37:13Z</time>
      </trkpt>
      <trkpt lat="36.6164100" lon="-5.8258110">
        <ele>109.4</ele>
        <time>2020-12-08T11:37:17Z</time>
      </trkpt>
      <trkpt lat="36.6164910" lon="-5.8261920">
        <ele>108.2</ele>
        <time>2020-12-08T11:37:21Z</time>
      </trkpt>
      <trkpt lat="36.6165900" lon="-5.8266700">
        <ele>107.4</ele>
        <time>2020-12-08T11:37:26Z</time>
      </trkpt>
      <trkpt lat="36.6166920" lon="-5.8271570">
        <ele>107.0</ele>
        <time>2020-12-08T11:37:31Z</time>
      </trkpt>
      <trkpt lat="36.6167540" lon="-5.8274590">
        <ele>106.0</ele>
        <time>2020-12-08T11:37:34Z</time>
      </trkpt>
      <trkpt lat="36.6167970" lon="-5.8276640">
        <ele>105.6</ele>
        <time>2020-12-08T11:37:36Z</time>
      </trkpt>
      <trkpt lat="36.6168840" lon="-5.8280840">
        <ele>105.0</ele>
        <time>2020-12-08T11:37:40Z</time>
      </trkpt>
      <trkpt lat="36.6169710" lon="-5.8285010">
        <ele>103.6</ele>
        <time>2020-12-08T11:37:44Z</time>
      </trkpt>
      <trkpt lat="36.6170150" lon="-5.8287060">
        <ele>103.0</ele>
        <time>2020-12-08T11:37:46Z</time>
      </trkpt>
      <trkpt lat="36.6170550" lon="-5.8289080">
        <ele>102.2</ele>
        <time>2020-12-08T11:37:48Z</time>
      </trkpt>
      <trkpt lat="36.6171910" lon="-5.8295780">
        <ele>101.4</ele>
        <time>2020-12-08T11:37:55Z</time>
      </trkpt>
      <trkpt lat="36.6173290" lon="-5.8302360">
        <ele>101.4</ele>
        <time>2020-12-08T11:38:02Z</time>
      </trkpt>
      <trkpt lat="36.6174050" lon="-5.8305970">
        <ele>101.6</ele>
        <time>2020-12-08T11:38:06Z</time>
      </trkpt>
      <trkpt lat="36.6175480" lon="-5.8312450">
        <ele>101.6</ele>
        <time>2020-12-08T11:38:13Z</time>
      </trkpt>
      <trkpt lat="36.6175730" lon="-5.8313370">
        <ele>101.6</ele>
        <time>2020-12-08T11:38:14Z</time>
      </trkpt>
      <trkpt lat="36.6177420" lon="-5.8317930">
        <ele>100.8</ele>
        <time>2020-12-08T11:38:19Z</time>
      </trkpt>
      <trkpt lat="36.6177830" lon="-5.8318850">
        <ele>100.4</ele>
        <time>2020-12-08T11:38:20Z</time>
      </trkpt>
      <trkpt lat="36.6178660" lon="-5.8320790">
        <ele>99.6</ele>
        <time>2020-12-08T11:38:22Z</time>
      </trkpt>
      <trkpt lat="36.6181170" lon="-5.8326740">
        <ele>99.0</ele>
        <time>2020-12-08T11:38:28Z</time>
      </trkpt>
      <trkpt lat="36.6183200" lon="-5.8331490">
        <ele>98.4</ele>
        <time>2020-12-08T11:38:33Z</time>
      </trkpt>
      <trkpt lat="36.6183980" lon="-5.8333330">
        <ele>97.0</ele>
        <time>2020-12-08T11:38:35Z</time>
      </trkpt>
      <trkpt lat="36.6184760" lon="-5.8335140">
        <ele>96.6</ele>
        <time>2020-12-08T11:38:37Z</time>
      </trkpt>
      <trkpt lat="36.6186630" lon="-5.8339550">
        <ele>96.0</ele>
        <time>2020-12-08T11:38:42Z</time>
      </trkpt>
      <trkpt lat="36.6188400" lon="-5.8343830">
        <ele>95.4</ele>
        <time>2020-12-08T11:38:47Z</time>
      </trkpt>
      <trkpt lat="36.6191000" lon="-5.8350030">
        <ele>95.0</ele>
        <time>2020-12-08T11:38:54Z</time>
      </trkpt>
      <trkpt lat="36.6191750" lon="-5.8351780">
        <ele>94.8</ele>
        <time>2020-12-08T11:38:56Z</time>
      </trkpt>
      <trkpt lat="36.6194200" lon="-5.8357740">
        <ele>93.8</ele>
        <time>2020-12-08T11:39:03Z</time>
      </trkpt>
      <trkpt lat="36.6195570" lon="-5.8361000">
        <ele>93.8</ele>
        <time>2020-12-08T11:39:07Z</time>
      </trkpt>
      <trkpt lat="36.6198210" lon="-5.8367350">
        <ele>93.0</ele>
        <time>2020-12-08T11:39:15Z</time>
      </trkpt>
      <trkpt lat="36.6198890" lon="-5.8369030">
        <ele>93.0</ele>
        <time>2020-12-08T11:39:17Z</time>
      </trkpt>
      <trkpt lat="36.6201420" lon="-5.8375200">
        <ele>93.0</ele>
        <time>2020-12-08T11:39:24Z</time>
      </trkpt>
      <trkpt lat="36.6202560" lon="-5.8377960">
        <ele>92.8</ele>
        <time>2020-12-08T11:39:27Z</time>
      </trkpt>
      <trkpt lat="36.6203740" lon="-5.8380750">
        <ele>91.4</ele>
        <time>2020-12-08T11:39:30Z</time>
      </trkpt>
      <trkpt lat="36.6205590" lon="-5.8385260">
        <ele>90.6</ele>
        <time>2020-12-08T11:39:35Z</time>
      </trkpt>
      <trkpt lat="36.6205980" lon="-5.8386190">
        <ele>90.6</ele>
        <time>2020-12-08T11:39:36Z</time>
      </trkpt>
      <trkpt lat="36.6207160" lon="-5.8388970">
        <ele>89.4</ele>
        <time>2020-12-08T11:39:39Z</time>
      </trkpt>
      <trkpt lat="36.6208600" lon="-5.8392580">
        <ele>88.2</ele>
        <time>2020-12-08T11:39:43Z</time>
      </trkpt>
      <trkpt lat="36.6211120" lon="-5.8398700">
        <ele>87.4</ele>
        <time>2020-12-08T11:39:50Z</time>
      </trkpt>
      <trkpt lat="36.6212480" lon="-5.8401960">
        <ele>87.2</ele>
        <time>2020-12-08T11:39:54Z</time>
      </trkpt>
      <trkpt lat="36.6215040" lon="-5.8408190">
        <ele>87.4</ele>
        <time>2020-12-08T11:40:02Z</time>
      </trkpt>
      <trkpt lat="36.6215650" lon="-5.8409700">
        <ele>87.4</ele>
        <time>2020-12-08T11:40:04Z</time>
      </trkpt>
      <trkpt lat="36.6218340" lon="-5.8416230">
        <ele>87.8</ele>
        <time>2020-12-08T11:40:13Z</time>
      </trkpt>
      <trkpt lat="36.6218630" lon="-5.8416940">
        <ele>87.8</ele>
        <time>2020-12-08T11:40:14Z</time>
      </trkpt>
      <trkpt lat="36.6221250" lon="-5.8423360">
        <ele>88.2</ele>
        <time>2020-12-08T11:40:23Z</time>
      </trkpt>
      <trkpt lat="36.6221550" lon="-5.8424110">
        <ele>88.2</ele>
        <time>2020-12-08T11:40:24Z</time>
      </trkpt>
      <trkpt lat="36.6221870" lon="-5.8424860">
        <ele>88.4</ele>
        <time>2020-12-08T11:40:25Z</time>
      </trkpt>
      <trkpt lat="36.6223160" lon="-5.8428000">
        <ele>89.4</ele>
        <time>2020-12-08T11:40:29Z</time>
      </trkpt>
      <trkpt lat="36.6225200" lon="-5.8432930">
        <ele>89.6</ele>
        <time>2020-12-08T11:40:35Z</time>
      </trkpt>
      <trkpt lat="36.6228010" lon="-5.8439680">
        <ele>88.8</ele>
        <time>2020-12-08T11:40:43Z</time>
      </trkpt>
      <trkpt lat="36.6229070" lon="-5.8442220">
        <ele>88.4</ele>
        <time>2020-12-08T11:40:46Z</time>
      </trkpt>
      <trkpt lat="36.6229780" lon="-5.8443920">
        <ele>88.4</ele>
        <time>2020-12-08T11:40:48Z</time>
      </trkpt>
      <trkpt lat="36.6232540" lon="-5.8450650">
        <ele>87.4</ele>
        <time>2020-12-08T11:40:56Z</time>
      </trkpt>
      <trkpt lat="36.6232900" lon="-5.8451520">
        <ele>87.0</ele>
        <time>2020-12-08T11:40:57Z</time>
      </trkpt>
      <trkpt lat="36.6233250" lon="-5.8452400">
        <ele>86.6</ele>
        <time>2020-12-08T11:40:58Z</time>
      </trkpt>
      <trkpt lat="36.6235790" lon="-5.8458610">
        <ele>86.0</ele>
        <time>2020-12-08T11:41:05Z</time>
      </trkpt>
      <trkpt lat="36.6236160" lon="-5.8459480">
        <ele>85.8</ele>
        <time>2020-12-08T11:41:06Z</time>
      </trkpt>
      <trkpt lat="36.6237250" lon="-5.8462060">
        <ele>85.4</ele>
        <time>2020-12-08T11:41:09Z</time>
      </trkpt>
      <trkpt lat="36.6238320" lon="-5.8464620">
        <ele>84.8</ele>
        <time>2020-12-08T11:41:12Z</time>
      </trkpt>
      <trkpt lat="36.6240740" lon="-5.8470550">
        <ele>84.0</ele>
        <time>2020-12-08T11:41:19Z</time>
      </trkpt>
      <trkpt lat="36.6243310" lon="-5.8476720">
        <ele>84.0</ele>
        <time>2020-12-08T11:41:27Z</time>
      </trkpt>
      <trkpt lat="36.6245710" lon="-5.8482250">
        <ele>84.2</ele>
        <time>2020-12-08T11:41:35Z</time>
      </trkpt>
      <trkpt lat="36.6247330" lon="-5.8486110">
        <ele>84.4</ele>
        <time>2020-12-08T11:41:40Z</time>
      </trkpt>
      <trkpt lat="36.6250150" lon="-5.8492950">
        <ele>84.6</ele>
        <time>2020-12-08T11:41:48Z</time>
      </trkpt>
      <trkpt lat="36.6252780" lon="-5.8499280">
        <ele>84.0</ele>
        <time>2020-12-08T11:41:55Z</time>
      </trkpt>
      <trkpt lat="36.6253150" lon="-5.8500190">
        <ele>83.6</ele>
        <time>2020-12-08T11:41:56Z</time>
      </trkpt>
      <trkpt lat="36.6253530" lon="-5.8501100">
        <ele>83.2</ele>
        <time>2020-12-08T11:41:57Z</time>
      </trkpt>
      <trkpt lat="36.6254690" lon="-5.8503850">
        <ele>82.6</ele>
        <time>2020-12-08T11:42:00Z</time>
      </trkpt>
      <trkpt lat="36.6256930" lon="-5.8509370">
        <ele>82.0</ele>
        <time>2020-12-08T11:42:06Z</time>
      </trkpt>
      <trkpt lat="36.6257640" lon="-5.8511190">
        <ele>81.4</ele>
        <time>2020-12-08T11:42:08Z</time>
      </trkpt>
      <trkpt lat="36.6259380" lon="-5.8515440">
        <ele>80.2</ele>
        <time>2020-12-08T11:42:13Z</time>
      </trkpt>
      <trkpt lat="36.6259720" lon="-5.8516240">
        <ele>80.0</ele>
        <time>2020-12-08T11:42:14Z</time>
      </trkpt>
      <trkpt lat="36.6261660" lon="-5.8520620">
        <ele>79.4</ele>
        <time>2020-12-08T11:42:20Z</time>
      </trkpt>
      <trkpt lat="36.6263440" lon="-5.8524840">
        <ele>79.6</ele>
        <time>2020-12-08T11:42:26Z</time>
      </trkpt>
      <trkpt lat="36.6266010" lon="-5.8530960">
        <ele>80.6</ele>
        <time>2020-12-08T11:42:35Z</time>
      </trkpt>
      <trkpt lat="36.6268140" lon="-5.8536310">
        <ele>80.6</ele>
        <time>2020-12-08T11:42:43Z</time>
      </trkpt>
      <trkpt lat="36.6269020" lon="-5.8538410">
        <ele>81.0</ele>
        <time>2020-12-08T11:42:46Z</time>
      </trkpt>
      <trkpt lat="36.6271120" lon="-5.8543400">
        <ele>81.8</ele>
        <time>2020-12-08T11:42:53Z</time>
      </trkpt>
      <trkpt lat="36.6271950" lon="-5.8545440">
        <ele>82.2</ele>
        <time>2020-12-08T11:42:56Z</time>
      </trkpt>
      <trkpt lat="36.6273220" lon="-5.8548580">
        <ele>82.6</ele>
        <time>2020-12-08T11:43:01Z</time>
      </trkpt>
      <trkpt lat="36.6274410" lon="-5.8551450">
        <ele>83.2</ele>
        <time>2020-12-08T11:43:06Z</time>
      </trkpt>
      <trkpt lat="36.6275110" lon="-5.8553190">
        <ele>84.6</ele>
        <time>2020-12-08T11:43:09Z</time>
      </trkpt>
      <trkpt lat="36.6275580" lon="-5.8554440">
        <ele>85.4</ele>
        <time>2020-12-08T11:43:11Z</time>
      </trkpt>
      <trkpt lat="36.6277690" lon="-5.8559450">
        <ele>85.8</ele>
        <time>2020-12-08T11:43:18Z</time>
      </trkpt>
      <trkpt lat="36.6279630" lon="-5.8564180">
        <ele>84.8</ele>
        <time>2020-12-08T11:43:23Z</time>
      </trkpt>
      <trkpt lat="36.6281410" lon="-5.8568560">
        <ele>83.6</ele>
        <time>2020-12-08T11:43:27Z</time>
      </trkpt>
      <trkpt lat="36.6282670" lon="-5.8571670">
        <ele>82.2</ele>
        <time>2020-12-08T11:43:30Z</time>
      </trkpt>
      <trkpt lat="36.6283850" lon="-5.8574590">
        <ele>80.8</ele>
        <time>2020-12-08T11:43:33Z</time>
      </trkpt>
      <trkpt lat="36.6284590" lon="-5.8576460">
        <ele>79.4</ele>
        <time>2020-12-08T11:43:35Z</time>
      </trkpt>
      <trkpt lat="36.6285320" lon="-5.8578280">
        <ele>78.4</ele>
        <time>2020-12-08T11:43:37Z</time>
      </trkpt>
      <trkpt lat="36.6285670" lon="-5.8579180">
        <ele>78.2</ele>
        <time>2020-12-08T11:43:38Z</time>
      </trkpt>
      <trkpt lat="36.6288050" lon="-5.8585190">
        <ele>77.8</ele>
        <time>2020-12-08T11:43:45Z</time>
      </trkpt>
      <trkpt lat="36.6290500" lon="-5.8591190">
        <ele>77.6</ele>
        <time>2020-12-08T11:43:53Z</time>
      </trkpt>
      <trkpt lat="36.6291640" lon="-5.8593960">
        <ele>77.2</ele>
        <time>2020-12-08T11:43:57Z</time>
      </trkpt>
      <trkpt lat="36.6293000" lon="-5.8597300">
        <ele>77.0</ele>
        <time>2020-12-08T11:44:02Z</time>
      </trkpt>
      <trkpt lat="36.6295650" lon="-5.8603720">
        <ele>77.2</ele>
        <time>2020-12-08T11:44:12Z</time>
      </trkpt>
      <trkpt lat="36.6295890" lon="-5.8604350">
        <ele>77.4</ele>
        <time>2020-12-08T11:44:13Z</time>
      </trkpt>
      <trkpt lat="36.6298460" lon="-5.8610730">
        <ele>78.0</ele>
        <time>2020-12-08T11:44:23Z</time>
      </trkpt>
      <trkpt lat="36.6299000" lon="-5.8612030">
        <ele>78.0</ele>
        <time>2020-12-08T11:44:25Z</time>
      </trkpt>
      <trkpt lat="36.6301280" lon="-5.8617060">
        <ele>77.8</ele>
        <time>2020-12-08T11:44:33Z</time>
      </trkpt>
      <trkpt lat="36.6303790" lon="-5.8622650">
        <ele>78.0</ele>
        <time>2020-12-08T11:44:42Z</time>
      </trkpt>
      <trkpt lat="36.6305710" lon="-5.8626550">
        <ele>78.0</ele>
        <time>2020-12-08T11:44:49Z</time>
      </trkpt>
      <trkpt lat="36.6307070" lon="-5.8628810">
        <ele>78.0</ele>
        <time>2020-12-08T11:44:55Z</time>
      </trkpt>
      <trkpt lat="36.6307180" lon="-5.8628890">
        <ele>78.0</ele>
        <time>2020-12-08T11:44:57Z</time>
      </trkpt>
      <trkpt lat="36.6307210" lon="-5.8629430">
        <ele>78.6</ele>
        <time>2020-12-08T11:47:10Z</time>
      </trkpt>
      <trkpt lat="36.6307210" lon="-5.8629610">
        <ele>78.6</ele>
        <time>2020-12-08T11:47:11Z</time>
      </trkpt>
      <trkpt lat="36.6307590" lon="-5.8631050">
        <ele>78.6</ele>
        <time>2020-12-08T11:47:16Z</time>
      </trkpt>
      <trkpt lat="36.6308580" lon="-5.8633240">
        <ele>78.6</ele>
        <time>2020-12-08T11:47:21Z</time>
      </trkpt>
      <trkpt lat="36.6308770" lon="-5.8633760">
        <ele>78.4</ele>
        <time>2020-12-08T11:47:22Z</time>
      </trkpt>
      <trkpt lat="36.6309390" lon="-5.8635400">
        <ele>77.4</ele>
        <time>2020-12-08T11:47:25Z</time>
      </trkpt>
      <trkpt lat="36.6310350" lon="-5.8637630">
        <ele>77.2</ele>
        <time>2020-12-08T11:47:29Z</time>
      </trkpt>
      <trkpt lat="36.6312550" lon="-5.8643150">
        <ele>76.8</ele>
        <time>2020-12-08T11:47:38Z</time>
      </trkpt>
      <trkpt lat="36.6314600" lon="-5.8648450">
        <ele>76.4</ele>
        <time>2020-12-08T11:47:46Z</time>
      </trkpt>
      <trkpt lat="36.6315620" lon="-5.8651100">
        <ele>76.4</ele>
        <time>2020-12-08T11:47:50Z</time>
      </trkpt>
      <trkpt lat="36.6318080" lon="-5.8657450">
        <ele>76.2</ele>
        <time>2020-12-08T11:48:00Z</time>
      </trkpt>
      <trkpt lat="36.6318330" lon="-5.8658080">
        <ele>76.2</ele>
        <time>2020-12-08T11:48:01Z</time>
      </trkpt>
      <trkpt lat="36.6320900" lon="-5.8664380">
        <ele>76.4</ele>
        <time>2020-12-08T11:48:11Z</time>
      </trkpt>
      <trkpt lat="36.6321140" lon="-5.8664990">
        <ele>76.6</ele>
        <time>2020-12-08T11:48:12Z</time>
      </trkpt>
      <trkpt lat="36.6323400" lon="-5.8670530">
        <ele>76.6</ele>
        <time>2020-12-08T11:48:21Z</time>
      </trkpt>
      <trkpt lat="36.6325360" lon="-5.8675390">
        <ele>77.4</ele>
        <time>2020-12-08T11:48:28Z</time>
      </trkpt>
      <trkpt lat="36.6325640" lon="-5.8676080">
        <ele>77.6</ele>
        <time>2020-12-08T11:48:29Z</time>
      </trkpt>
      <trkpt lat="36.6327600" lon="-5.8680980">
        <ele>77.4</ele>
        <time>2020-12-08T11:48:36Z</time>
      </trkpt>
      <trkpt lat="36.6330220" lon="-5.8687600">
        <ele>76.8</ele>
        <time>2020-12-08T11:48:45Z</time>
      </trkpt>
      <trkpt lat="36.6331120" lon="-5.8689870">
        <ele>76.8</ele>
        <time>2020-12-08T11:48:48Z</time>
      </trkpt>
      <trkpt lat="36.6333160" lon="-5.8695090">
        <ele>76.6</ele>
        <time>2020-12-08T11:48:55Z</time>
      </trkpt>
      <trkpt lat="36.6333780" lon="-5.8696550">
        <ele>76.6</ele>
        <time>2020-12-08T11:48:57Z</time>
      </trkpt>
      <trkpt lat="36.6336120" lon="-5.8702410">
        <ele>75.6</ele>
        <time>2020-12-08T11:49:05Z</time>
      </trkpt>
      <trkpt lat="36.6336700" lon="-5.8703870">
        <ele>75.4</ele>
        <time>2020-12-08T11:49:07Z</time>
      </trkpt>
      <trkpt lat="36.6337550" lon="-5.8706050">
        <ele>74.4</ele>
        <time>2020-12-08T11:49:10Z</time>
      </trkpt>
      <trkpt lat="36.6340110" lon="-5.8712480">
        <ele>73.8</ele>
        <time>2020-12-08T11:49:19Z</time>
      </trkpt>
      <trkpt lat="36.6342670" lon="-5.8719100">
        <ele>74.0</ele>
        <time>2020-12-08T11:49:28Z</time>
      </trkpt>
      <trkpt lat="36.6343920" lon="-5.8722250">
        <ele>73.2</ele>
        <time>2020-12-08T11:49:32Z</time>
      </trkpt>
      <trkpt lat="36.6345820" lon="-5.8727020">
        <ele>73.2</ele>
        <time>2020-12-08T11:49:38Z</time>
      </trkpt>
      <trkpt lat="36.6347370" lon="-5.8730850">
        <ele>72.2</ele>
        <time>2020-12-08T11:49:43Z</time>
      </trkpt>
      <trkpt lat="36.6349150" lon="-5.8735300">
        <ele>71.8</ele>
        <time>2020-12-08T11:49:49Z</time>
      </trkpt>
      <trkpt lat="36.6350560" lon="-5.8738840">
        <ele>71.2</ele>
        <time>2020-12-08T11:49:54Z</time>
      </trkpt>
      <trkpt lat="36.6352530" lon="-5.8743720">
        <ele>70.2</ele>
        <time>2020-12-08T11:50:01Z</time>
      </trkpt>
      <trkpt lat="36.6355120" lon="-5.8750210">
        <ele>70.4</ele>
        <time>2020-12-08T11:50:10Z</time>
      </trkpt>
      <trkpt lat="36.6355690" lon="-5.8751620">
        <ele>70.4</ele>
        <time>2020-12-08T11:50:12Z</time>
      </trkpt>
      <trkpt lat="36.6358100" lon="-5.8757670">
        <ele>70.4</ele>
        <time>2020-12-08T11:50:21Z</time>
      </trkpt>
      <trkpt lat="36.6360510" lon="-5.8763730">
        <ele>70.2</ele>
        <time>2020-12-08T11:50:31Z</time>
      </trkpt>
      <trkpt lat="36.6362910" lon="-5.8769540">
        <ele>70.8</ele>
        <time>2020-12-08T11:50:40Z</time>
      </trkpt>
      <trkpt lat="36.6365530" lon="-5.8776120">
        <ele>71.8</ele>
        <time>2020-12-08T11:50:50Z</time>
      </trkpt>
      <trkpt lat="36.6368090" lon="-5.8782590">
        <ele>72.2</ele>
        <time>2020-12-08T11:51:00Z</time>
      </trkpt>
      <trkpt lat="36.6368350" lon="-5.8783250">
        <ele>72.2</ele>
        <time>2020-12-08T11:51:01Z</time>
      </trkpt>
      <trkpt lat="36.6368610" lon="-5.8783890">
        <ele>72.2</ele>
        <time>2020-12-08T11:51:02Z</time>
      </trkpt>
      <trkpt lat="36.6370980" lon="-5.8789770">
        <ele>73.0</ele>
        <time>2020-12-08T11:51:11Z</time>
      </trkpt>
      <trkpt lat="36.6371780" lon="-5.8791820">
        <ele>73.2</ele>
        <time>2020-12-08T11:51:14Z</time>
      </trkpt>
      <trkpt lat="36.6374250" lon="-5.8798050">
        <ele>73.4</ele>
        <time>2020-12-08T11:51:23Z</time>
      </trkpt>
      <trkpt lat="36.6376700" lon="-5.8804230">
        <ele>73.4</ele>
        <time>2020-12-08T11:51:32Z</time>
      </trkpt>
      <trkpt lat="36.6376980" lon="-5.8804930">
        <ele>73.2</ele>
        <time>2020-12-08T11:51:33Z</time>
      </trkpt>
      <trkpt lat="36.6379310" lon="-5.8811110">
        <ele>72.2</ele>
        <time>2020-12-08T11:51:42Z</time>
      </trkpt>
      <trkpt lat="36.6379820" lon="-5.8812430">
        <ele>72.0</ele>
        <time>2020-12-08T11:51:44Z</time>
      </trkpt>
      <trkpt lat="36.6382350" lon="-5.8818770">
        <ele>71.6</ele>
        <time>2020-12-08T11:51:54Z</time>
      </trkpt>
      <trkpt lat="36.6382850" lon="-5.8820070">
        <ele>71.4</ele>
        <time>2020-12-08T11:51:56Z</time>
      </trkpt>
      <trkpt lat="36.6385460" lon="-5.8826760">
        <ele>71.8</ele>
        <time>2020-12-08T11:52:06Z</time>
      </trkpt>
      <trkpt lat="36.6387350" lon="-5.8831560">
        <ele>72.0</ele>
        <time>2020-12-08T11:52:13Z</time>
      </trkpt>
      <trkpt lat="36.6388470" lon="-5.8834370">
        <ele>72.2</ele>
        <time>2020-12-08T11:52:17Z</time>
      </trkpt>
      <trkpt lat="36.6390980" lon="-5.8840710">
        <ele>72.2</ele>
        <time>2020-12-08T11:52:26Z</time>
      </trkpt>
      <trkpt lat="36.6391250" lon="-5.8841390">
        <ele>72.2</ele>
        <time>2020-12-08T11:52:27Z</time>
      </trkpt>
      <trkpt lat="36.6393100" lon="-5.8846080">
        <ele>71.2</ele>
        <time>2020-12-08T11:52:34Z</time>
      </trkpt>
      <trkpt lat="36.6394460" lon="-5.8849430">
        <ele>71.0</ele>
        <time>2020-12-08T11:52:39Z</time>
      </trkpt>
      <trkpt lat="36.6396770" lon="-5.8855030">
        <ele>71.0</ele>
        <time>2020-12-08T11:52:47Z</time>
      </trkpt>
      <trkpt lat="36.6399260" lon="-5.8861180">
        <ele>70.8</ele>
        <time>2020-12-08T11:52:56Z</time>
      </trkpt>
      <trkpt lat="36.6401550" lon="-5.8866970">
        <ele>71.0</ele>
        <time>2020-12-08T11:53:04Z</time>
      </trkpt>
      <trkpt lat="36.6404200" lon="-5.8873560">
        <ele>71.2</ele>
        <time>2020-12-08T11:53:13Z</time>
      </trkpt>
      <trkpt lat="36.6404490" lon="-5.8874300">
        <ele>71.2</ele>
        <time>2020-12-08T11:53:14Z</time>
      </trkpt>
      <trkpt lat="36.6406970" lon="-5.8880510">
        <ele>71.2</ele>
        <time>2020-12-08T11:53:22Z</time>
      </trkpt>
      <trkpt lat="36.6407290" lon="-5.8881320">
        <ele>71.0</ele>
        <time>2020-12-08T11:53:23Z</time>
      </trkpt>
      <trkpt lat="36.6409870" lon="-5.8887850">
        <ele>71.2</ele>
        <time>2020-12-08T11:53:31Z</time>
      </trkpt>
      <trkpt lat="36.6411170" lon="-5.8890990">
        <ele>71.2</ele>
        <time>2020-12-08T11:53:35Z</time>
      </trkpt>
      <trkpt lat="36.6413640" lon="-5.8897220">
        <ele>70.4</ele>
        <time>2020-12-08T11:53:43Z</time>
      </trkpt>
      <trkpt lat="36.6413960" lon="-5.8898030">
        <ele>70.2</ele>
        <time>2020-12-08T11:53:44Z</time>
      </trkpt>
      <trkpt lat="36.6415850" lon="-5.8902750">
        <ele>69.2</ele>
        <time>2020-12-08T11:53:50Z</time>
      </trkpt>
      <trkpt lat="36.6416190" lon="-5.8903560">
        <ele>69.2</ele>
        <time>2020-12-08T11:53:51Z</time>
      </trkpt>
      <trkpt lat="36.6418850" lon="-5.8910470">
        <ele>69.6</ele>
        <time>2020-12-08T11:53:59Z</time>
      </trkpt>
      <trkpt lat="36.6419180" lon="-5.8911340">
        <ele>69.4</ele>
        <time>2020-12-08T11:54:00Z</time>
      </trkpt>
      <trkpt lat="36.6421820" lon="-5.8918010">
        <ele>69.2</ele>
        <time>2020-12-08T11:54:08Z</time>
      </trkpt>
      <trkpt lat="36.6422760" lon="-5.8920410">
        <ele>68.8</ele>
        <time>2020-12-08T11:54:11Z</time>
      </trkpt>
      <trkpt lat="36.6423680" lon="-5.8922730">
        <ele>68.2</ele>
        <time>2020-12-08T11:54:14Z</time>
      </trkpt>
      <trkpt lat="36.6425210" lon="-5.8926500">
        <ele>67.6</ele>
        <time>2020-12-08T11:54:19Z</time>
      </trkpt>
      <trkpt lat="36.6427990" lon="-5.8933200">
        <ele>67.6</ele>
        <time>2020-12-08T11:54:28Z</time>
      </trkpt>
      <trkpt lat="36.6430500" lon="-5.8939180">
        <ele>67.2</ele>
        <time>2020-12-08T11:54:36Z</time>
      </trkpt>
      <trkpt lat="36.6431740" lon="-5.8942110">
        <ele>67.0</ele>
        <time>2020-12-08T11:54:40Z</time>
      </trkpt>
      <trkpt lat="36.6434560" lon="-5.8948600">
        <ele>66.8</ele>
        <time>2020-12-08T11:54:49Z</time>
      </trkpt>
      <trkpt lat="36.6435190" lon="-5.8950050">
        <ele>67.0</ele>
        <time>2020-12-08T11:54:51Z</time>
      </trkpt>
      <trkpt lat="36.6438090" lon="-5.8956680">
        <ele>67.2</ele>
        <time>2020-12-08T11:55:00Z</time>
      </trkpt>
      <trkpt lat="36.6439380" lon="-5.8959650">
        <ele>67.4</ele>
        <time>2020-12-08T11:55:04Z</time>
      </trkpt>
      <trkpt lat="36.6442210" lon="-5.8966280">
        <ele>67.2</ele>
        <time>2020-12-08T11:55:13Z</time>
      </trkpt>
      <trkpt lat="36.6442830" lon="-5.8967830">
        <ele>67.2</ele>
        <time>2020-12-08T11:55:15Z</time>
      </trkpt>
      <trkpt lat="36.6445420" lon="-5.8974330">
        <ele>67.2</ele>
        <time>2020-12-08T11:55:23Z</time>
      </trkpt>
      <trkpt lat="36.6445750" lon="-5.8975190">
        <ele>67.4</ele>
        <time>2020-12-08T11:55:24Z</time>
      </trkpt>
      <trkpt lat="36.6448050" lon="-5.8981330">
        <ele>67.4</ele>
        <time>2020-12-08T11:55:31Z</time>
      </trkpt>
      <trkpt lat="36.6449020" lon="-5.8984040">
        <ele>67.4</ele>
        <time>2020-12-08T11:55:34Z</time>
      </trkpt>
      <trkpt lat="36.6451290" lon="-5.8990590">
        <ele>67.0</ele>
        <time>2020-12-08T11:55:41Z</time>
      </trkpt>
      <trkpt lat="36.6452280" lon="-5.8993470">
        <ele>66.6</ele>
        <time>2020-12-08T11:55:44Z</time>
      </trkpt>
      <trkpt lat="36.6453340" lon="-5.8996370">
        <ele>66.2</ele>
        <time>2020-12-08T11:55:47Z</time>
      </trkpt>
      <trkpt lat="36.6455380" lon="-5.9002150">
        <ele>65.8</ele>
        <time>2020-12-08T11:55:53Z</time>
      </trkpt>
      <trkpt lat="36.6456060" lon="-5.9004110">
        <ele>64.8</ele>
        <time>2020-12-08T11:55:55Z</time>
      </trkpt>
      <trkpt lat="36.6457090" lon="-5.9007050">
        <ele>63.8</ele>
        <time>2020-12-08T11:55:58Z</time>
      </trkpt>
      <trkpt lat="36.6458430" lon="-5.9010950">
        <ele>63.4</ele>
        <time>2020-12-08T11:56:02Z</time>
      </trkpt>
      <trkpt lat="36.6460650" lon="-5.9018050">
        <ele>63.0</ele>
        <time>2020-12-08T11:56:09Z</time>
      </trkpt>
      <trkpt lat="36.6461180" lon="-5.9020010">
        <ele>63.0</ele>
        <time>2020-12-08T11:56:11Z</time>
      </trkpt>
      <trkpt lat="36.6461690" lon="-5.9021930">
        <ele>62.4</ele>
        <time>2020-12-08T11:56:13Z</time>
      </trkpt>
      <trkpt lat="36.6462630" lon="-5.9025740">
        <ele>61.6</ele>
        <time>2020-12-08T11:56:17Z</time>
      </trkpt>
      <trkpt lat="36.6463270" lon="-5.9028480">
        <ele>61.2</ele>
        <time>2020-12-08T11:56:20Z</time>
      </trkpt>
      <trkpt lat="36.6464580" lon="-5.9035290">
        <ele>61.2</ele>
        <time>2020-12-08T11:56:28Z</time>
      </trkpt>
      <trkpt lat="36.6465730" lon="-5.9042630">
        <ele>61.4</ele>
        <time>2020-12-08T11:56:37Z</time>
      </trkpt>
      <trkpt lat="36.6465840" lon="-5.9043450">
        <ele>61.4</ele>
        <time>2020-12-08T11:56:38Z</time>
      </trkpt>
      <trkpt lat="36.6466520" lon="-5.9050270">
        <ele>61.6</ele>
        <time>2020-12-08T11:56:46Z</time>
      </trkpt>
      <trkpt lat="36.6467020" lon="-5.9057530">
        <ele>61.2</ele>
        <time>2020-12-08T11:56:54Z</time>
      </trkpt>
      <trkpt lat="36.6467240" lon="-5.9061260">
        <ele>60.4</ele>
        <time>2020-12-08T11:56:58Z</time>
      </trkpt>
      <trkpt lat="36.6467590" lon="-5.9067030">
        <ele>59.8</ele>
        <time>2020-12-08T11:57:04Z</time>
      </trkpt>
      <trkpt lat="36.6467880" lon="-5.9072030">
        <ele>59.2</ele>
        <time>2020-12-08T11:57:09Z</time>
      </trkpt>
      <trkpt lat="36.6468030" lon="-5.9075150">
        <ele>58.8</ele>
        <time>2020-12-08T11:57:12Z</time>
      </trkpt>
      <trkpt lat="36.6468220" lon="-5.9078340">
        <ele>58.2</ele>
        <time>2020-12-08T11:57:15Z</time>
      </trkpt>
      <trkpt lat="36.6468670" lon="-5.9085910">
        <ele>57.2</ele>
        <time>2020-12-08T11:57:22Z</time>
      </trkpt>
      <trkpt lat="36.6468900" lon="-5.9090140">
        <ele>56.0</ele>
        <time>2020-12-08T11:57:26Z</time>
      </trkpt>
      <trkpt lat="36.6468900" lon="-5.9093170">
        <ele>55.8</ele>
        <time>2020-12-08T11:57:29Z</time>
      </trkpt>
      <trkpt lat="36.6469110" lon="-5.9097280">
        <ele>55.0</ele>
        <time>2020-12-08T11:57:33Z</time>
      </trkpt>
      <trkpt lat="36.6469280" lon="-5.9100400">
        <ele>54.4</ele>
        <time>2020-12-08T11:57:36Z</time>
      </trkpt>
      <trkpt lat="36.6469330" lon="-5.9101480">
        <ele>54.0</ele>
        <time>2020-12-08T11:57:37Z</time>
      </trkpt>
      <trkpt lat="36.6469470" lon="-5.9104810">
        <ele>52.6</ele>
        <time>2020-12-08T11:57:40Z</time>
      </trkpt>
      <trkpt lat="36.6469700" lon="-5.9108090">
        <ele>52.2</ele>
        <time>2020-12-08T11:57:43Z</time>
      </trkpt>
      <trkpt lat="36.6469880" lon="-5.9111330">
        <ele>51.6</ele>
        <time>2020-12-08T11:57:46Z</time>
      </trkpt>
      <trkpt lat="36.6469780" lon="-5.9115590">
        <ele>50.6</ele>
        <time>2020-12-08T11:57:50Z</time>
      </trkpt>
      <trkpt lat="36.6468830" lon="-5.9121860">
        <ele>50.2</ele>
        <time>2020-12-08T11:57:56Z</time>
      </trkpt>
      <trkpt lat="36.6466960" lon="-5.9127930">
        <ele>50.0</ele>
        <time>2020-12-08T11:58:02Z</time>
      </trkpt>
      <trkpt lat="36.6464670" lon="-5.9133090">
        <ele>49.4</ele>
        <time>2020-12-08T11:58:07Z</time>
      </trkpt>
      <trkpt lat="36.6464200" lon="-5.9134210">
        <ele>49.0</ele>
        <time>2020-12-08T11:58:08Z</time>
      </trkpt>
      <trkpt lat="36.6463340" lon="-5.9136590">
        <ele>48.2</ele>
        <time>2020-12-08T11:58:10Z</time>
      </trkpt>
      <trkpt lat="36.6462340" lon="-5.9140400">
        <ele>47.0</ele>
        <time>2020-12-08T11:58:13Z</time>
      </trkpt>
      <trkpt lat="36.6461890" lon="-5.9143050">
        <ele>45.6</ele>
        <time>2020-12-08T11:58:15Z</time>
      </trkpt>
      <trkpt lat="36.6461650" lon="-5.9145750">
        <ele>44.0</ele>
        <time>2020-12-08T11:58:17Z</time>
      </trkpt>
      <trkpt lat="36.6461650" lon="-5.9147120">
        <ele>43.2</ele>
        <time>2020-12-08T11:58:18Z</time>
      </trkpt>
      <trkpt lat="36.6461710" lon="-5.9148470">
        <ele>42.4</ele>
        <time>2020-12-08T11:58:19Z</time>
      </trkpt>
      <trkpt lat="36.6461960" lon="-5.9151150">
        <ele>40.8</ele>
        <time>2020-12-08T11:58:21Z</time>
      </trkpt>
      <trkpt lat="36.6462390" lon="-5.9153720">
        <ele>39.4</ele>
        <time>2020-12-08T11:58:23Z</time>
      </trkpt>
      <trkpt lat="36.6463030" lon="-5.9156180">
        <ele>38.0</ele>
        <time>2020-12-08T11:58:25Z</time>
      </trkpt>
      <trkpt lat="36.6463400" lon="-5.9157360">
        <ele>37.0</ele>
        <time>2020-12-08T11:58:26Z</time>
      </trkpt>
      <trkpt lat="36.6464210" lon="-5.9159590">
        <ele>35.4</ele>
        <time>2020-12-08T11:58:28Z</time>
      </trkpt>
      <trkpt lat="36.6465030" lon="-5.9161670">
        <ele>34.0</ele>
        <time>2020-12-08T11:58:30Z</time>
      </trkpt>
      <trkpt lat="36.6465870" lon="-5.9163660">
        <ele>33.0</ele>
        <time>2020-12-08T11:58:32Z</time>
      </trkpt>
      <trkpt lat="36.6467090" lon="-5.9166610">
        <ele>32.0</ele>
        <time>2020-12-08T11:58:35Z</time>
      </trkpt>
      <trkpt lat="36.6467510" lon="-5.9167560">
        <ele>31.6</ele>
        <time>2020-12-08T11:58:36Z</time>
      </trkpt>
      <trkpt lat="36.6469480" lon="-5.9172120">
        <ele>30.4</ele>
        <time>2020-12-08T11:58:41Z</time>
      </trkpt>
      <trkpt lat="36.6470240" lon="-5.9173880">
        <ele>30.2</ele>
        <time>2020-12-08T11:58:43Z</time>
      </trkpt>
      <trkpt lat="36.6473120" lon="-5.9180610">
        <ele>29.6</ele>
        <time>2020-12-08T11:58:51Z</time>
      </trkpt>
      <trkpt lat="36.6473480" lon="-5.9181400">
        <ele>29.6</ele>
        <time>2020-12-08T11:58:52Z</time>
      </trkpt>
      <trkpt lat="36.6473830" lon="-5.9182200">
        <ele>29.4</ele>
        <time>2020-12-08T11:58:53Z</time>
      </trkpt>
      <trkpt lat="36.6476230" lon="-5.9187910">
        <ele>29.0</ele>
        <time>2020-12-08T11:59:00Z</time>
      </trkpt>
      <trkpt lat="36.6477620" lon="-5.9192110">
        <ele>30.8</ele>
        <time>2020-12-08T11:59:05Z</time>
      </trkpt>
      <trkpt lat="36.6478070" lon="-5.9193850">
        <ele>31.2</ele>
        <time>2020-12-08T11:59:07Z</time>
      </trkpt>
      <trkpt lat="36.6479110" lon="-5.9200140">
        <ele>31.6</ele>
        <time>2020-12-08T11:59:14Z</time>
      </trkpt>
      <trkpt lat="36.6479340" lon="-5.9201940">
        <ele>31.4</ele>
        <time>2020-12-08T11:59:16Z</time>
      </trkpt>
      <trkpt lat="36.6479550" lon="-5.9204690">
        <ele>31.4</ele>
        <time>2020-12-08T11:59:19Z</time>
      </trkpt>
      <trkpt lat="36.6480020" lon="-5.9211680">
        <ele>30.2</ele>
        <time>2020-12-08T11:59:27Z</time>
      </trkpt>
      <trkpt lat="36.6480090" lon="-5.9213290">
        <ele>29.8</ele>
        <time>2020-12-08T11:59:29Z</time>
      </trkpt>
      <trkpt lat="36.6480370" lon="-5.9218920">
        <ele>28.8</ele>
        <time>2020-12-08T11:59:36Z</time>
      </trkpt>
      <trkpt lat="36.6480830" lon="-5.9226130">
        <ele>28.4</ele>
        <time>2020-12-08T11:59:45Z</time>
      </trkpt>
      <trkpt lat="36.6480970" lon="-5.9227770">
        <ele>28.6</ele>
        <time>2020-12-08T11:59:47Z</time>
      </trkpt>
      <trkpt lat="36.6481510" lon="-5.9234110">
        <ele>28.6</ele>
        <time>2020-12-08T11:59:55Z</time>
      </trkpt>
      <trkpt lat="36.6482020" lon="-5.9241000">
        <ele>29.6</ele>
        <time>2020-12-08T12:00:04Z</time>
      </trkpt>
      <trkpt lat="36.6482170" lon="-5.9242540">
        <ele>29.8</ele>
        <time>2020-12-08T12:00:06Z</time>
      </trkpt>
      <trkpt lat="36.6482510" lon="-5.9247260">
        <ele>30.6</ele>
        <time>2020-12-08T12:00:12Z</time>
      </trkpt>
      <trkpt lat="36.6483090" lon="-5.9254280">
        <ele>30.6</ele>
        <time>2020-12-08T12:00:21Z</time>
      </trkpt>
      <trkpt lat="36.6483140" lon="-5.9255070">
        <ele>30.6</ele>
        <time>2020-12-08T12:00:22Z</time>
      </trkpt>
      <trkpt lat="36.6483930" lon="-5.9262180">
        <ele>29.4</ele>
        <time>2020-12-08T12:00:31Z</time>
      </trkpt>
      <trkpt lat="36.6484340" lon="-5.9263750">
        <ele>28.8</ele>
        <time>2020-12-08T12:00:33Z</time>
      </trkpt>
      <trkpt lat="36.6485500" lon="-5.9266850">
        <ele>28.4</ele>
        <time>2020-12-08T12:00:37Z</time>
      </trkpt>
      <trkpt lat="36.6486230" lon="-5.9268310">
        <ele>28.2</ele>
        <time>2020-12-08T12:00:39Z</time>
      </trkpt>
      <trkpt lat="36.6487130" lon="-5.9269650">
        <ele>27.8</ele>
        <time>2020-12-08T12:00:41Z</time>
      </trkpt>
      <trkpt lat="36.6487620" lon="-5.9270350">
        <ele>27.8</ele>
        <time>2020-12-08T12:00:42Z</time>
      </trkpt>
      <trkpt lat="36.6490160" lon="-5.9273610">
        <ele>27.2</ele>
        <time>2020-12-08T12:00:47Z</time>
      </trkpt>
      <trkpt lat="36.6490580" lon="-5.9274260">
        <ele>27.0</ele>
        <time>2020-12-08T12:00:48Z</time>
      </trkpt>
      <trkpt lat="36.6490950" lon="-5.9274960">
        <ele>26.8</ele>
        <time>2020-12-08T12:00:49Z</time>
      </trkpt>
      <trkpt lat="36.6492540" lon="-5.9278640">
        <ele>25.6</ele>
        <time>2020-12-08T12:00:54Z</time>
      </trkpt>
      <trkpt lat="36.6492920" lon="-5.9280150">
        <ele>25.4</ele>
        <time>2020-12-08T12:00:56Z</time>
      </trkpt>
      <trkpt lat="36.6493170" lon="-5.9282540">
        <ele>25.4</ele>
        <time>2020-12-08T12:00:59Z</time>
      </trkpt>
      <trkpt lat="36.6493110" lon="-5.9287330">
        <ele>25.8</ele>
        <time>2020-12-08T12:01:05Z</time>
      </trkpt>
      <trkpt lat="36.6493040" lon="-5.9289480">
        <ele>26.2</ele>
        <time>2020-12-08T12:01:08Z</time>
      </trkpt>
      <trkpt lat="36.6493020" lon="-5.9291380">
        <ele>26.6</ele>
        <time>2020-12-08T12:01:11Z</time>
      </trkpt>
      <trkpt lat="36.6492980" lon="-5.9294420">
        <ele>26.6</ele>
        <time>2020-12-08T12:01:15Z</time>
      </trkpt>
      <trkpt lat="36.6492940" lon="-5.9295080">
        <ele>26.6</ele>
        <time>2020-12-08T12:01:16Z</time>
      </trkpt>
      <trkpt lat="36.6492950" lon="-5.9297440">
        <ele>26.6</ele>
        <time>2020-12-08T12:01:20Z</time>
      </trkpt>
      <trkpt lat="36.6492860" lon="-5.9299680">
        <ele>27.0</ele>
        <time>2020-12-08T12:01:23Z</time>
      </trkpt>
      <trkpt lat="36.6492730" lon="-5.9304850">
        <ele>27.2</ele>
        <time>2020-12-08T12:01:30Z</time>
      </trkpt>
      <trkpt lat="36.6492640" lon="-5.9311460">
        <ele>27.6</ele>
        <time>2020-12-08T12:01:38Z</time>
      </trkpt>
      <trkpt lat="36.6492480" lon="-5.9316020">
        <ele>27.8</ele>
        <time>2020-12-08T12:01:44Z</time>
      </trkpt>
      <trkpt lat="36.6492300" lon="-5.9319770">
        <ele>28.2</ele>
        <time>2020-12-08T12:01:49Z</time>
      </trkpt>
      <trkpt lat="36.6492260" lon="-5.9322030">
        <ele>28.8</ele>
        <time>2020-12-08T12:01:52Z</time>
      </trkpt>
      <trkpt lat="36.6492220" lon="-5.9325020">
        <ele>29.6</ele>
        <time>2020-12-08T12:01:56Z</time>
      </trkpt>
      <trkpt lat="36.6492220" lon="-5.9329890">
        <ele>30.0</ele>
        <time>2020-12-08T12:02:02Z</time>
      </trkpt>
      <trkpt lat="36.6492260" lon="-5.9330720">
        <ele>30.2</ele>
        <time>2020-12-08T12:02:03Z</time>
      </trkpt>
      <trkpt lat="36.6492650" lon="-5.9336550">
        <ele>31.0</ele>
        <time>2020-12-08T12:02:10Z</time>
      </trkpt>
      <trkpt lat="36.6492900" lon="-5.9339800">
        <ele>31.6</ele>
        <time>2020-12-08T12:02:14Z</time>
      </trkpt>
      <trkpt lat="36.6493600" lon="-5.9346070">
        <ele>31.8</ele>
        <time>2020-12-08T12:02:22Z</time>
      </trkpt>
      <trkpt lat="36.6493970" lon="-5.9349110">
        <ele>32.2</ele>
        <time>2020-12-08T12:02:26Z</time>
      </trkpt>
      <trkpt lat="36.6494070" lon="-5.9349870">
        <ele>32.2</ele>
        <time>2020-12-08T12:02:27Z</time>
      </trkpt>
      <trkpt lat="36.6494630" lon="-5.9355200">
        <ele>32.4</ele>
        <time>2020-12-08T12:02:34Z</time>
      </trkpt>
      <trkpt lat="36.6495340" lon="-5.9360910">
        <ele>32.6</ele>
        <time>2020-12-08T12:02:42Z</time>
      </trkpt>
      <trkpt lat="36.6495740" lon="-5.9364810">
        <ele>33.6</ele>
        <time>2020-12-08T12:02:48Z</time>
      </trkpt>
      <trkpt lat="36.6495800" lon="-5.9365440">
        <ele>33.8</ele>
        <time>2020-12-08T12:02:49Z</time>
      </trkpt>
      <trkpt lat="36.6496250" lon="-5.9369350">
        <ele>34.6</ele>
        <time>2020-12-08T12:02:55Z</time>
      </trkpt>
      <trkpt lat="36.6496500" lon="-5.9371890">
        <ele>35.8</ele>
        <time>2020-12-08T12:02:59Z</time>
      </trkpt>
      <trkpt lat="36.6496960" lon="-5.9376160">
        <ele>36.4</ele>
        <time>2020-12-08T12:03:06Z</time>
      </trkpt>
      <trkpt lat="36.6497480" lon="-5.9380900">
        <ele>36.8</ele>
        <time>2020-12-08T12:03:14Z</time>
      </trkpt>
      <trkpt lat="36.6497680" lon="-5.9382790">
        <ele>37.0</ele>
        <time>2020-12-08T12:03:17Z</time>
      </trkpt>
      <trkpt lat="36.6498180" lon="-5.9387310">
        <ele>38.0</ele>
        <time>2020-12-08T12:03:24Z</time>
      </trkpt>
      <trkpt lat="36.6498790" lon="-5.9393360">
        <ele>38.0</ele>
        <time>2020-12-08T12:03:33Z</time>
      </trkpt>
      <trkpt lat="36.6499430" lon="-5.9399260">
        <ele>37.0</ele>
        <time>2020-12-08T12:03:41Z</time>
      </trkpt>
      <trkpt lat="36.6500160" lon="-5.9406610">
        <ele>36.0</ele>
        <time>2020-12-08T12:03:50Z</time>
      </trkpt>
      <trkpt lat="36.6500250" lon="-5.9407460">
        <ele>35.8</ele>
        <time>2020-12-08T12:03:51Z</time>
      </trkpt>
      <trkpt lat="36.6501110" lon="-5.9414300">
        <ele>35.2</ele>
        <time>2020-12-08T12:03:59Z</time>
      </trkpt>
      <trkpt lat="36.6501350" lon="-5.9415960">
        <ele>35.0</ele>
        <time>2020-12-08T12:04:01Z</time>
      </trkpt>
      <trkpt lat="36.6501460" lon="-5.9416780">
        <ele>34.6</ele>
        <time>2020-12-08T12:04:02Z</time>
      </trkpt>
      <trkpt lat="36.6501820" lon="-5.9419230">
        <ele>33.6</ele>
        <time>2020-12-08T12:04:05Z</time>
      </trkpt>
      <trkpt lat="36.6502360" lon="-5.9423210">
        <ele>33.4</ele>
        <time>2020-12-08T12:04:10Z</time>
      </trkpt>
      <trkpt lat="36.6503360" lon="-5.9430440">
        <ele>33.8</ele>
        <time>2020-12-08T12:04:20Z</time>
      </trkpt>
      <trkpt lat="36.6503880" lon="-5.9435350">
        <ele>34.6</ele>
        <time>2020-12-08T12:04:27Z</time>
      </trkpt>
      <trkpt lat="36.6504150" lon="-5.9438870">
        <ele>35.2</ele>
        <time>2020-12-08T12:04:32Z</time>
      </trkpt>
      <trkpt lat="36.6504320" lon="-5.9442490">
        <ele>35.6</ele>
        <time>2020-12-08T12:04:37Z</time>
      </trkpt>
      <trkpt lat="36.6504310" lon="-5.9444650">
        <ele>35.8</ele>
        <time>2020-12-08T12:04:40Z</time>
      </trkpt>
      <trkpt lat="36.6504210" lon="-5.9451790">
        <ele>36.2</ele>
        <time>2020-12-08T12:04:50Z</time>
      </trkpt>
      <trkpt lat="36.6504210" lon="-5.9452550">
        <ele>36.2</ele>
        <time>2020-12-08T12:04:51Z</time>
      </trkpt>
      <trkpt lat="36.6504220" lon="-5.9458600">
        <ele>36.4</ele>
        <time>2020-12-08T12:04:59Z</time>
      </trkpt>
      <trkpt lat="36.6504470" lon="-5.9464800">
        <ele>36.6</ele>
        <time>2020-12-08T12:05:08Z</time>
      </trkpt>
      <trkpt lat="36.6504630" lon="-5.9471140">
        <ele>36.8</ele>
        <time>2020-12-08T12:05:18Z</time>
      </trkpt>
      <trkpt lat="36.6504660" lon="-5.9471800">
        <ele>37.0</ele>
        <time>2020-12-08T12:05:19Z</time>
      </trkpt>
      <trkpt lat="36.6504850" lon="-5.9478330">
        <ele>37.8</ele>
        <time>2020-12-08T12:05:29Z</time>
      </trkpt>
      <trkpt lat="36.6505010" lon="-5.9484700">
        <ele>37.8</ele>
        <time>2020-12-08T12:05:39Z</time>
      </trkpt>
      <trkpt lat="36.6505160" lon="-5.9488920">
        <ele>38.2</ele>
        <time>2020-12-08T12:05:46Z</time>
      </trkpt>
      <trkpt lat="36.6505180" lon="-5.9490140">
        <ele>38.4</ele>
        <time>2020-12-08T12:05:48Z</time>
      </trkpt>
      <trkpt lat="36.6505300" lon="-5.9494880">
        <ele>38.6</ele>
        <time>2020-12-08T12:05:56Z</time>
      </trkpt>
      <trkpt lat="36.6505430" lon="-5.9499990">
        <ele>39.4</ele>
        <time>2020-12-08T12:06:05Z</time>
      </trkpt>
      <trkpt lat="36.6505470" lon="-5.9501080">
        <ele>39.6</ele>
        <time>2020-12-08T12:06:07Z</time>
      </trkpt>
      <trkpt lat="36.6505610" lon="-5.9506320">
        <ele>40.4</ele>
        <time>2020-12-08T12:06:17Z</time>
      </trkpt>
      <trkpt lat="36.6505640" lon="-5.9506840">
        <ele>40.4</ele>
        <time>2020-12-08T12:06:18Z</time>
      </trkpt>
      <trkpt lat="36.6505860" lon="-5.9510380">
        <ele>40.8</ele>
        <time>2020-12-08T12:06:25Z</time>
      </trkpt>
      <trkpt lat="36.6505920" lon="-5.9510900">
        <ele>40.8</ele>
        <time>2020-12-08T12:06:26Z</time>
      </trkpt>
      <trkpt lat="36.6506580" lon="-5.9515730">
        <ele>41.2</ele>
        <time>2020-12-08T12:06:35Z</time>
      </trkpt>
      <trkpt lat="36.6507290" lon="-5.9519100">
        <ele>41.6</ele>
        <time>2020-12-08T12:06:41Z</time>
      </trkpt>
      <trkpt lat="36.6507880" lon="-5.9521420">
        <ele>42.0</ele>
        <time>2020-12-08T12:06:45Z</time>
      </trkpt>
      <trkpt lat="36.6509620" lon="-5.9528270">
        <ele>41.6</ele>
        <time>2020-12-08T12:06:56Z</time>
      </trkpt>
      <trkpt lat="36.6509780" lon="-5.9528940">
        <ele>41.4</ele>
        <time>2020-12-08T12:06:57Z</time>
      </trkpt>
      <trkpt lat="36.6510620" lon="-5.9533040">
        <ele>40.6</ele>
        <time>2020-12-08T12:07:03Z</time>
      </trkpt>
      <trkpt lat="36.6510820" lon="-5.9533710">
        <ele>40.6</ele>
        <time>2020-12-08T12:07:04Z</time>
      </trkpt>
      <trkpt lat="36.6511090" lon="-5.9534350">
        <ele>40.4</ele>
        <time>2020-12-08T12:07:05Z</time>
      </trkpt>
      <trkpt lat="36.6511950" lon="-5.9536230">
        <ele>40.4</ele>
        <time>2020-12-08T12:07:08Z</time>
      </trkpt>
      <trkpt lat="36.6512110" lon="-5.9537660">
        <ele>40.2</ele>
        <time>2020-12-08T12:07:10Z</time>
      </trkpt>
      <trkpt lat="36.6511690" lon="-5.9539860">
        <ele>40.0</ele>
        <time>2020-12-08T12:07:13Z</time>
      </trkpt>
      <trkpt lat="36.6511520" lon="-5.9540610">
        <ele>40.0</ele>
        <time>2020-12-08T12:07:14Z</time>
      </trkpt>
      <trkpt lat="36.6511340" lon="-5.9542180">
        <ele>40.0</ele>
        <time>2020-12-08T12:07:16Z</time>
      </trkpt>
      <trkpt lat="36.6511310" lon="-5.9544510">
        <ele>39.8</ele>
        <time>2020-12-08T12:07:19Z</time>
      </trkpt>
      <trkpt lat="36.6511290" lon="-5.9545250">
        <ele>39.6</ele>
        <time>2020-12-08T12:07:20Z</time>
      </trkpt>
      <trkpt lat="36.6511020" lon="-5.9549360">
        <ele>39.6</ele>
        <time>2020-12-08T12:07:26Z</time>
      </trkpt>
      <trkpt lat="36.6510630" lon="-5.9554230">
        <ele>40.2</ele>
        <time>2020-12-08T12:07:34Z</time>
      </trkpt>
      <trkpt lat="36.6510520" lon="-5.9555380">
        <ele>40.8</ele>
        <time>2020-12-08T12:07:36Z</time>
      </trkpt>
      <trkpt lat="36.6510400" lon="-5.9556440">
        <ele>42.0</ele>
        <time>2020-12-08T12:07:38Z</time>
      </trkpt>
      <trkpt lat="36.6510300" lon="-5.9557990">
        <ele>42.6</ele>
        <time>2020-12-08T12:07:41Z</time>
      </trkpt>
      <trkpt lat="36.6510090" lon="-5.9560150">
        <ele>43.0</ele>
        <time>2020-12-08T12:07:45Z</time>
      </trkpt>
      <trkpt lat="36.6510010" lon="-5.9561270">
        <ele>43.2</ele>
        <time>2020-12-08T12:07:47Z</time>
      </trkpt>
      <trkpt lat="36.6509880" lon="-5.9563260">
        <ele>44.4</ele>
        <time>2020-12-08T12:07:51Z</time>
      </trkpt>
      <trkpt lat="36.6509760" lon="-5.9564270">
        <ele>44.6</ele>
        <time>2020-12-08T12:07:53Z</time>
      </trkpt>
      <trkpt lat="36.6509670" lon="-5.9565300">
        <ele>45.0</ele>
        <time>2020-12-08T12:07:55Z</time>
      </trkpt>
      <trkpt lat="36.6509630" lon="-5.9566330">
        <ele>45.6</ele>
        <time>2020-12-08T12:07:57Z</time>
      </trkpt>
      <trkpt lat="36.6509450" lon="-5.9567870">
        <ele>46.2</ele>
        <time>2020-12-08T12:08:00Z</time>
      </trkpt>
      <trkpt lat="36.6509240" lon="-5.9570960">
        <ele>46.6</ele>
        <time>2020-12-08T12:08:06Z</time>
      </trkpt>
      <trkpt lat="36.6509160" lon="-5.9571980">
        <ele>47.2</ele>
        <time>2020-12-08T12:08:08Z</time>
      </trkpt>
      <trkpt lat="36.6508880" lon="-5.9575970">
        <ele>47.6</ele>
        <time>2020-12-08T12:08:16Z</time>
      </trkpt>
      <trkpt lat="36.6508820" lon="-5.9576440">
        <ele>47.8</ele>
        <time>2020-12-08T12:08:17Z</time>
      </trkpt>
      <trkpt lat="36.6508860" lon="-5.9580630">
        <ele>48.6</ele>
        <time>2020-12-08T12:08:25Z</time>
      </trkpt>
      <trkpt lat="36.6508880" lon="-5.9581200">
        <ele>48.8</ele>
        <time>2020-12-08T12:08:26Z</time>
      </trkpt>
      <trkpt lat="36.6509360" lon="-5.9585120">
        <ele>50.0</ele>
        <time>2020-12-08T12:08:33Z</time>
      </trkpt>
      <trkpt lat="36.6510460" lon="-5.9589930">
        <ele>49.6</ele>
        <time>2020-12-08T12:08:42Z</time>
      </trkpt>
      <trkpt lat="36.6512020" lon="-5.9594690">
        <ele>50.6</ele>
        <time>2020-12-08T12:08:51Z</time>
      </trkpt>
      <trkpt lat="36.6512520" lon="-5.9596260">
        <ele>51.2</ele>
        <time>2020-12-08T12:08:54Z</time>
      </trkpt>
      <trkpt lat="36.6513570" lon="-5.9599490">
        <ele>51.8</ele>
        <time>2020-12-08T12:09:00Z</time>
      </trkpt>
      <trkpt lat="36.6515320" lon="-5.9604820">
        <ele>51.6</ele>
        <time>2020-12-08T12:09:10Z</time>
      </trkpt>
      <trkpt lat="36.6517120" lon="-5.9610290">
        <ele>51.6</ele>
        <time>2020-12-08T12:09:20Z</time>
      </trkpt>
      <trkpt lat="36.6519240" lon="-5.9616540">
        <ele>51.4</ele>
        <time>2020-12-08T12:09:32Z</time>
      </trkpt>
      <trkpt lat="36.6521150" lon="-5.9622390">
        <ele>51.4</ele>
        <time>2020-12-08T12:09:43Z</time>
      </trkpt>
      <trkpt lat="36.6521900" lon="-5.9624560">
        <ele>52.4</ele>
        <time>2020-12-08T12:09:47Z</time>
      </trkpt>
      <trkpt lat="36.6522990" lon="-5.9627840">
        <ele>52.6</ele>
        <time>2020-12-08T12:09:53Z</time>
      </trkpt>
      <trkpt lat="36.6524710" lon="-5.9632540">
        <ele>52.4</ele>
        <time>2020-12-08T12:10:02Z</time>
      </trkpt>
      <trkpt lat="36.6527210" lon="-5.9638040">
        <ele>53.4</ele>
        <time>2020-12-08T12:10:13Z</time>
      </trkpt>
      <trkpt lat="36.6527460" lon="-5.9638520">
        <ele>53.4</ele>
        <time>2020-12-08T12:10:14Z</time>
      </trkpt>
      <trkpt lat="36.6529800" lon="-5.9643080">
        <ele>54.6</ele>
        <time>2020-12-08T12:10:23Z</time>
      </trkpt>
      <trkpt lat="36.6532680" lon="-5.9648490">
        <ele>53.8</ele>
        <time>2020-12-08T12:10:33Z</time>
      </trkpt>
      <trkpt lat="36.6535790" lon="-5.9654240">
        <ele>53.8</ele>
        <time>2020-12-08T12:10:43Z</time>
      </trkpt>
      <trkpt lat="36.6536740" lon="-5.9655950">
        <ele>53.8</ele>
        <time>2020-12-08T12:10:46Z</time>
      </trkpt>
      <trkpt lat="36.6539760" lon="-5.9661600">
        <ele>53.4</ele>
        <time>2020-12-08T12:10:56Z</time>
      </trkpt>
      <trkpt lat="36.6540370" lon="-5.9662730">
        <ele>53.2</ele>
        <time>2020-12-08T12:10:58Z</time>
      </trkpt>
      <trkpt lat="36.6543430" lon="-5.9668420">
        <ele>53.6</ele>
        <time>2020-12-08T12:11:08Z</time>
      </trkpt>
      <trkpt lat="36.6544370" lon="-5.9670170">
        <ele>53.6</ele>
        <time>2020-12-08T12:11:11Z</time>
      </trkpt>
      <trkpt lat="36.6547580" lon="-5.9676190">
        <ele>53.6</ele>
        <time>2020-12-08T12:11:21Z</time>
      </trkpt>
      <trkpt lat="36.6550870" lon="-5.9682280">
        <ele>53.6</ele>
        <time>2020-12-08T12:11:31Z</time>
      </trkpt>
      <trkpt lat="36.6551840" lon="-5.9684140">
        <ele>54.0</ele>
        <time>2020-12-08T12:11:34Z</time>
      </trkpt>
      <trkpt lat="36.6554880" lon="-5.9689830">
        <ele>54.2</ele>
        <time>2020-12-08T12:11:43Z</time>
      </trkpt>
      <trkpt lat="36.6558200" lon="-5.9696030">
        <ele>54.0</ele>
        <time>2020-12-08T12:11:53Z</time>
      </trkpt>
      <trkpt lat="36.6558540" lon="-5.9696650">
        <ele>54.0</ele>
        <time>2020-12-08T12:11:54Z</time>
      </trkpt>
      <trkpt lat="36.6560950" lon="-5.9700890">
        <ele>53.0</ele>
        <time>2020-12-08T12:12:01Z</time>
      </trkpt>
      <trkpt lat="36.6564240" lon="-5.9707130">
        <ele>52.8</ele>
        <time>2020-12-08T12:12:10Z</time>
      </trkpt>
      <trkpt lat="36.6567610" lon="-5.9713310">
        <ele>53.8</ele>
        <time>2020-12-08T12:12:19Z</time>
      </trkpt>
      <trkpt lat="36.6567990" lon="-5.9714000">
        <ele>53.8</ele>
        <time>2020-12-08T12:12:20Z</time>
      </trkpt>
      <trkpt lat="36.6570920" lon="-5.9719420">
        <ele>53.6</ele>
        <time>2020-12-08T12:12:28Z</time>
      </trkpt>
      <trkpt lat="36.6573990" lon="-5.9725210">
        <ele>53.0</ele>
        <time>2020-12-08T12:12:37Z</time>
      </trkpt>
      <trkpt lat="36.6574320" lon="-5.9725840">
        <ele>52.8</ele>
        <time>2020-12-08T12:12:38Z</time>
      </trkpt>
      <trkpt lat="36.6575330" lon="-5.9727740">
        <ele>51.6</ele>
        <time>2020-12-08T12:12:41Z</time>
      </trkpt>
      <trkpt lat="36.6577390" lon="-5.9731560">
        <ele>50.8</ele>
        <time>2020-12-08T12:12:47Z</time>
      </trkpt>
      <trkpt lat="36.6580440" lon="-5.9737200">
        <ele>50.8</ele>
        <time>2020-12-08T12:12:56Z</time>
      </trkpt>
      <trkpt lat="36.6582820" lon="-5.9741600">
        <ele>51.6</ele>
        <time>2020-12-08T12:13:03Z</time>
      </trkpt>
      <trkpt lat="36.6586160" lon="-5.9747790">
        <ele>50.6</ele>
        <time>2020-12-08T12:13:13Z</time>
      </trkpt>
      <trkpt lat="36.6586490" lon="-5.9748440">
        <ele>50.4</ele>
        <time>2020-12-08T12:13:14Z</time>
      </trkpt>
      <trkpt lat="36.6589220" lon="-5.9753650">
        <ele>50.0</ele>
        <time>2020-12-08T12:13:22Z</time>
      </trkpt>
      <trkpt lat="36.6592470" lon="-5.9759550">
        <ele>50.0</ele>
        <time>2020-12-08T12:13:31Z</time>
      </trkpt>
      <trkpt lat="36.6593140" lon="-5.9760820">
        <ele>49.8</ele>
        <time>2020-12-08T12:13:33Z</time>
      </trkpt>
      <trkpt lat="36.6594110" lon="-5.9762650">
        <ele>49.6</ele>
        <time>2020-12-08T12:13:36Z</time>
      </trkpt>
      <trkpt lat="36.6596700" lon="-5.9767430">
        <ele>49.2</ele>
        <time>2020-12-08T12:13:44Z</time>
      </trkpt>
      <trkpt lat="36.6599910" lon="-5.9773330">
        <ele>50.0</ele>
        <time>2020-12-08T12:13:54Z</time>
      </trkpt>
      <trkpt lat="36.6600230" lon="-5.9773920">
        <ele>50.0</ele>
        <time>2020-12-08T12:13:55Z</time>
      </trkpt>
      <trkpt lat="36.6603450" lon="-5.9779940">
        <ele>50.4</ele>
        <time>2020-12-08T12:14:05Z</time>
      </trkpt>
      <trkpt lat="36.6603770" lon="-5.9780520">
        <ele>50.4</ele>
        <time>2020-12-08T12:14:06Z</time>
      </trkpt>
      <trkpt lat="36.6604380" lon="-5.9781690">
        <ele>50.6</ele>
        <time>2020-12-08T12:14:08Z</time>
      </trkpt>
      <trkpt lat="36.6606810" lon="-5.9786200">
        <ele>51.4</ele>
        <time>2020-12-08T12:14:16Z</time>
      </trkpt>
      <trkpt lat="36.6609840" lon="-5.9791990">
        <ele>51.2</ele>
        <time>2020-12-08T12:14:26Z</time>
      </trkpt>
      <trkpt lat="36.6610130" lon="-5.9792620">
        <ele>51.2</ele>
        <time>2020-12-08T12:14:27Z</time>
      </trkpt>
      <trkpt lat="36.6612850" lon="-5.9798820">
        <ele>51.6</ele>
        <time>2020-12-08T12:14:37Z</time>
      </trkpt>
      <trkpt lat="36.6613100" lon="-5.9799450">
        <ele>51.6</ele>
        <time>2020-12-08T12:14:38Z</time>
      </trkpt>
      <trkpt lat="36.6613590" lon="-5.9800720">
        <ele>51.8</ele>
        <time>2020-12-08T12:14:40Z</time>
      </trkpt>
      <trkpt lat="36.6614510" lon="-5.9804030">
        <ele>51.8</ele>
        <time>2020-12-08T12:14:45Z</time>
      </trkpt>
      <trkpt lat="36.6615810" lon="-5.9809920">
        <ele>52.0</ele>
        <time>2020-12-08T12:14:54Z</time>
      </trkpt>
      <trkpt lat="36.6617010" lon="-5.9815770">
        <ele>52.0</ele>
        <time>2020-12-08T12:15:03Z</time>
      </trkpt>
      <trkpt lat="36.6617940" lon="-5.9820000">
        <ele>52.8</ele>
        <time>2020-12-08T12:15:10Z</time>
      </trkpt>
      <trkpt lat="36.6618230" lon="-5.9821170">
        <ele>53.0</ele>
        <time>2020-12-08T12:15:12Z</time>
      </trkpt>
      <trkpt lat="36.6619680" lon="-5.9826920">
        <ele>53.2</ele>
        <time>2020-12-08T12:15:22Z</time>
      </trkpt>
      <trkpt lat="36.6621310" lon="-5.9832250">
        <ele>53.6</ele>
        <time>2020-12-08T12:15:31Z</time>
      </trkpt>
      <trkpt lat="36.6621510" lon="-5.9832860">
        <ele>54.2</ele>
        <time>2020-12-08T12:15:32Z</time>
      </trkpt>
      <trkpt lat="36.6623280" lon="-5.9837790">
        <ele>54.8</ele>
        <time>2020-12-08T12:15:40Z</time>
      </trkpt>
      <trkpt lat="36.6626040" lon="-5.9844290">
        <ele>54.2</ele>
        <time>2020-12-08T12:15:51Z</time>
      </trkpt>
      <trkpt lat="36.6628960" lon="-5.9850320">
        <ele>53.2</ele>
        <time>2020-12-08T12:16:02Z</time>
      </trkpt>
      <trkpt lat="36.6630750" lon="-5.9853620">
        <ele>53.6</ele>
        <time>2020-12-08T12:16:09Z</time>
      </trkpt>
      <trkpt lat="36.6632680" lon="-5.9856840">
        <ele>54.0</ele>
        <time>2020-12-08T12:16:16Z</time>
      </trkpt>
      <trkpt lat="36.6633790" lon="-5.9858790">
        <ele>55.2</ele>
        <time>2020-12-08T12:16:20Z</time>
      </trkpt>
      <trkpt lat="36.6634560" lon="-5.9860160">
        <ele>55.8</ele>
        <time>2020-12-08T12:16:23Z</time>
      </trkpt>
      <trkpt lat="36.6635600" lon="-5.9861890">
        <ele>56.2</ele>
        <time>2020-12-08T12:16:27Z</time>
      </trkpt>
      <trkpt lat="36.6637180" lon="-5.9864560">
        <ele>56.6</ele>
        <time>2020-12-08T12:16:33Z</time>
      </trkpt>
      <trkpt lat="36.6639400" lon="-5.9868230">
        <ele>57.2</ele>
        <time>2020-12-08T12:16:42Z</time>
      </trkpt>
      <trkpt lat="36.6639910" lon="-5.9869090">
        <ele>57.2</ele>
        <time>2020-12-08T12:16:44Z</time>
      </trkpt>
      <trkpt lat="36.6641700" lon="-5.9872080">
        <ele>58.6</ele>
        <time>2020-12-08T12:16:51Z</time>
      </trkpt>
      <trkpt lat="36.6641960" lon="-5.9872520">
        <ele>58.8</ele>
        <time>2020-12-08T12:16:52Z</time>
      </trkpt>
      <trkpt lat="36.6644830" lon="-5.9877330">
        <ele>59.6</ele>
        <time>2020-12-08T12:17:03Z</time>
      </trkpt>
      <trkpt lat="36.6647470" lon="-5.9881730">
        <ele>60.4</ele>
        <time>2020-12-08T12:17:13Z</time>
      </trkpt>
      <trkpt lat="36.6648520" lon="-5.9883490">
        <ele>60.6</ele>
        <time>2020-12-08T12:17:17Z</time>
      </trkpt>
      <trkpt lat="36.6649530" lon="-5.9885150">
        <ele>62.0</ele>
        <time>2020-12-08T12:17:21Z</time>
      </trkpt>
      <trkpt lat="36.6650240" lon="-5.9886350">
        <ele>62.4</ele>
        <time>2020-12-08T12:17:24Z</time>
      </trkpt>
      <trkpt lat="36.6650980" lon="-5.9887590">
        <ele>63.0</ele>
        <time>2020-12-08T12:17:27Z</time>
      </trkpt>
      <trkpt lat="36.6652470" lon="-5.9890090">
        <ele>64.2</ele>
        <time>2020-12-08T12:17:33Z</time>
      </trkpt>
      <trkpt lat="36.6652720" lon="-5.9890500">
        <ele>64.4</ele>
        <time>2020-12-08T12:17:34Z</time>
      </trkpt>
      <trkpt lat="36.6654170" lon="-5.9892950">
        <ele>65.2</ele>
        <time>2020-12-08T12:17:40Z</time>
      </trkpt>
      <trkpt lat="36.6654990" lon="-5.9894170">
        <ele>66.0</ele>
        <time>2020-12-08T12:17:43Z</time>
      </trkpt>
      <trkpt lat="36.6655250" lon="-5.9894640">
        <ele>66.4</ele>
        <time>2020-12-08T12:17:44Z</time>
      </trkpt>
      <trkpt lat="36.6657220" lon="-5.9897880">
        <ele>67.8</ele>
        <time>2020-12-08T12:17:51Z</time>
      </trkpt>
      <trkpt lat="36.6657790" lon="-5.9898840">
        <ele>68.4</ele>
        <time>2020-12-08T12:17:53Z</time>
      </trkpt>
      <trkpt lat="36.6658950" lon="-5.9900760">
        <ele>69.0</ele>
        <time>2020-12-08T12:17:57Z</time>
      </trkpt>
      <trkpt lat="36.6660360" lon="-5.9903230">
        <ele>69.4</ele>
        <time>2020-12-08T12:18:02Z</time>
      </trkpt>
      <trkpt lat="36.6662500" lon="-5.9906850">
        <ele>69.8</ele>
        <time>2020-12-08T12:18:09Z</time>
      </trkpt>
      <trkpt lat="36.6663430" lon="-5.9908320">
        <ele>70.2</ele>
        <time>2020-12-08T12:18:12Z</time>
      </trkpt>
      <trkpt lat="36.6664910" lon="-5.9910870">
        <ele>70.6</ele>
        <time>2020-12-08T12:18:17Z</time>
      </trkpt>
      <trkpt lat="36.6667310" lon="-5.9914810">
        <ele>70.8</ele>
        <time>2020-12-08T12:18:25Z</time>
      </trkpt>
      <trkpt lat="36.6669860" lon="-5.9919050">
        <ele>71.2</ele>
        <time>2020-12-08T12:18:34Z</time>
      </trkpt>
      <trkpt lat="36.6670140" lon="-5.9919510">
        <ele>71.4</ele>
        <time>2020-12-08T12:18:35Z</time>
      </trkpt>
      <trkpt lat="36.6671710" lon="-5.9922200">
        <ele>72.2</ele>
        <time>2020-12-08T12:18:41Z</time>
      </trkpt>
      <trkpt lat="36.6672730" lon="-5.9924010">
        <ele>72.4</ele>
        <time>2020-12-08T12:18:45Z</time>
      </trkpt>
      <trkpt lat="36.6673750" lon="-5.9925860">
        <ele>72.4</ele>
        <time>2020-12-08T12:18:49Z</time>
      </trkpt>
      <trkpt lat="36.6675750" lon="-5.9929890">
        <ele>72.8</ele>
        <time>2020-12-08T12:18:57Z</time>
      </trkpt>
      <trkpt lat="36.6676620" lon="-5.9932120">
        <ele>73.6</ele>
        <time>2020-12-08T12:19:01Z</time>
      </trkpt>
      <trkpt lat="36.6678050" lon="-5.9936120">
        <ele>74.6</ele>
        <time>2020-12-08T12:19:08Z</time>
      </trkpt>
      <trkpt lat="36.6678240" lon="-5.9936690">
        <ele>74.6</ele>
        <time>2020-12-08T12:19:09Z</time>
      </trkpt>
      <trkpt lat="36.6679670" lon="-5.9941680">
        <ele>74.8</ele>
        <time>2020-12-08T12:19:18Z</time>
      </trkpt>
      <trkpt lat="36.6680780" lon="-5.9946730">
        <ele>75.2</ele>
        <time>2020-12-08T12:19:27Z</time>
      </trkpt>
      <trkpt lat="36.6681070" lon="-5.9948450">
        <ele>75.8</ele>
        <time>2020-12-08T12:19:30Z</time>
      </trkpt>
      <trkpt lat="36.6681730" lon="-5.9953080">
        <ele>77.0</ele>
        <time>2020-12-08T12:19:38Z</time>
      </trkpt>
      <trkpt lat="36.6682630" lon="-5.9958910">
        <ele>78.2</ele>
        <time>2020-12-08T12:19:48Z</time>
      </trkpt>
      <trkpt lat="36.6682870" lon="-5.9960050">
        <ele>78.2</ele>
        <time>2020-12-08T12:19:50Z</time>
      </trkpt>
      <trkpt lat="36.6684100" lon="-5.9965080">
        <ele>78.8</ele>
        <time>2020-12-08T12:19:59Z</time>
      </trkpt>
      <trkpt lat="36.6684600" lon="-5.9966750">
        <ele>79.2</ele>
        <time>2020-12-08T12:20:02Z</time>
      </trkpt>
      <trkpt lat="36.6685350" lon="-5.9968960">
        <ele>80.2</ele>
        <time>2020-12-08T12:20:06Z</time>
      </trkpt>
      <trkpt lat="36.6685950" lon="-5.9970600">
        <ele>80.8</ele>
        <time>2020-12-08T12:20:09Z</time>
      </trkpt>
      <trkpt lat="36.6686150" lon="-5.9971130">
        <ele>81.0</ele>
        <time>2020-12-08T12:20:10Z</time>
      </trkpt>
      <trkpt lat="36.6686380" lon="-5.9971670">
        <ele>81.2</ele>
        <time>2020-12-08T12:20:11Z</time>
      </trkpt>
      <trkpt lat="36.6687380" lon="-5.9973910">
        <ele>82.0</ele>
        <time>2020-12-08T12:20:15Z</time>
      </trkpt>
      <trkpt lat="36.6687870" lon="-5.9975010">
        <ele>82.2</ele>
        <time>2020-12-08T12:20:17Z</time>
      </trkpt>
      <trkpt lat="36.6689670" lon="-5.9978630">
        <ele>83.0</ele>
        <time>2020-12-08T12:20:24Z</time>
      </trkpt>
      <trkpt lat="36.6690210" lon="-5.9979560">
        <ele>83.2</ele>
        <time>2020-12-08T12:20:26Z</time>
      </trkpt>
      <trkpt lat="36.6691230" lon="-5.9981310">
        <ele>84.4</ele>
        <time>2020-12-08T12:20:30Z</time>
      </trkpt>
      <trkpt lat="36.6691980" lon="-5.9982560">
        <ele>85.0</ele>
        <time>2020-12-08T12:20:33Z</time>
      </trkpt>
      <trkpt lat="36.6693320" lon="-5.9984500">
        <ele>85.4</ele>
        <time>2020-12-08T12:20:38Z</time>
      </trkpt>
      <trkpt lat="36.6694390" lon="-5.9985910">
        <ele>86.6</ele>
        <time>2020-12-08T12:20:42Z</time>
      </trkpt>
      <trkpt lat="36.6694650" lon="-5.9986260">
        <ele>86.6</ele>
        <time>2020-12-08T12:20:43Z</time>
      </trkpt>
      <trkpt lat="36.6695980" lon="-5.9987930">
        <ele>87.8</ele>
        <time>2020-12-08T12:20:48Z</time>
      </trkpt>
      <trkpt lat="36.6696780" lon="-5.9988900">
        <ele>88.2</ele>
        <time>2020-12-08T12:20:51Z</time>
      </trkpt>
      <trkpt lat="36.6697900" lon="-5.9990110">
        <ele>88.8</ele>
        <time>2020-12-08T12:20:55Z</time>
      </trkpt>
      <trkpt lat="36.6699220" lon="-5.9991580">
        <ele>90.2</ele>
        <time>2020-12-08T12:21:00Z</time>
      </trkpt>
      <trkpt lat="36.6699490" lon="-5.9991870">
        <ele>90.6</ele>
        <time>2020-12-08T12:21:01Z</time>
      </trkpt>
      <trkpt lat="36.6700310" lon="-5.9992760">
        <ele>91.4</ele>
        <time>2020-12-08T12:21:04Z</time>
      </trkpt>
      <trkpt lat="36.6701700" lon="-5.9994330">
        <ele>92.4</ele>
        <time>2020-12-08T12:21:09Z</time>
      </trkpt>
      <trkpt lat="36.6702230" lon="-5.9995010">
        <ele>92.8</ele>
        <time>2020-12-08T12:21:11Z</time>
      </trkpt>
      <trkpt lat="36.6703260" lon="-5.9996390">
        <ele>93.6</ele>
        <time>2020-12-08T12:21:15Z</time>
      </trkpt>
      <trkpt lat="36.6704000" lon="-5.9997510">
        <ele>94.6</ele>
        <time>2020-12-08T12:21:18Z</time>
      </trkpt>
      <trkpt lat="36.6704240" lon="-5.9997890">
        <ele>94.8</ele>
        <time>2020-12-08T12:21:19Z</time>
      </trkpt>
      <trkpt lat="36.6705510" lon="-6.0000460">
        <ele>95.6</ele>
        <time>2020-12-08T12:21:25Z</time>
      </trkpt>
      <trkpt lat="36.6706950" lon="-6.0003620">
        <ele>95.8</ele>
        <time>2020-12-08T12:21:32Z</time>
      </trkpt>
      <trkpt lat="36.6708090" lon="-6.0007120">
        <ele>96.8</ele>
        <time>2020-12-08T12:21:39Z</time>
      </trkpt>
      <trkpt lat="36.6708240" lon="-6.0007650">
        <ele>97.0</ele>
        <time>2020-12-08T12:21:40Z</time>
      </trkpt>
      <trkpt lat="36.6709980" lon="-6.0013530">
        <ele>97.4</ele>
        <time>2020-12-08T12:21:51Z</time>
      </trkpt>
      <trkpt lat="36.6710810" lon="-6.0015620">
        <ele>97.8</ele>
        <time>2020-12-08T12:21:55Z</time>
      </trkpt>
      <trkpt lat="36.6711750" lon="-6.0017520">
        <ele>98.6</ele>
        <time>2020-12-08T12:21:59Z</time>
      </trkpt>
      <trkpt lat="36.6712270" lon="-6.0018420">
        <ele>98.8</ele>
        <time>2020-12-08T12:22:01Z</time>
      </trkpt>
      <trkpt lat="36.6714200" lon="-6.0021330">
        <ele>100.0</ele>
        <time>2020-12-08T12:22:08Z</time>
      </trkpt>
      <trkpt lat="36.6714480" lon="-6.0021700">
        <ele>100.2</ele>
        <time>2020-12-08T12:22:09Z</time>
      </trkpt>
      <trkpt lat="36.6716620" lon="-6.0024320">
        <ele>101.2</ele>
        <time>2020-12-08T12:22:16Z</time>
      </trkpt>
      <trkpt lat="36.6717600" lon="-6.0025520">
        <ele>102.4</ele>
        <time>2020-12-08T12:22:19Z</time>
      </trkpt>
      <trkpt lat="36.6720520" lon="-6.0029120">
        <ele>103.4</ele>
        <time>2020-12-08T12:22:28Z</time>
      </trkpt>
      <trkpt lat="36.6720840" lon="-6.0029490">
        <ele>103.4</ele>
        <time>2020-12-08T12:22:29Z</time>
      </trkpt>
      <trkpt lat="36.6723290" lon="-6.0032660">
        <ele>104.0</ele>
        <time>2020-12-08T12:22:37Z</time>
      </trkpt>
      <trkpt lat="36.6725120" lon="-6.0034880">
        <ele>104.6</ele>
        <time>2020-12-08T12:22:43Z</time>
      </trkpt>
      <trkpt lat="36.6726050" lon="-6.0035950">
        <ele>105.0</ele>
        <time>2020-12-08T12:22:46Z</time>
      </trkpt>
      <trkpt lat="36.6726970" lon="-6.0036940">
        <ele>105.8</ele>
        <time>2020-12-08T12:22:49Z</time>
      </trkpt>
      <trkpt lat="36.6728230" lon="-6.0038200">
        <ele>106.6</ele>
        <time>2020-12-08T12:22:53Z</time>
      </trkpt>
      <trkpt lat="36.6729190" lon="-6.0039100">
        <ele>106.8</ele>
        <time>2020-12-08T12:22:56Z</time>
      </trkpt>
      <trkpt lat="36.6730520" lon="-6.0040270">
        <ele>107.6</ele>
        <time>2020-12-08T12:23:00Z</time>
      </trkpt>
      <trkpt lat="36.6731520" lon="-6.0041110">
        <ele>108.0</ele>
        <time>2020-12-08T12:23:03Z</time>
      </trkpt>
      <trkpt lat="36.6733490" lon="-6.0042680">
        <ele>109.2</ele>
        <time>2020-12-08T12:23:09Z</time>
      </trkpt>
      <trkpt lat="36.6734900" lon="-6.0043730">
        <ele>110.4</ele>
        <time>2020-12-08T12:23:13Z</time>
      </trkpt>
      <trkpt lat="36.6736970" lon="-6.0045290">
        <ele>111.6</ele>
        <time>2020-12-08T12:23:19Z</time>
      </trkpt>
      <trkpt lat="36.6737310" lon="-6.0045550">
        <ele>111.6</ele>
        <time>2020-12-08T12:23:20Z</time>
      </trkpt>
      <trkpt lat="36.6740080" lon="-6.0047660">
        <ele>112.8</ele>
        <time>2020-12-08T12:23:28Z</time>
      </trkpt>
      <trkpt lat="36.6740410" lon="-6.0047930">
        <ele>113.0</ele>
        <time>2020-12-08T12:23:29Z</time>
      </trkpt>
      <trkpt lat="36.6741420" lon="-6.0048710">
        <ele>114.0</ele>
        <time>2020-12-08T12:23:32Z</time>
      </trkpt>
      <trkpt lat="36.6744140" lon="-6.0050700">
        <ele>114.8</ele>
        <time>2020-12-08T12:23:40Z</time>
      </trkpt>
      <trkpt lat="36.6744850" lon="-6.0051190">
        <ele>115.0</ele>
        <time>2020-12-08T12:23:42Z</time>
      </trkpt>
      <trkpt lat="36.6746300" lon="-6.0052320">
        <ele>116.0</ele>
        <time>2020-12-08T12:23:46Z</time>
      </trkpt>
      <trkpt lat="36.6747400" lon="-6.0053130">
        <ele>116.4</ele>
        <time>2020-12-08T12:23:49Z</time>
      </trkpt>
      <trkpt lat="36.6749570" lon="-6.0054790">
        <ele>117.0</ele>
        <time>2020-12-08T12:23:55Z</time>
      </trkpt>
      <trkpt lat="36.6750640" lon="-6.0055600">
        <ele>118.2</ele>
        <time>2020-12-08T12:23:58Z</time>
      </trkpt>
      <trkpt lat="36.6752500" lon="-6.0056880">
        <ele>119.2</ele>
        <time>2020-12-08T12:24:03Z</time>
      </trkpt>
      <trkpt lat="36.6754370" lon="-6.0058210">
        <ele>119.8</ele>
        <time>2020-12-08T12:24:08Z</time>
      </trkpt>
      <trkpt lat="36.6755140" lon="-6.0058760">
        <ele>120.2</ele>
        <time>2020-12-08T12:24:10Z</time>
      </trkpt>
      <trkpt lat="36.6756320" lon="-6.0059670">
        <ele>121.4</ele>
        <time>2020-12-08T12:24:13Z</time>
      </trkpt>
      <trkpt lat="36.6757560" lon="-6.0060630">
        <ele>122.0</ele>
        <time>2020-12-08T12:24:16Z</time>
      </trkpt>
      <trkpt lat="36.6760100" lon="-6.0063120">
        <ele>122.4</ele>
        <time>2020-12-08T12:24:22Z</time>
      </trkpt>
      <trkpt lat="36.6760940" lon="-6.0064120">
        <ele>122.4</ele>
        <time>2020-12-08T12:24:24Z</time>
      </trkpt>
      <trkpt lat="36.6762930" lon="-6.0067060">
        <ele>122.6</ele>
        <time>2020-12-08T12:24:29Z</time>
      </trkpt>
      <trkpt lat="36.6766340" lon="-6.0072720">
        <ele>121.6</ele>
        <time>2020-12-08T12:24:38Z</time>
      </trkpt>
      <trkpt lat="36.6766700" lon="-6.0073320">
        <ele>121.2</ele>
        <time>2020-12-08T12:24:39Z</time>
      </trkpt>
      <trkpt lat="36.6769360" lon="-6.0077870">
        <ele>120.4</ele>
        <time>2020-12-08T12:24:47Z</time>
      </trkpt>
      <trkpt lat="36.6772280" lon="-6.0082670">
        <ele>120.4</ele>
        <time>2020-12-08T12:24:56Z</time>
      </trkpt>
      <trkpt lat="36.6775170" lon="-6.0087420">
        <ele>121.0</ele>
        <time>2020-12-08T12:25:05Z</time>
      </trkpt>
      <trkpt lat="36.6778620" lon="-6.0092830">
        <ele>122.0</ele>
        <time>2020-12-08T12:25:15Z</time>
      </trkpt>
      <trkpt lat="36.6779320" lon="-6.0093920">
        <ele>122.0</ele>
        <time>2020-12-08T12:25:17Z</time>
      </trkpt>
      <trkpt lat="36.6782170" lon="-6.0098290">
        <ele>122.0</ele>
        <time>2020-12-08T12:25:25Z</time>
      </trkpt>
      <trkpt lat="36.6784930" lon="-6.0102630">
        <ele>121.4</ele>
        <time>2020-12-08T12:25:33Z</time>
      </trkpt>
      <trkpt lat="36.6788050" lon="-6.0107140">
        <ele>121.8</ele>
        <time>2020-12-08T12:25:42Z</time>
      </trkpt>
      <trkpt lat="36.6789160" lon="-6.0108670">
        <ele>122.2</ele>
        <time>2020-12-08T12:25:45Z</time>
      </trkpt>
      <trkpt lat="36.6791200" lon="-6.0110980">
        <ele>122.8</ele>
        <time>2020-12-08T12:25:50Z</time>
      </trkpt>
      <trkpt lat="36.6793850" lon="-6.0113140">
        <ele>123.4</ele>
        <time>2020-12-08T12:25:56Z</time>
      </trkpt>
      <trkpt lat="36.6794740" lon="-6.0113870">
        <ele>123.6</ele>
        <time>2020-12-08T12:25:58Z</time>
      </trkpt>
      <trkpt lat="36.6797330" lon="-6.0116460">
        <ele>124.4</ele>
        <time>2020-12-08T12:26:04Z</time>
      </trkpt>
      <trkpt lat="36.6798110" lon="-6.0117480">
        <ele>125.0</ele>
        <time>2020-12-08T12:26:06Z</time>
      </trkpt>
      <trkpt lat="36.6799240" lon="-6.0119090">
        <ele>125.4</ele>
        <time>2020-12-08T12:26:09Z</time>
      </trkpt>
      <trkpt lat="36.6800780" lon="-6.0122080">
        <ele>125.6</ele>
        <time>2020-12-08T12:26:14Z</time>
      </trkpt>
      <trkpt lat="36.6802080" lon="-6.0126580">
        <ele>125.4</ele>
        <time>2020-12-08T12:26:21Z</time>
      </trkpt>
      <trkpt lat="36.6802810" lon="-6.0132420">
        <ele>125.4</ele>
        <time>2020-12-08T12:26:30Z</time>
      </trkpt>
      <trkpt lat="36.6802740" lon="-6.0136480">
        <ele>126.6</ele>
        <time>2020-12-08T12:26:36Z</time>
      </trkpt>
      <trkpt lat="36.6802650" lon="-6.0138520">
        <ele>127.2</ele>
        <time>2020-12-08T12:26:39Z</time>
      </trkpt>
      <trkpt lat="36.6802380" lon="-6.0143950">
        <ele>127.8</ele>
        <time>2020-12-08T12:26:47Z</time>
      </trkpt>
      <trkpt lat="36.6802300" lon="-6.0146020">
        <ele>128.0</ele>
        <time>2020-12-08T12:26:50Z</time>
      </trkpt>
      <trkpt lat="36.6802130" lon="-6.0150500">
        <ele>128.8</ele>
        <time>2020-12-08T12:26:56Z</time>
      </trkpt>
      <trkpt lat="36.6802050" lon="-6.0152090">
        <ele>129.0</ele>
        <time>2020-12-08T12:26:58Z</time>
      </trkpt>
      <trkpt lat="36.6801360" lon="-6.0156830">
        <ele>129.4</ele>
        <time>2020-12-08T12:27:04Z</time>
      </trkpt>
      <trkpt lat="36.6800110" lon="-6.0160730">
        <ele>129.8</ele>
        <time>2020-12-08T12:27:09Z</time>
      </trkpt>
      <trkpt lat="36.6799790" lon="-6.0161500">
        <ele>129.8</ele>
        <time>2020-12-08T12:27:10Z</time>
      </trkpt>
      <trkpt lat="36.6797300" lon="-6.0165790">
        <ele>129.8</ele>
        <time>2020-12-08T12:27:16Z</time>
      </trkpt>
      <trkpt lat="36.6794030" lon="-6.0169980">
        <ele>128.8</ele>
        <time>2020-12-08T12:27:22Z</time>
      </trkpt>
      <trkpt lat="36.6793450" lon="-6.0170710">
        <ele>128.6</ele>
        <time>2020-12-08T12:27:23Z</time>
      </trkpt>
      <trkpt lat="36.6789780" lon="-6.0175400">
        <ele>127.6</ele>
        <time>2020-12-08T12:27:29Z</time>
      </trkpt>
      <trkpt lat="36.6789140" lon="-6.0176220">
        <ele>127.4</ele>
        <time>2020-12-08T12:27:30Z</time>
      </trkpt>
      <trkpt lat="36.6787170" lon="-6.0178690">
        <ele>126.6</ele>
        <time>2020-12-08T12:27:33Z</time>
      </trkpt>
      <trkpt lat="36.6784740" lon="-6.0182210">
        <ele>125.2</ele>
        <time>2020-12-08T12:27:37Z</time>
      </trkpt>
      <trkpt lat="36.6784160" lon="-6.0183140">
        <ele>124.8</ele>
        <time>2020-12-08T12:27:38Z</time>
      </trkpt>
      <trkpt lat="36.6782480" lon="-6.0186050">
        <ele>124.0</ele>
        <time>2020-12-08T12:27:41Z</time>
      </trkpt>
      <trkpt lat="36.6781430" lon="-6.0188010">
        <ele>122.8</ele>
        <time>2020-12-08T12:27:43Z</time>
      </trkpt>
      <trkpt lat="36.6780910" lon="-6.0188990">
        <ele>122.0</ele>
        <time>2020-12-08T12:27:44Z</time>
      </trkpt>
      <trkpt lat="36.6780430" lon="-6.0190000">
        <ele>121.2</ele>
        <time>2020-12-08T12:27:45Z</time>
      </trkpt>
      <trkpt lat="36.6779110" lon="-6.0193140">
        <ele>120.2</ele>
        <time>2020-12-08T12:27:48Z</time>
      </trkpt>
      <trkpt lat="36.6778170" lon="-6.0195180">
        <ele>119.8</ele>
        <time>2020-12-08T12:27:50Z</time>
      </trkpt>
      <trkpt lat="36.6777730" lon="-6.0196230">
        <ele>119.2</ele>
        <time>2020-12-08T12:27:51Z</time>
      </trkpt>
      <trkpt lat="36.6776010" lon="-6.0200580">
        <ele>118.0</ele>
        <time>2020-12-08T12:27:55Z</time>
      </trkpt>
      <trkpt lat="36.6775140" lon="-6.0202750">
        <ele>116.8</ele>
        <time>2020-12-08T12:27:57Z</time>
      </trkpt>
      <trkpt lat="36.6774120" lon="-6.0206070">
        <ele>115.4</ele>
        <time>2020-12-08T12:28:00Z</time>
      </trkpt>
      <trkpt lat="36.6773270" lon="-6.0209370">
        <ele>114.2</ele>
        <time>2020-12-08T12:28:03Z</time>
      </trkpt>
      <trkpt lat="36.6772640" lon="-6.0212690">
        <ele>113.0</ele>
        <time>2020-12-08T12:28:06Z</time>
      </trkpt>
      <trkpt lat="36.6772190" lon="-6.0215960">
        <ele>111.8</ele>
        <time>2020-12-08T12:28:09Z</time>
      </trkpt>
      <trkpt lat="36.6772060" lon="-6.0217040">
        <ele>111.6</ele>
        <time>2020-12-08T12:28:10Z</time>
      </trkpt>
      <trkpt lat="36.6771660" lon="-6.0224120">
        <ele>110.8</ele>
        <time>2020-12-08T12:28:17Z</time>
      </trkpt>
      <trkpt lat="36.6771800" lon="-6.0228790">
        <ele>109.8</ele>
        <time>2020-12-08T12:28:22Z</time>
      </trkpt>
      <trkpt lat="36.6772040" lon="-6.0231490">
        <ele>109.4</ele>
        <time>2020-12-08T12:28:25Z</time>
      </trkpt>
      <trkpt lat="36.6773200" lon="-6.0238620">
        <ele>109.8</ele>
        <time>2020-12-08T12:28:33Z</time>
      </trkpt>
      <trkpt lat="36.6774890" lon="-6.0245240">
        <ele>110.6</ele>
        <time>2020-12-08T12:28:41Z</time>
      </trkpt>
      <trkpt lat="36.6775560" lon="-6.0247600">
        <ele>110.8</ele>
        <time>2020-12-08T12:28:44Z</time>
      </trkpt>
      <trkpt lat="36.6776820" lon="-6.0252390">
        <ele>111.0</ele>
        <time>2020-12-08T12:28:50Z</time>
      </trkpt>
      <trkpt lat="36.6778240" lon="-6.0257600">
        <ele>111.6</ele>
        <time>2020-12-08T12:28:57Z</time>
      </trkpt>
      <trkpt lat="36.6778440" lon="-6.0258300">
        <ele>111.8</ele>
        <time>2020-12-08T12:28:58Z</time>
      </trkpt>
      <trkpt lat="36.6779990" lon="-6.0262510">
        <ele>112.0</ele>
        <time>2020-12-08T12:29:04Z</time>
      </trkpt>
      <trkpt lat="36.6782230" lon="-6.0267790">
        <ele>112.8</ele>
        <time>2020-12-08T12:29:11Z</time>
      </trkpt>
      <trkpt lat="36.6782910" lon="-6.0269270">
        <ele>113.0</ele>
        <time>2020-12-08T12:29:13Z</time>
      </trkpt>
      <trkpt lat="36.6785290" lon="-6.0274340">
        <ele>113.2</ele>
        <time>2020-12-08T12:29:20Z</time>
      </trkpt>
      <trkpt lat="36.6787800" lon="-6.0280740">
        <ele>113.0</ele>
        <time>2020-12-08T12:29:29Z</time>
      </trkpt>
      <trkpt lat="36.6789400" lon="-6.0286340">
        <ele>111.8</ele>
        <time>2020-12-08T12:29:36Z</time>
      </trkpt>
      <trkpt lat="36.6790440" lon="-6.0291320">
        <ele>110.8</ele>
        <time>2020-12-08T12:29:42Z</time>
      </trkpt>
      <trkpt lat="36.6790850" lon="-6.0293790">
        <ele>110.2</ele>
        <time>2020-12-08T12:29:45Z</time>
      </trkpt>
      <trkpt lat="36.6791320" lon="-6.0297990">
        <ele>109.8</ele>
        <time>2020-12-08T12:29:50Z</time>
      </trkpt>
      <trkpt lat="36.6791390" lon="-6.0298850">
        <ele>109.6</ele>
        <time>2020-12-08T12:29:51Z</time>
      </trkpt>
      <trkpt lat="36.6791920" lon="-6.0305790">
        <ele>109.0</ele>
        <time>2020-12-08T12:29:59Z</time>
      </trkpt>
      <trkpt lat="36.6791960" lon="-6.0306610">
        <ele>109.0</ele>
        <time>2020-12-08T12:30:00Z</time>
      </trkpt>
      <trkpt lat="36.6792170" lon="-6.0309840">
        <ele>108.6</ele>
        <time>2020-12-08T12:30:04Z</time>
      </trkpt>
      <trkpt lat="36.6792250" lon="-6.0311380">
        <ele>108.2</ele>
        <time>2020-12-08T12:30:06Z</time>
      </trkpt>
      <trkpt lat="36.6792310" lon="-6.0312140">
        <ele>108.0</ele>
        <time>2020-12-08T12:30:07Z</time>
      </trkpt>
      <trkpt lat="36.6792360" lon="-6.0312880">
        <ele>107.6</ele>
        <time>2020-12-08T12:30:08Z</time>
      </trkpt>
      <trkpt lat="36.6792820" lon="-6.0317250">
        <ele>106.6</ele>
        <time>2020-12-08T12:30:14Z</time>
      </trkpt>
      <trkpt lat="36.6792920" lon="-6.0317980">
        <ele>106.6</ele>
        <time>2020-12-08T12:30:15Z</time>
      </trkpt>
      <trkpt lat="36.6793530" lon="-6.0322000">
        <ele>106.4</ele>
        <time>2020-12-08T12:30:21Z</time>
      </trkpt>
      <trkpt lat="36.6794680" lon="-6.0328600">
        <ele>105.8</ele>
        <time>2020-12-08T12:30:31Z</time>
      </trkpt>
      <trkpt lat="36.6794780" lon="-6.0329300">
        <ele>105.8</ele>
        <time>2020-12-08T12:30:32Z</time>
      </trkpt>
      <trkpt lat="36.6795260" lon="-6.0334880">
        <ele>105.6</ele>
        <time>2020-12-08T12:30:40Z</time>
      </trkpt>
      <trkpt lat="36.6794950" lon="-6.0340650">
        <ele>105.6</ele>
        <time>2020-12-08T12:30:48Z</time>
      </trkpt>
      <trkpt lat="36.6794350" lon="-6.0344410">
        <ele>107.0</ele>
        <time>2020-12-08T12:30:53Z</time>
      </trkpt>
      <trkpt lat="36.6793780" lon="-6.0346690">
        <ele>108.2</ele>
        <time>2020-12-08T12:30:56Z</time>
      </trkpt>
      <trkpt lat="36.6791940" lon="-6.0351980">
        <ele>109.2</ele>
        <time>2020-12-08T12:31:03Z</time>
      </trkpt>
      <trkpt lat="36.6791660" lon="-6.0352720">
        <ele>109.2</ele>
        <time>2020-12-08T12:31:04Z</time>
      </trkpt>
      <trkpt lat="36.6789010" lon="-6.0359120">
        <ele>109.4</ele>
        <time>2020-12-08T12:31:13Z</time>
      </trkpt>
      <trkpt lat="36.6788420" lon="-6.0360430">
        <ele>109.4</ele>
        <time>2020-12-08T12:31:15Z</time>
      </trkpt>
      <trkpt lat="36.6786170" lon="-6.0365560">
        <ele>110.0</ele>
        <time>2020-12-08T12:31:23Z</time>
      </trkpt>
      <trkpt lat="36.6785060" lon="-6.0368060">
        <ele>110.2</ele>
        <time>2020-12-08T12:31:27Z</time>
      </trkpt>
      <trkpt lat="36.6782560" lon="-6.0373600">
        <ele>111.4</ele>
        <time>2020-12-08T12:31:36Z</time>
      </trkpt>
      <trkpt lat="36.6782280" lon="-6.0374220">
        <ele>111.4</ele>
        <time>2020-12-08T12:31:37Z</time>
      </trkpt>
      <trkpt lat="36.6780500" lon="-6.0378290">
        <ele>112.4</ele>
        <time>2020-12-08T12:31:43Z</time>
      </trkpt>
      <trkpt lat="36.6780170" lon="-6.0379050">
        <ele>112.4</ele>
        <time>2020-12-08T12:31:44Z</time>
      </trkpt>
      <trkpt lat="36.6777390" lon="-6.0385590">
        <ele>112.4</ele>
        <time>2020-12-08T12:31:52Z</time>
      </trkpt>
      <trkpt lat="36.6775580" lon="-6.0389950">
        <ele>111.6</ele>
        <time>2020-12-08T12:31:57Z</time>
      </trkpt>
      <trkpt lat="36.6775190" lon="-6.0390870">
        <ele>111.4</ele>
        <time>2020-12-08T12:31:58Z</time>
      </trkpt>
      <trkpt lat="36.6772290" lon="-6.0397630">
        <ele>110.8</ele>
        <time>2020-12-08T12:32:05Z</time>
      </trkpt>
      <trkpt lat="36.6771860" lon="-6.0398570">
        <ele>110.8</ele>
        <time>2020-12-08T12:32:06Z</time>
      </trkpt>
      <trkpt lat="36.6770620" lon="-6.0401480">
        <ele>110.4</ele>
        <time>2020-12-08T12:32:09Z</time>
      </trkpt>
      <trkpt lat="36.6769410" lon="-6.0404500">
        <ele>109.2</ele>
        <time>2020-12-08T12:32:12Z</time>
      </trkpt>
      <trkpt lat="36.6769060" lon="-6.0405560">
        <ele>108.8</ele>
        <time>2020-12-08T12:32:13Z</time>
      </trkpt>
      <trkpt lat="36.6768470" lon="-6.0407770">
        <ele>108.0</ele>
        <time>2020-12-08T12:32:15Z</time>
      </trkpt>
      <trkpt lat="36.6767910" lon="-6.0411340">
        <ele>107.0</ele>
        <time>2020-12-08T12:32:18Z</time>
      </trkpt>
      <trkpt lat="36.6767820" lon="-6.0413870">
        <ele>106.6</ele>
        <time>2020-12-08T12:32:20Z</time>
      </trkpt>
      <trkpt lat="36.6767890" lon="-6.0415150">
        <ele>106.0</ele>
        <time>2020-12-08T12:32:21Z</time>
      </trkpt>
      <trkpt lat="36.6768030" lon="-6.0416440">
        <ele>105.4</ele>
        <time>2020-12-08T12:32:22Z</time>
      </trkpt>
      <trkpt lat="36.6768500" lon="-6.0418960">
        <ele>104.0</ele>
        <time>2020-12-08T12:32:24Z</time>
      </trkpt>
      <trkpt lat="36.6768850" lon="-6.0420180">
        <ele>103.0</ele>
        <time>2020-12-08T12:32:25Z</time>
      </trkpt>
      <trkpt lat="36.6769260" lon="-6.0421380">
        <ele>102.4</ele>
        <time>2020-12-08T12:32:26Z</time>
      </trkpt>
      <trkpt lat="36.6769730" lon="-6.0422530">
        <ele>101.8</ele>
        <time>2020-12-08T12:32:27Z</time>
      </trkpt>
      <trkpt lat="36.6770790" lon="-6.0424740">
        <ele>100.4</ele>
        <time>2020-12-08T12:32:29Z</time>
      </trkpt>
      <trkpt lat="36.6771410" lon="-6.0425750">
        <ele>99.6</ele>
        <time>2020-12-08T12:32:30Z</time>
      </trkpt>
      <trkpt lat="36.6772060" lon="-6.0426730">
        <ele>99.0</ele>
        <time>2020-12-08T12:32:31Z</time>
      </trkpt>
      <trkpt lat="36.6772750" lon="-6.0427690">
        <ele>97.4</ele>
        <time>2020-12-08T12:32:32Z</time>
      </trkpt>
      <trkpt lat="36.6774870" lon="-6.0430520">
        <ele>95.8</ele>
        <time>2020-12-08T12:32:35Z</time>
      </trkpt>
      <trkpt lat="36.6775560" lon="-6.0431490">
        <ele>95.0</ele>
        <time>2020-12-08T12:32:36Z</time>
      </trkpt>
      <trkpt lat="36.6776230" lon="-6.0432490">
        <ele>94.2</ele>
        <time>2020-12-08T12:32:37Z</time>
      </trkpt>
      <trkpt lat="36.6776850" lon="-6.0433540">
        <ele>93.0</ele>
        <time>2020-12-08T12:32:38Z</time>
      </trkpt>
      <trkpt lat="36.6777980" lon="-6.0435730">
        <ele>91.4</ele>
        <time>2020-12-08T12:32:40Z</time>
      </trkpt>
      <trkpt lat="36.6778460" lon="-6.0436860">
        <ele>90.2</ele>
        <time>2020-12-08T12:32:41Z</time>
      </trkpt>
      <trkpt lat="36.6778890" lon="-6.0438010">
        <ele>88.8</ele>
        <time>2020-12-08T12:32:42Z</time>
      </trkpt>
      <trkpt lat="36.6779600" lon="-6.0440330">
        <ele>87.6</ele>
        <time>2020-12-08T12:32:44Z</time>
      </trkpt>
      <trkpt lat="36.6780120" lon="-6.0442700">
        <ele>87.0</ele>
        <time>2020-12-08T12:32:46Z</time>
      </trkpt>
      <trkpt lat="36.6780320" lon="-6.0443920">
        <ele>86.4</ele>
        <time>2020-12-08T12:32:47Z</time>
      </trkpt>
      <trkpt lat="36.6780640" lon="-6.0446410">
        <ele>85.2</ele>
        <time>2020-12-08T12:32:49Z</time>
      </trkpt>
      <trkpt lat="36.6781090" lon="-6.0450170">
        <ele>84.0</ele>
        <time>2020-12-08T12:32:52Z</time>
      </trkpt>
      <trkpt lat="36.6781690" lon="-6.0454970">
        <ele>83.0</ele>
        <time>2020-12-08T12:32:56Z</time>
      </trkpt>
      <trkpt lat="36.6782140" lon="-6.0458540">
        <ele>81.8</ele>
        <time>2020-12-08T12:32:59Z</time>
      </trkpt>
      <trkpt lat="36.6783260" lon="-6.0465390">
        <ele>80.8</ele>
        <time>2020-12-08T12:33:05Z</time>
      </trkpt>
      <trkpt lat="36.6783550" lon="-6.0466470">
        <ele>80.6</ele>
        <time>2020-12-08T12:33:06Z</time>
      </trkpt>
      <trkpt lat="36.6784230" lon="-6.0468600">
        <ele>79.8</ele>
        <time>2020-12-08T12:33:08Z</time>
      </trkpt>
      <trkpt lat="36.6785020" lon="-6.0470690">
        <ele>78.4</ele>
        <time>2020-12-08T12:33:10Z</time>
      </trkpt>
      <trkpt lat="36.6785940" lon="-6.0472680">
        <ele>77.6</ele>
        <time>2020-12-08T12:33:12Z</time>
      </trkpt>
      <trkpt lat="36.6786470" lon="-6.0473600">
        <ele>77.2</ele>
        <time>2020-12-08T12:33:13Z</time>
      </trkpt>
      <trkpt lat="36.6787580" lon="-6.0475340">
        <ele>76.2</ele>
        <time>2020-12-08T12:33:15Z</time>
      </trkpt>
      <trkpt lat="36.6788780" lon="-6.0476890">
        <ele>75.6</ele>
        <time>2020-12-08T12:33:17Z</time>
      </trkpt>
      <trkpt lat="36.6790020" lon="-6.0478330">
        <ele>75.0</ele>
        <time>2020-12-08T12:33:19Z</time>
      </trkpt>
      <trkpt lat="36.6792700" lon="-6.0480890">
        <ele>74.4</ele>
        <time>2020-12-08T12:33:23Z</time>
      </trkpt>
      <trkpt lat="36.6795040" lon="-6.0482460">
        <ele>73.8</ele>
        <time>2020-12-08T12:33:26Z</time>
      </trkpt>
      <trkpt lat="36.6796730" lon="-6.0483270">
        <ele>73.4</ele>
        <time>2020-12-08T12:33:28Z</time>
      </trkpt>
      <trkpt lat="36.6798470" lon="-6.0484000">
        <ele>72.4</ele>
        <time>2020-12-08T12:33:30Z</time>
      </trkpt>
      <trkpt lat="36.6803000" lon="-6.0485350">
        <ele>71.8</ele>
        <time>2020-12-08T12:33:35Z</time>
      </trkpt>
      <trkpt lat="36.6805590" lon="-6.0486280">
        <ele>71.2</ele>
        <time>2020-12-08T12:33:38Z</time>
      </trkpt>
      <trkpt lat="36.6808840" lon="-6.0487950">
        <ele>70.2</ele>
        <time>2020-12-08T12:33:42Z</time>
      </trkpt>
      <trkpt lat="36.6812460" lon="-6.0490790">
        <ele>69.6</ele>
        <time>2020-12-08T12:33:47Z</time>
      </trkpt>
      <trkpt lat="36.6814310" lon="-6.0492790">
        <ele>69.2</ele>
        <time>2020-12-08T12:33:50Z</time>
      </trkpt>
      <trkpt lat="36.6815880" lon="-6.0494900">
        <ele>67.8</ele>
        <time>2020-12-08T12:33:53Z</time>
      </trkpt>
      <trkpt lat="36.6817270" lon="-6.0497130">
        <ele>66.4</ele>
        <time>2020-12-08T12:33:56Z</time>
      </trkpt>
      <trkpt lat="36.6818080" lon="-6.0498710">
        <ele>64.8</ele>
        <time>2020-12-08T12:33:58Z</time>
      </trkpt>
      <trkpt lat="36.6818460" lon="-6.0499530">
        <ele>64.6</ele>
        <time>2020-12-08T12:33:59Z</time>
      </trkpt>
      <trkpt lat="36.6820260" lon="-6.0503660">
        <ele>63.6</ele>
        <time>2020-12-08T12:34:04Z</time>
      </trkpt>
      <trkpt lat="36.6821620" lon="-6.0507090">
        <ele>63.6</ele>
        <time>2020-12-08T12:34:08Z</time>
      </trkpt>
      <trkpt lat="36.6824230" lon="-6.0513550">
        <ele>63.0</ele>
        <time>2020-12-08T12:34:15Z</time>
      </trkpt>
      <trkpt lat="36.6824620" lon="-6.0514510">
        <ele>62.6</ele>
        <time>2020-12-08T12:34:16Z</time>
      </trkpt>
      <trkpt lat="36.6825010" lon="-6.0515470">
        <ele>62.6</ele>
        <time>2020-12-08T12:34:17Z</time>
      </trkpt>
      <trkpt lat="36.6827640" lon="-6.0522000">
        <ele>61.4</ele>
        <time>2020-12-08T12:34:24Z</time>
      </trkpt>
      <trkpt lat="36.6828390" lon="-6.0523830">
        <ele>59.2</ele>
        <time>2020-12-08T12:34:26Z</time>
      </trkpt>
      <trkpt lat="36.6829110" lon="-6.0525670">
        <ele>57.6</ele>
        <time>2020-12-08T12:34:28Z</time>
      </trkpt>
      <trkpt lat="36.6829880" lon="-6.0527540">
        <ele>56.4</ele>
        <time>2020-12-08T12:34:30Z</time>
      </trkpt>
      <trkpt lat="36.6831450" lon="-6.0531370">
        <ele>55.2</ele>
        <time>2020-12-08T12:34:34Z</time>
      </trkpt>
      <trkpt lat="36.6832210" lon="-6.0533340">
        <ele>54.6</ele>
        <time>2020-12-08T12:34:36Z</time>
      </trkpt>
      <trkpt lat="36.6833770" lon="-6.0537150">
        <ele>53.8</ele>
        <time>2020-12-08T12:34:40Z</time>
      </trkpt>
      <trkpt lat="36.6834890" lon="-6.0539900">
        <ele>52.4</ele>
        <time>2020-12-08T12:34:43Z</time>
      </trkpt>
      <trkpt lat="36.6836270" lon="-6.0543320">
        <ele>51.2</ele>
        <time>2020-12-08T12:34:47Z</time>
      </trkpt>
      <trkpt lat="36.6837230" lon="-6.0545660">
        <ele>51.0</ele>
        <time>2020-12-08T12:34:50Z</time>
      </trkpt>
      <trkpt lat="36.6839900" lon="-6.0552280">
        <ele>51.0</ele>
        <time>2020-12-08T12:34:59Z</time>
      </trkpt>
      <trkpt lat="36.6840170" lon="-6.0553030">
        <ele>51.0</ele>
        <time>2020-12-08T12:35:00Z</time>
      </trkpt>
      <trkpt lat="36.6841110" lon="-6.0556210">
        <ele>51.4</ele>
        <time>2020-12-08T12:35:04Z</time>
      </trkpt>
      <trkpt lat="36.6842080" lon="-6.0561920">
        <ele>52.0</ele>
        <time>2020-12-08T12:35:11Z</time>
      </trkpt>
      <trkpt lat="36.6842280" lon="-6.0564530">
        <ele>52.4</ele>
        <time>2020-12-08T12:35:14Z</time>
      </trkpt>
      <trkpt lat="36.6842470" lon="-6.0569770">
        <ele>52.4</ele>
        <time>2020-12-08T12:35:20Z</time>
      </trkpt>
      <trkpt lat="36.6843140" lon="-6.0576370">
        <ele>52.2</ele>
        <time>2020-12-08T12:35:27Z</time>
      </trkpt>
      <trkpt lat="36.6844170" lon="-6.0581300">
        <ele>51.2</ele>
        <time>2020-12-08T12:35:32Z</time>
      </trkpt>
      <trkpt lat="36.6844460" lon="-6.0582350">
        <ele>51.0</ele>
        <time>2020-12-08T12:35:33Z</time>
      </trkpt>
      <trkpt lat="36.6845140" lon="-6.0584430">
        <ele>49.8</ele>
        <time>2020-12-08T12:35:35Z</time>
      </trkpt>
      <trkpt lat="36.6846770" lon="-6.0588420">
        <ele>48.8</ele>
        <time>2020-12-08T12:35:39Z</time>
      </trkpt>
      <trkpt lat="36.6847200" lon="-6.0589400">
        <ele>48.6</ele>
        <time>2020-12-08T12:35:40Z</time>
      </trkpt>
      <trkpt lat="36.6848170" lon="-6.0591300">
        <ele>47.6</ele>
        <time>2020-12-08T12:35:42Z</time>
      </trkpt>
      <trkpt lat="36.6848670" lon="-6.0592250">
        <ele>46.6</ele>
        <time>2020-12-08T12:35:43Z</time>
      </trkpt>
      <trkpt lat="36.6849690" lon="-6.0594150">
        <ele>45.6</ele>
        <time>2020-12-08T12:35:45Z</time>
      </trkpt>
      <trkpt lat="36.6851630" lon="-6.0598070">
        <ele>44.2</ele>
        <time>2020-12-08T12:35:49Z</time>
      </trkpt>
      <trkpt lat="36.6852950" lon="-6.0600950">
        <ele>43.2</ele>
        <time>2020-12-08T12:35:52Z</time>
      </trkpt>
      <trkpt lat="36.6853740" lon="-6.0602860">
        <ele>41.8</ele>
        <time>2020-12-08T12:35:54Z</time>
      </trkpt>
      <trkpt lat="36.6854460" lon="-6.0604750">
        <ele>40.4</ele>
        <time>2020-12-08T12:35:56Z</time>
      </trkpt>
      <trkpt lat="36.6855970" lon="-6.0609190">
        <ele>39.4</ele>
        <time>2020-12-08T12:36:01Z</time>
      </trkpt>
      <trkpt lat="36.6856210" lon="-6.0610050">
        <ele>39.2</ele>
        <time>2020-12-08T12:36:02Z</time>
      </trkpt>
      <trkpt lat="36.6857470" lon="-6.0615090">
        <ele>38.6</ele>
        <time>2020-12-08T12:36:08Z</time>
      </trkpt>
      <trkpt lat="36.6858590" lon="-6.0621500">
        <ele>38.2</ele>
        <time>2020-12-08T12:36:16Z</time>
      </trkpt>
      <trkpt lat="36.6858690" lon="-6.0622270">
        <ele>38.2</ele>
        <time>2020-12-08T12:36:17Z</time>
      </trkpt>
      <trkpt lat="36.6858990" lon="-6.0624550">
        <ele>37.8</ele>
        <time>2020-12-08T12:36:20Z</time>
      </trkpt>
      <trkpt lat="36.6859150" lon="-6.0626110">
        <ele>37.8</ele>
        <time>2020-12-08T12:36:22Z</time>
      </trkpt>
      <trkpt lat="36.6859670" lon="-6.0630800">
        <ele>37.8</ele>
        <time>2020-12-08T12:36:28Z</time>
      </trkpt>
      <trkpt lat="36.6860230" lon="-6.0636930">
        <ele>38.0</ele>
        <time>2020-12-08T12:36:35Z</time>
      </trkpt>
      <trkpt lat="36.6860890" lon="-6.0643230">
        <ele>37.2</ele>
        <time>2020-12-08T12:36:42Z</time>
      </trkpt>
      <trkpt lat="36.6860990" lon="-6.0644140">
        <ele>37.0</ele>
        <time>2020-12-08T12:36:43Z</time>
      </trkpt>
      <trkpt lat="36.6861260" lon="-6.0646780">
        <ele>36.2</ele>
        <time>2020-12-08T12:36:46Z</time>
      </trkpt>
      <trkpt lat="36.6861620" lon="-6.0651040">
        <ele>35.2</ele>
        <time>2020-12-08T12:36:51Z</time>
      </trkpt>
      <trkpt lat="36.6861770" lon="-6.0653560">
        <ele>35.0</ele>
        <time>2020-12-08T12:36:54Z</time>
      </trkpt>
      <trkpt lat="36.6861930" lon="-6.0657800">
        <ele>33.6</ele>
        <time>2020-12-08T12:36:59Z</time>
      </trkpt>
      <trkpt lat="36.6861970" lon="-6.0659560">
        <ele>33.6</ele>
        <time>2020-12-08T12:37:01Z</time>
      </trkpt>
      <trkpt lat="36.6862060" lon="-6.0664050">
        <ele>32.8</ele>
        <time>2020-12-08T12:37:06Z</time>
      </trkpt>
      <trkpt lat="36.6862090" lon="-6.0666840">
        <ele>32.2</ele>
        <time>2020-12-08T12:37:09Z</time>
      </trkpt>
      <trkpt lat="36.6862140" lon="-6.0668830">
        <ele>31.4</ele>
        <time>2020-12-08T12:37:11Z</time>
      </trkpt>
      <trkpt lat="36.6862170" lon="-6.0672110">
        <ele>29.6</ele>
        <time>2020-12-08T12:37:14Z</time>
      </trkpt>
      <trkpt lat="36.6862170" lon="-6.0673270">
        <ele>28.8</ele>
        <time>2020-12-08T12:37:15Z</time>
      </trkpt>
      <trkpt lat="36.6862240" lon="-6.0677980">
        <ele>28.2</ele>
        <time>2020-12-08T12:37:19Z</time>
      </trkpt>
      <trkpt lat="36.6862300" lon="-6.0683940">
        <ele>27.6</ele>
        <time>2020-12-08T12:37:24Z</time>
      </trkpt>
      <trkpt lat="36.6862310" lon="-6.0685150">
        <ele>26.8</ele>
        <time>2020-12-08T12:37:25Z</time>
      </trkpt>
      <trkpt lat="36.6862330" lon="-6.0686340">
        <ele>25.6</ele>
        <time>2020-12-08T12:37:26Z</time>
      </trkpt>
      <trkpt lat="36.6862380" lon="-6.0689900">
        <ele>24.6</ele>
        <time>2020-12-08T12:37:29Z</time>
      </trkpt>
      <trkpt lat="36.6862380" lon="-6.0689900">
        <ele>24.6</ele>
        <time>2020-12-08T12:37:30Z</time>
      </trkpt>
      <trkpt lat="36.6862780" lon="-6.0696050">
        <ele>13.8</ele>
        <time>2020-12-06T11:06:25Z</time>
      </trkpt>
      <trkpt lat="36.6862860" lon="-6.0702060">
        <ele>13.2</ele>
        <time>2020-12-06T11:06:30Z</time>
      </trkpt>
      <trkpt lat="36.6862890" lon="-6.0704460">
        <ele>13.0</ele>
        <time>2020-12-06T11:06:32Z</time>
      </trkpt>
      <trkpt lat="36.6862960" lon="-6.0711810">
        <ele>12.4</ele>
        <time>2020-12-06T11:06:38Z</time>
      </trkpt>
      <trkpt lat="36.6862980" lon="-6.0713040">
        <ele>12.2</ele>
        <time>2020-12-06T11:06:39Z</time>
      </trkpt>
      <trkpt lat="36.6863070" lon="-6.0715500">
        <ele>11.6</ele>
        <time>2020-12-06T11:06:41Z</time>
      </trkpt>
      <trkpt lat="36.6863170" lon="-6.0719170">
        <ele>10.8</ele>
        <time>2020-12-06T11:06:44Z</time>
      </trkpt>
      <trkpt lat="36.6863380" lon="-6.0726280">
        <ele>10.0</ele>
        <time>2020-12-06T11:06:50Z</time>
      </trkpt>
      <trkpt lat="36.6863240" lon="-6.0729780">
        <ele>9.8</ele>
        <time>2020-12-06T11:06:53Z</time>
      </trkpt>
      <trkpt lat="36.6862940" lon="-6.0734310">
        <ele>9.8</ele>
        <time>2020-12-06T11:06:57Z</time>
      </trkpt>
      <trkpt lat="36.6863250" lon="-6.0739720">
        <ele>9.2</ele>
        <time>2020-12-06T11:07:02Z</time>
      </trkpt>
      <trkpt lat="36.6864140" lon="-6.0742630">
        <ele>8.8</ele>
        <time>2020-12-06T11:07:05Z</time>
      </trkpt>
      <trkpt lat="36.6864530" lon="-6.0743510">
        <ele>8.6</ele>
        <time>2020-12-06T11:07:06Z</time>
      </trkpt>
      <trkpt lat="36.6864960" lon="-6.0744360">
        <ele>8.6</ele>
        <time>2020-12-06T11:07:07Z</time>
      </trkpt>
      <trkpt lat="36.6867120" lon="-6.0749700">
        <ele>7.8</ele>
        <time>2020-12-06T11:07:13Z</time>
      </trkpt>
      <trkpt lat="36.6867730" lon="-6.0751530">
        <ele>7.8</ele>
        <time>2020-12-06T11:07:15Z</time>
      </trkpt>
      <trkpt lat="36.6869010" lon="-6.0755870">
        <ele>7.0</ele>
        <time>2020-12-06T11:07:20Z</time>
      </trkpt>
      <trkpt lat="36.6870460" lon="-6.0763050">
        <ele>7.6</ele>
        <time>2020-12-06T11:07:28Z</time>
      </trkpt>
      <trkpt lat="36.6870390" lon="-6.0766860">
        <ele>7.4</ele>
        <time>2020-12-06T11:07:32Z</time>
      </trkpt>
      <trkpt lat="36.6870240" lon="-6.0767800">
        <ele>7.4</ele>
        <time>2020-12-06T11:07:33Z</time>
      </trkpt>
      <trkpt lat="36.6869020" lon="-6.0772370">
        <ele>7.8</ele>
        <time>2020-12-06T11:07:38Z</time>
      </trkpt>
      <trkpt lat="36.6867490" lon="-6.0778790">
        <ele>7.6</ele>
        <time>2020-12-06T11:07:45Z</time>
      </trkpt>
      <trkpt lat="36.6866010" lon="-6.0785510">
        <ele>7.0</ele>
        <time>2020-12-06T11:07:53Z</time>
      </trkpt>
      <trkpt lat="36.6865850" lon="-6.0786330">
        <ele>6.4</ele>
        <time>2020-12-06T11:07:54Z</time>
      </trkpt>
      <trkpt lat="36.6864460" lon="-6.0792090">
        <ele>5.4</ele>
        <time>2020-12-06T11:08:01Z</time>
      </trkpt>
      <trkpt lat="36.6863650" lon="-6.0797280">
        <ele>5.6</ele>
        <time>2020-12-06T11:08:07Z</time>
      </trkpt>
      <trkpt lat="36.6862350" lon="-6.0803510">
        <ele>6.2</ele>
        <time>2020-12-06T11:08:14Z</time>
      </trkpt>
      <trkpt lat="36.6861510" lon="-6.0810860">
        <ele>6.6</ele>
        <time>2020-12-06T11:08:22Z</time>
      </trkpt>
      <trkpt lat="36.6861130" lon="-6.0814470">
        <ele>7.0</ele>
        <time>2020-12-06T11:08:27Z</time>
      </trkpt>
      <trkpt lat="36.6860900" lon="-6.0816430">
        <ele>7.8</ele>
        <time>2020-12-06T11:08:30Z</time>
      </trkpt>
      <trkpt lat="36.6860730" lon="-6.0817730">
        <ele>9.0</ele>
        <time>2020-12-06T11:08:32Z</time>
      </trkpt>
      <trkpt lat="36.6860670" lon="-6.0818400">
        <ele>9.6</ele>
        <time>2020-12-06T11:08:33Z</time>
      </trkpt>
      <trkpt lat="36.6860490" lon="-6.0819790">
        <ele>10.2</ele>
        <time>2020-12-06T11:08:35Z</time>
      </trkpt>
      <trkpt lat="36.6860310" lon="-6.0821330">
        <ele>11.4</ele>
        <time>2020-12-06T11:08:37Z</time>
      </trkpt>
      <trkpt lat="36.6860160" lon="-6.0822950">
        <ele>12.0</ele>
        <time>2020-12-06T11:08:39Z</time>
      </trkpt>
      <trkpt lat="36.6859510" lon="-6.0828590">
        <ele>12.2</ele>
        <time>2020-12-06T11:08:45Z</time>
      </trkpt>
      <trkpt lat="36.6859450" lon="-6.0830720">
        <ele>12.2</ele>
        <time>2020-12-06T11:08:47Z</time>
      </trkpt>
      <trkpt lat="36.6859650" lon="-6.0831750">
        <ele>12.2</ele>
        <time>2020-12-06T11:08:48Z</time>
      </trkpt>
      <trkpt lat="36.6860820" lon="-6.0834090">
        <ele>11.2</ele>
        <time>2020-12-06T11:08:51Z</time>
      </trkpt>
      <trkpt lat="36.6860830" lon="-6.0835660">
        <ele>9.8</ele>
        <time>2020-12-06T11:08:53Z</time>
      </trkpt>
      <trkpt lat="36.6860480" lon="-6.0836370">
        <ele>9.6</ele>
        <time>2020-12-06T11:08:54Z</time>
      </trkpt>
      <trkpt lat="36.6858860" lon="-6.0839410">
        <ele>8.8</ele>
        <time>2020-12-06T11:08:58Z</time>
      </trkpt>
      <trkpt lat="36.6858650" lon="-6.0841330">
        <ele>8.4</ele>
        <time>2020-12-06T11:09:00Z</time>
      </trkpt>
      <trkpt lat="36.6858270" lon="-6.0844120">
        <ele>8.2</ele>
        <time>2020-12-06T11:09:03Z</time>
      </trkpt>
      <trkpt lat="36.6857050" lon="-6.0850980">
        <ele>7.8</ele>
        <time>2020-12-06T11:09:11Z</time>
      </trkpt>
      <trkpt lat="36.6856040" lon="-6.0856610">
        <ele>8.8</ele>
        <time>2020-12-06T11:09:19Z</time>
      </trkpt>
      <trkpt lat="36.6855500" lon="-6.0859610">
        <ele>10.0</ele>
        <time>2020-12-06T11:09:24Z</time>
      </trkpt>
      <trkpt lat="36.6855410" lon="-6.0860210">
        <ele>10.2</ele>
        <time>2020-12-06T11:09:25Z</time>
      </trkpt>
      <trkpt lat="36.6855190" lon="-6.0861440">
        <ele>11.0</ele>
        <time>2020-12-06T11:09:27Z</time>
      </trkpt>
      <trkpt lat="36.6854700" lon="-6.0864070">
        <ele>12.2</ele>
        <time>2020-12-06T11:09:31Z</time>
      </trkpt>
      <trkpt lat="36.6854360" lon="-6.0866030">
        <ele>13.2</ele>
        <time>2020-12-06T11:09:34Z</time>
      </trkpt>
      <trkpt lat="36.6853920" lon="-6.0868770">
        <ele>14.4</ele>
        <time>2020-12-06T11:09:38Z</time>
      </trkpt>
      <trkpt lat="36.6853470" lon="-6.0871580">
        <ele>15.2</ele>
        <time>2020-12-06T11:09:42Z</time>
      </trkpt>
      <trkpt lat="36.6853360" lon="-6.0872280">
        <ele>15.4</ele>
        <time>2020-12-06T11:09:43Z</time>
      </trkpt>
      <trkpt lat="36.6852700" lon="-6.0878150">
        <ele>16.0</ele>
        <time>2020-12-06T11:09:51Z</time>
      </trkpt>
      <trkpt lat="36.6852470" lon="-6.0881930">
        <ele>16.4</ele>
        <time>2020-12-06T11:09:56Z</time>
      </trkpt>
      <trkpt lat="36.6852360" lon="-6.0884130">
        <ele>16.6</ele>
        <time>2020-12-06T11:09:59Z</time>
      </trkpt>
      <trkpt lat="36.6852270" lon="-6.0885590">
        <ele>16.8</ele>
        <time>2020-12-06T11:10:01Z</time>
      </trkpt>
      <trkpt lat="36.6851940" lon="-6.0892300">
        <ele>17.4</ele>
        <time>2020-12-06T11:10:10Z</time>
      </trkpt>
      <trkpt lat="36.6851900" lon="-6.0893070">
        <ele>17.4</ele>
        <time>2020-12-06T11:10:11Z</time>
      </trkpt>
      <trkpt lat="36.6851840" lon="-6.0893860">
        <ele>17.6</ele>
        <time>2020-12-06T11:10:12Z</time>
      </trkpt>
      <trkpt lat="36.6851600" lon="-6.0898720">
        <ele>18.6</ele>
        <time>2020-12-06T11:10:18Z</time>
      </trkpt>
      <trkpt lat="36.6851520" lon="-6.0900320">
        <ele>18.8</ele>
        <time>2020-12-06T11:10:20Z</time>
      </trkpt>
      <trkpt lat="36.6851230" lon="-6.0907510">
        <ele>19.6</ele>
        <time>2020-12-06T11:10:29Z</time>
      </trkpt>
      <trkpt lat="36.6851230" lon="-6.0908330">
        <ele>19.8</ele>
        <time>2020-12-06T11:10:30Z</time>
      </trkpt>
      <trkpt lat="36.6851230" lon="-6.0909970">
        <ele>20.2</ele>
        <time>2020-12-06T11:10:32Z</time>
      </trkpt>
      <trkpt lat="36.6851260" lon="-6.0912450">
        <ele>20.8</ele>
        <time>2020-12-06T11:10:35Z</time>
      </trkpt>
      <trkpt lat="36.6851540" lon="-6.0917230">
        <ele>21.2</ele>
        <time>2020-12-06T11:10:41Z</time>
      </trkpt>
      <trkpt lat="36.6852070" lon="-6.0924100">
        <ele>22.0</ele>
        <time>2020-12-06T11:10:50Z</time>
      </trkpt>
      <trkpt lat="36.6852490" lon="-6.0930230">
        <ele>22.8</ele>
        <time>2020-12-06T11:10:58Z</time>
      </trkpt>
      <trkpt lat="36.6852680" lon="-6.0932590">
        <ele>23.2</ele>
        <time>2020-12-06T11:11:01Z</time>
      </trkpt>
      <trkpt lat="36.6853270" lon="-6.0936640">
        <ele>23.8</ele>
        <time>2020-12-06T11:11:06Z</time>
      </trkpt>
      <trkpt lat="36.6853510" lon="-6.0938300">
        <ele>24.0</ele>
        <time>2020-12-06T11:11:08Z</time>
      </trkpt>
      <trkpt lat="36.6854480" lon="-6.0944990">
        <ele>24.4</ele>
        <time>2020-12-06T11:11:16Z</time>
      </trkpt>
      <trkpt lat="36.6854690" lon="-6.0946680">
        <ele>24.4</ele>
        <time>2020-12-06T11:11:18Z</time>
      </trkpt>
      <trkpt lat="36.6855660" lon="-6.0953450">
        <ele>24.8</ele>
        <time>2020-12-06T11:11:26Z</time>
      </trkpt>
      <trkpt lat="36.6856030" lon="-6.0956000">
        <ele>24.8</ele>
        <time>2020-12-06T11:11:29Z</time>
      </trkpt>
      <trkpt lat="36.6856630" lon="-6.0960100">
        <ele>24.8</ele>
        <time>2020-12-06T11:11:34Z</time>
      </trkpt>
      <trkpt lat="36.6857060" lon="-6.0961520">
        <ele>24.8</ele>
        <time>2020-12-06T11:11:36Z</time>
      </trkpt>
      <trkpt lat="36.6858380" lon="-6.0962990">
        <ele>24.8</ele>
        <time>2020-12-06T11:11:39Z</time>
      </trkpt>
      <trkpt lat="36.6860210" lon="-6.0964490">
        <ele>25.0</ele>
        <time>2020-12-06T11:11:43Z</time>
      </trkpt>
      <trkpt lat="36.6860520" lon="-6.0965810">
        <ele>25.0</ele>
        <time>2020-12-06T11:11:45Z</time>
      </trkpt>
      <trkpt lat="36.6860430" lon="-6.0966540">
        <ele>25.2</ele>
        <time>2020-12-06T11:11:46Z</time>
      </trkpt>
      <trkpt lat="36.6859890" lon="-6.0967880">
        <ele>25.4</ele>
        <time>2020-12-06T11:11:48Z</time>
      </trkpt>
      <trkpt lat="36.6859420" lon="-6.0969300">
        <ele>25.8</ele>
        <time>2020-12-06T11:11:50Z</time>
      </trkpt>
      <trkpt lat="36.6859270" lon="-6.0971610">
        <ele>26.2</ele>
        <time>2020-12-06T11:11:53Z</time>
      </trkpt>
      <trkpt lat="36.6859360" lon="-6.0973190">
        <ele>26.4</ele>
        <time>2020-12-06T11:11:55Z</time>
      </trkpt>
      <trkpt lat="36.6859600" lon="-6.0974770">
        <ele>26.6</ele>
        <time>2020-12-06T11:11:57Z</time>
      </trkpt>
      <trkpt lat="36.6860280" lon="-6.0977800">
        <ele>26.6</ele>
        <time>2020-12-06T11:12:01Z</time>
      </trkpt>
      <trkpt lat="36.6860430" lon="-6.0978550">
        <ele>26.6</ele>
        <time>2020-12-06T11:12:02Z</time>
      </trkpt>
      <trkpt lat="36.6861960" lon="-6.0985500">
        <ele>26.8</ele>
        <time>2020-12-06T11:12:12Z</time>
      </trkpt>
      <trkpt lat="36.6863030" lon="-6.0987050">
        <ele>27.0</ele>
        <time>2020-12-06T11:12:16Z</time>
      </trkpt>
      <trkpt lat="36.6863610" lon="-6.0988080">
        <ele>27.2</ele>
        <time>2020-12-06T11:12:18Z</time>
      </trkpt>
      <trkpt lat="36.6863780" lon="-6.0989340">
        <ele>27.6</ele>
        <time>2020-12-06T11:12:20Z</time>
      </trkpt>
      <trkpt lat="36.6862920" lon="-6.0990870">
        <ele>27.8</ele>
        <time>2020-12-06T11:12:23Z</time>
      </trkpt>
      <trkpt lat="36.6861260" lon="-6.0991040">
        <ele>27.8</ele>
        <time>2020-12-06T11:12:26Z</time>
      </trkpt>
      <trkpt lat="36.6860150" lon="-6.0990490">
        <ele>27.8</ele>
        <time>2020-12-06T11:12:28Z</time>
      </trkpt>
      <trkpt lat="36.6859560" lon="-6.0990220">
        <ele>28.0</ele>
        <time>2020-12-06T11:12:29Z</time>
      </trkpt>
      <trkpt lat="36.6858950" lon="-6.0990120">
        <ele>28.0</ele>
        <time>2020-12-06T11:12:30Z</time>
      </trkpt>
      <trkpt lat="36.6857000" lon="-6.0990310">
        <ele>28.2</ele>
        <time>2020-12-06T11:12:33Z</time>
      </trkpt>
      <trkpt lat="36.6855700" lon="-6.0990470">
        <ele>28.4</ele>
        <time>2020-12-06T11:12:35Z</time>
      </trkpt>
      <trkpt lat="36.6855040" lon="-6.0990510">
        <ele>28.6</ele>
        <time>2020-12-06T11:12:36Z</time>
      </trkpt>
      <trkpt lat="36.6849540" lon="-6.0991070">
        <ele>28.6</ele>
        <time>2020-12-06T11:12:44Z</time>
      </trkpt>
      <trkpt lat="36.6844610" lon="-6.0991540">
        <ele>28.4</ele>
        <time>2020-12-06T11:12:51Z</time>
      </trkpt>
      <trkpt lat="36.6839080" lon="-6.0992120">
        <ele>28.2</ele>
        <time>2020-12-06T11:12:59Z</time>
      </trkpt>
      <trkpt lat="36.6838360" lon="-6.0992160">
        <ele>28.2</ele>
        <time>2020-12-06T11:13:00Z</time>
      </trkpt>
      <trkpt lat="36.6833710" lon="-6.0992550">
        <ele>27.4</ele>
        <time>2020-12-06T11:13:06Z</time>
      </trkpt>
      <trkpt lat="36.6828280" lon="-6.0993200">
        <ele>26.6</ele>
        <time>2020-12-06T11:13:12Z</time>
      </trkpt>
      <trkpt lat="36.6827350" lon="-6.0993320">
        <ele>26.4</ele>
        <time>2020-12-06T11:13:13Z</time>
      </trkpt>
      <trkpt lat="36.6825430" lon="-6.0993530">
        <ele>25.4</ele>
        <time>2020-12-06T11:13:15Z</time>
      </trkpt>
      <trkpt lat="36.6823410" lon="-6.0993740">
        <ele>24.4</ele>
        <time>2020-12-06T11:13:17Z</time>
      </trkpt>
      <trkpt lat="36.6821310" lon="-6.0994000">
        <ele>22.4</ele>
        <time>2020-12-06T11:13:19Z</time>
      </trkpt>
      <trkpt lat="36.6820260" lon="-6.0994160">
        <ele>21.6</ele>
        <time>2020-12-06T11:13:20Z</time>
      </trkpt>
      <trkpt lat="36.6819210" lon="-6.0994310">
        <ele>20.8</ele>
        <time>2020-12-06T11:13:21Z</time>
      </trkpt>
      <trkpt lat="36.6815010" lon="-6.0994780">
        <ele>19.6</ele>
        <time>2020-12-06T11:13:25Z</time>
      </trkpt>
      <trkpt lat="36.6812960" lon="-6.0995010">
        <ele>18.6</ele>
        <time>2020-12-06T11:13:27Z</time>
      </trkpt>
      <trkpt lat="36.6811960" lon="-6.0995140">
        <ele>17.4</ele>
        <time>2020-12-06T11:13:28Z</time>
      </trkpt>
      <trkpt lat="36.6810000" lon="-6.0995400">
        <ele>16.0</ele>
        <time>2020-12-06T11:13:30Z</time>
      </trkpt>
      <trkpt lat="36.6807230" lon="-6.0995730">
        <ele>15.0</ele>
        <time>2020-12-06T11:13:33Z</time>
      </trkpt>
      <trkpt lat="36.6805690" lon="-6.0996050">
        <ele>14.8</ele>
        <time>2020-12-06T11:13:35Z</time>
      </trkpt>
      <trkpt lat="36.6803770" lon="-6.0997360">
        <ele>14.4</ele>
        <time>2020-12-06T11:13:38Z</time>
      </trkpt>
      <trkpt lat="36.6801560" lon="-6.0997780">
        <ele>14.0</ele>
        <time>2020-12-06T11:13:41Z</time>
      </trkpt>
      <trkpt lat="36.6800790" lon="-6.0997670">
        <ele>13.8</ele>
        <time>2020-12-06T11:13:42Z</time>
      </trkpt>
      <trkpt lat="36.6800030" lon="-6.0997620">
        <ele>13.8</ele>
        <time>2020-12-06T11:13:43Z</time>
      </trkpt>
      <trkpt lat="36.6798580" lon="-6.0998080">
        <ele>13.8</ele>
        <time>2020-12-06T11:13:45Z</time>
      </trkpt>
      <trkpt lat="36.6794140" lon="-6.1001410">
        <ele>13.8</ele>
        <time>2020-12-06T11:13:52Z</time>
      </trkpt>
      <trkpt lat="36.6790220" lon="-6.1004780">
        <ele>14.0</ele>
        <time>2020-12-06T11:13:59Z</time>
      </trkpt>
      <trkpt lat="36.6787390" lon="-6.1007920">
        <ele>15.0</ele>
        <time>2020-12-06T11:14:05Z</time>
      </trkpt>
      <trkpt lat="36.6786500" lon="-6.1008980">
        <ele>15.4</ele>
        <time>2020-12-06T11:14:07Z</time>
      </trkpt>
      <trkpt lat="36.6784900" lon="-6.1011100">
        <ele>16.4</ele>
        <time>2020-12-06T11:14:11Z</time>
      </trkpt>
      <trkpt lat="36.6783470" lon="-6.1013180">
        <ele>17.0</ele>
        <time>2020-12-06T11:14:15Z</time>
      </trkpt>
      <trkpt lat="36.6782780" lon="-6.1014230">
        <ele>17.4</ele>
        <time>2020-12-06T11:14:17Z</time>
      </trkpt>
      <trkpt lat="36.6780570" lon="-6.1018020">
        <ele>18.8</ele>
        <time>2020-12-06T11:14:24Z</time>
      </trkpt>
      <trkpt lat="36.6779740" lon="-6.1019720">
        <ele>19.8</ele>
        <time>2020-12-06T11:14:27Z</time>
      </trkpt>
      <trkpt lat="36.6778430" lon="-6.1022480">
        <ele>21.0</ele>
        <time>2020-12-06T11:14:32Z</time>
      </trkpt>
      <trkpt lat="36.6776750" lon="-6.1026430">
        <ele>22.0</ele>
        <time>2020-12-06T11:14:39Z</time>
      </trkpt>
      <trkpt lat="36.6776020" lon="-6.1028150">
        <ele>22.4</ele>
        <time>2020-12-06T11:14:42Z</time>
      </trkpt>
      <trkpt lat="36.6775020" lon="-6.1030530">
        <ele>23.2</ele>
        <time>2020-12-06T11:14:46Z</time>
      </trkpt>
      <trkpt lat="36.6773740" lon="-6.1033520">
        <ele>24.2</ele>
        <time>2020-12-06T11:14:51Z</time>
      </trkpt>
      <trkpt lat="36.6773220" lon="-6.1034760">
        <ele>24.4</ele>
        <time>2020-12-06T11:14:53Z</time>
      </trkpt>
      <trkpt lat="36.6771690" lon="-6.1038490">
        <ele>25.4</ele>
        <time>2020-12-06T11:14:59Z</time>
      </trkpt>
      <trkpt lat="36.6770320" lon="-6.1041660">
        <ele>26.2</ele>
        <time>2020-12-06T11:15:04Z</time>
      </trkpt>
      <trkpt lat="36.6770030" lon="-6.1042300">
        <ele>26.4</ele>
        <time>2020-12-06T11:15:05Z</time>
      </trkpt>
      <trkpt lat="36.6767820" lon="-6.1047400">
        <ele>26.6</ele>
        <time>2020-12-06T11:15:13Z</time>
      </trkpt>
      <trkpt lat="36.6765520" lon="-6.1053060">
        <ele>27.4</ele>
        <time>2020-12-06T11:15:22Z</time>
      </trkpt>
      <trkpt lat="36.6765620" lon="-6.1055080">
        <ele>27.6</ele>
        <time>2020-12-06T11:15:25Z</time>
      </trkpt>
      <trkpt lat="36.6765690" lon="-6.1055760">
        <ele>27.8</ele>
        <time>2020-12-06T11:15:26Z</time>
      </trkpt>
      <trkpt lat="36.6765370" lon="-6.1057050">
        <ele>28.0</ele>
        <time>2020-12-06T11:15:28Z</time>
      </trkpt>
      <trkpt lat="36.6764540" lon="-6.1057950">
        <ele>28.4</ele>
        <time>2020-12-06T11:15:30Z</time>
      </trkpt>
      <trkpt lat="36.6764000" lon="-6.1058230">
        <ele>28.6</ele>
        <time>2020-12-06T11:15:31Z</time>
      </trkpt>
      <trkpt lat="36.6763410" lon="-6.1058460">
        <ele>28.8</ele>
        <time>2020-12-06T11:15:32Z</time>
      </trkpt>
      <trkpt lat="36.6762830" lon="-6.1058730">
        <ele>29.0</ele>
        <time>2020-12-06T11:15:33Z</time>
      </trkpt>
      <trkpt lat="36.6761760" lon="-6.1059640">
        <ele>29.0</ele>
        <time>2020-12-06T11:15:35Z</time>
      </trkpt>
      <trkpt lat="36.6760940" lon="-6.1060860">
        <ele>29.2</ele>
        <time>2020-12-06T11:15:37Z</time>
      </trkpt>
      <trkpt lat="36.6759360" lon="-6.1063360">
        <ele>29.4</ele>
        <time>2020-12-06T11:15:41Z</time>
      </trkpt>
      <trkpt lat="36.6758560" lon="-6.1064610">
        <ele>29.4</ele>
        <time>2020-12-06T11:15:43Z</time>
      </trkpt>
      <trkpt lat="36.6755670" lon="-6.1069090">
        <ele>29.8</ele>
        <time>2020-12-06T11:15:50Z</time>
      </trkpt>
      <trkpt lat="36.6752210" lon="-6.1074340">
        <ele>30.4</ele>
        <time>2020-12-06T11:15:58Z</time>
      </trkpt>
      <trkpt lat="36.6751350" lon="-6.1075700">
        <ele>30.4</ele>
        <time>2020-12-06T11:16:00Z</time>
      </trkpt>
      <trkpt lat="36.6747800" lon="-6.1081160">
        <ele>30.4</ele>
        <time>2020-12-06T11:16:08Z</time>
      </trkpt>
      <trkpt lat="36.6746930" lon="-6.1082560">
        <ele>30.4</ele>
        <time>2020-12-06T11:16:10Z</time>
      </trkpt>
      <trkpt lat="36.6744290" lon="-6.1086660">
        <ele>30.6</ele>
        <time>2020-12-06T11:16:16Z</time>
      </trkpt>
      <trkpt lat="36.6743860" lon="-6.1087370">
        <ele>30.8</ele>
        <time>2020-12-06T11:16:17Z</time>
      </trkpt>
      <trkpt lat="36.6743060" lon="-6.1088830">
        <ele>30.8</ele>
        <time>2020-12-06T11:16:19Z</time>
      </trkpt>
      <trkpt lat="36.6742720" lon="-6.1089610">
        <ele>31.0</ele>
        <time>2020-12-06T11:16:20Z</time>
      </trkpt>
      <trkpt lat="36.6742190" lon="-6.1091240">
        <ele>31.0</ele>
        <time>2020-12-06T11:16:22Z</time>
      </trkpt>
      <trkpt lat="36.6741690" lon="-6.1094660">
        <ele>31.2</ele>
        <time>2020-12-06T11:16:26Z</time>
      </trkpt>
      <trkpt lat="36.6741650" lon="-6.1095510">
        <ele>31.4</ele>
        <time>2020-12-06T11:16:27Z</time>
      </trkpt>
      <trkpt lat="36.6741610" lon="-6.1098070">
        <ele>31.6</ele>
        <time>2020-12-06T11:16:30Z</time>
      </trkpt>
      <trkpt lat="36.6741480" lon="-6.1102320">
        <ele>32.0</ele>
        <time>2020-12-06T11:16:35Z</time>
      </trkpt>
      <trkpt lat="36.6741520" lon="-6.1105670">
        <ele>32.4</ele>
        <time>2020-12-06T11:16:39Z</time>
      </trkpt>
      <trkpt lat="36.6742110" lon="-6.1107170">
        <ele>32.6</ele>
        <time>2020-12-06T11:16:41Z</time>
      </trkpt>
      <trkpt lat="36.6742830" lon="-6.1109460">
        <ele>32.6</ele>
        <time>2020-12-06T11:16:44Z</time>
      </trkpt>
      <trkpt lat="36.6742040" lon="-6.1111720">
        <ele>32.6</ele>
        <time>2020-12-06T11:16:47Z</time>
      </trkpt>
      <trkpt lat="36.6741610" lon="-6.1112380">
        <ele>32.6</ele>
        <time>2020-12-06T11:16:48Z</time>
      </trkpt>
      <trkpt lat="36.6741270" lon="-6.1113120">
        <ele>32.8</ele>
        <time>2020-12-06T11:16:49Z</time>
      </trkpt>
      <trkpt lat="36.6741050" lon="-6.1114800">
        <ele>32.8</ele>
        <time>2020-12-06T11:16:51Z</time>
      </trkpt>
      <trkpt lat="36.6740710" lon="-6.1121750">
        <ele>33.0</ele>
        <time>2020-12-06T11:16:59Z</time>
      </trkpt>
      <trkpt lat="36.6740210" lon="-6.1128450">
        <ele>33.0</ele>
        <time>2020-12-06T11:17:07Z</time>
      </trkpt>
      <trkpt lat="36.6740080" lon="-6.1130110">
        <ele>33.0</ele>
        <time>2020-12-06T11:17:09Z</time>
      </trkpt>
      <trkpt lat="36.6739530" lon="-6.1136880">
        <ele>33.2</ele>
        <time>2020-12-06T11:17:17Z</time>
      </trkpt>
      <trkpt lat="36.6739180" lon="-6.1141240">
        <ele>33.6</ele>
        <time>2020-12-06T11:17:22Z</time>
      </trkpt>
      <trkpt lat="36.6739110" lon="-6.1142110">
        <ele>33.8</ele>
        <time>2020-12-06T11:17:23Z</time>
      </trkpt>
      <trkpt lat="36.6738580" lon="-6.1148900">
        <ele>34.2</ele>
        <time>2020-12-06T11:17:31Z</time>
      </trkpt>
      <trkpt lat="36.6738450" lon="-6.1150550">
        <ele>34.2</ele>
        <time>2020-12-06T11:17:33Z</time>
      </trkpt>
      <trkpt lat="36.6737890" lon="-6.1157820">
        <ele>35.0</ele>
        <time>2020-12-06T11:17:42Z</time>
      </trkpt>
      <trkpt lat="36.6737830" lon="-6.1158620">
        <ele>35.0</ele>
        <time>2020-12-06T11:17:43Z</time>
      </trkpt>
      <trkpt lat="36.6737670" lon="-6.1161020">
        <ele>36.0</ele>
        <time>2020-12-06T11:17:46Z</time>
      </trkpt>
      <trkpt lat="36.6737240" lon="-6.1166640">
        <ele>36.4</ele>
        <time>2020-12-06T11:17:53Z</time>
      </trkpt>
      <trkpt lat="36.6736810" lon="-6.1171430">
        <ele>37.0</ele>
        <time>2020-12-06T11:17:59Z</time>
      </trkpt>
      <trkpt lat="36.6736600" lon="-6.1173820">
        <ele>37.4</ele>
        <time>2020-12-06T11:18:02Z</time>
      </trkpt>
      <trkpt lat="36.6736260" lon="-6.1177750">
        <ele>38.0</ele>
        <time>2020-12-06T11:18:07Z</time>
      </trkpt>
      <trkpt lat="36.6736030" lon="-6.1180830">
        <ele>38.2</ele>
        <time>2020-12-06T11:18:11Z</time>
      </trkpt>
      <trkpt lat="36.6735910" lon="-6.1183760">
        <ele>38.4</ele>
        <time>2020-12-06T11:18:15Z</time>
      </trkpt>
      <trkpt lat="36.6736310" lon="-6.1185040">
        <ele>38.4</ele>
        <time>2020-12-06T11:18:17Z</time>
      </trkpt>
      <trkpt lat="36.6736880" lon="-6.1186190">
        <ele>38.6</ele>
        <time>2020-12-06T11:18:19Z</time>
      </trkpt>
      <trkpt lat="36.6737070" lon="-6.1187510">
        <ele>39.2</ele>
        <time>2020-12-06T11:18:21Z</time>
      </trkpt>
      <trkpt lat="36.6736360" lon="-6.1189380">
        <ele>40.0</ele>
        <time>2020-12-06T11:18:24Z</time>
      </trkpt>
      <trkpt lat="36.6736010" lon="-6.1189950">
        <ele>40.2</ele>
        <time>2020-12-06T11:18:25Z</time>
      </trkpt>
      <trkpt lat="36.6735310" lon="-6.1191080">
        <ele>40.4</ele>
        <time>2020-12-06T11:18:27Z</time>
      </trkpt>
      <trkpt lat="36.6734900" lon="-6.1192380">
        <ele>40.8</ele>
        <time>2020-12-06T11:18:29Z</time>
      </trkpt>
      <trkpt lat="36.6734410" lon="-6.1195040">
        <ele>41.4</ele>
        <time>2020-12-06T11:18:33Z</time>
      </trkpt>
      <trkpt lat="36.6733790" lon="-6.1198310">
        <ele>42.0</ele>
        <time>2020-12-06T11:18:38Z</time>
      </trkpt>
      <trkpt lat="36.6733380" lon="-6.1200270">
        <ele>42.8</ele>
        <time>2020-12-06T11:18:41Z</time>
      </trkpt>
      <trkpt lat="36.6732890" lon="-6.1202880">
        <ele>43.8</ele>
        <time>2020-12-06T11:18:45Z</time>
      </trkpt>
      <trkpt lat="36.6732620" lon="-6.1204180">
        <ele>44.0</ele>
        <time>2020-12-06T11:18:47Z</time>
      </trkpt>
      <trkpt lat="36.6732290" lon="-6.1206140">
        <ele>45.0</ele>
        <time>2020-12-06T11:18:50Z</time>
      </trkpt>
      <trkpt lat="36.6731800" lon="-6.1208740">
        <ele>46.0</ele>
        <time>2020-12-06T11:18:54Z</time>
      </trkpt>
      <trkpt lat="36.6731640" lon="-6.1210670">
        <ele>46.6</ele>
        <time>2020-12-06T11:18:57Z</time>
      </trkpt>
      <trkpt lat="36.6731600" lon="-6.1211970">
        <ele>47.0</ele>
        <time>2020-12-06T11:18:59Z</time>
      </trkpt>
      <trkpt lat="36.6731770" lon="-6.1216420">
        <ele>48.0</ele>
        <time>2020-12-06T11:19:06Z</time>
      </trkpt>
      <trkpt lat="36.6731900" lon="-6.1216990">
        <ele>48.2</ele>
        <time>2020-12-06T11:19:07Z</time>
      </trkpt>
      <trkpt lat="36.6732420" lon="-6.1217970">
        <ele>48.6</ele>
        <time>2020-12-06T11:19:09Z</time>
      </trkpt>
      <trkpt lat="36.6733140" lon="-6.1218730">
        <ele>49.2</ele>
        <time>2020-12-06T11:19:11Z</time>
      </trkpt>
      <trkpt lat="36.6733490" lon="-6.1219150">
        <ele>49.2</ele>
        <time>2020-12-06T11:19:12Z</time>
      </trkpt>
      <trkpt lat="36.6734030" lon="-6.1220180">
        <ele>49.4</ele>
        <time>2020-12-06T11:19:14Z</time>
      </trkpt>
      <trkpt lat="36.6734360" lon="-6.1222680">
        <ele>50.4</ele>
        <time>2020-12-06T11:19:18Z</time>
      </trkpt>
      <trkpt lat="36.6734110" lon="-6.1223980">
        <ele>50.8</ele>
        <time>2020-12-06T11:19:20Z</time>
      </trkpt>
      <trkpt lat="36.6733920" lon="-6.1224610">
        <ele>50.8</ele>
        <time>2020-12-06T11:19:21Z</time>
      </trkpt>
      <trkpt lat="36.6733390" lon="-6.1225720">
        <ele>51.0</ele>
        <time>2020-12-06T11:19:23Z</time>
      </trkpt>
      <trkpt lat="36.6732690" lon="-6.1226660">
        <ele>51.4</ele>
        <time>2020-12-06T11:19:25Z</time>
      </trkpt>
      <trkpt lat="36.6732290" lon="-6.1227740">
        <ele>51.8</ele>
        <time>2020-12-06T11:19:27Z</time>
      </trkpt>
      <trkpt lat="36.6732300" lon="-6.1229490">
        <ele>52.0</ele>
        <time>2020-12-06T11:19:30Z</time>
      </trkpt>
      <trkpt lat="36.6732340" lon="-6.1230120">
        <ele>52.2</ele>
        <time>2020-12-06T11:19:31Z</time>
      </trkpt>
      <trkpt lat="36.6732380" lon="-6.1230760">
        <ele>52.4</ele>
        <time>2020-12-06T11:19:32Z</time>
      </trkpt>
      <trkpt lat="36.6732700" lon="-6.1235440">
        <ele>53.0</ele>
        <time>2020-12-06T11:19:39Z</time>
      </trkpt>
      <trkpt lat="36.6734010" lon="-6.1236930">
        <ele>53.0</ele>
        <time>2020-12-06T11:19:42Z</time>
      </trkpt>
      <trkpt lat="36.6734600" lon="-6.1237260">
        <ele>53.0</ele>
        <time>2020-12-06T11:19:43Z</time>
      </trkpt>
      <trkpt lat="36.6739730" lon="-6.1240610">
        <ele>52.2</ele>
        <time>2020-12-06T11:19:52Z</time>
      </trkpt>
      <trkpt lat="36.6741350" lon="-6.1243060">
        <ele>51.8</ele>
        <time>2020-12-06T11:19:56Z</time>
      </trkpt>
      <trkpt lat="36.6741850" lon="-6.1244660">
        <ele>51.8</ele>
        <time>2020-12-06T11:19:58Z</time>
      </trkpt>
      <trkpt lat="36.6742730" lon="-6.1247860">
        <ele>51.6</ele>
        <time>2020-12-06T11:20:02Z</time>
      </trkpt>
      <trkpt lat="36.6744730" lon="-6.1254550">
        <ele>51.4</ele>
        <time>2020-12-06T11:20:11Z</time>
      </trkpt>
      <trkpt lat="36.6746700" lon="-6.1258360">
        <ele>51.4</ele>
        <time>2020-12-06T11:20:17Z</time>
      </trkpt>
      <trkpt lat="36.6749120" lon="-6.1262300">
        <ele>51.4</ele>
        <time>2020-12-06T11:20:24Z</time>
      </trkpt>
      <trkpt lat="36.6751750" lon="-6.1266740">
        <ele>52.6</ele>
        <time>2020-12-06T11:20:32Z</time>
      </trkpt>
      <trkpt lat="36.6753740" lon="-6.1270040">
        <ele>53.0</ele>
        <time>2020-12-06T11:20:38Z</time>
      </trkpt>
      <trkpt lat="36.6755410" lon="-6.1272830">
        <ele>53.4</ele>
        <time>2020-12-06T11:20:43Z</time>
      </trkpt>
      <trkpt lat="36.6755810" lon="-6.1273390">
        <ele>53.4</ele>
        <time>2020-12-06T11:20:44Z</time>
      </trkpt>
      <trkpt lat="36.6758370" lon="-6.1276780">
        <ele>53.8</ele>
        <time>2020-12-06T11:20:50Z</time>
      </trkpt>
      <trkpt lat="36.6759230" lon="-6.1277920">
        <ele>53.8</ele>
        <time>2020-12-06T11:20:52Z</time>
      </trkpt>
      <trkpt lat="36.6761140" lon="-6.1280020">
        <ele>53.6</ele>
        <time>2020-12-06T11:20:56Z</time>
      </trkpt>
      <trkpt lat="36.6764570" lon="-6.1284610">
        <ele>53.0</ele>
        <time>2020-12-06T11:21:04Z</time>
      </trkpt>
      <trkpt lat="36.6764950" lon="-6.1285240">
        <ele>53.0</ele>
        <time>2020-12-06T11:21:05Z</time>
      </trkpt>
      <trkpt lat="36.6766810" lon="-6.1288380">
        <ele>53.0</ele>
        <time>2020-12-06T11:21:10Z</time>
      </trkpt>
      <trkpt lat="36.6769040" lon="-6.1292350">
        <ele>52.8</ele>
        <time>2020-12-06T11:21:17Z</time>
      </trkpt>
      <trkpt lat="36.6770730" lon="-6.1295810">
        <ele>53.2</ele>
        <time>2020-12-06T11:21:23Z</time>
      </trkpt>
      <trkpt lat="36.6771730" lon="-6.1297400">
        <ele>53.2</ele>
        <time>2020-12-06T11:21:26Z</time>
      </trkpt>
      <trkpt lat="36.6773240" lon="-6.1299390">
        <ele>53.4</ele>
        <time>2020-12-06T11:21:30Z</time>
      </trkpt>
      <trkpt lat="36.6775160" lon="-6.1301930">
        <ele>53.6</ele>
        <time>2020-12-06T11:21:35Z</time>
      </trkpt>
      <trkpt lat="36.6775860" lon="-6.1303060">
        <ele>53.6</ele>
        <time>2020-12-06T11:21:37Z</time>
      </trkpt>
      <trkpt lat="36.6776670" lon="-6.1304570">
        <ele>53.6</ele>
        <time>2020-12-06T11:21:40Z</time>
      </trkpt>
      <trkpt lat="36.6775950" lon="-6.1306590">
        <ele>53.6</ele>
        <time>2020-12-06T11:21:43Z</time>
      </trkpt>
      <trkpt lat="36.6774770" lon="-6.1307850">
        <ele>53.6</ele>
        <time>2020-12-06T11:21:45Z</time>
      </trkpt>
      <trkpt lat="36.6773390" lon="-6.1309090">
        <ele>53.6</ele>
        <time>2020-12-06T11:21:47Z</time>
      </trkpt>
      <trkpt lat="36.6769940" lon="-6.1312580">
        <ele>52.0</ele>
        <time>2020-12-06T11:21:52Z</time>
      </trkpt>
      <trkpt lat="36.6768860" lon="-6.1315530">
        <ele>50.6</ele>
        <time>2020-12-06T11:21:55Z</time>
      </trkpt>
      <trkpt lat="36.6768640" lon="-6.1316580">
        <ele>50.0</ele>
        <time>2020-12-06T11:21:56Z</time>
      </trkpt>
      <trkpt lat="36.6768410" lon="-6.1317610">
        <ele>49.6</ele>
        <time>2020-12-06T11:21:57Z</time>
      </trkpt>
      <trkpt lat="36.6767510" lon="-6.1321690">
        <ele>48.4</ele>
        <time>2020-12-06T11:22:01Z</time>
      </trkpt>
      <trkpt lat="36.6767010" lon="-6.1323680">
        <ele>47.8</ele>
        <time>2020-12-06T11:22:03Z</time>
      </trkpt>
      <trkpt lat="36.6766310" lon="-6.1326590">
        <ele>47.2</ele>
        <time>2020-12-06T11:22:06Z</time>
      </trkpt>
      <trkpt lat="36.6765410" lon="-6.1330370">
        <ele>47.2</ele>
        <time>2020-12-06T11:22:10Z</time>
      </trkpt>
      <trkpt lat="36.6765150" lon="-6.1332250">
        <ele>47.2</ele>
        <time>2020-12-06T11:22:12Z</time>
      </trkpt>
      <trkpt lat="36.6765260" lon="-6.1334100">
        <ele>47.2</ele>
        <time>2020-12-06T11:22:14Z</time>
      </trkpt>
      <trkpt lat="36.6765840" lon="-6.1336330">
        <ele>47.2</ele>
        <time>2020-12-06T11:22:17Z</time>
      </trkpt>
      <trkpt lat="36.6766050" lon="-6.1337020">
        <ele>47.2</ele>
        <time>2020-12-06T11:22:18Z</time>
      </trkpt>
      <trkpt lat="36.6766240" lon="-6.1337760">
        <ele>47.2</ele>
        <time>2020-12-06T11:22:19Z</time>
      </trkpt>
      <trkpt lat="36.6766900" lon="-6.1340800">
        <ele>47.2</ele>
        <time>2020-12-06T11:22:23Z</time>
      </trkpt>
      <trkpt lat="36.6767560" lon="-6.1343170">
        <ele>47.2</ele>
        <time>2020-12-06T11:22:27Z</time>
      </trkpt>
      <trkpt lat="36.6768960" lon="-6.1347520">
        <ele>47.8</ele>
        <time>2020-12-06T11:22:34Z</time>
      </trkpt>
      <trkpt lat="36.6770840" lon="-6.1353470">
        <ele>48.2</ele>
        <time>2020-12-06T11:22:43Z</time>
      </trkpt>
      <trkpt lat="36.6771070" lon="-6.1354140">
        <ele>48.4</ele>
        <time>2020-12-06T11:22:44Z</time>
      </trkpt>
      <trkpt lat="36.6772550" lon="-6.1357430">
        <ele>49.4</ele>
        <time>2020-12-06T11:22:49Z</time>
      </trkpt>
      <trkpt lat="36.6774260" lon="-6.1360730">
        <ele>49.4</ele>
        <time>2020-12-06T11:22:54Z</time>
      </trkpt>
      <trkpt lat="36.6774980" lon="-6.1362030">
        <ele>49.6</ele>
        <time>2020-12-06T11:22:56Z</time>
      </trkpt>
      <trkpt lat="36.6777960" lon="-6.1367750">
        <ele>49.6</ele>
        <time>2020-12-06T11:23:05Z</time>
      </trkpt>
      <trkpt lat="36.6779970" lon="-6.1371950">
        <ele>49.2</ele>
        <time>2020-12-06T11:23:12Z</time>
      </trkpt>
      <trkpt lat="36.6780970" lon="-6.1372150">
        <ele>49.2</ele>
        <time>2020-12-06T11:23:15Z</time>
      </trkpt>
      <trkpt lat="36.6781160" lon="-6.1371880">
        <ele>49.2</ele>
        <time>2020-12-06T11:23:16Z</time>
      </trkpt>
    </trkseg>
  </trk>
</gpx>
